<?xml version="1.0" encoding="UTF-8" standalone="no" ?>
<gpx xmlns="http://www.topografix.com/GPX/1/1" xmlns:xsi="http://www.w3.org/2001/XMLSchema-instance" xsi:schemaLocation="http://www.topografix.com/GPX/1/1 http://www.topografix.com/GPX/1/1/gpx.xsd" version="1.1" creator="VisuGPX - https://www.visugpx.com">
  <metadata>
    <name>Lucéram, Sospel, Lucéram</name>
    <desc><![CDATA[Randonnée ASCVTT du 11/1/2014.
Dénivélé relevé sur le terrain : 1.550 m, dont 300 m de portage.
CR : [url]http://www.ascvtt.com/2014/01/12/luceram-sospel-luceram/#more-8104[/url] ]]></desc>
  </metadata>
  <trk>
    <name><![CDATA[L - Lucéram, Sospel, Lucéram]]></name>
    <trkseg>
      <trkpt lat="43.8853" lon="7.36029">
        <ele>663.57238769531</ele>
        <time>2014-01-11T07:50:44Z</time>
      </trkpt>
      <trkpt lat="43.8853" lon="7.36029">
        <ele>663.41943359375</ele>
        <time>2014-01-11T07:50:45Z</time>
      </trkpt>
      <trkpt lat="43.8853" lon="7.36029">
        <ele>663.50915527344</ele>
        <time>2014-01-11T07:50:46Z</time>
      </trkpt>
      <trkpt lat="43.88531" lon="7.36022">
        <ele>666.75225830078</ele>
        <time>2014-01-11T07:50:51Z</time>
      </trkpt>
      <trkpt lat="43.88541" lon="7.36014">
        <ele>670.79956054688</ele>
        <time>2014-01-11T07:50:57Z</time>
      </trkpt>
      <trkpt lat="43.88544" lon="7.36013">
        <ele>671.14581298828</ele>
        <time>2014-01-11T07:50:59Z</time>
      </trkpt>
      <trkpt lat="43.88547" lon="7.36013">
        <ele>671.02526855469</ele>
        <time>2014-01-11T07:51:01Z</time>
      </trkpt>
      <trkpt lat="43.88549" lon="7.36013">
        <ele>671.05084228516</ele>
        <time>2014-01-11T07:51:02Z</time>
      </trkpt>
      <trkpt lat="43.88554" lon="7.36012">
        <ele>671.19799804688</ele>
        <time>2014-01-11T07:51:05Z</time>
      </trkpt>
      <trkpt lat="43.88558" lon="7.3601">
        <ele>672.29449462891</ele>
        <time>2014-01-11T07:51:08Z</time>
      </trkpt>
      <trkpt lat="43.88567" lon="7.36005">
        <ele>673.92156982422</ele>
        <time>2014-01-11T07:51:14Z</time>
      </trkpt>
      <trkpt lat="43.88577" lon="7.36001">
        <ele>673.37359619141</ele>
        <time>2014-01-11T07:51:21Z</time>
      </trkpt>
      <trkpt lat="43.88584" lon="7.35996">
        <ele>673.88977050781</ele>
        <time>2014-01-11T07:51:26Z</time>
      </trkpt>
      <trkpt lat="43.88596" lon="7.35993">
        <ele>669.70587158203</ele>
        <time>2014-01-11T07:51:33Z</time>
      </trkpt>
      <trkpt lat="43.88611" lon="7.35984">
        <ele>665.63635253906</ele>
        <time>2014-01-11T07:51:42Z</time>
      </trkpt>
      <trkpt lat="43.88622" lon="7.35974">
        <ele>667.32403564453</ele>
        <time>2014-01-11T07:51:50Z</time>
      </trkpt>
      <trkpt lat="43.88636" lon="7.35943">
        <ele>673.91674804688</ele>
        <time>2014-01-11T07:51:58Z</time>
      </trkpt>
      <trkpt lat="43.88647" lon="7.35932">
        <ele>676.24249267578</ele>
        <time>2014-01-11T07:52:04Z</time>
      </trkpt>
      <trkpt lat="43.88656" lon="7.35924">
        <ele>678.28942871094</ele>
        <time>2014-01-11T07:52:09Z</time>
      </trkpt>
      <trkpt lat="43.88664" lon="7.35905">
        <ele>679.99017333984</ele>
        <time>2014-01-11T07:52:17Z</time>
      </trkpt>
      <trkpt lat="43.88675" lon="7.35889">
        <ele>679.98999023438</ele>
        <time>2014-01-11T07:52:25Z</time>
      </trkpt>
      <trkpt lat="43.88691" lon="7.3588">
        <ele>680.29187011719</ele>
        <time>2014-01-11T07:52:34Z</time>
      </trkpt>
      <trkpt lat="43.88709" lon="7.35872">
        <ele>680</ele>
        <time>2014-01-11T07:52:44Z</time>
      </trkpt>
      <trkpt lat="43.8872" lon="7.35865">
        <ele>680</ele>
        <time>2014-01-11T07:52:50Z</time>
      </trkpt>
      <trkpt lat="43.88733" lon="7.3586">
        <ele>680.18072509766</ele>
        <time>2014-01-11T07:52:57Z</time>
      </trkpt>
      <trkpt lat="43.88732" lon="7.35867">
        <ele>680</ele>
        <time>2014-01-11T07:53:01Z</time>
      </trkpt>
      <trkpt lat="43.8873" lon="7.35868">
        <ele>680</ele>
        <time>2014-01-11T07:53:02Z</time>
      </trkpt>
      <trkpt lat="43.88713" lon="7.35879">
        <ele>680</ele>
        <time>2014-01-11T07:53:11Z</time>
      </trkpt>
      <trkpt lat="43.88697" lon="7.35894">
        <ele>680</ele>
        <time>2014-01-11T07:53:20Z</time>
      </trkpt>
      <trkpt lat="43.88683" lon="7.35912">
        <ele>679.64410400391</ele>
        <time>2014-01-11T07:53:29Z</time>
      </trkpt>
      <trkpt lat="43.88675" lon="7.35919">
        <ele>679.31109619141</ele>
        <time>2014-01-11T07:53:33Z</time>
      </trkpt>
      <trkpt lat="43.88657" lon="7.35938">
        <ele>677.21655273438</ele>
        <time>2014-01-11T07:53:43Z</time>
      </trkpt>
      <trkpt lat="43.88646" lon="7.35958">
        <ele>670.63757324219</ele>
        <time>2014-01-11T07:53:50Z</time>
      </trkpt>
      <trkpt lat="43.88637" lon="7.3598">
        <ele>664.25506591797</ele>
        <time>2014-01-11T07:53:57Z</time>
      </trkpt>
      <trkpt lat="43.88627" lon="7.36007">
        <ele>663.97857666016</ele>
        <time>2014-01-11T07:54:06Z</time>
      </trkpt>
      <trkpt lat="43.88628" lon="7.3601">
        <ele>664.99334716797</ele>
        <time>2014-01-11T07:54:07Z</time>
      </trkpt>
      <trkpt lat="43.88636" lon="7.36009">
        <ele>666.72894287109</ele>
        <time>2014-01-11T07:54:11Z</time>
      </trkpt>
      <trkpt lat="43.88641" lon="7.36002">
        <ele>665.73577880859</ele>
        <time>2014-01-11T07:54:14Z</time>
      </trkpt>
      <trkpt lat="43.88657" lon="7.35982">
        <ele>673.58081054688</ele>
        <time>2014-01-11T07:54:24Z</time>
      </trkpt>
      <trkpt lat="43.88675" lon="7.35966">
        <ele>679.50463867188</ele>
        <time>2014-01-11T07:54:35Z</time>
      </trkpt>
      <trkpt lat="43.88691" lon="7.35955">
        <ele>680.75048828125</ele>
        <time>2014-01-11T07:54:44Z</time>
      </trkpt>
      <trkpt lat="43.88705" lon="7.35942">
        <ele>680.72857666016</ele>
        <time>2014-01-11T07:54:53Z</time>
      </trkpt>
      <trkpt lat="43.88721" lon="7.3593">
        <ele>680.93151855469</ele>
        <time>2014-01-11T07:55:03Z</time>
      </trkpt>
      <trkpt lat="43.88737" lon="7.35923">
        <ele>680.86260986328</ele>
        <time>2014-01-11T07:55:12Z</time>
      </trkpt>
      <trkpt lat="43.88752" lon="7.35916">
        <ele>680.16943359375</ele>
        <time>2014-01-11T07:55:21Z</time>
      </trkpt>
      <trkpt lat="43.88765" lon="7.35915">
        <ele>681.53649902344</ele>
        <time>2014-01-11T07:55:29Z</time>
      </trkpt>
      <trkpt lat="43.88785" lon="7.35915">
        <ele>682.53625488281</ele>
        <time>2014-01-11T07:55:40Z</time>
      </trkpt>
      <trkpt lat="43.88805" lon="7.35919">
        <ele>682.92797851562</ele>
        <time>2014-01-11T07:55:51Z</time>
      </trkpt>
      <trkpt lat="43.8882" lon="7.35928">
        <ele>686.28088378906</ele>
        <time>2014-01-11T07:55:59Z</time>
      </trkpt>
      <trkpt lat="43.88835" lon="7.35926">
        <ele>685.42578125</ele>
        <time>2014-01-11T07:56:06Z</time>
      </trkpt>
      <trkpt lat="43.88847" lon="7.35918">
        <ele>683.68658447266</ele>
        <time>2014-01-11T07:56:13Z</time>
      </trkpt>
      <trkpt lat="43.88863" lon="7.3591">
        <ele>685.00659179688</ele>
        <time>2014-01-11T07:56:22Z</time>
      </trkpt>
      <trkpt lat="43.88881" lon="7.35903">
        <ele>686.86901855469</ele>
        <time>2014-01-11T07:56:32Z</time>
      </trkpt>
      <trkpt lat="43.88897" lon="7.35896">
        <ele>687.67584228516</ele>
        <time>2014-01-11T07:56:41Z</time>
      </trkpt>
      <trkpt lat="43.88919" lon="7.3589">
        <ele>690.65863037109</ele>
        <time>2014-01-11T07:56:53Z</time>
      </trkpt>
      <trkpt lat="43.88939" lon="7.35884">
        <ele>693.11999511719</ele>
        <time>2014-01-11T07:57:04Z</time>
      </trkpt>
      <trkpt lat="43.88953" lon="7.35879">
        <ele>695.51306152344</ele>
        <time>2014-01-11T07:57:12Z</time>
      </trkpt>
      <trkpt lat="43.88967" lon="7.35877">
        <ele>698.45422363281</ele>
        <time>2014-01-11T07:57:20Z</time>
      </trkpt>
      <trkpt lat="43.88987" lon="7.35874">
        <ele>701.80535888672</ele>
        <time>2014-01-11T07:57:31Z</time>
      </trkpt>
      <trkpt lat="43.89005" lon="7.35867">
        <ele>703.15612792969</ele>
        <time>2014-01-11T07:57:40Z</time>
      </trkpt>
      <trkpt lat="43.89022" lon="7.3586">
        <ele>704.96771240234</ele>
        <time>2014-01-11T07:57:48Z</time>
      </trkpt>
      <trkpt lat="43.89039" lon="7.35856">
        <ele>707.88928222656</ele>
        <time>2014-01-11T07:57:57Z</time>
      </trkpt>
      <trkpt lat="43.89058" lon="7.35852">
        <ele>710.68823242188</ele>
        <time>2014-01-11T07:58:07Z</time>
      </trkpt>
      <trkpt lat="43.89073" lon="7.35845">
        <ele>713.73760986328</ele>
        <time>2014-01-11T07:58:15Z</time>
      </trkpt>
      <trkpt lat="43.89089" lon="7.35833">
        <ele>716.70678710938</ele>
        <time>2014-01-11T07:58:24Z</time>
      </trkpt>
      <trkpt lat="43.89104" lon="7.35812">
        <ele>719.41522216797</ele>
        <time>2014-01-11T07:58:35Z</time>
      </trkpt>
      <trkpt lat="43.89116" lon="7.35797">
        <ele>720</ele>
        <time>2014-01-11T07:58:43Z</time>
      </trkpt>
      <trkpt lat="43.89123" lon="7.35781">
        <ele>720</ele>
        <time>2014-01-11T07:58:50Z</time>
      </trkpt>
      <trkpt lat="43.89128" lon="7.35782">
        <ele>720</ele>
        <time>2014-01-11T07:58:54Z</time>
      </trkpt>
      <trkpt lat="43.89124" lon="7.35794">
        <ele>720</ele>
        <time>2014-01-11T07:58:59Z</time>
      </trkpt>
      <trkpt lat="43.89111" lon="7.35816">
        <ele>719.62573242188</ele>
        <time>2014-01-11T07:59:09Z</time>
      </trkpt>
      <trkpt lat="43.89098" lon="7.35834">
        <ele>717.60870361328</ele>
        <time>2014-01-11T07:59:18Z</time>
      </trkpt>
      <trkpt lat="43.89085" lon="7.35849">
        <ele>715.12658691406</ele>
        <time>2014-01-11T07:59:27Z</time>
      </trkpt>
      <trkpt lat="43.8908" lon="7.35861">
        <ele>713.35546875</ele>
        <time>2014-01-11T07:59:32Z</time>
      </trkpt>
      <trkpt lat="43.89073" lon="7.35887">
        <ele>714.34906005859</ele>
        <time>2014-01-11T07:59:42Z</time>
      </trkpt>
      <trkpt lat="43.89072" lon="7.35907">
        <ele>715.86999511719</ele>
        <time>2014-01-11T07:59:50Z</time>
      </trkpt>
      <trkpt lat="43.89078" lon="7.35926">
        <ele>718.37780761719</ele>
        <time>2014-01-11T07:59:58Z</time>
      </trkpt>
      <trkpt lat="43.89078" lon="7.35946">
        <ele>720.64111328125</ele>
        <time>2014-01-11T08:00:05Z</time>
      </trkpt>
      <trkpt lat="43.89076" lon="7.35965">
        <ele>725.28112792969</ele>
        <time>2014-01-11T08:00:12Z</time>
      </trkpt>
      <trkpt lat="43.89085" lon="7.35968">
        <ele>727.67071533203</ele>
        <time>2014-01-11T08:00:17Z</time>
      </trkpt>
      <trkpt lat="43.89088" lon="7.35959">
        <ele>727.54656982422</ele>
        <time>2014-01-11T08:00:20Z</time>
      </trkpt>
      <trkpt lat="43.89093" lon="7.35931">
        <ele>726.20745849609</ele>
        <time>2014-01-11T08:00:30Z</time>
      </trkpt>
      <trkpt lat="43.89103" lon="7.35912">
        <ele>729.34539794922</ele>
        <time>2014-01-11T08:00:38Z</time>
      </trkpt>
      <trkpt lat="43.89116" lon="7.35893">
        <ele>731.49298095703</ele>
        <time>2014-01-11T08:00:48Z</time>
      </trkpt>
      <trkpt lat="43.89127" lon="7.35879">
        <ele>732.07446289062</ele>
        <time>2014-01-11T08:00:56Z</time>
      </trkpt>
      <trkpt lat="43.89141" lon="7.35863">
        <ele>732.89190673828</ele>
        <time>2014-01-11T08:01:06Z</time>
      </trkpt>
      <trkpt lat="43.89154" lon="7.35849">
        <ele>733.2412109375</ele>
        <time>2014-01-11T08:01:15Z</time>
      </trkpt>
      <trkpt lat="43.89165" lon="7.35838">
        <ele>733.25366210938</ele>
        <time>2014-01-11T08:01:23Z</time>
      </trkpt>
      <trkpt lat="43.89179" lon="7.35822">
        <ele>733.81762695312</ele>
        <time>2014-01-11T08:01:33Z</time>
      </trkpt>
      <trkpt lat="43.89191" lon="7.35812">
        <ele>735.36267089844</ele>
        <time>2014-01-11T08:01:41Z</time>
      </trkpt>
      <trkpt lat="43.89212" lon="7.35799">
        <ele>740.00537109375</ele>
        <time>2014-01-11T08:01:53Z</time>
      </trkpt>
      <trkpt lat="43.89225" lon="7.35792">
        <ele>744.99304199219</ele>
        <time>2014-01-11T08:02:01Z</time>
      </trkpt>
      <trkpt lat="43.89237" lon="7.35783">
        <ele>750.16143798828</ele>
        <time>2014-01-11T08:02:09Z</time>
      </trkpt>
      <trkpt lat="43.89249" lon="7.35773">
        <ele>755.96197509766</ele>
        <time>2014-01-11T08:02:17Z</time>
      </trkpt>
      <trkpt lat="43.89263" lon="7.35764">
        <ele>758.85913085938</ele>
        <time>2014-01-11T08:02:25Z</time>
      </trkpt>
      <trkpt lat="43.89278" lon="7.35752">
        <ele>761.74621582031</ele>
        <time>2014-01-11T08:02:35Z</time>
      </trkpt>
      <trkpt lat="43.89288" lon="7.35745">
        <ele>764.01953125</ele>
        <time>2014-01-11T08:02:41Z</time>
      </trkpt>
      <trkpt lat="43.89302" lon="7.3573">
        <ele>765.36767578125</ele>
        <time>2014-01-11T08:02:51Z</time>
      </trkpt>
      <trkpt lat="43.89315" lon="7.3571">
        <ele>765.52563476562</ele>
        <time>2014-01-11T08:03:01Z</time>
      </trkpt>
      <trkpt lat="43.89328" lon="7.35683">
        <ele>764.48596191406</ele>
        <time>2014-01-11T08:03:12Z</time>
      </trkpt>
      <trkpt lat="43.89331" lon="7.35658">
        <ele>761.21484375</ele>
        <time>2014-01-11T08:03:20Z</time>
      </trkpt>
      <trkpt lat="43.89333" lon="7.35648">
        <ele>760.65911865234</ele>
        <time>2014-01-11T08:03:23Z</time>
      </trkpt>
      <trkpt lat="43.89338" lon="7.3565">
        <ele>761.84948730469</ele>
        <time>2014-01-11T08:03:27Z</time>
      </trkpt>
      <trkpt lat="43.89338" lon="7.35652">
        <ele>762.09802246094</ele>
        <time>2014-01-11T08:03:28Z</time>
      </trkpt>
      <trkpt lat="43.89331" lon="7.35682">
        <ele>764.92254638672</ele>
        <time>2014-01-11T08:03:39Z</time>
      </trkpt>
      <trkpt lat="43.89326" lon="7.357">
        <ele>767.14569091797</ele>
        <time>2014-01-11T08:03:47Z</time>
      </trkpt>
      <trkpt lat="43.89318" lon="7.35714">
        <ele>767.37823486328</ele>
        <time>2014-01-11T08:03:55Z</time>
      </trkpt>
      <trkpt lat="43.89311" lon="7.35726">
        <ele>767.25457763672</ele>
        <time>2014-01-11T08:04:02Z</time>
      </trkpt>
      <trkpt lat="43.89302" lon="7.35744">
        <ele>769.12249755859</ele>
        <time>2014-01-11T08:04:11Z</time>
      </trkpt>
      <trkpt lat="43.89293" lon="7.35756">
        <ele>768.57110595703</ele>
        <time>2014-01-11T08:04:18Z</time>
      </trkpt>
      <trkpt lat="43.89277" lon="7.35774">
        <ele>767.77410888672</ele>
        <time>2014-01-11T08:04:28Z</time>
      </trkpt>
      <trkpt lat="43.89267" lon="7.35788">
        <ele>767.19512939453</ele>
        <time>2014-01-11T08:04:35Z</time>
      </trkpt>
      <trkpt lat="43.89265" lon="7.35796">
        <ele>768.4345703125</ele>
        <time>2014-01-11T08:04:38Z</time>
      </trkpt>
      <trkpt lat="43.89269" lon="7.358">
        <ele>771.25665283203</ele>
        <time>2014-01-11T08:04:42Z</time>
      </trkpt>
      <trkpt lat="43.89282" lon="7.35789">
        <ele>773.17987060547</ele>
        <time>2014-01-11T08:04:49Z</time>
      </trkpt>
      <trkpt lat="43.89292" lon="7.35776">
        <ele>773.21984863281</ele>
        <time>2014-01-11T08:04:56Z</time>
      </trkpt>
      <trkpt lat="43.89304" lon="7.35763">
        <ele>774.26025390625</ele>
        <time>2014-01-11T08:05:04Z</time>
      </trkpt>
      <trkpt lat="43.89316" lon="7.3575">
        <ele>776.12603759766</ele>
        <time>2014-01-11T08:05:12Z</time>
      </trkpt>
      <trkpt lat="43.89333" lon="7.35731">
        <ele>777.32080078125</ele>
        <time>2014-01-11T08:05:23Z</time>
      </trkpt>
      <trkpt lat="43.89347" lon="7.35717">
        <ele>777.25390625</ele>
        <time>2014-01-11T08:05:32Z</time>
      </trkpt>
      <trkpt lat="43.8936" lon="7.35706">
        <ele>778.19396972656</ele>
        <time>2014-01-11T08:05:40Z</time>
      </trkpt>
      <trkpt lat="43.89375" lon="7.35688">
        <ele>776.72180175781</ele>
        <time>2014-01-11T08:05:50Z</time>
      </trkpt>
      <trkpt lat="43.89385" lon="7.35678">
        <ele>775.91882324219</ele>
        <time>2014-01-11T08:05:56Z</time>
      </trkpt>
      <trkpt lat="43.8939" lon="7.35684">
        <ele>777.85729980469</ele>
        <time>2014-01-11T08:06:00Z</time>
      </trkpt>
      <trkpt lat="43.89386" lon="7.3569">
        <ele>778.50982666016</ele>
        <time>2014-01-11T08:06:03Z</time>
      </trkpt>
      <trkpt lat="43.8937" lon="7.35702">
        <ele>779.21240234375</ele>
        <time>2014-01-11T08:06:12Z</time>
      </trkpt>
      <trkpt lat="43.89359" lon="7.35716">
        <ele>779.94244384766</ele>
        <time>2014-01-11T08:06:20Z</time>
      </trkpt>
      <trkpt lat="43.89345" lon="7.35733">
        <ele>781.64166259766</ele>
        <time>2014-01-11T08:06:30Z</time>
      </trkpt>
      <trkpt lat="43.89335" lon="7.35748">
        <ele>783.193359375</ele>
        <time>2014-01-11T08:06:38Z</time>
      </trkpt>
      <trkpt lat="43.89324" lon="7.35766">
        <ele>783.56463623047</ele>
        <time>2014-01-11T08:06:47Z</time>
      </trkpt>
      <trkpt lat="43.89311" lon="7.35788">
        <ele>783.91955566406</ele>
        <time>2014-01-11T08:06:58Z</time>
      </trkpt>
      <trkpt lat="43.893" lon="7.35808">
        <ele>785.49652099609</ele>
        <time>2014-01-11T08:07:08Z</time>
      </trkpt>
      <trkpt lat="43.89287" lon="7.35829">
        <ele>786.81219482422</ele>
        <time>2014-01-11T08:07:18Z</time>
      </trkpt>
      <trkpt lat="43.89274" lon="7.3585">
        <ele>787.38006591797</ele>
        <time>2014-01-11T08:07:28Z</time>
      </trkpt>
      <trkpt lat="43.89261" lon="7.35873">
        <ele>788.25872802734</ele>
        <time>2014-01-11T08:07:38Z</time>
      </trkpt>
      <trkpt lat="43.89251" lon="7.3589">
        <ele>787.61700439453</ele>
        <time>2014-01-11T08:07:46Z</time>
      </trkpt>
      <trkpt lat="43.89241" lon="7.35906">
        <ele>786.90118408203</ele>
        <time>2014-01-11T08:07:54Z</time>
      </trkpt>
      <trkpt lat="43.89229" lon="7.35923">
        <ele>785.39953613281</ele>
        <time>2014-01-11T08:08:03Z</time>
      </trkpt>
      <trkpt lat="43.89216" lon="7.35943">
        <ele>784.60681152344</ele>
        <time>2014-01-11T08:08:13Z</time>
      </trkpt>
      <trkpt lat="43.89204" lon="7.35963">
        <ele>783.64398193359</ele>
        <time>2014-01-11T08:08:23Z</time>
      </trkpt>
      <trkpt lat="43.89195" lon="7.35982">
        <ele>782.95874023438</ele>
        <time>2014-01-11T08:08:32Z</time>
      </trkpt>
      <trkpt lat="43.89191" lon="7.36006">
        <ele>785.64721679688</ele>
        <time>2014-01-11T08:08:42Z</time>
      </trkpt>
      <trkpt lat="43.8919" lon="7.36028">
        <ele>788.69708251953</ele>
        <time>2014-01-11T08:08:51Z</time>
      </trkpt>
      <trkpt lat="43.89193" lon="7.3604">
        <ele>792.04461669922</ele>
        <time>2014-01-11T08:08:56Z</time>
      </trkpt>
      <trkpt lat="43.89197" lon="7.36065">
        <ele>799.92596435547</ele>
        <time>2014-01-11T08:09:06Z</time>
      </trkpt>
      <trkpt lat="43.89201" lon="7.36088">
        <ele>807.521484375</ele>
        <time>2014-01-11T08:09:15Z</time>
      </trkpt>
      <trkpt lat="43.89206" lon="7.3611">
        <ele>813.234375</ele>
        <time>2014-01-11T08:09:23Z</time>
      </trkpt>
      <trkpt lat="43.89217" lon="7.36131">
        <ele>824.67864990234</ele>
        <time>2014-01-11T08:09:32Z</time>
      </trkpt>
      <trkpt lat="43.89219" lon="7.36131">
        <ele>826.64831542969</ele>
        <time>2014-01-11T08:09:33Z</time>
      </trkpt>
      <trkpt lat="43.89224" lon="7.36123">
        <ele>832.15661621094</ele>
        <time>2014-01-11T08:09:38Z</time>
      </trkpt>
      <trkpt lat="43.89223" lon="7.36121">
        <ele>831.43048095703</ele>
        <time>2014-01-11T08:09:39Z</time>
      </trkpt>
      <trkpt lat="43.89212" lon="7.36094">
        <ele>819.826171875</ele>
        <time>2014-01-11T08:09:49Z</time>
      </trkpt>
      <trkpt lat="43.89209" lon="7.36076">
        <ele>815.28369140625</ele>
        <time>2014-01-11T08:09:56Z</time>
      </trkpt>
      <trkpt lat="43.89209" lon="7.36057">
        <ele>811.11547851562</ele>
        <time>2014-01-11T08:10:03Z</time>
      </trkpt>
      <trkpt lat="43.8921" lon="7.36033">
        <ele>804.94024658203</ele>
        <time>2014-01-11T08:10:12Z</time>
      </trkpt>
      <trkpt lat="43.89213" lon="7.36015">
        <ele>801.81262207031</ele>
        <time>2014-01-11T08:10:19Z</time>
      </trkpt>
      <trkpt lat="43.89221" lon="7.35998">
        <ele>800.66857910156</ele>
        <time>2014-01-11T08:10:27Z</time>
      </trkpt>
      <trkpt lat="43.89233" lon="7.35981">
        <ele>806.74298095703</ele>
        <time>2014-01-11T08:10:36Z</time>
      </trkpt>
      <trkpt lat="43.89245" lon="7.35969">
        <ele>811.57006835938</ele>
        <time>2014-01-11T08:10:44Z</time>
      </trkpt>
      <trkpt lat="43.89257" lon="7.35959">
        <ele>814.37243652344</ele>
        <time>2014-01-11T08:10:52Z</time>
      </trkpt>
      <trkpt lat="43.8927" lon="7.35949">
        <ele>818.53204345703</ele>
        <time>2014-01-11T08:11:00Z</time>
      </trkpt>
      <trkpt lat="43.89283" lon="7.35939">
        <ele>822.83764648438</ele>
        <time>2014-01-11T08:11:08Z</time>
      </trkpt>
      <trkpt lat="43.89302" lon="7.35925">
        <ele>828.69085693359</ele>
        <time>2014-01-11T08:11:20Z</time>
      </trkpt>
      <trkpt lat="43.89314" lon="7.35913">
        <ele>832.06799316406</ele>
        <time>2014-01-11T08:11:28Z</time>
      </trkpt>
      <trkpt lat="43.89329" lon="7.35895">
        <ele>835.28948974609</ele>
        <time>2014-01-11T08:11:38Z</time>
      </trkpt>
      <trkpt lat="43.89342" lon="7.35878">
        <ele>836.88067626953</ele>
        <time>2014-01-11T08:11:47Z</time>
      </trkpt>
      <trkpt lat="43.8935" lon="7.35863">
        <ele>835.95886230469</ele>
        <time>2014-01-11T08:11:54Z</time>
      </trkpt>
      <trkpt lat="43.89367" lon="7.35841">
        <ele>833.40643310547</ele>
        <time>2014-01-11T08:12:05Z</time>
      </trkpt>
      <trkpt lat="43.89379" lon="7.35834">
        <ele>834.38616943359</ele>
        <time>2014-01-11T08:12:12Z</time>
      </trkpt>
      <trkpt lat="43.89394" lon="7.35831">
        <ele>836.69750976562</ele>
        <time>2014-01-11T08:12:21Z</time>
      </trkpt>
      <trkpt lat="43.89412" lon="7.35829">
        <ele>837.62451171875</ele>
        <time>2014-01-11T08:12:31Z</time>
      </trkpt>
      <trkpt lat="43.89428" lon="7.35829">
        <ele>838.88256835938</ele>
        <time>2014-01-11T08:12:40Z</time>
      </trkpt>
      <trkpt lat="43.89447" lon="7.3583">
        <ele>840.76513671875</ele>
        <time>2014-01-11T08:12:51Z</time>
      </trkpt>
      <trkpt lat="43.89457" lon="7.35829">
        <ele>841.61065673828</ele>
        <time>2014-01-11T08:12:57Z</time>
      </trkpt>
      <trkpt lat="43.89468" lon="7.35832">
        <ele>844.06695556641</ele>
        <time>2014-01-11T08:13:03Z</time>
      </trkpt>
      <trkpt lat="43.89479" lon="7.35832">
        <ele>844.32055664062</ele>
        <time>2014-01-11T08:13:10Z</time>
      </trkpt>
      <trkpt lat="43.89494" lon="7.35834">
        <ele>844.345703125</ele>
        <time>2014-01-11T08:13:19Z</time>
      </trkpt>
      <trkpt lat="43.89508" lon="7.35833">
        <ele>843.84014892578</ele>
        <time>2014-01-11T08:13:27Z</time>
      </trkpt>
      <trkpt lat="43.8952" lon="7.35837">
        <ele>845.63494873047</ele>
        <time>2014-01-11T08:13:34Z</time>
      </trkpt>
      <trkpt lat="43.8953" lon="7.35839">
        <ele>846.60650634766</ele>
        <time>2014-01-11T08:13:40Z</time>
      </trkpt>
      <trkpt lat="43.89543" lon="7.35842">
        <ele>847.55407714844</ele>
        <time>2014-01-11T08:13:47Z</time>
      </trkpt>
      <trkpt lat="43.89552" lon="7.35843">
        <ele>848.37805175781</ele>
        <time>2014-01-11T08:13:52Z</time>
      </trkpt>
      <trkpt lat="43.89563" lon="7.35843">
        <ele>848.06909179688</ele>
        <time>2014-01-11T08:13:58Z</time>
      </trkpt>
      <trkpt lat="43.89577" lon="7.35843">
        <ele>848.33685302734</ele>
        <time>2014-01-11T08:14:05Z</time>
      </trkpt>
      <trkpt lat="43.89593" lon="7.3584">
        <ele>846.68890380859</ele>
        <time>2014-01-11T08:14:13Z</time>
      </trkpt>
      <trkpt lat="43.89613" lon="7.3584">
        <ele>846.68890380859</ele>
        <time>2014-01-11T08:14:22Z</time>
      </trkpt>
      <trkpt lat="43.89616" lon="7.3584">
        <ele>847.0390625</ele>
        <time>2014-01-11T08:14:23Z</time>
      </trkpt>
      <trkpt lat="43.89618" lon="7.35849">
        <ele>850.89117431641</ele>
        <time>2014-01-11T08:14:27Z</time>
      </trkpt>
      <trkpt lat="43.89613" lon="7.35853">
        <ele>852.55969238281</ele>
        <time>2014-01-11T08:14:30Z</time>
      </trkpt>
      <trkpt lat="43.89596" lon="7.35854">
        <ele>853.05407714844</ele>
        <time>2014-01-11T08:14:38Z</time>
      </trkpt>
      <trkpt lat="43.89581" lon="7.35858">
        <ele>854.66088867188</ele>
        <time>2014-01-11T08:14:46Z</time>
      </trkpt>
      <trkpt lat="43.89568" lon="7.35863">
        <ele>856.74481201172</ele>
        <time>2014-01-11T08:14:54Z</time>
      </trkpt>
      <trkpt lat="43.89552" lon="7.35867">
        <ele>858.7646484375</ele>
        <time>2014-01-11T08:15:03Z</time>
      </trkpt>
      <trkpt lat="43.89539" lon="7.3587">
        <ele>859.89874267578</ele>
        <time>2014-01-11T08:15:10Z</time>
      </trkpt>
      <trkpt lat="43.89522" lon="7.35873">
        <ele>861.39624023438</ele>
        <time>2014-01-11T08:15:19Z</time>
      </trkpt>
      <trkpt lat="43.89505" lon="7.35876">
        <ele>863.81848144531</ele>
        <time>2014-01-11T08:15:28Z</time>
      </trkpt>
      <trkpt lat="43.89489" lon="7.3588">
        <ele>866.27801513672</ele>
        <time>2014-01-11T08:15:37Z</time>
      </trkpt>
      <trkpt lat="43.89474" lon="7.35883">
        <ele>868.57043457031</ele>
        <time>2014-01-11T08:15:45Z</time>
      </trkpt>
      <trkpt lat="43.89462" lon="7.35886">
        <ele>868.88934326172</ele>
        <time>2014-01-11T08:15:52Z</time>
      </trkpt>
      <trkpt lat="43.89443" lon="7.35892">
        <ele>869.16497802734</ele>
        <time>2014-01-11T08:16:02Z</time>
      </trkpt>
      <trkpt lat="43.89425" lon="7.359">
        <ele>869.90826416016</ele>
        <time>2014-01-11T08:16:12Z</time>
      </trkpt>
      <trkpt lat="43.8941" lon="7.3591">
        <ele>871.99963378906</ele>
        <time>2014-01-11T08:16:21Z</time>
      </trkpt>
      <trkpt lat="43.89393" lon="7.35923">
        <ele>875.63427734375</ele>
        <time>2014-01-11T08:16:31Z</time>
      </trkpt>
      <trkpt lat="43.89384" lon="7.35928">
        <ele>874.80560302734</ele>
        <time>2014-01-11T08:16:36Z</time>
      </trkpt>
      <trkpt lat="43.89371" lon="7.35939">
        <ele>872.30432128906</ele>
        <time>2014-01-11T08:16:43Z</time>
      </trkpt>
      <trkpt lat="43.89363" lon="7.35953">
        <ele>874.15875244141</ele>
        <time>2014-01-11T08:16:50Z</time>
      </trkpt>
      <trkpt lat="43.8937" lon="7.35957">
        <ele>878.75714111328</ele>
        <time>2014-01-11T08:16:55Z</time>
      </trkpt>
      <trkpt lat="43.89384" lon="7.35946">
        <ele>881.54119873047</ele>
        <time>2014-01-11T08:17:03Z</time>
      </trkpt>
      <trkpt lat="43.894" lon="7.35933">
        <ele>879.89526367188</ele>
        <time>2014-01-11T08:17:12Z</time>
      </trkpt>
      <trkpt lat="43.89413" lon="7.35926">
        <ele>878.36474609375</ele>
        <time>2014-01-11T08:17:19Z</time>
      </trkpt>
      <trkpt lat="43.89427" lon="7.35922">
        <ele>878.95892333984</ele>
        <time>2014-01-11T08:17:27Z</time>
      </trkpt>
      <trkpt lat="43.89445" lon="7.35923">
        <ele>882.47644042969</ele>
        <time>2014-01-11T08:17:37Z</time>
      </trkpt>
      <trkpt lat="43.89458" lon="7.35925">
        <ele>884.11395263672</ele>
        <time>2014-01-11T08:17:45Z</time>
      </trkpt>
      <trkpt lat="43.89471" lon="7.35926">
        <ele>885.58770751953</ele>
        <time>2014-01-11T08:17:52Z</time>
      </trkpt>
      <trkpt lat="43.89483" lon="7.35927">
        <ele>886.28051757812</ele>
        <time>2014-01-11T08:17:59Z</time>
      </trkpt>
      <trkpt lat="43.89499" lon="7.3593">
        <ele>888.07531738281</ele>
        <time>2014-01-11T08:18:08Z</time>
      </trkpt>
      <trkpt lat="43.89511" lon="7.35932">
        <ele>889.52209472656</ele>
        <time>2014-01-11T08:18:16Z</time>
      </trkpt>
      <trkpt lat="43.89521" lon="7.35934">
        <ele>891.24108886719</ele>
        <time>2014-01-11T08:18:22Z</time>
      </trkpt>
      <trkpt lat="43.89537" lon="7.35939">
        <ele>894.29333496094</ele>
        <time>2014-01-11T08:18:31Z</time>
      </trkpt>
      <trkpt lat="43.89551" lon="7.35942">
        <ele>895.78723144531</ele>
        <time>2014-01-11T08:18:39Z</time>
      </trkpt>
      <trkpt lat="43.89566" lon="7.35944">
        <ele>896.73974609375</ele>
        <time>2014-01-11T08:18:47Z</time>
      </trkpt>
      <trkpt lat="43.89582" lon="7.35944">
        <ele>896.96630859375</ele>
        <time>2014-01-11T08:18:56Z</time>
      </trkpt>
      <trkpt lat="43.89596" lon="7.35947">
        <ele>899.67639160156</ele>
        <time>2014-01-11T08:19:04Z</time>
      </trkpt>
      <trkpt lat="43.89613" lon="7.35948">
        <ele>901.79339599609</ele>
        <time>2014-01-11T08:19:13Z</time>
      </trkpt>
      <trkpt lat="43.89629" lon="7.35949">
        <ele>902.26202392578</ele>
        <time>2014-01-11T08:19:22Z</time>
      </trkpt>
      <trkpt lat="43.89642" lon="7.35949">
        <ele>902.220703125</ele>
        <time>2014-01-11T08:19:29Z</time>
      </trkpt>
      <trkpt lat="43.89652" lon="7.35948">
        <ele>901.61956787109</ele>
        <time>2014-01-11T08:19:35Z</time>
      </trkpt>
      <trkpt lat="43.89665" lon="7.35948">
        <ele>901.45739746094</ele>
        <time>2014-01-11T08:19:43Z</time>
      </trkpt>
      <trkpt lat="43.89681" lon="7.35949">
        <ele>900.31060791016</ele>
        <time>2014-01-11T08:19:52Z</time>
      </trkpt>
      <trkpt lat="43.89695" lon="7.35951">
        <ele>899.57220458984</ele>
        <time>2014-01-11T08:19:59Z</time>
      </trkpt>
      <trkpt lat="43.89715" lon="7.35956">
        <ele>900.025390625</ele>
        <time>2014-01-11T08:20:09Z</time>
      </trkpt>
      <trkpt lat="43.89729" lon="7.35962">
        <ele>902.33056640625</ele>
        <time>2014-01-11T08:20:17Z</time>
      </trkpt>
      <trkpt lat="43.89742" lon="7.35966">
        <ele>904.67376708984</ele>
        <time>2014-01-11T08:20:24Z</time>
      </trkpt>
      <trkpt lat="43.89751" lon="7.35968">
        <ele>905.81091308594</ele>
        <time>2014-01-11T08:20:29Z</time>
      </trkpt>
      <trkpt lat="43.89769" lon="7.35975">
        <ele>907.82427978516</ele>
        <time>2014-01-11T08:20:38Z</time>
      </trkpt>
      <trkpt lat="43.89782" lon="7.35981">
        <ele>909.04693603516</ele>
        <time>2014-01-11T08:20:45Z</time>
      </trkpt>
      <trkpt lat="43.89795" lon="7.35988">
        <ele>910.87170410156</ele>
        <time>2014-01-11T08:20:52Z</time>
      </trkpt>
      <trkpt lat="43.89811" lon="7.35996">
        <ele>913.34783935547</ele>
        <time>2014-01-11T08:21:00Z</time>
      </trkpt>
      <trkpt lat="43.89827" lon="7.36004">
        <ele>916.89312744141</ele>
        <time>2014-01-11T08:21:09Z</time>
      </trkpt>
      <trkpt lat="43.89845" lon="7.36011">
        <ele>918.8017578125</ele>
        <time>2014-01-11T08:21:18Z</time>
      </trkpt>
      <trkpt lat="43.8986" lon="7.36018">
        <ele>920.50048828125</ele>
        <time>2014-01-11T08:21:26Z</time>
      </trkpt>
      <trkpt lat="43.89874" lon="7.36022">
        <ele>921.11291503906</ele>
        <time>2014-01-11T08:21:33Z</time>
      </trkpt>
      <trkpt lat="43.89888" lon="7.36026">
        <ele>921.22412109375</ele>
        <time>2014-01-11T08:21:41Z</time>
      </trkpt>
      <trkpt lat="43.89901" lon="7.36029">
        <ele>921.71990966797</ele>
        <time>2014-01-11T08:21:48Z</time>
      </trkpt>
      <trkpt lat="43.89919" lon="7.36036">
        <ele>923.82873535156</ele>
        <time>2014-01-11T08:21:57Z</time>
      </trkpt>
      <trkpt lat="43.89936" lon="7.3604">
        <ele>925.39196777344</ele>
        <time>2014-01-11T08:22:06Z</time>
      </trkpt>
      <trkpt lat="43.8996" lon="7.36044">
        <ele>926.77435302734</ele>
        <time>2014-01-11T08:22:18Z</time>
      </trkpt>
      <trkpt lat="43.89976" lon="7.36045">
        <ele>926.44012451172</ele>
        <time>2014-01-11T08:22:26Z</time>
      </trkpt>
      <trkpt lat="43.89993" lon="7.36044">
        <ele>924.70538330078</ele>
        <time>2014-01-11T08:22:35Z</time>
      </trkpt>
      <trkpt lat="43.90005" lon="7.36048">
        <ele>925.14904785156</ele>
        <time>2014-01-11T08:22:42Z</time>
      </trkpt>
      <trkpt lat="43.90014" lon="7.36051">
        <ele>925.63659667969</ele>
        <time>2014-01-11T08:22:48Z</time>
      </trkpt>
      <trkpt lat="43.9003" lon="7.3606">
        <ele>928.89074707031</ele>
        <time>2014-01-11T08:22:56Z</time>
      </trkpt>
      <trkpt lat="43.90039" lon="7.36065">
        <ele>930.55926513672</ele>
        <time>2014-01-11T08:23:02Z</time>
      </trkpt>
      <trkpt lat="43.90049" lon="7.36073">
        <ele>934.38391113281</ele>
        <time>2014-01-11T08:23:08Z</time>
      </trkpt>
      <trkpt lat="43.90059" lon="7.36081">
        <ele>936.87579345703</ele>
        <time>2014-01-11T08:23:14Z</time>
      </trkpt>
      <trkpt lat="43.90071" lon="7.3609">
        <ele>938.61810302734</ele>
        <time>2014-01-11T08:23:21Z</time>
      </trkpt>
      <trkpt lat="43.90083" lon="7.36097">
        <ele>938.62152099609</ele>
        <time>2014-01-11T08:23:27Z</time>
      </trkpt>
      <trkpt lat="43.90091" lon="7.361">
        <ele>939.10589599609</ele>
        <time>2014-01-11T08:23:32Z</time>
      </trkpt>
      <trkpt lat="43.90102" lon="7.36104">
        <ele>938.34228515625</ele>
        <time>2014-01-11T08:23:39Z</time>
      </trkpt>
      <trkpt lat="43.90117" lon="7.3611">
        <ele>937.24395751953</ele>
        <time>2014-01-11T08:23:47Z</time>
      </trkpt>
      <trkpt lat="43.90133" lon="7.36117">
        <ele>937.72418212891</ele>
        <time>2014-01-11T08:23:56Z</time>
      </trkpt>
      <trkpt lat="43.90149" lon="7.36128">
        <ele>940.37225341797</ele>
        <time>2014-01-11T08:24:05Z</time>
      </trkpt>
      <trkpt lat="43.90165" lon="7.36139">
        <ele>943.89453125</ele>
        <time>2014-01-11T08:24:13Z</time>
      </trkpt>
      <trkpt lat="43.90183" lon="7.36148">
        <ele>942.98272705078</ele>
        <time>2014-01-11T08:24:22Z</time>
      </trkpt>
      <trkpt lat="43.90203" lon="7.36155">
        <ele>941.58563232422</ele>
        <time>2014-01-11T08:24:32Z</time>
      </trkpt>
      <trkpt lat="43.90218" lon="7.36166">
        <ele>944.85101318359</ele>
        <time>2014-01-11T08:24:40Z</time>
      </trkpt>
      <trkpt lat="43.90231" lon="7.3618">
        <ele>952.54156494141</ele>
        <time>2014-01-11T08:24:49Z</time>
      </trkpt>
      <trkpt lat="43.90242" lon="7.36188">
        <ele>956.56689453125</ele>
        <time>2014-01-11T08:24:56Z</time>
      </trkpt>
      <trkpt lat="43.90253" lon="7.36191">
        <ele>956.78631591797</ele>
        <time>2014-01-11T08:25:03Z</time>
      </trkpt>
      <trkpt lat="43.90266" lon="7.36195">
        <ele>957.91741943359</ele>
        <time>2014-01-11T08:25:11Z</time>
      </trkpt>
      <trkpt lat="43.90277" lon="7.36204">
        <ele>961.06207275391</ele>
        <time>2014-01-11T08:25:19Z</time>
      </trkpt>
      <trkpt lat="43.90289" lon="7.36211">
        <ele>965.82507324219</ele>
        <time>2014-01-11T08:25:27Z</time>
      </trkpt>
      <trkpt lat="43.90303" lon="7.36219">
        <ele>969.82861328125</ele>
        <time>2014-01-11T08:25:36Z</time>
      </trkpt>
      <trkpt lat="43.90316" lon="7.36221">
        <ele>971.94610595703</ele>
        <time>2014-01-11T08:25:43Z</time>
      </trkpt>
      <trkpt lat="43.9033" lon="7.36215">
        <ele>971.24865722656</ele>
        <time>2014-01-11T08:25:51Z</time>
      </trkpt>
      <trkpt lat="43.9034" lon="7.36208">
        <ele>970.28204345703</ele>
        <time>2014-01-11T08:25:57Z</time>
      </trkpt>
      <trkpt lat="43.90351" lon="7.36196">
        <ele>967.75500488281</ele>
        <time>2014-01-11T08:26:05Z</time>
      </trkpt>
      <trkpt lat="43.90358" lon="7.36179">
        <ele>960.48431396484</ele>
        <time>2014-01-11T08:26:12Z</time>
      </trkpt>
      <trkpt lat="43.90363" lon="7.36169">
        <ele>956.15795898438</ele>
        <time>2014-01-11T08:26:17Z</time>
      </trkpt>
      <trkpt lat="43.90365" lon="7.36166">
        <ele>955.31439208984</ele>
        <time>2014-01-11T08:26:19Z</time>
      </trkpt>
      <trkpt lat="43.90373" lon="7.36164">
        <ele>957.54742431641</ele>
        <time>2014-01-11T08:26:24Z</time>
      </trkpt>
      <trkpt lat="43.90377" lon="7.36164">
        <ele>959.54559326172</ele>
        <time>2014-01-11T08:26:27Z</time>
      </trkpt>
      <trkpt lat="43.90386" lon="7.36166">
        <ele>963.654296875</ele>
        <time>2014-01-11T08:26:33Z</time>
      </trkpt>
      <trkpt lat="43.90399" lon="7.36169">
        <ele>967.15063476562</ele>
        <time>2014-01-11T08:26:41Z</time>
      </trkpt>
      <trkpt lat="43.90413" lon="7.36173">
        <ele>971.12432861328</ele>
        <time>2014-01-11T08:26:50Z</time>
      </trkpt>
      <trkpt lat="43.90429" lon="7.36179">
        <ele>976.31463623047</ele>
        <time>2014-01-11T08:27:00Z</time>
      </trkpt>
      <trkpt lat="43.9044" lon="7.36186">
        <ele>981.61553955078</ele>
        <time>2014-01-11T08:27:07Z</time>
      </trkpt>
      <trkpt lat="43.90456" lon="7.36195">
        <ele>987.63470458984</ele>
        <time>2014-01-11T08:27:17Z</time>
      </trkpt>
      <trkpt lat="43.90473" lon="7.36194">
        <ele>988.07849121094</ele>
        <time>2014-01-11T08:27:26Z</time>
      </trkpt>
      <trkpt lat="43.90493" lon="7.36189">
        <ele>987.1240234375</ele>
        <time>2014-01-11T08:27:37Z</time>
      </trkpt>
      <trkpt lat="43.9051" lon="7.36184">
        <ele>988.65997314453</ele>
        <time>2014-01-11T08:27:47Z</time>
      </trkpt>
      <trkpt lat="43.9052" lon="7.36179">
        <ele>989.81842041016</ele>
        <time>2014-01-11T08:27:53Z</time>
      </trkpt>
      <trkpt lat="43.90532" lon="7.36169">
        <ele>990.68908691406</ele>
        <time>2014-01-11T08:28:01Z</time>
      </trkpt>
      <trkpt lat="43.90543" lon="7.36148">
        <ele>990.88006591797</ele>
        <time>2014-01-11T08:28:11Z</time>
      </trkpt>
      <trkpt lat="43.90549" lon="7.36133">
        <ele>992.41931152344</ele>
        <time>2014-01-11T08:28:18Z</time>
      </trkpt>
      <trkpt lat="43.90556" lon="7.36113">
        <ele>998.12121582031</ele>
        <time>2014-01-11T08:28:27Z</time>
      </trkpt>
      <trkpt lat="43.90556" lon="7.36089">
        <ele>1004.8746948242</ele>
        <time>2014-01-11T08:28:36Z</time>
      </trkpt>
      <trkpt lat="43.90556" lon="7.36074">
        <ele>1010.4133911133</ele>
        <time>2014-01-11T08:28:41Z</time>
      </trkpt>
      <trkpt lat="43.90564" lon="7.36071">
        <ele>1015.7014160156</ele>
        <time>2014-01-11T08:28:46Z</time>
      </trkpt>
      <trkpt lat="43.90567" lon="7.36084">
        <ele>1012.6612548828</ele>
        <time>2014-01-11T08:28:52Z</time>
      </trkpt>
      <trkpt lat="43.90564" lon="7.3611">
        <ele>1002.8834228516</ele>
        <time>2014-01-11T08:29:03Z</time>
      </trkpt>
      <trkpt lat="43.90561" lon="7.36128">
        <ele>998.18701171875</ele>
        <time>2014-01-11T08:29:11Z</time>
      </trkpt>
      <trkpt lat="43.90561" lon="7.36146">
        <ele>997.43127441406</ele>
        <time>2014-01-11T08:29:19Z</time>
      </trkpt>
      <trkpt lat="43.90562" lon="7.36164">
        <ele>998.77130126953</ele>
        <time>2014-01-11T08:29:27Z</time>
      </trkpt>
      <trkpt lat="43.90561" lon="7.36165">
        <ele>998.77172851562</ele>
        <time>2014-01-11T08:29:32Z</time>
      </trkpt>
      <trkpt lat="43.90561" lon="7.36164">
        <ele>998.69744873047</ele>
        <time>2014-01-11T08:29:41Z</time>
      </trkpt>
      <trkpt lat="43.90561" lon="7.36164">
        <ele>998.69067382812</ele>
        <time>2014-01-11T08:29:45Z</time>
      </trkpt>
      <trkpt lat="43.90561" lon="7.36165">
        <ele>998.58215332031</ele>
        <time>2014-01-11T08:29:50Z</time>
      </trkpt>
      <trkpt lat="43.90561" lon="7.36164">
        <ele>998.65692138672</ele>
        <time>2014-01-11T08:29:56Z</time>
      </trkpt>
      <trkpt lat="43.90561" lon="7.36164">
        <ele>998.67718505859</ele>
        <time>2014-01-11T08:30:01Z</time>
      </trkpt>
      <trkpt lat="43.90561" lon="7.36164">
        <ele>998.68731689453</ele>
        <time>2014-01-11T08:30:03Z</time>
      </trkpt>
      <trkpt lat="43.90561" lon="7.36164">
        <ele>998.69067382812</ele>
        <time>2014-01-11T08:30:04Z</time>
      </trkpt>
      <trkpt lat="43.90562" lon="7.36165">
        <ele>998.99676513672</ele>
        <time>2014-01-11T08:30:11Z</time>
      </trkpt>
      <trkpt lat="43.90562" lon="7.36165">
        <ele>998.97796630859</ele>
        <time>2014-01-11T08:30:18Z</time>
      </trkpt>
      <trkpt lat="43.90562" lon="7.36165">
        <ele>998.98419189453</ele>
        <time>2014-01-11T08:30:19Z</time>
      </trkpt>
      <trkpt lat="43.90561" lon="7.36165">
        <ele>998.76159667969</ele>
        <time>2014-01-11T08:30:27Z</time>
      </trkpt>
      <trkpt lat="43.90561" lon="7.36166">
        <ele>998.71148681641</ele>
        <time>2014-01-11T08:30:32Z</time>
      </trkpt>
      <trkpt lat="43.90559" lon="7.36169">
        <ele>998.32580566406</ele>
        <time>2014-01-11T08:30:35Z</time>
      </trkpt>
      <trkpt lat="43.90548" lon="7.36183">
        <ele>996.60418701172</ele>
        <time>2014-01-11T08:30:41Z</time>
      </trkpt>
      <trkpt lat="43.90536" lon="7.36193">
        <ele>995.97479248047</ele>
        <time>2014-01-11T08:30:46Z</time>
      </trkpt>
      <trkpt lat="43.90535" lon="7.36194">
        <ele>995.93365478516</ele>
        <time>2014-01-11T08:30:47Z</time>
      </trkpt>
      <trkpt lat="43.90526" lon="7.36201">
        <ele>995.86828613281</ele>
        <time>2014-01-11T08:30:53Z</time>
      </trkpt>
      <trkpt lat="43.90523" lon="7.36202">
        <ele>995.66253662109</ele>
        <time>2014-01-11T08:30:55Z</time>
      </trkpt>
      <trkpt lat="43.90519" lon="7.36202">
        <ele>995.04547119141</ele>
        <time>2014-01-11T08:30:57Z</time>
      </trkpt>
      <trkpt lat="43.90516" lon="7.36202">
        <ele>994.70367431641</ele>
        <time>2014-01-11T08:31:03Z</time>
      </trkpt>
      <trkpt lat="43.90517" lon="7.36203">
        <ele>995.11614990234</ele>
        <time>2014-01-11T08:31:06Z</time>
      </trkpt>
      <trkpt lat="43.90519" lon="7.36204">
        <ele>995.41589355469</ele>
        <time>2014-01-11T08:31:07Z</time>
      </trkpt>
      <trkpt lat="43.90519" lon="7.36203">
        <ele>995.32720947266</ele>
        <time>2014-01-11T08:31:11Z</time>
      </trkpt>
      <trkpt lat="43.90519" lon="7.36204">
        <ele>995.33355712891</ele>
        <time>2014-01-11T08:31:14Z</time>
      </trkpt>
      <trkpt lat="43.90519" lon="7.36204">
        <ele>995.53485107422</ele>
        <time>2014-01-11T08:31:20Z</time>
      </trkpt>
      <trkpt lat="43.90519" lon="7.36205">
        <ele>995.67694091797</ele>
        <time>2014-01-11T08:31:36Z</time>
      </trkpt>
      <trkpt lat="43.90519" lon="7.36205">
        <ele>995.70739746094</ele>
        <time>2014-01-11T08:31:42Z</time>
      </trkpt>
      <trkpt lat="43.90519" lon="7.36205">
        <ele>995.77844238281</ele>
        <time>2014-01-11T08:31:51Z</time>
      </trkpt>
      <trkpt lat="43.9052" lon="7.36205">
        <ele>995.763671875</ele>
        <time>2014-01-11T08:31:59Z</time>
      </trkpt>
      <trkpt lat="43.90519" lon="7.36208">
        <ele>996.28588867188</ele>
        <time>2014-01-11T08:32:03Z</time>
      </trkpt>
      <trkpt lat="43.90512" lon="7.36213">
        <ele>996.71539306641</ele>
        <time>2014-01-11T08:32:08Z</time>
      </trkpt>
      <trkpt lat="43.90501" lon="7.36221">
        <ele>997.75</ele>
        <time>2014-01-11T08:32:14Z</time>
      </trkpt>
      <trkpt lat="43.9049" lon="7.36229">
        <ele>999.55657958984</ele>
        <time>2014-01-11T08:32:20Z</time>
      </trkpt>
      <trkpt lat="43.9048" lon="7.36241">
        <ele>1002.799987793</ele>
        <time>2014-01-11T08:32:26Z</time>
      </trkpt>
      <trkpt lat="43.90475" lon="7.36249">
        <ele>1005.1421508789</ele>
        <time>2014-01-11T08:32:29Z</time>
      </trkpt>
      <trkpt lat="43.90466" lon="7.36266">
        <ele>1010.2860107422</ele>
        <time>2014-01-11T08:32:36Z</time>
      </trkpt>
      <trkpt lat="43.90455" lon="7.36279">
        <ele>1016.0217895508</ele>
        <time>2014-01-11T08:32:42Z</time>
      </trkpt>
      <trkpt lat="43.90443" lon="7.36292">
        <ele>1020</ele>
        <time>2014-01-11T08:32:49Z</time>
      </trkpt>
      <trkpt lat="43.90436" lon="7.36306">
        <ele>1019.8772583008</ele>
        <time>2014-01-11T08:32:55Z</time>
      </trkpt>
      <trkpt lat="43.90425" lon="7.36328">
        <ele>1017.8148803711</ele>
        <time>2014-01-11T08:33:03Z</time>
      </trkpt>
      <trkpt lat="43.90419" lon="7.36339">
        <ele>1018.3101806641</ele>
        <time>2014-01-11T08:33:07Z</time>
      </trkpt>
      <trkpt lat="43.90402" lon="7.36353">
        <ele>1018.6626586914</ele>
        <time>2014-01-11T08:33:14Z</time>
      </trkpt>
      <trkpt lat="43.90387" lon="7.36358">
        <ele>1020</ele>
        <time>2014-01-11T08:33:20Z</time>
      </trkpt>
      <trkpt lat="43.90368" lon="7.36364">
        <ele>1019.6729125977</ele>
        <time>2014-01-11T08:33:27Z</time>
      </trkpt>
      <trkpt lat="43.90352" lon="7.3637">
        <ele>1021.6572875977</ele>
        <time>2014-01-11T08:33:32Z</time>
      </trkpt>
      <trkpt lat="43.90332" lon="7.36377">
        <ele>1025.5145263672</ele>
        <time>2014-01-11T08:33:39Z</time>
      </trkpt>
      <trkpt lat="43.90308" lon="7.36381">
        <ele>1030.0321044922</ele>
        <time>2014-01-11T08:33:45Z</time>
      </trkpt>
      <trkpt lat="43.90288" lon="7.36384">
        <ele>1036.0603027344</ele>
        <time>2014-01-11T08:33:50Z</time>
      </trkpt>
      <trkpt lat="43.90281" lon="7.36386">
        <ele>1038.5522460938</ele>
        <time>2014-01-11T08:33:52Z</time>
      </trkpt>
      <trkpt lat="43.90277" lon="7.36387">
        <ele>1040</ele>
        <time>2014-01-11T08:33:53Z</time>
      </trkpt>
      <trkpt lat="43.90253" lon="7.36404">
        <ele>1035.2622070312</ele>
        <time>2014-01-11T08:34:00Z</time>
      </trkpt>
      <trkpt lat="43.90231" lon="7.36419">
        <ele>1035.9765625</ele>
        <time>2014-01-11T08:34:06Z</time>
      </trkpt>
      <trkpt lat="43.90201" lon="7.36437">
        <ele>1032.6573486328</ele>
        <time>2014-01-11T08:34:13Z</time>
      </trkpt>
      <trkpt lat="43.90171" lon="7.36463">
        <ele>1025.3616943359</ele>
        <time>2014-01-11T08:34:20Z</time>
      </trkpt>
      <trkpt lat="43.90165" lon="7.36471">
        <ele>1023.901184082</ele>
        <time>2014-01-11T08:34:22Z</time>
      </trkpt>
      <trkpt lat="43.90158" lon="7.3648">
        <ele>1020.4659423828</ele>
        <time>2014-01-11T08:34:24Z</time>
      </trkpt>
      <trkpt lat="43.90149" lon="7.36488">
        <ele>1017.3943481445</ele>
        <time>2014-01-11T08:34:26Z</time>
      </trkpt>
      <trkpt lat="43.90129" lon="7.36491">
        <ele>1010.7391357422</ele>
        <time>2014-01-11T08:34:30Z</time>
      </trkpt>
      <trkpt lat="43.90123" lon="7.36479">
        <ele>1009.4090576172</ele>
        <time>2014-01-11T08:34:32Z</time>
      </trkpt>
      <trkpt lat="43.9012" lon="7.36458">
        <ele>1009.4931640625</ele>
        <time>2014-01-11T08:34:35Z</time>
      </trkpt>
      <trkpt lat="43.90119" lon="7.36451">
        <ele>1009.5031738281</ele>
        <time>2014-01-11T08:34:36Z</time>
      </trkpt>
      <trkpt lat="43.90112" lon="7.36384">
        <ele>1008.8558349609</ele>
        <time>2014-01-11T08:34:45Z</time>
      </trkpt>
      <trkpt lat="43.90108" lon="7.36361">
        <ele>1010.9539794922</ele>
        <time>2014-01-11T08:34:48Z</time>
      </trkpt>
      <trkpt lat="43.90096" lon="7.36308">
        <ele>1006.5587768555</ele>
        <time>2014-01-11T08:34:55Z</time>
      </trkpt>
      <trkpt lat="43.90078" lon="7.36262">
        <ele>1003.2672119141</ele>
        <time>2014-01-11T08:35:01Z</time>
      </trkpt>
      <trkpt lat="43.90059" lon="7.36242">
        <ele>1007.5393066406</ele>
        <time>2014-01-11T08:35:05Z</time>
      </trkpt>
      <trkpt lat="43.90041" lon="7.36233">
        <ele>1010.3718261719</ele>
        <time>2014-01-11T08:35:09Z</time>
      </trkpt>
      <trkpt lat="43.90036" lon="7.36234">
        <ele>1011.4723510742</ele>
        <time>2014-01-11T08:35:13Z</time>
      </trkpt>
      <trkpt lat="43.90036" lon="7.36234">
        <ele>1011.4339599609</ele>
        <time>2014-01-11T08:35:18Z</time>
      </trkpt>
      <trkpt lat="43.90036" lon="7.36234">
        <ele>1011.2954711914</ele>
        <time>2014-01-11T08:35:21Z</time>
      </trkpt>
      <trkpt lat="43.90036" lon="7.36234">
        <ele>1011.2861328125</ele>
        <time>2014-01-11T08:35:22Z</time>
      </trkpt>
      <trkpt lat="43.90036" lon="7.36234">
        <ele>1011.3931274414</ele>
        <time>2014-01-11T08:35:28Z</time>
      </trkpt>
      <trkpt lat="43.90034" lon="7.36232">
        <ele>1011.3931274414</ele>
        <time>2014-01-11T08:35:38Z</time>
      </trkpt>
      <trkpt lat="43.90034" lon="7.36234">
        <ele>1011.6317749023</ele>
        <time>2014-01-11T08:35:42Z</time>
      </trkpt>
      <trkpt lat="43.90034" lon="7.36235">
        <ele>1011.8803710938</ele>
        <time>2014-01-11T08:35:54Z</time>
      </trkpt>
      <trkpt lat="43.90034" lon="7.36234">
        <ele>1011.8920288086</ele>
        <time>2014-01-11T08:35:57Z</time>
      </trkpt>
      <trkpt lat="43.90034" lon="7.36235">
        <ele>1011.9725341797</ele>
        <time>2014-01-11T08:36:00Z</time>
      </trkpt>
      <trkpt lat="43.90035" lon="7.36234">
        <ele>1011.7591552734</ele>
        <time>2014-01-11T08:36:06Z</time>
      </trkpt>
      <trkpt lat="43.90034" lon="7.36234">
        <ele>1011.90234375</ele>
        <time>2014-01-11T08:36:11Z</time>
      </trkpt>
      <trkpt lat="43.90033" lon="7.36233">
        <ele>1011.8978271484</ele>
        <time>2014-01-11T08:36:12Z</time>
      </trkpt>
      <trkpt lat="43.90031" lon="7.36234">
        <ele>1012.3563842773</ele>
        <time>2014-01-11T08:36:18Z</time>
      </trkpt>
      <trkpt lat="43.90031" lon="7.36236">
        <ele>1012.7821044922</ele>
        <time>2014-01-11T08:36:23Z</time>
      </trkpt>
      <trkpt lat="43.90031" lon="7.36236">
        <ele>1012.934753418</ele>
        <time>2014-01-11T08:36:26Z</time>
      </trkpt>
      <trkpt lat="43.9003" lon="7.36236">
        <ele>1013.0553588867</ele>
        <time>2014-01-11T08:36:27Z</time>
      </trkpt>
      <trkpt lat="43.90028" lon="7.36239">
        <ele>1014.0733642578</ele>
        <time>2014-01-11T08:36:31Z</time>
      </trkpt>
      <trkpt lat="43.90028" lon="7.36239">
        <ele>1014.3466186523</ele>
        <time>2014-01-11T08:36:33Z</time>
      </trkpt>
      <trkpt lat="43.90027" lon="7.36242">
        <ele>1015.3269042969</ele>
        <time>2014-01-11T08:36:39Z</time>
      </trkpt>
      <trkpt lat="43.90025" lon="7.36243">
        <ele>1015.7880249023</ele>
        <time>2014-01-11T08:36:43Z</time>
      </trkpt>
      <trkpt lat="43.90024" lon="7.36244">
        <ele>1016.5681152344</ele>
        <time>2014-01-11T08:36:47Z</time>
      </trkpt>
      <trkpt lat="43.90022" lon="7.36245">
        <ele>1017.0881958008</ele>
        <time>2014-01-11T08:36:50Z</time>
      </trkpt>
      <trkpt lat="43.90018" lon="7.36247">
        <ele>1018.4216308594</ele>
        <time>2014-01-11T08:36:57Z</time>
      </trkpt>
      <trkpt lat="43.90015" lon="7.36248">
        <ele>1019.2728271484</ele>
        <time>2014-01-11T08:37:04Z</time>
      </trkpt>
      <trkpt lat="43.90012" lon="7.36251">
        <ele>1020.2744140625</ele>
        <time>2014-01-11T08:37:12Z</time>
      </trkpt>
      <trkpt lat="43.90009" lon="7.36255">
        <ele>1020.9857177734</ele>
        <time>2014-01-11T08:37:22Z</time>
      </trkpt>
      <trkpt lat="43.90004" lon="7.36257">
        <ele>1021.9450683594</ele>
        <time>2014-01-11T08:37:31Z</time>
      </trkpt>
      <trkpt lat="43.90002" lon="7.36258">
        <ele>1022.4926757812</ele>
        <time>2014-01-11T08:37:38Z</time>
      </trkpt>
      <trkpt lat="43.89998" lon="7.36258">
        <ele>1023.615234375</ele>
        <time>2014-01-11T08:37:47Z</time>
      </trkpt>
      <trkpt lat="43.89994" lon="7.36258">
        <ele>1024.6040039062</ele>
        <time>2014-01-11T08:37:54Z</time>
      </trkpt>
      <trkpt lat="43.89991" lon="7.36256">
        <ele>1025.5927734375</ele>
        <time>2014-01-11T08:38:01Z</time>
      </trkpt>
      <trkpt lat="43.89989" lon="7.36252">
        <ele>1026.251953125</ele>
        <time>2014-01-11T08:38:07Z</time>
      </trkpt>
      <trkpt lat="43.89987" lon="7.36251">
        <ele>1026.69140625</ele>
        <time>2014-01-11T08:38:15Z</time>
      </trkpt>
      <trkpt lat="43.89983" lon="7.36248">
        <ele>1027.6785888672</ele>
        <time>2014-01-11T08:38:24Z</time>
      </trkpt>
      <trkpt lat="43.89979" lon="7.36249">
        <ele>1028.8774414062</ele>
        <time>2014-01-11T08:38:32Z</time>
      </trkpt>
      <trkpt lat="43.89976" lon="7.36251">
        <ele>1029.8774414062</ele>
        <time>2014-01-11T08:38:41Z</time>
      </trkpt>
      <trkpt lat="43.89973" lon="7.36252">
        <ele>1030.7563476562</ele>
        <time>2014-01-11T08:38:49Z</time>
      </trkpt>
      <trkpt lat="43.8997" lon="7.36252">
        <ele>1031.7194824219</ele>
        <time>2014-01-11T08:38:58Z</time>
      </trkpt>
      <trkpt lat="43.89969" lon="7.36255">
        <ele>1032.1058349609</ele>
        <time>2014-01-11T08:39:06Z</time>
      </trkpt>
      <trkpt lat="43.89966" lon="7.36258">
        <ele>1033.1380615234</ele>
        <time>2014-01-11T08:39:15Z</time>
      </trkpt>
      <trkpt lat="43.89963" lon="7.36259">
        <ele>1034.1712646484</ele>
        <time>2014-01-11T08:39:24Z</time>
      </trkpt>
      <trkpt lat="43.8996" lon="7.36261">
        <ele>1035.2220458984</ele>
        <time>2014-01-11T08:39:32Z</time>
      </trkpt>
      <trkpt lat="43.89957" lon="7.36259">
        <ele>1036.0982666016</ele>
        <time>2014-01-11T08:39:40Z</time>
      </trkpt>
      <trkpt lat="43.89954" lon="7.36256">
        <ele>1037.1643066406</ele>
        <time>2014-01-11T08:39:47Z</time>
      </trkpt>
      <trkpt lat="43.89949" lon="7.3625">
        <ele>1038.6497802734</ele>
        <time>2014-01-11T08:39:56Z</time>
      </trkpt>
      <trkpt lat="43.89947" lon="7.36246">
        <ele>1038.248046875</ele>
        <time>2014-01-11T08:40:02Z</time>
      </trkpt>
      <trkpt lat="43.89946" lon="7.36245">
        <ele>1038.2108154297</ele>
        <time>2014-01-11T08:40:03Z</time>
      </trkpt>
      <trkpt lat="43.89941" lon="7.36235">
        <ele>1036.1555175781</ele>
        <time>2014-01-11T08:40:08Z</time>
      </trkpt>
      <trkpt lat="43.89933" lon="7.36227">
        <ele>1034.7501220703</ele>
        <time>2014-01-11T08:40:14Z</time>
      </trkpt>
      <trkpt lat="43.89926" lon="7.36226">
        <ele>1035.0733642578</ele>
        <time>2014-01-11T08:40:19Z</time>
      </trkpt>
      <trkpt lat="43.89922" lon="7.36227">
        <ele>1035.9388427734</ele>
        <time>2014-01-11T08:40:24Z</time>
      </trkpt>
      <trkpt lat="43.89919" lon="7.36228">
        <ele>1036.4748535156</ele>
        <time>2014-01-11T08:40:32Z</time>
      </trkpt>
      <trkpt lat="43.89919" lon="7.36228">
        <ele>1036.7467041016</ele>
        <time>2014-01-11T08:40:38Z</time>
      </trkpt>
      <trkpt lat="43.89918" lon="7.36229">
        <ele>1036.8830566406</ele>
        <time>2014-01-11T08:40:42Z</time>
      </trkpt>
      <trkpt lat="43.89918" lon="7.3623">
        <ele>1037.2055664062</ele>
        <time>2014-01-11T08:41:01Z</time>
      </trkpt>
      <trkpt lat="43.8992" lon="7.3623">
        <ele>1037.2399902344</ele>
        <time>2014-01-11T08:41:05Z</time>
      </trkpt>
      <trkpt lat="43.89922" lon="7.3623">
        <ele>1036.8483886719</ele>
        <time>2014-01-11T08:41:13Z</time>
      </trkpt>
      <trkpt lat="43.89922" lon="7.3623">
        <ele>1036.8483886719</ele>
        <time>2014-01-11T08:41:14Z</time>
      </trkpt>
      <trkpt lat="43.89922" lon="7.3623">
        <ele>1036.8031005859</ele>
        <time>2014-01-11T08:41:16Z</time>
      </trkpt>
      <trkpt lat="43.89922" lon="7.3623">
        <ele>1036.8031005859</ele>
        <time>2014-01-11T08:41:17Z</time>
      </trkpt>
      <trkpt lat="43.89923" lon="7.3623">
        <ele>1036.6981201172</ele>
        <time>2014-01-11T08:41:20Z</time>
      </trkpt>
      <trkpt lat="43.89923" lon="7.3623">
        <ele>1036.6381835938</ele>
        <time>2014-01-11T08:41:22Z</time>
      </trkpt>
      <trkpt lat="43.89922" lon="7.36229">
        <ele>1036.4859619141</ele>
        <time>2014-01-11T08:41:39Z</time>
      </trkpt>
      <trkpt lat="43.89923" lon="7.36229">
        <ele>1036.2917480469</ele>
        <time>2014-01-11T08:41:45Z</time>
      </trkpt>
      <trkpt lat="43.89923" lon="7.36229">
        <ele>1036.3660888672</ele>
        <time>2014-01-11T08:41:49Z</time>
      </trkpt>
      <trkpt lat="43.89923" lon="7.36229">
        <ele>1036.3225097656</ele>
        <time>2014-01-11T08:41:51Z</time>
      </trkpt>
      <trkpt lat="43.89923" lon="7.36228">
        <ele>1036.1872558594</ele>
        <time>2014-01-11T08:41:52Z</time>
      </trkpt>
      <trkpt lat="43.89923" lon="7.36229">
        <ele>1036.2474365234</ele>
        <time>2014-01-11T08:41:55Z</time>
      </trkpt>
      <trkpt lat="43.89923" lon="7.36229">
        <ele>1036.2474365234</ele>
        <time>2014-01-11T08:41:56Z</time>
      </trkpt>
      <trkpt lat="43.89924" lon="7.36228">
        <ele>1036.1437988281</ele>
        <time>2014-01-11T08:42:04Z</time>
      </trkpt>
      <trkpt lat="43.89925" lon="7.36226">
        <ele>1035.1907958984</ele>
        <time>2014-01-11T08:42:07Z</time>
      </trkpt>
      <trkpt lat="43.89923" lon="7.36228">
        <ele>1035.9617919922</ele>
        <time>2014-01-11T08:42:11Z</time>
      </trkpt>
      <trkpt lat="43.89923" lon="7.36228">
        <ele>1036.1862792969</ele>
        <time>2014-01-11T08:42:16Z</time>
      </trkpt>
      <trkpt lat="43.89923" lon="7.36228">
        <ele>1036.1411132812</ele>
        <time>2014-01-11T08:42:23Z</time>
      </trkpt>
      <trkpt lat="43.89922" lon="7.36228">
        <ele>1036.3500976562</ele>
        <time>2014-01-11T08:42:30Z</time>
      </trkpt>
      <trkpt lat="43.89923" lon="7.36229">
        <ele>1036.4113769531</ele>
        <time>2014-01-11T08:42:33Z</time>
      </trkpt>
      <trkpt lat="43.89923" lon="7.36229">
        <ele>1036.5168457031</ele>
        <time>2014-01-11T08:42:36Z</time>
      </trkpt>
      <trkpt lat="43.89923" lon="7.36229">
        <ele>1036.5621337891</ele>
        <time>2014-01-11T08:42:37Z</time>
      </trkpt>
      <trkpt lat="43.89922" lon="7.36229">
        <ele>1036.5463867188</ele>
        <time>2014-01-11T08:42:40Z</time>
      </trkpt>
      <trkpt lat="43.89922" lon="7.36228">
        <ele>1036.3199462891</ele>
        <time>2014-01-11T08:42:46Z</time>
      </trkpt>
      <trkpt lat="43.89922" lon="7.36228">
        <ele>1036.2280273438</ele>
        <time>2014-01-11T08:42:50Z</time>
      </trkpt>
      <trkpt lat="43.89922" lon="7.36228">
        <ele>1036.2142333984</ele>
        <time>2014-01-11T08:43:04Z</time>
      </trkpt>
      <trkpt lat="43.89923" lon="7.36228">
        <ele>1036.0645751953</ele>
        <time>2014-01-11T08:43:11Z</time>
      </trkpt>
      <trkpt lat="43.89922" lon="7.36228">
        <ele>1036.2595214844</ele>
        <time>2014-01-11T08:43:24Z</time>
      </trkpt>
      <trkpt lat="43.89922" lon="7.36228">
        <ele>1036.1538085938</ele>
        <time>2014-01-11T08:43:27Z</time>
      </trkpt>
      <trkpt lat="43.89922" lon="7.36228">
        <ele>1036.0632324219</ele>
        <time>2014-01-11T08:43:29Z</time>
      </trkpt>
      <trkpt lat="43.89923" lon="7.36228">
        <ele>1036.0194091797</ele>
        <time>2014-01-11T08:43:30Z</time>
      </trkpt>
      <trkpt lat="43.89922" lon="7.36227">
        <ele>1036.0330810547</ele>
        <time>2014-01-11T08:43:36Z</time>
      </trkpt>
      <trkpt lat="43.89922" lon="7.36228">
        <ele>1036.1221923828</ele>
        <time>2014-01-11T08:43:43Z</time>
      </trkpt>
      <trkpt lat="43.89922" lon="7.36228">
        <ele>1036.2746582031</ele>
        <time>2014-01-11T08:43:49Z</time>
      </trkpt>
      <trkpt lat="43.89922" lon="7.36229">
        <ele>1036.4992675781</ele>
        <time>2014-01-11T08:43:59Z</time>
      </trkpt>
      <trkpt lat="43.89922" lon="7.36229">
        <ele>1036.4688720703</ele>
        <time>2014-01-11T08:44:02Z</time>
      </trkpt>
      <trkpt lat="43.89922" lon="7.36229">
        <ele>1036.4841308594</ele>
        <time>2014-01-11T08:44:03Z</time>
      </trkpt>
      <trkpt lat="43.89921" lon="7.36229">
        <ele>1036.6335449219</ele>
        <time>2014-01-11T08:44:07Z</time>
      </trkpt>
      <trkpt lat="43.89921" lon="7.36229">
        <ele>1036.7094726562</ele>
        <time>2014-01-11T08:44:12Z</time>
      </trkpt>
      <trkpt lat="43.8992" lon="7.36228">
        <ele>1036.6751708984</ele>
        <time>2014-01-11T08:44:19Z</time>
      </trkpt>
      <trkpt lat="43.8992" lon="7.36227">
        <ele>1036.1889648438</ele>
        <time>2014-01-11T08:44:23Z</time>
      </trkpt>
      <trkpt lat="43.8992" lon="7.36227">
        <ele>1036.1431884766</ele>
        <time>2014-01-11T08:44:24Z</time>
      </trkpt>
      <trkpt lat="43.8992" lon="7.36227">
        <ele>1036.0822753906</ele>
        <time>2014-01-11T08:44:25Z</time>
      </trkpt>
      <trkpt lat="43.8992" lon="7.36226">
        <ele>1035.9322509766</ele>
        <time>2014-01-11T08:44:37Z</time>
      </trkpt>
      <trkpt lat="43.89921" lon="7.36226">
        <ele>1035.6458740234</ele>
        <time>2014-01-11T08:44:53Z</time>
      </trkpt>
      <trkpt lat="43.89921" lon="7.36226">
        <ele>1035.6307373047</ele>
        <time>2014-01-11T08:44:57Z</time>
      </trkpt>
      <trkpt lat="43.89917" lon="7.36223">
        <ele>1035.26171875</ele>
        <time>2014-01-11T08:45:05Z</time>
      </trkpt>
      <trkpt lat="43.89911" lon="7.36223">
        <ele>1035.2362060547</ele>
        <time>2014-01-11T08:45:11Z</time>
      </trkpt>
      <trkpt lat="43.89902" lon="7.36224">
        <ele>1035.4725341797</ele>
        <time>2014-01-11T08:45:17Z</time>
      </trkpt>
      <trkpt lat="43.89891" lon="7.36225">
        <ele>1035.8494873047</ele>
        <time>2014-01-11T08:45:24Z</time>
      </trkpt>
      <trkpt lat="43.89882" lon="7.36225">
        <ele>1036.1956787109</ele>
        <time>2014-01-11T08:45:29Z</time>
      </trkpt>
      <trkpt lat="43.89865" lon="7.36228">
        <ele>1037.2352294922</ele>
        <time>2014-01-11T08:45:37Z</time>
      </trkpt>
      <trkpt lat="43.89854" lon="7.36229">
        <ele>1037.9423828125</ele>
        <time>2014-01-11T08:45:43Z</time>
      </trkpt>
      <trkpt lat="43.89844" lon="7.36231">
        <ele>1038.8470458984</ele>
        <time>2014-01-11T08:45:48Z</time>
      </trkpt>
      <trkpt lat="43.89825" lon="7.36232">
        <ele>1040.3063964844</ele>
        <time>2014-01-11T08:45:58Z</time>
      </trkpt>
      <trkpt lat="43.89814" lon="7.36232">
        <ele>1041.1549072266</ele>
        <time>2014-01-11T08:46:04Z</time>
      </trkpt>
      <trkpt lat="43.89797" lon="7.36232">
        <ele>1042.3221435547</ele>
        <time>2014-01-11T08:46:13Z</time>
      </trkpt>
      <trkpt lat="43.89783" lon="7.36233">
        <ele>1043.0303955078</ele>
        <time>2014-01-11T08:46:21Z</time>
      </trkpt>
      <trkpt lat="43.89771" lon="7.36235">
        <ele>1044.3592529297</ele>
        <time>2014-01-11T08:46:28Z</time>
      </trkpt>
      <trkpt lat="43.89758" lon="7.36238">
        <ele>1045.8973388672</ele>
        <time>2014-01-11T08:46:36Z</time>
      </trkpt>
      <trkpt lat="43.89744" lon="7.3624">
        <ele>1046.9959716797</ele>
        <time>2014-01-11T08:46:44Z</time>
      </trkpt>
      <trkpt lat="43.89732" lon="7.36242">
        <ele>1048.6164550781</ele>
        <time>2014-01-11T08:46:51Z</time>
      </trkpt>
      <trkpt lat="43.89716" lon="7.36244">
        <ele>1048.9829101562</ele>
        <time>2014-01-11T08:46:59Z</time>
      </trkpt>
      <trkpt lat="43.897" lon="7.36241">
        <ele>1046.6296386719</ele>
        <time>2014-01-11T08:47:06Z</time>
      </trkpt>
      <trkpt lat="43.8968" lon="7.36242">
        <ele>1046.8278808594</ele>
        <time>2014-01-11T08:47:15Z</time>
      </trkpt>
      <trkpt lat="43.89674" lon="7.36242">
        <ele>1046.9240722656</ele>
        <time>2014-01-11T08:47:17Z</time>
      </trkpt>
      <trkpt lat="43.89669" lon="7.36242">
        <ele>1047.0202636719</ele>
        <time>2014-01-11T08:47:19Z</time>
      </trkpt>
      <trkpt lat="43.89664" lon="7.36242">
        <ele>1046.9155273438</ele>
        <time>2014-01-11T08:47:21Z</time>
      </trkpt>
      <trkpt lat="43.89653" lon="7.36242">
        <ele>1046.5428466797</ele>
        <time>2014-01-11T08:47:25Z</time>
      </trkpt>
      <trkpt lat="43.8964" lon="7.36241">
        <ele>1045.7390136719</ele>
        <time>2014-01-11T08:47:29Z</time>
      </trkpt>
      <trkpt lat="43.89619" lon="7.3625">
        <ele>1045.6322021484</ele>
        <time>2014-01-11T08:47:36Z</time>
      </trkpt>
      <trkpt lat="43.89611" lon="7.36257">
        <ele>1045.7023925781</ele>
        <time>2014-01-11T08:47:39Z</time>
      </trkpt>
      <trkpt lat="43.89606" lon="7.36263">
        <ele>1046.2463378906</ele>
        <time>2014-01-11T08:47:41Z</time>
      </trkpt>
      <trkpt lat="43.896" lon="7.36281">
        <ele>1048.5893554688</ele>
        <time>2014-01-11T08:47:46Z</time>
      </trkpt>
      <trkpt lat="43.89603" lon="7.36301">
        <ele>1053.4692382812</ele>
        <time>2014-01-11T08:47:53Z</time>
      </trkpt>
      <trkpt lat="43.89607" lon="7.36316">
        <ele>1056.4223632812</ele>
        <time>2014-01-11T08:48:00Z</time>
      </trkpt>
      <trkpt lat="43.89609" lon="7.36324">
        <ele>1057.5460205078</ele>
        <time>2014-01-11T08:48:04Z</time>
      </trkpt>
      <trkpt lat="43.8961" lon="7.36327">
        <ele>1057.9870605469</ele>
        <time>2014-01-11T08:48:05Z</time>
      </trkpt>
      <trkpt lat="43.89616" lon="7.36343">
        <ele>1059.0915527344</ele>
        <time>2014-01-11T08:48:13Z</time>
      </trkpt>
      <trkpt lat="43.89621" lon="7.36356">
        <ele>1059.9000244141</ele>
        <time>2014-01-11T08:48:20Z</time>
      </trkpt>
      <trkpt lat="43.89626" lon="7.36367">
        <ele>1061.2288818359</ele>
        <time>2014-01-11T08:48:26Z</time>
      </trkpt>
      <trkpt lat="43.89631" lon="7.36377">
        <ele>1063.2272949219</ele>
        <time>2014-01-11T08:48:32Z</time>
      </trkpt>
      <trkpt lat="43.89637" lon="7.36388">
        <ele>1066.4865722656</ele>
        <time>2014-01-11T08:48:39Z</time>
      </trkpt>
      <trkpt lat="43.89643" lon="7.36401">
        <ele>1067.6685791016</ele>
        <time>2014-01-11T08:48:46Z</time>
      </trkpt>
      <trkpt lat="43.8965" lon="7.36414">
        <ele>1068.8674316406</ele>
        <time>2014-01-11T08:48:54Z</time>
      </trkpt>
      <trkpt lat="43.89656" lon="7.36427">
        <ele>1069.3112792969</ele>
        <time>2014-01-11T08:49:01Z</time>
      </trkpt>
      <trkpt lat="43.89662" lon="7.36437">
        <ele>1070.2932128906</ele>
        <time>2014-01-11T08:49:08Z</time>
      </trkpt>
      <trkpt lat="43.89671" lon="7.36452">
        <ele>1071.7474365234</ele>
        <time>2014-01-11T08:49:18Z</time>
      </trkpt>
      <trkpt lat="43.89677" lon="7.36464">
        <ele>1073.6160888672</ele>
        <time>2014-01-11T08:49:26Z</time>
      </trkpt>
      <trkpt lat="43.89684" lon="7.36476">
        <ele>1075.0659179688</ele>
        <time>2014-01-11T08:49:34Z</time>
      </trkpt>
      <trkpt lat="43.89688" lon="7.36487">
        <ele>1076.1157226562</ele>
        <time>2014-01-11T08:49:40Z</time>
      </trkpt>
      <trkpt lat="43.89693" lon="7.36499">
        <ele>1077.5961914062</ele>
        <time>2014-01-11T08:49:47Z</time>
      </trkpt>
      <trkpt lat="43.897" lon="7.36511">
        <ele>1078.8013916016</ele>
        <time>2014-01-11T08:49:55Z</time>
      </trkpt>
      <trkpt lat="43.89707" lon="7.3652">
        <ele>1080.7393798828</ele>
        <time>2014-01-11T08:50:02Z</time>
      </trkpt>
      <trkpt lat="43.89716" lon="7.3653">
        <ele>1083.658203125</ele>
        <time>2014-01-11T08:50:11Z</time>
      </trkpt>
      <trkpt lat="43.89723" lon="7.36539">
        <ele>1085.294921875</ele>
        <time>2014-01-11T08:50:19Z</time>
      </trkpt>
      <trkpt lat="43.89728" lon="7.36554">
        <ele>1084.7136230469</ele>
        <time>2014-01-11T08:50:27Z</time>
      </trkpt>
      <trkpt lat="43.89736" lon="7.36568">
        <ele>1088.9532470703</ele>
        <time>2014-01-11T08:50:35Z</time>
      </trkpt>
      <trkpt lat="43.89743" lon="7.3658">
        <ele>1093.1510009766</ele>
        <time>2014-01-11T08:50:42Z</time>
      </trkpt>
      <trkpt lat="43.89746" lon="7.36595">
        <ele>1094.8474121094</ele>
        <time>2014-01-11T08:50:49Z</time>
      </trkpt>
      <trkpt lat="43.89744" lon="7.36606">
        <ele>1092.0659179688</ele>
        <time>2014-01-11T08:50:54Z</time>
      </trkpt>
      <trkpt lat="43.89736" lon="7.36614">
        <ele>1084.9652099609</ele>
        <time>2014-01-11T08:51:01Z</time>
      </trkpt>
      <trkpt lat="43.89725" lon="7.36623">
        <ele>1077.0225830078</ele>
        <time>2014-01-11T08:51:09Z</time>
      </trkpt>
      <trkpt lat="43.89714" lon="7.3663">
        <ele>1073.6722412109</ele>
        <time>2014-01-11T08:51:16Z</time>
      </trkpt>
      <trkpt lat="43.89705" lon="7.36637">
        <ele>1073.2015380859</ele>
        <time>2014-01-11T08:51:23Z</time>
      </trkpt>
      <trkpt lat="43.89692" lon="7.36647">
        <ele>1076.7347412109</ele>
        <time>2014-01-11T08:51:32Z</time>
      </trkpt>
      <trkpt lat="43.89687" lon="7.36653">
        <ele>1079.1595458984</ele>
        <time>2014-01-11T08:51:36Z</time>
      </trkpt>
      <trkpt lat="43.89679" lon="7.3666">
        <ele>1082.0227050781</ele>
        <time>2014-01-11T08:51:43Z</time>
      </trkpt>
      <trkpt lat="43.89672" lon="7.36665">
        <ele>1083.70703125</ele>
        <time>2014-01-11T08:51:50Z</time>
      </trkpt>
      <trkpt lat="43.8967" lon="7.3667">
        <ele>1085.89453125</ele>
        <time>2014-01-11T08:51:53Z</time>
      </trkpt>
      <trkpt lat="43.89661" lon="7.36678">
        <ele>1088.0437011719</ele>
        <time>2014-01-11T08:52:00Z</time>
      </trkpt>
      <trkpt lat="43.89648" lon="7.36687">
        <ele>1089.5052490234</ele>
        <time>2014-01-11T08:52:09Z</time>
      </trkpt>
      <trkpt lat="43.89632" lon="7.36694">
        <ele>1089.4516601562</ele>
        <time>2014-01-11T08:52:18Z</time>
      </trkpt>
      <trkpt lat="43.89618" lon="7.367">
        <ele>1090.2471923828</ele>
        <time>2014-01-11T08:52:26Z</time>
      </trkpt>
      <trkpt lat="43.89608" lon="7.36706">
        <ele>1092.0733642578</ele>
        <time>2014-01-11T08:52:33Z</time>
      </trkpt>
      <trkpt lat="43.89597" lon="7.36717">
        <ele>1095.6306152344</ele>
        <time>2014-01-11T08:52:41Z</time>
      </trkpt>
      <trkpt lat="43.89586" lon="7.36726">
        <ele>1098.6069335938</ele>
        <time>2014-01-11T08:52:48Z</time>
      </trkpt>
      <trkpt lat="43.89573" lon="7.36737">
        <ele>1099.0720214844</ele>
        <time>2014-01-11T08:52:56Z</time>
      </trkpt>
      <trkpt lat="43.89562" lon="7.36745">
        <ele>1099.5126953125</ele>
        <time>2014-01-11T08:53:04Z</time>
      </trkpt>
      <trkpt lat="43.89552" lon="7.36754">
        <ele>1100.5889892578</ele>
        <time>2014-01-11T08:53:12Z</time>
      </trkpt>
      <trkpt lat="43.89549" lon="7.36756">
        <ele>1100.3424072266</ele>
        <time>2014-01-11T08:53:14Z</time>
      </trkpt>
      <trkpt lat="43.8954" lon="7.36763">
        <ele>1100.9244384766</ele>
        <time>2014-01-11T08:53:21Z</time>
      </trkpt>
      <trkpt lat="43.89528" lon="7.36774">
        <ele>1103.6010742188</ele>
        <time>2014-01-11T08:53:30Z</time>
      </trkpt>
      <trkpt lat="43.8952" lon="7.36781">
        <ele>1105.2663574219</ele>
        <time>2014-01-11T08:53:36Z</time>
      </trkpt>
      <trkpt lat="43.89509" lon="7.36789">
        <ele>1105.8985595703</ele>
        <time>2014-01-11T08:53:44Z</time>
      </trkpt>
      <trkpt lat="43.89498" lon="7.36797">
        <ele>1106.1198730469</ele>
        <time>2014-01-11T08:53:52Z</time>
      </trkpt>
      <trkpt lat="43.89486" lon="7.36807">
        <ele>1106.2702636719</ele>
        <time>2014-01-11T08:54:00Z</time>
      </trkpt>
      <trkpt lat="43.89476" lon="7.36817">
        <ele>1106.1549072266</ele>
        <time>2014-01-11T08:54:07Z</time>
      </trkpt>
      <trkpt lat="43.8947" lon="7.36829">
        <ele>1107.4354248047</ele>
        <time>2014-01-11T08:54:14Z</time>
      </trkpt>
      <trkpt lat="43.89465" lon="7.36841">
        <ele>1109.6131591797</ele>
        <time>2014-01-11T08:54:21Z</time>
      </trkpt>
      <trkpt lat="43.89466" lon="7.36854">
        <ele>1113.630859375</ele>
        <time>2014-01-11T08:54:28Z</time>
      </trkpt>
      <trkpt lat="43.89467" lon="7.3687">
        <ele>1116.4583740234</ele>
        <time>2014-01-11T08:54:36Z</time>
      </trkpt>
      <trkpt lat="43.8947" lon="7.36887">
        <ele>1118.5709228516</ele>
        <time>2014-01-11T08:54:44Z</time>
      </trkpt>
      <trkpt lat="43.89474" lon="7.36905">
        <ele>1121.4233398438</ele>
        <time>2014-01-11T08:54:53Z</time>
      </trkpt>
      <trkpt lat="43.89477" lon="7.36923">
        <ele>1123.3845214844</ele>
        <time>2014-01-11T08:55:01Z</time>
      </trkpt>
      <trkpt lat="43.89481" lon="7.3694">
        <ele>1125.1365966797</ele>
        <time>2014-01-11T08:55:09Z</time>
      </trkpt>
      <trkpt lat="43.89484" lon="7.3695">
        <ele>1126.4571533203</ele>
        <time>2014-01-11T08:55:14Z</time>
      </trkpt>
      <trkpt lat="43.89494" lon="7.36969">
        <ele>1129.0889892578</ele>
        <time>2014-01-11T08:55:24Z</time>
      </trkpt>
      <trkpt lat="43.89493" lon="7.36983">
        <ele>1129.2861328125</ele>
        <time>2014-01-11T08:55:30Z</time>
      </trkpt>
      <trkpt lat="43.89484" lon="7.36991">
        <ele>1126.5732421875</ele>
        <time>2014-01-11T08:55:36Z</time>
      </trkpt>
      <trkpt lat="43.89471" lon="7.36996">
        <ele>1122.4536132812</ele>
        <time>2014-01-11T08:55:44Z</time>
      </trkpt>
      <trkpt lat="43.89457" lon="7.37005">
        <ele>1119.3273925781</ele>
        <time>2014-01-11T08:55:52Z</time>
      </trkpt>
      <trkpt lat="43.89445" lon="7.37015">
        <ele>1119.8791503906</ele>
        <time>2014-01-11T08:56:00Z</time>
      </trkpt>
      <trkpt lat="43.89434" lon="7.37027">
        <ele>1122.6910400391</ele>
        <time>2014-01-11T08:56:09Z</time>
      </trkpt>
      <trkpt lat="43.89425" lon="7.37036">
        <ele>1122.0045166016</ele>
        <time>2014-01-11T08:56:16Z</time>
      </trkpt>
      <trkpt lat="43.89415" lon="7.37053">
        <ele>1121.6340332031</ele>
        <time>2014-01-11T08:56:25Z</time>
      </trkpt>
      <trkpt lat="43.89411" lon="7.37069">
        <ele>1122.8935546875</ele>
        <time>2014-01-11T08:56:33Z</time>
      </trkpt>
      <trkpt lat="43.89414" lon="7.37084">
        <ele>1126.7879638672</ele>
        <time>2014-01-11T08:56:40Z</time>
      </trkpt>
      <trkpt lat="43.89418" lon="7.37099">
        <ele>1131.4378662109</ele>
        <time>2014-01-11T08:56:48Z</time>
      </trkpt>
      <trkpt lat="43.89422" lon="7.37114">
        <ele>1136.2055664062</ele>
        <time>2014-01-11T08:56:56Z</time>
      </trkpt>
      <trkpt lat="43.89425" lon="7.37131">
        <ele>1136.9708251953</ele>
        <time>2014-01-11T08:57:04Z</time>
      </trkpt>
      <trkpt lat="43.8943" lon="7.37145">
        <ele>1138.9119873047</ele>
        <time>2014-01-11T08:57:12Z</time>
      </trkpt>
      <trkpt lat="43.89434" lon="7.37156">
        <ele>1141.2161865234</ele>
        <time>2014-01-11T08:57:18Z</time>
      </trkpt>
      <trkpt lat="43.89439" lon="7.37172">
        <ele>1143.5650634766</ele>
        <time>2014-01-11T08:57:26Z</time>
      </trkpt>
      <trkpt lat="43.89442" lon="7.37193">
        <ele>1144.05859375</ele>
        <time>2014-01-11T08:57:36Z</time>
      </trkpt>
      <trkpt lat="43.89445" lon="7.37209">
        <ele>1143.9794921875</ele>
        <time>2014-01-11T08:57:43Z</time>
      </trkpt>
      <trkpt lat="43.89449" lon="7.37219">
        <ele>1146.1667480469</ele>
        <time>2014-01-11T08:57:48Z</time>
      </trkpt>
      <trkpt lat="43.8945" lon="7.37233">
        <ele>1146.2589111328</ele>
        <time>2014-01-11T08:57:54Z</time>
      </trkpt>
      <trkpt lat="43.89449" lon="7.37236">
        <ele>1145.8251953125</ele>
        <time>2014-01-11T08:57:55Z</time>
      </trkpt>
      <trkpt lat="43.89441" lon="7.37248">
        <ele>1138.9141845703</ele>
        <time>2014-01-11T08:58:02Z</time>
      </trkpt>
      <trkpt lat="43.8943" lon="7.37256">
        <ele>1135.0065917969</ele>
        <time>2014-01-11T08:58:10Z</time>
      </trkpt>
      <trkpt lat="43.89419" lon="7.37266">
        <ele>1131.4705810547</ele>
        <time>2014-01-11T08:58:18Z</time>
      </trkpt>
      <trkpt lat="43.89406" lon="7.3728">
        <ele>1131.2487792969</ele>
        <time>2014-01-11T08:58:27Z</time>
      </trkpt>
      <trkpt lat="43.894" lon="7.37291">
        <ele>1133.7053222656</ele>
        <time>2014-01-11T08:58:33Z</time>
      </trkpt>
      <trkpt lat="43.89394" lon="7.37301">
        <ele>1134.7834472656</ele>
        <time>2014-01-11T08:58:39Z</time>
      </trkpt>
      <trkpt lat="43.89388" lon="7.37313">
        <ele>1137.8253173828</ele>
        <time>2014-01-11T08:58:46Z</time>
      </trkpt>
      <trkpt lat="43.89379" lon="7.3733">
        <ele>1142.7489013672</ele>
        <time>2014-01-11T08:58:56Z</time>
      </trkpt>
      <trkpt lat="43.89369" lon="7.37341">
        <ele>1145.5959472656</ele>
        <time>2014-01-11T08:59:04Z</time>
      </trkpt>
      <trkpt lat="43.8936" lon="7.37353">
        <ele>1152.4984130859</ele>
        <time>2014-01-11T08:59:11Z</time>
      </trkpt>
      <trkpt lat="43.89349" lon="7.37356">
        <ele>1148.21875</ele>
        <time>2014-01-11T08:59:19Z</time>
      </trkpt>
      <trkpt lat="43.89339" lon="7.37364">
        <ele>1146.4722900391</ele>
        <time>2014-01-11T08:59:26Z</time>
      </trkpt>
      <trkpt lat="43.89331" lon="7.37378">
        <ele>1151.1776123047</ele>
        <time>2014-01-11T08:59:35Z</time>
      </trkpt>
      <trkpt lat="43.89326" lon="7.37391">
        <ele>1157.4458007812</ele>
        <time>2014-01-11T08:59:42Z</time>
      </trkpt>
      <trkpt lat="43.89323" lon="7.37408">
        <ele>1162.6407470703</ele>
        <time>2014-01-11T08:59:50Z</time>
      </trkpt>
      <trkpt lat="43.89318" lon="7.37421">
        <ele>1165.34375</ele>
        <time>2014-01-11T08:59:57Z</time>
      </trkpt>
      <trkpt lat="43.8931" lon="7.37435">
        <ele>1164.6732177734</ele>
        <time>2014-01-11T09:00:05Z</time>
      </trkpt>
      <trkpt lat="43.89301" lon="7.37448">
        <ele>1162.3026123047</ele>
        <time>2014-01-11T09:00:13Z</time>
      </trkpt>
      <trkpt lat="43.89289" lon="7.37456">
        <ele>1159.2366943359</ele>
        <time>2014-01-11T09:00:20Z</time>
      </trkpt>
      <trkpt lat="43.89288" lon="7.37457">
        <ele>1158.8929443359</ele>
        <time>2014-01-11T09:00:21Z</time>
      </trkpt>
      <trkpt lat="43.89279" lon="7.37466">
        <ele>1158.2603759766</ele>
        <time>2014-01-11T09:00:27Z</time>
      </trkpt>
      <trkpt lat="43.89281" lon="7.37475">
        <ele>1161.1804199219</ele>
        <time>2014-01-11T09:00:31Z</time>
      </trkpt>
      <trkpt lat="43.89286" lon="7.37491">
        <ele>1164.3092041016</ele>
        <time>2014-01-11T09:00:39Z</time>
      </trkpt>
      <trkpt lat="43.89291" lon="7.37509">
        <ele>1168.8293457031</ele>
        <time>2014-01-11T09:00:48Z</time>
      </trkpt>
      <trkpt lat="43.89296" lon="7.37525">
        <ele>1173.7152099609</ele>
        <time>2014-01-11T09:00:56Z</time>
      </trkpt>
      <trkpt lat="43.893" lon="7.37548">
        <ele>1176.837890625</ele>
        <time>2014-01-11T09:01:06Z</time>
      </trkpt>
      <trkpt lat="43.89302" lon="7.37564">
        <ele>1178.8118896484</ele>
        <time>2014-01-11T09:01:13Z</time>
      </trkpt>
      <trkpt lat="43.893" lon="7.3758">
        <ele>1179.326171875</ele>
        <time>2014-01-11T09:01:19Z</time>
      </trkpt>
      <trkpt lat="43.89295" lon="7.37595">
        <ele>1176.5856933594</ele>
        <time>2014-01-11T09:01:25Z</time>
      </trkpt>
      <trkpt lat="43.89288" lon="7.37613">
        <ele>1172.7205810547</ele>
        <time>2014-01-11T09:01:32Z</time>
      </trkpt>
      <trkpt lat="43.89285" lon="7.37634">
        <ele>1172.3359375</ele>
        <time>2014-01-11T09:01:39Z</time>
      </trkpt>
      <trkpt lat="43.89289" lon="7.37659">
        <ele>1173.5502929688</ele>
        <time>2014-01-11T09:01:47Z</time>
      </trkpt>
      <trkpt lat="43.89291" lon="7.37686">
        <ele>1171.7407226562</ele>
        <time>2014-01-11T09:01:54Z</time>
      </trkpt>
      <trkpt lat="43.89291" lon="7.3769">
        <ele>1171.5234375</ele>
        <time>2014-01-11T09:01:58Z</time>
      </trkpt>
      <trkpt lat="43.89291" lon="7.3769">
        <ele>1171.3370361328</ele>
        <time>2014-01-11T09:02:05Z</time>
      </trkpt>
      <trkpt lat="43.89291" lon="7.3769">
        <ele>1171.5587158203</ele>
        <time>2014-01-11T09:02:13Z</time>
      </trkpt>
      <trkpt lat="43.89291" lon="7.3769">
        <ele>1171.7884521484</ele>
        <time>2014-01-11T09:02:18Z</time>
      </trkpt>
      <trkpt lat="43.89291" lon="7.3769">
        <ele>1171.5057373047</ele>
        <time>2014-01-11T09:02:25Z</time>
      </trkpt>
      <trkpt lat="43.89291" lon="7.3769">
        <ele>1171.5101318359</ele>
        <time>2014-01-11T09:02:28Z</time>
      </trkpt>
      <trkpt lat="43.89291" lon="7.3769">
        <ele>1171.5145263672</ele>
        <time>2014-01-11T09:02:30Z</time>
      </trkpt>
      <trkpt lat="43.89291" lon="7.3769">
        <ele>1171.5145263672</ele>
        <time>2014-01-11T09:02:31Z</time>
      </trkpt>
      <trkpt lat="43.89291" lon="7.3769">
        <ele>1171.5190429688</ele>
        <time>2014-01-11T09:02:36Z</time>
      </trkpt>
      <trkpt lat="43.89291" lon="7.3769">
        <ele>1171.5455322266</ele>
        <time>2014-01-11T09:03:01Z</time>
      </trkpt>
      <trkpt lat="43.89291" lon="7.37689">
        <ele>1171.4222412109</ele>
        <time>2014-01-11T09:03:14Z</time>
      </trkpt>
      <trkpt lat="43.89291" lon="7.37689">
        <ele>1171.4311523438</ele>
        <time>2014-01-11T09:03:23Z</time>
      </trkpt>
      <trkpt lat="43.89291" lon="7.37689">
        <ele>1171.6293945312</ele>
        <time>2014-01-11T09:03:30Z</time>
      </trkpt>
      <trkpt lat="43.89291" lon="7.37689">
        <ele>1171.4088134766</ele>
        <time>2014-01-11T09:03:35Z</time>
      </trkpt>
      <trkpt lat="43.89291" lon="7.3769">
        <ele>1171.5455322266</ele>
        <time>2014-01-11T09:03:57Z</time>
      </trkpt>
      <trkpt lat="43.89292" lon="7.37689">
        <ele>1172.0469970703</ele>
        <time>2014-01-11T09:04:08Z</time>
      </trkpt>
      <trkpt lat="43.89292" lon="7.37689">
        <ele>1172.0256347656</ele>
        <time>2014-01-11T09:04:12Z</time>
      </trkpt>
      <trkpt lat="43.89292" lon="7.37689">
        <ele>1172.0170898438</ele>
        <time>2014-01-11T09:04:15Z</time>
      </trkpt>
      <trkpt lat="43.89292" lon="7.37689">
        <ele>1172.0213623047</ele>
        <time>2014-01-11T09:04:18Z</time>
      </trkpt>
      <trkpt lat="43.89292" lon="7.37689">
        <ele>1172.0256347656</ele>
        <time>2014-01-11T09:04:19Z</time>
      </trkpt>
      <trkpt lat="43.89292" lon="7.37689">
        <ele>1172.0256347656</ele>
        <time>2014-01-11T09:04:20Z</time>
      </trkpt>
      <trkpt lat="43.89292" lon="7.37689">
        <ele>1172.0299072266</ele>
        <time>2014-01-11T09:04:23Z</time>
      </trkpt>
      <trkpt lat="43.89292" lon="7.37689">
        <ele>1172.0256347656</ele>
        <time>2014-01-11T09:04:28Z</time>
      </trkpt>
      <trkpt lat="43.89292" lon="7.37689">
        <ele>1172.2111816406</ele>
        <time>2014-01-11T09:04:35Z</time>
      </trkpt>
      <trkpt lat="43.89292" lon="7.37689">
        <ele>1172.2111816406</ele>
        <time>2014-01-11T09:04:37Z</time>
      </trkpt>
      <trkpt lat="43.89291" lon="7.37689">
        <ele>1171.8275146484</ele>
        <time>2014-01-11T09:04:45Z</time>
      </trkpt>
      <trkpt lat="43.89292" lon="7.3769">
        <ele>1171.9401855469</ele>
        <time>2014-01-11T09:05:00Z</time>
      </trkpt>
      <trkpt lat="43.89293" lon="7.37693">
        <ele>1172.0500488281</ele>
        <time>2014-01-11T09:05:12Z</time>
      </trkpt>
      <trkpt lat="43.89295" lon="7.37709">
        <ele>1171.6274414062</ele>
        <time>2014-01-11T09:05:17Z</time>
      </trkpt>
      <trkpt lat="43.89297" lon="7.37723">
        <ele>1171.33203125</ele>
        <time>2014-01-11T09:05:20Z</time>
      </trkpt>
      <trkpt lat="43.89298" lon="7.37727">
        <ele>1171.4670410156</ele>
        <time>2014-01-11T09:05:21Z</time>
      </trkpt>
      <trkpt lat="43.89305" lon="7.37768">
        <ele>1172.0450439453</ele>
        <time>2014-01-11T09:05:29Z</time>
      </trkpt>
      <trkpt lat="43.89314" lon="7.37807">
        <ele>1171.5515136719</ele>
        <time>2014-01-11T09:05:35Z</time>
      </trkpt>
      <trkpt lat="43.89317" lon="7.37814">
        <ele>1171.5515136719</ele>
        <time>2014-01-11T09:05:36Z</time>
      </trkpt>
      <trkpt lat="43.89325" lon="7.37846">
        <ele>1170.9814453125</ele>
        <time>2014-01-11T09:05:40Z</time>
      </trkpt>
      <trkpt lat="43.89333" lon="7.37901">
        <ele>1168.5051269531</ele>
        <time>2014-01-11T09:05:46Z</time>
      </trkpt>
      <trkpt lat="43.8934" lon="7.37959">
        <ele>1164.4291992188</ele>
        <time>2014-01-11T09:05:52Z</time>
      </trkpt>
      <trkpt lat="43.89354" lon="7.38004">
        <ele>1164.7481689453</ele>
        <time>2014-01-11T09:05:57Z</time>
      </trkpt>
      <trkpt lat="43.89357" lon="7.3803">
        <ele>1162.8352050781</ele>
        <time>2014-01-11T09:06:00Z</time>
      </trkpt>
      <trkpt lat="43.89347" lon="7.38053">
        <ele>1154.7962646484</ele>
        <time>2014-01-11T09:06:03Z</time>
      </trkpt>
      <trkpt lat="43.89348" lon="7.3808">
        <ele>1152.5404052734</ele>
        <time>2014-01-11T09:06:06Z</time>
      </trkpt>
      <trkpt lat="43.89351" lon="7.38089">
        <ele>1152.6585693359</ele>
        <time>2014-01-11T09:06:07Z</time>
      </trkpt>
      <trkpt lat="43.89357" lon="7.38107">
        <ele>1152.9710693359</ele>
        <time>2014-01-11T09:06:09Z</time>
      </trkpt>
      <trkpt lat="43.89364" lon="7.38124">
        <ele>1153.7055664062</ele>
        <time>2014-01-11T09:06:11Z</time>
      </trkpt>
      <trkpt lat="43.89372" lon="7.38155">
        <ele>1152.6920166016</ele>
        <time>2014-01-11T09:06:15Z</time>
      </trkpt>
      <trkpt lat="43.89368" lon="7.38158">
        <ele>1151.0797119141</ele>
        <time>2014-01-11T09:06:16Z</time>
      </trkpt>
      <trkpt lat="43.89359" lon="7.38171">
        <ele>1147.1765136719</ele>
        <time>2014-01-11T09:06:19Z</time>
      </trkpt>
      <trkpt lat="43.89351" lon="7.38189">
        <ele>1145.0914306641</ele>
        <time>2014-01-11T09:06:23Z</time>
      </trkpt>
      <trkpt lat="43.89352" lon="7.38205">
        <ele>1145.1506347656</ele>
        <time>2014-01-11T09:06:28Z</time>
      </trkpt>
      <trkpt lat="43.89352" lon="7.3821">
        <ele>1145.1967773438</ele>
        <time>2014-01-11T09:06:29Z</time>
      </trkpt>
      <trkpt lat="43.8936" lon="7.38232">
        <ele>1146.8946533203</ele>
        <time>2014-01-11T09:06:35Z</time>
      </trkpt>
      <trkpt lat="43.89364" lon="7.38241">
        <ele>1146.8116455078</ele>
        <time>2014-01-11T09:06:39Z</time>
      </trkpt>
      <trkpt lat="43.89364" lon="7.3824">
        <ele>1146.8194580078</ele>
        <time>2014-01-11T09:06:44Z</time>
      </trkpt>
      <trkpt lat="43.89364" lon="7.3824">
        <ele>1146.8194580078</ele>
        <time>2014-01-11T09:06:48Z</time>
      </trkpt>
      <trkpt lat="43.89364" lon="7.3824">
        <ele>1146.8171386719</ele>
        <time>2014-01-11T09:06:52Z</time>
      </trkpt>
      <trkpt lat="43.89364" lon="7.38241">
        <ele>1146.8132324219</ele>
        <time>2014-01-11T09:06:55Z</time>
      </trkpt>
      <trkpt lat="43.89364" lon="7.38241">
        <ele>1146.8101806641</ele>
        <time>2014-01-11T09:06:56Z</time>
      </trkpt>
      <trkpt lat="43.89364" lon="7.38241">
        <ele>1146.8093261719</ele>
        <time>2014-01-11T09:06:57Z</time>
      </trkpt>
      <trkpt lat="43.89365" lon="7.38242">
        <ele>1146.7696533203</ele>
        <time>2014-01-11T09:07:08Z</time>
      </trkpt>
      <trkpt lat="43.89365" lon="7.38242">
        <ele>1146.7652587891</ele>
        <time>2014-01-11T09:07:17Z</time>
      </trkpt>
      <trkpt lat="43.89365" lon="7.38242">
        <ele>1146.7722167969</ele>
        <time>2014-01-11T09:07:25Z</time>
      </trkpt>
      <trkpt lat="43.89365" lon="7.38243">
        <ele>1146.7263183594</ele>
        <time>2014-01-11T09:07:35Z</time>
      </trkpt>
      <trkpt lat="43.89362" lon="7.38244">
        <ele>1146.9334716797</ele>
        <time>2014-01-11T09:07:40Z</time>
      </trkpt>
      <trkpt lat="43.89362" lon="7.38244">
        <ele>1146.9647216797</ele>
        <time>2014-01-11T09:07:44Z</time>
      </trkpt>
      <trkpt lat="43.89362" lon="7.38245">
        <ele>1146.9609375</ele>
        <time>2014-01-11T09:07:52Z</time>
      </trkpt>
      <trkpt lat="43.8936" lon="7.38246">
        <ele>1146.9132080078</ele>
        <time>2014-01-11T09:07:54Z</time>
      </trkpt>
      <trkpt lat="43.89364" lon="7.38243">
        <ele>1146.8040771484</ele>
        <time>2014-01-11T09:07:58Z</time>
      </trkpt>
      <trkpt lat="43.89365" lon="7.38246">
        <ele>1146.6898193359</ele>
        <time>2014-01-11T09:07:59Z</time>
      </trkpt>
      <trkpt lat="43.89367" lon="7.38279">
        <ele>1144.5740966797</ele>
        <time>2014-01-11T09:08:05Z</time>
      </trkpt>
      <trkpt lat="43.89371" lon="7.38311">
        <ele>1141.8930664062</ele>
        <time>2014-01-11T09:08:10Z</time>
      </trkpt>
      <trkpt lat="43.89372" lon="7.38317">
        <ele>1141.4992675781</ele>
        <time>2014-01-11T09:08:11Z</time>
      </trkpt>
      <trkpt lat="43.89375" lon="7.38334">
        <ele>1140.5430908203</ele>
        <time>2014-01-11T09:08:14Z</time>
      </trkpt>
      <trkpt lat="43.89382" lon="7.38364">
        <ele>1141.6619873047</ele>
        <time>2014-01-11T09:08:19Z</time>
      </trkpt>
      <trkpt lat="43.89394" lon="7.38395">
        <ele>1138.2347412109</ele>
        <time>2014-01-11T09:08:25Z</time>
      </trkpt>
      <trkpt lat="43.89396" lon="7.384">
        <ele>1137.5432128906</ele>
        <time>2014-01-11T09:08:26Z</time>
      </trkpt>
      <trkpt lat="43.894" lon="7.38408">
        <ele>1135.6693115234</ele>
        <time>2014-01-11T09:08:29Z</time>
      </trkpt>
      <trkpt lat="43.89404" lon="7.38409">
        <ele>1132.8444824219</ele>
        <time>2014-01-11T09:08:40Z</time>
      </trkpt>
      <trkpt lat="43.89405" lon="7.38409">
        <ele>1132.0255126953</ele>
        <time>2014-01-11T09:08:42Z</time>
      </trkpt>
      <trkpt lat="43.89411" lon="7.38429">
        <ele>1132.7296142578</ele>
        <time>2014-01-11T09:08:47Z</time>
      </trkpt>
      <trkpt lat="43.89418" lon="7.38443">
        <ele>1132.0942382812</ele>
        <time>2014-01-11T09:08:51Z</time>
      </trkpt>
      <trkpt lat="43.89426" lon="7.38453">
        <ele>1126.7155761719</ele>
        <time>2014-01-11T09:08:54Z</time>
      </trkpt>
      <trkpt lat="43.89438" lon="7.38472">
        <ele>1121.5751953125</ele>
        <time>2014-01-11T09:09:00Z</time>
      </trkpt>
      <trkpt lat="43.89447" lon="7.3849">
        <ele>1118.6164550781</ele>
        <time>2014-01-11T09:09:04Z</time>
      </trkpt>
      <trkpt lat="43.8946" lon="7.3851">
        <ele>1113.7818603516</ele>
        <time>2014-01-11T09:09:09Z</time>
      </trkpt>
      <trkpt lat="43.89466" lon="7.38518">
        <ele>1111.0615234375</ele>
        <time>2014-01-11T09:09:10Z</time>
      </trkpt>
      <trkpt lat="43.89494" lon="7.3855">
        <ele>1105.4891357422</ele>
        <time>2014-01-11T09:09:16Z</time>
      </trkpt>
      <trkpt lat="43.89498" lon="7.38553">
        <ele>1104.4609375</ele>
        <time>2014-01-11T09:09:17Z</time>
      </trkpt>
      <trkpt lat="43.89519" lon="7.3858">
        <ele>1101.3948974609</ele>
        <time>2014-01-11T09:09:22Z</time>
      </trkpt>
      <trkpt lat="43.8953" lon="7.38592">
        <ele>1099.3767089844</ele>
        <time>2014-01-11T09:09:24Z</time>
      </trkpt>
      <trkpt lat="43.8955" lon="7.38621">
        <ele>1090.7365722656</ele>
        <time>2014-01-11T09:09:28Z</time>
      </trkpt>
      <trkpt lat="43.8958" lon="7.38654">
        <ele>1084.5750732422</ele>
        <time>2014-01-11T09:09:34Z</time>
      </trkpt>
      <trkpt lat="43.89595" lon="7.38667">
        <ele>1082.9613037109</ele>
        <time>2014-01-11T09:09:37Z</time>
      </trkpt>
      <trkpt lat="43.89605" lon="7.38672">
        <ele>1081.1608886719</ele>
        <time>2014-01-11T09:09:41Z</time>
      </trkpt>
      <trkpt lat="43.89606" lon="7.38673">
        <ele>1081.0545654297</ele>
        <time>2014-01-11T09:09:44Z</time>
      </trkpt>
      <trkpt lat="43.89614" lon="7.38683">
        <ele>1079.8743896484</ele>
        <time>2014-01-11T09:09:48Z</time>
      </trkpt>
      <trkpt lat="43.89617" lon="7.38689">
        <ele>1080.0930175781</ele>
        <time>2014-01-11T09:09:51Z</time>
      </trkpt>
      <trkpt lat="43.89618" lon="7.38688">
        <ele>1079.9998779297</ele>
        <time>2014-01-11T09:10:02Z</time>
      </trkpt>
      <trkpt lat="43.89618" lon="7.38689">
        <ele>1080.0241699219</ele>
        <time>2014-01-11T09:10:11Z</time>
      </trkpt>
      <trkpt lat="43.89618" lon="7.38688">
        <ele>1079.9998779297</ele>
        <time>2014-01-11T09:10:20Z</time>
      </trkpt>
      <trkpt lat="43.89618" lon="7.38688">
        <ele>1079.9755859375</ele>
        <time>2014-01-11T09:10:26Z</time>
      </trkpt>
      <trkpt lat="43.89618" lon="7.38688">
        <ele>1079.8673095703</ele>
        <time>2014-01-11T09:10:31Z</time>
      </trkpt>
      <trkpt lat="43.8963" lon="7.38694">
        <ele>1080.1807861328</ele>
        <time>2014-01-11T09:10:35Z</time>
      </trkpt>
      <trkpt lat="43.89647" lon="7.38699">
        <ele>1077.1510009766</ele>
        <time>2014-01-11T09:10:38Z</time>
      </trkpt>
      <trkpt lat="43.89654" lon="7.38712">
        <ele>1077.5944824219</ele>
        <time>2014-01-11T09:10:40Z</time>
      </trkpt>
      <trkpt lat="43.89668" lon="7.38746">
        <ele>1075.4396972656</ele>
        <time>2014-01-11T09:10:45Z</time>
      </trkpt>
      <trkpt lat="43.89679" lon="7.38763">
        <ele>1069.3839111328</ele>
        <time>2014-01-11T09:10:48Z</time>
      </trkpt>
      <trkpt lat="43.89684" lon="7.38768">
        <ele>1067.7958984375</ele>
        <time>2014-01-11T09:10:49Z</time>
      </trkpt>
      <trkpt lat="43.89707" lon="7.38785">
        <ele>1062.6588134766</ele>
        <time>2014-01-11T09:10:53Z</time>
      </trkpt>
      <trkpt lat="43.89715" lon="7.38791">
        <ele>1061.3244628906</ele>
        <time>2014-01-11T09:10:55Z</time>
      </trkpt>
      <trkpt lat="43.89717" lon="7.38794">
        <ele>1060.8902587891</ele>
        <time>2014-01-11T09:10:56Z</time>
      </trkpt>
      <trkpt lat="43.89738" lon="7.388">
        <ele>1058.0904541016</ele>
        <time>2014-01-11T09:11:01Z</time>
      </trkpt>
      <trkpt lat="43.89746" lon="7.38799">
        <ele>1057.0236816406</ele>
        <time>2014-01-11T09:11:03Z</time>
      </trkpt>
      <trkpt lat="43.89759" lon="7.38785">
        <ele>1052.3936767578</ele>
        <time>2014-01-11T09:11:07Z</time>
      </trkpt>
      <trkpt lat="43.89766" lon="7.38777">
        <ele>1048.9862060547</ele>
        <time>2014-01-11T09:11:12Z</time>
      </trkpt>
      <trkpt lat="43.89769" lon="7.38784">
        <ele>1047.2338867188</ele>
        <time>2014-01-11T09:11:14Z</time>
      </trkpt>
      <trkpt lat="43.89777" lon="7.38806">
        <ele>1044.3048095703</ele>
        <time>2014-01-11T09:11:19Z</time>
      </trkpt>
      <trkpt lat="43.89782" lon="7.38822">
        <ele>1041.1197509766</ele>
        <time>2014-01-11T09:11:23Z</time>
      </trkpt>
      <trkpt lat="43.89784" lon="7.38839">
        <ele>1038.7374267578</ele>
        <time>2014-01-11T09:11:28Z</time>
      </trkpt>
      <trkpt lat="43.89791" lon="7.38843">
        <ele>1034.4262695312</ele>
        <time>2014-01-11T09:11:32Z</time>
      </trkpt>
      <trkpt lat="43.89799" lon="7.38845">
        <ele>1030.2941894531</ele>
        <time>2014-01-11T09:11:36Z</time>
      </trkpt>
      <trkpt lat="43.89798" lon="7.38854">
        <ele>1029.0780029297</ele>
        <time>2014-01-11T09:11:39Z</time>
      </trkpt>
      <trkpt lat="43.898" lon="7.38864">
        <ele>1026.6724853516</ele>
        <time>2014-01-11T09:11:44Z</time>
      </trkpt>
      <trkpt lat="43.89807" lon="7.38864">
        <ele>1023.8728637695</ele>
        <time>2014-01-11T09:11:47Z</time>
      </trkpt>
      <trkpt lat="43.89808" lon="7.3887">
        <ele>1023.0947875977</ele>
        <time>2014-01-11T09:11:49Z</time>
      </trkpt>
      <trkpt lat="43.89807" lon="7.38878">
        <ele>1022.5912475586</ele>
        <time>2014-01-11T09:11:51Z</time>
      </trkpt>
      <trkpt lat="43.89812" lon="7.38886">
        <ele>1019.2670898438</ele>
        <time>2014-01-11T09:11:55Z</time>
      </trkpt>
      <trkpt lat="43.89815" lon="7.38891">
        <ele>1017.3590087891</ele>
        <time>2014-01-11T09:11:59Z</time>
      </trkpt>
      <trkpt lat="43.89813" lon="7.38896">
        <ele>1017.2017211914</ele>
        <time>2014-01-11T09:12:01Z</time>
      </trkpt>
      <trkpt lat="43.89822" lon="7.38901">
        <ele>1012.4967041016</ele>
        <time>2014-01-11T09:12:05Z</time>
      </trkpt>
      <trkpt lat="43.89836" lon="7.38906">
        <ele>1006.1771850586</ele>
        <time>2014-01-11T09:12:09Z</time>
      </trkpt>
      <trkpt lat="43.89847" lon="7.38919">
        <ele>998.06365966797</ele>
        <time>2014-01-11T09:12:13Z</time>
      </trkpt>
      <trkpt lat="43.89858" lon="7.38934">
        <ele>990.58245849609</ele>
        <time>2014-01-11T09:12:16Z</time>
      </trkpt>
      <trkpt lat="43.89867" lon="7.38942">
        <ele>986.51965332031</ele>
        <time>2014-01-11T09:12:18Z</time>
      </trkpt>
      <trkpt lat="43.89877" lon="7.38949">
        <ele>983.81677246094</ele>
        <time>2014-01-11T09:12:20Z</time>
      </trkpt>
      <trkpt lat="43.89905" lon="7.38962">
        <ele>975.23516845703</ele>
        <time>2014-01-11T09:12:27Z</time>
      </trkpt>
      <trkpt lat="43.89907" lon="7.38963">
        <ele>974.56628417969</ele>
        <time>2014-01-11T09:12:28Z</time>
      </trkpt>
      <trkpt lat="43.89919" lon="7.38976">
        <ele>973.55023193359</ele>
        <time>2014-01-11T09:12:33Z</time>
      </trkpt>
      <trkpt lat="43.8993" lon="7.38985">
        <ele>969.88012695312</ele>
        <time>2014-01-11T09:12:38Z</time>
      </trkpt>
      <trkpt lat="43.89938" lon="7.3899">
        <ele>966.92413330078</ele>
        <time>2014-01-11T09:12:42Z</time>
      </trkpt>
      <trkpt lat="43.89941" lon="7.38992">
        <ele>965.82891845703</ele>
        <time>2014-01-11T09:12:44Z</time>
      </trkpt>
      <trkpt lat="43.89947" lon="7.38992">
        <ele>962.95092773438</ele>
        <time>2014-01-11T09:12:47Z</time>
      </trkpt>
      <trkpt lat="43.89965" lon="7.39004">
        <ele>954.58050537109</ele>
        <time>2014-01-11T09:12:54Z</time>
      </trkpt>
      <trkpt lat="43.8998" lon="7.39015">
        <ele>949.66107177734</ele>
        <time>2014-01-11T09:13:00Z</time>
      </trkpt>
      <trkpt lat="43.89997" lon="7.39032">
        <ele>943.63525390625</ele>
        <time>2014-01-11T09:13:06Z</time>
      </trkpt>
      <trkpt lat="43.90003" lon="7.39043">
        <ele>942.20727539062</ele>
        <time>2014-01-11T09:13:10Z</time>
      </trkpt>
      <trkpt lat="43.90004" lon="7.39045">
        <ele>941.95989990234</ele>
        <time>2014-01-11T09:13:16Z</time>
      </trkpt>
      <trkpt lat="43.90004" lon="7.39046">
        <ele>941.86346435547</ele>
        <time>2014-01-11T09:13:32Z</time>
      </trkpt>
      <trkpt lat="43.90004" lon="7.39046">
        <ele>941.81512451172</ele>
        <time>2014-01-11T09:13:40Z</time>
      </trkpt>
      <trkpt lat="43.90004" lon="7.39046">
        <ele>941.85375976562</ele>
        <time>2014-01-11T09:13:50Z</time>
      </trkpt>
      <trkpt lat="43.90004" lon="7.39046">
        <ele>941.79583740234</ele>
        <time>2014-01-11T09:13:56Z</time>
      </trkpt>
      <trkpt lat="43.90005" lon="7.39046">
        <ele>941.37200927734</ele>
        <time>2014-01-11T09:14:02Z</time>
      </trkpt>
      <trkpt lat="43.90005" lon="7.39045">
        <ele>941.525390625</ele>
        <time>2014-01-11T09:14:07Z</time>
      </trkpt>
      <trkpt lat="43.90005" lon="7.39045">
        <ele>941.43762207031</ele>
        <time>2014-01-11T09:14:09Z</time>
      </trkpt>
      <trkpt lat="43.90006" lon="7.39046">
        <ele>940.99835205078</ele>
        <time>2014-01-11T09:14:16Z</time>
      </trkpt>
      <trkpt lat="43.90007" lon="7.39047">
        <ele>940.46502685547</ele>
        <time>2014-01-11T09:14:21Z</time>
      </trkpt>
      <trkpt lat="43.90015" lon="7.39055">
        <ele>937.98028564453</ele>
        <time>2014-01-11T09:14:26Z</time>
      </trkpt>
      <trkpt lat="43.90023" lon="7.39056">
        <ele>934.18994140625</ele>
        <time>2014-01-11T09:14:30Z</time>
      </trkpt>
      <trkpt lat="43.90027" lon="7.39062">
        <ele>934.25134277344</ele>
        <time>2014-01-11T09:14:32Z</time>
      </trkpt>
      <trkpt lat="43.90037" lon="7.3908">
        <ele>933.40209960938</ele>
        <time>2014-01-11T09:14:38Z</time>
      </trkpt>
      <trkpt lat="43.90049" lon="7.39096">
        <ele>927.17065429688</ele>
        <time>2014-01-11T09:14:42Z</time>
      </trkpt>
      <trkpt lat="43.9006" lon="7.39109">
        <ele>922.65087890625</ele>
        <time>2014-01-11T09:14:46Z</time>
      </trkpt>
      <trkpt lat="43.90069" lon="7.39116">
        <ele>919.15570068359</ele>
        <time>2014-01-11T09:14:49Z</time>
      </trkpt>
      <trkpt lat="43.90075" lon="7.39122">
        <ele>916.72155761719</ele>
        <time>2014-01-11T09:14:51Z</time>
      </trkpt>
      <trkpt lat="43.90078" lon="7.39125">
        <ele>915.60748291016</ele>
        <time>2014-01-11T09:14:52Z</time>
      </trkpt>
      <trkpt lat="43.90088" lon="7.39144">
        <ele>913.52618408203</ele>
        <time>2014-01-11T09:14:56Z</time>
      </trkpt>
      <trkpt lat="43.90097" lon="7.39158">
        <ele>910.99420166016</ele>
        <time>2014-01-11T09:15:00Z</time>
      </trkpt>
      <trkpt lat="43.901" lon="7.3917">
        <ele>910.83721923828</ele>
        <time>2014-01-11T09:15:03Z</time>
      </trkpt>
      <trkpt lat="43.901" lon="7.39176">
        <ele>910.98577880859</ele>
        <time>2014-01-11T09:15:04Z</time>
      </trkpt>
      <trkpt lat="43.90099" lon="7.39196">
        <ele>911.57989501953</ele>
        <time>2014-01-11T09:15:08Z</time>
      </trkpt>
      <trkpt lat="43.90097" lon="7.39212">
        <ele>909.39117431641</ele>
        <time>2014-01-11T09:15:12Z</time>
      </trkpt>
      <trkpt lat="43.9011" lon="7.39213">
        <ele>905.70874023438</ele>
        <time>2014-01-11T09:15:17Z</time>
      </trkpt>
      <trkpt lat="43.90116" lon="7.39211">
        <ele>903.97668457031</ele>
        <time>2014-01-11T09:15:21Z</time>
      </trkpt>
      <trkpt lat="43.90118" lon="7.39225">
        <ele>901.14288330078</ele>
        <time>2014-01-11T09:15:25Z</time>
      </trkpt>
      <trkpt lat="43.90116" lon="7.39238">
        <ele>899.91412353516</ele>
        <time>2014-01-11T09:15:29Z</time>
      </trkpt>
      <trkpt lat="43.90117" lon="7.39244">
        <ele>898.49224853516</ele>
        <time>2014-01-11T09:15:32Z</time>
      </trkpt>
      <trkpt lat="43.90121" lon="7.39244">
        <ele>896.98944091797</ele>
        <time>2014-01-11T09:15:36Z</time>
      </trkpt>
      <trkpt lat="43.90125" lon="7.39249">
        <ele>894.88696289062</ele>
        <time>2014-01-11T09:15:42Z</time>
      </trkpt>
      <trkpt lat="43.90124" lon="7.3925">
        <ele>894.86096191406</ele>
        <time>2014-01-11T09:15:50Z</time>
      </trkpt>
      <trkpt lat="43.90124" lon="7.39253">
        <ele>894.36987304688</ele>
        <time>2014-01-11T09:15:57Z</time>
      </trkpt>
      <trkpt lat="43.90126" lon="7.39261">
        <ele>891.73095703125</ele>
        <time>2014-01-11T09:16:02Z</time>
      </trkpt>
      <trkpt lat="43.90129" lon="7.39257">
        <ele>891.55706787109</ele>
        <time>2014-01-11T09:16:04Z</time>
      </trkpt>
      <trkpt lat="43.90134" lon="7.39247">
        <ele>891.50701904297</ele>
        <time>2014-01-11T09:16:08Z</time>
      </trkpt>
      <trkpt lat="43.90139" lon="7.39253">
        <ele>888.3798828125</ele>
        <time>2014-01-11T09:16:13Z</time>
      </trkpt>
      <trkpt lat="43.9014" lon="7.39255">
        <ele>887.57006835938</ele>
        <time>2014-01-11T09:16:14Z</time>
      </trkpt>
      <trkpt lat="43.90145" lon="7.39253">
        <ele>885.11663818359</ele>
        <time>2014-01-11T09:16:19Z</time>
      </trkpt>
      <trkpt lat="43.9015" lon="7.39252">
        <ele>882.66345214844</ele>
        <time>2014-01-11T09:16:24Z</time>
      </trkpt>
      <trkpt lat="43.90151" lon="7.39256">
        <ele>881.33642578125</ele>
        <time>2014-01-11T09:16:26Z</time>
      </trkpt>
      <trkpt lat="43.90151" lon="7.39271">
        <ele>879.16235351562</ele>
        <time>2014-01-11T09:16:31Z</time>
      </trkpt>
      <trkpt lat="43.90152" lon="7.39279">
        <ele>877.03045654297</ele>
        <time>2014-01-11T09:16:35Z</time>
      </trkpt>
      <trkpt lat="43.90155" lon="7.39277">
        <ele>876.02984619141</ele>
        <time>2014-01-11T09:16:38Z</time>
      </trkpt>
      <trkpt lat="43.90156" lon="7.39277">
        <ele>875.36889648438</ele>
        <time>2014-01-11T09:16:44Z</time>
      </trkpt>
      <trkpt lat="43.90156" lon="7.39277">
        <ele>875.37640380859</ele>
        <time>2014-01-11T09:16:49Z</time>
      </trkpt>
      <trkpt lat="43.90158" lon="7.39274">
        <ele>874.86492919922</ele>
        <time>2014-01-11T09:16:55Z</time>
      </trkpt>
      <trkpt lat="43.90161" lon="7.39277">
        <ele>873.03704833984</ele>
        <time>2014-01-11T09:16:59Z</time>
      </trkpt>
      <trkpt lat="43.90162" lon="7.39283">
        <ele>871.88336181641</ele>
        <time>2014-01-11T09:17:01Z</time>
      </trkpt>
      <trkpt lat="43.90163" lon="7.39309">
        <ele>867.18878173828</ele>
        <time>2014-01-11T09:17:07Z</time>
      </trkpt>
      <trkpt lat="43.90162" lon="7.39316">
        <ele>866.06793212891</ele>
        <time>2014-01-11T09:17:09Z</time>
      </trkpt>
      <trkpt lat="43.90155" lon="7.39332">
        <ele>864.98547363281</ele>
        <time>2014-01-11T09:17:14Z</time>
      </trkpt>
      <trkpt lat="43.90147" lon="7.39358">
        <ele>861.07891845703</ele>
        <time>2014-01-11T09:17:19Z</time>
      </trkpt>
      <trkpt lat="43.90148" lon="7.39374">
        <ele>855.35229492188</ele>
        <time>2014-01-11T09:17:22Z</time>
      </trkpt>
      <trkpt lat="43.90146" lon="7.39391">
        <ele>849.583984375</ele>
        <time>2014-01-11T09:17:25Z</time>
      </trkpt>
      <trkpt lat="43.90143" lon="7.39403">
        <ele>845.52740478516</ele>
        <time>2014-01-11T09:17:28Z</time>
      </trkpt>
      <trkpt lat="43.9015" lon="7.39411">
        <ele>839.85076904297</ele>
        <time>2014-01-11T09:17:32Z</time>
      </trkpt>
      <trkpt lat="43.9016" lon="7.39408">
        <ele>838.92852783203</ele>
        <time>2014-01-11T09:17:35Z</time>
      </trkpt>
      <trkpt lat="43.90173" lon="7.39398">
        <ele>837.49517822266</ele>
        <time>2014-01-11T09:17:40Z</time>
      </trkpt>
      <trkpt lat="43.90187" lon="7.39385">
        <ele>835.21002197266</ele>
        <time>2014-01-11T09:17:45Z</time>
      </trkpt>
      <trkpt lat="43.90191" lon="7.39379">
        <ele>835.16882324219</ele>
        <time>2014-01-11T09:17:47Z</time>
      </trkpt>
      <trkpt lat="43.90199" lon="7.39374">
        <ele>832.70562744141</ele>
        <time>2014-01-11T09:17:51Z</time>
      </trkpt>
      <trkpt lat="43.90211" lon="7.39362">
        <ele>829.14294433594</ele>
        <time>2014-01-11T09:17:56Z</time>
      </trkpt>
      <trkpt lat="43.90213" lon="7.3936">
        <ele>827.80407714844</ele>
        <time>2014-01-11T09:17:57Z</time>
      </trkpt>
      <trkpt lat="43.90223" lon="7.3935">
        <ele>822.30749511719</ele>
        <time>2014-01-11T09:18:02Z</time>
      </trkpt>
      <trkpt lat="43.90226" lon="7.39348">
        <ele>820.244140625</ele>
        <time>2014-01-11T09:18:07Z</time>
      </trkpt>
      <trkpt lat="43.90229" lon="7.39348">
        <ele>818.76098632812</ele>
        <time>2014-01-11T09:18:13Z</time>
      </trkpt>
      <trkpt lat="43.90229" lon="7.39351">
        <ele>818.07775878906</ele>
        <time>2014-01-11T09:18:22Z</time>
      </trkpt>
      <trkpt lat="43.90232" lon="7.39354">
        <ele>816.11743164062</ele>
        <time>2014-01-11T09:18:28Z</time>
      </trkpt>
      <trkpt lat="43.90233" lon="7.39349">
        <ele>815.98693847656</ele>
        <time>2014-01-11T09:18:41Z</time>
      </trkpt>
      <trkpt lat="43.90235" lon="7.39347">
        <ele>814.65484619141</ele>
        <time>2014-01-11T09:18:46Z</time>
      </trkpt>
      <trkpt lat="43.90236" lon="7.39347">
        <ele>814.36645507812</ele>
        <time>2014-01-11T09:18:51Z</time>
      </trkpt>
      <trkpt lat="43.90236" lon="7.39348">
        <ele>814.0986328125</ele>
        <time>2014-01-11T09:18:53Z</time>
      </trkpt>
      <trkpt lat="43.90237" lon="7.39348">
        <ele>813.58026123047</ele>
        <time>2014-01-11T09:18:56Z</time>
      </trkpt>
      <trkpt lat="43.90237" lon="7.3935">
        <ele>813.43603515625</ele>
        <time>2014-01-11T09:19:05Z</time>
      </trkpt>
      <trkpt lat="43.90236" lon="7.3935">
        <ele>813.94073486328</ele>
        <time>2014-01-11T09:19:12Z</time>
      </trkpt>
      <trkpt lat="43.90235" lon="7.39364">
        <ele>813.36358642578</ele>
        <time>2014-01-11T09:19:18Z</time>
      </trkpt>
      <trkpt lat="43.90234" lon="7.39366">
        <ele>813.84906005859</ele>
        <time>2014-01-11T09:19:19Z</time>
      </trkpt>
      <trkpt lat="43.90232" lon="7.39371">
        <ele>814.23156738281</ele>
        <time>2014-01-11T09:19:21Z</time>
      </trkpt>
      <trkpt lat="43.90236" lon="7.39374">
        <ele>811.92791748047</ele>
        <time>2014-01-11T09:19:25Z</time>
      </trkpt>
      <trkpt lat="43.90241" lon="7.39372">
        <ele>808.88842773438</ele>
        <time>2014-01-11T09:19:28Z</time>
      </trkpt>
      <trkpt lat="43.90245" lon="7.39369">
        <ele>806.57000732422</ele>
        <time>2014-01-11T09:19:33Z</time>
      </trkpt>
      <trkpt lat="43.90245" lon="7.39371">
        <ele>806.34350585938</ele>
        <time>2014-01-11T09:19:35Z</time>
      </trkpt>
      <trkpt lat="43.90245" lon="7.39374">
        <ele>806.38427734375</ele>
        <time>2014-01-11T09:19:36Z</time>
      </trkpt>
      <trkpt lat="43.90239" lon="7.39388">
        <ele>808.71319580078</ele>
        <time>2014-01-11T09:19:41Z</time>
      </trkpt>
      <trkpt lat="43.90233" lon="7.39396">
        <ele>810.32275390625</ele>
        <time>2014-01-11T09:19:45Z</time>
      </trkpt>
      <trkpt lat="43.90238" lon="7.394">
        <ele>807.37982177734</ele>
        <time>2014-01-11T09:19:50Z</time>
      </trkpt>
      <trkpt lat="43.90247" lon="7.39396">
        <ele>803.12768554688</ele>
        <time>2014-01-11T09:19:53Z</time>
      </trkpt>
      <trkpt lat="43.90259" lon="7.39396">
        <ele>795.55236816406</ele>
        <time>2014-01-11T09:19:59Z</time>
      </trkpt>
      <trkpt lat="43.90261" lon="7.39397">
        <ele>794.45031738281</ele>
        <time>2014-01-11T09:20:05Z</time>
      </trkpt>
      <trkpt lat="43.90261" lon="7.39398">
        <ele>794.39538574219</ele>
        <time>2014-01-11T09:20:13Z</time>
      </trkpt>
      <trkpt lat="43.90263" lon="7.39398">
        <ele>792.92938232422</ele>
        <time>2014-01-11T09:20:20Z</time>
      </trkpt>
      <trkpt lat="43.90264" lon="7.39398">
        <ele>792.20837402344</ele>
        <time>2014-01-11T09:20:26Z</time>
      </trkpt>
      <trkpt lat="43.90266" lon="7.394">
        <ele>791.03082275391</ele>
        <time>2014-01-11T09:20:33Z</time>
      </trkpt>
      <trkpt lat="43.90268" lon="7.39401">
        <ele>789.27642822266</ele>
        <time>2014-01-11T09:20:38Z</time>
      </trkpt>
      <trkpt lat="43.90273" lon="7.394">
        <ele>786.59167480469</ele>
        <time>2014-01-11T09:20:43Z</time>
      </trkpt>
      <trkpt lat="43.90276" lon="7.39399">
        <ele>784.70336914062</ele>
        <time>2014-01-11T09:20:48Z</time>
      </trkpt>
      <trkpt lat="43.90278" lon="7.394">
        <ele>782.83642578125</ele>
        <time>2014-01-11T09:20:56Z</time>
      </trkpt>
      <trkpt lat="43.9028" lon="7.394">
        <ele>781.51806640625</ele>
        <time>2014-01-11T09:21:03Z</time>
      </trkpt>
      <trkpt lat="43.90282" lon="7.39399">
        <ele>780.16540527344</ele>
        <time>2014-01-11T09:21:09Z</time>
      </trkpt>
      <trkpt lat="43.90283" lon="7.39401">
        <ele>779.197265625</ele>
        <time>2014-01-11T09:21:14Z</time>
      </trkpt>
      <trkpt lat="43.90284" lon="7.39401">
        <ele>778.67193603516</ele>
        <time>2014-01-11T09:21:24Z</time>
      </trkpt>
      <trkpt lat="43.90285" lon="7.39401">
        <ele>777.85827636719</ele>
        <time>2014-01-11T09:21:32Z</time>
      </trkpt>
      <trkpt lat="43.90285" lon="7.39404">
        <ele>777.93383789062</ele>
        <time>2014-01-11T09:21:37Z</time>
      </trkpt>
      <trkpt lat="43.90281" lon="7.39409">
        <ele>780.28558349609</ele>
        <time>2014-01-11T09:21:43Z</time>
      </trkpt>
      <trkpt lat="43.90281" lon="7.39413">
        <ele>780.02807617188</ele>
        <time>2014-01-11T09:21:48Z</time>
      </trkpt>
      <trkpt lat="43.90281" lon="7.39413">
        <ele>780.02124023438</ele>
        <time>2014-01-11T09:21:54Z</time>
      </trkpt>
      <trkpt lat="43.90282" lon="7.39413">
        <ele>779.18695068359</ele>
        <time>2014-01-11T09:21:57Z</time>
      </trkpt>
      <trkpt lat="43.90292" lon="7.39406">
        <ele>772.82171630859</ele>
        <time>2014-01-11T09:22:03Z</time>
      </trkpt>
      <trkpt lat="43.90296" lon="7.39394">
        <ele>770.35327148438</ele>
        <time>2014-01-11T09:22:08Z</time>
      </trkpt>
      <trkpt lat="43.903" lon="7.39401">
        <ele>767.42468261719</ele>
        <time>2014-01-11T09:22:12Z</time>
      </trkpt>
      <trkpt lat="43.90301" lon="7.39413">
        <ele>765.474609375</ele>
        <time>2014-01-11T09:22:17Z</time>
      </trkpt>
      <trkpt lat="43.90301" lon="7.39421">
        <ele>765.12445068359</ele>
        <time>2014-01-11T09:22:21Z</time>
      </trkpt>
      <trkpt lat="43.90297" lon="7.39426">
        <ele>767.51739501953</ele>
        <time>2014-01-11T09:22:26Z</time>
      </trkpt>
      <trkpt lat="43.90299" lon="7.39432">
        <ele>765.75616455078</ele>
        <time>2014-01-11T09:22:30Z</time>
      </trkpt>
      <trkpt lat="43.90298" lon="7.39433">
        <ele>766.17846679688</ele>
        <time>2014-01-11T09:22:31Z</time>
      </trkpt>
      <trkpt lat="43.90296" lon="7.39436">
        <ele>767.36975097656</ele>
        <time>2014-01-11T09:22:33Z</time>
      </trkpt>
      <trkpt lat="43.90298" lon="7.3944">
        <ele>765.69091796875</ele>
        <time>2014-01-11T09:22:37Z</time>
      </trkpt>
      <trkpt lat="43.90309" lon="7.39442">
        <ele>758.12145996094</ele>
        <time>2014-01-11T09:22:41Z</time>
      </trkpt>
      <trkpt lat="43.90313" lon="7.39444">
        <ele>755.00067138672</ele>
        <time>2014-01-11T09:22:44Z</time>
      </trkpt>
      <trkpt lat="43.90313" lon="7.39448">
        <ele>754.71075439453</ele>
        <time>2014-01-11T09:22:47Z</time>
      </trkpt>
      <trkpt lat="43.90312" lon="7.39451">
        <ele>754.55487060547</ele>
        <time>2014-01-11T09:22:49Z</time>
      </trkpt>
      <trkpt lat="43.9032" lon="7.39452">
        <ele>749.1298828125</ele>
        <time>2014-01-11T09:22:55Z</time>
      </trkpt>
      <trkpt lat="43.90327" lon="7.39457">
        <ele>743.74102783203</ele>
        <time>2014-01-11T09:23:02Z</time>
      </trkpt>
      <trkpt lat="43.90326" lon="7.39459">
        <ele>744.076171875</ele>
        <time>2014-01-11T09:23:06Z</time>
      </trkpt>
      <trkpt lat="43.90325" lon="7.3946">
        <ele>744.56909179688</ele>
        <time>2014-01-11T09:23:12Z</time>
      </trkpt>
      <trkpt lat="43.90326" lon="7.39461">
        <ele>743.96411132812</ele>
        <time>2014-01-11T09:23:17Z</time>
      </trkpt>
      <trkpt lat="43.90327" lon="7.39461">
        <ele>743.52648925781</ele>
        <time>2014-01-11T09:23:18Z</time>
      </trkpt>
      <trkpt lat="43.90332" lon="7.39459">
        <ele>740.46398925781</ele>
        <time>2014-01-11T09:23:22Z</time>
      </trkpt>
      <trkpt lat="43.90338" lon="7.39456">
        <ele>737.55865478516</ele>
        <time>2014-01-11T09:23:27Z</time>
      </trkpt>
      <trkpt lat="43.90339" lon="7.3946">
        <ele>736.54931640625</ele>
        <time>2014-01-11T09:23:30Z</time>
      </trkpt>
      <trkpt lat="43.90338" lon="7.39462">
        <ele>736.72094726562</ele>
        <time>2014-01-11T09:23:32Z</time>
      </trkpt>
      <trkpt lat="43.90339" lon="7.39466">
        <ele>735.45068359375</ele>
        <time>2014-01-11T09:23:36Z</time>
      </trkpt>
      <trkpt lat="43.90343" lon="7.39468">
        <ele>732.7041015625</ele>
        <time>2014-01-11T09:23:42Z</time>
      </trkpt>
      <trkpt lat="43.90344" lon="7.39468">
        <ele>732.30578613281</ele>
        <time>2014-01-11T09:23:48Z</time>
      </trkpt>
      <trkpt lat="43.90345" lon="7.39465">
        <ele>732.14099121094</ele>
        <time>2014-01-11T09:23:55Z</time>
      </trkpt>
      <trkpt lat="43.90345" lon="7.39466">
        <ele>732.00366210938</ele>
        <time>2014-01-11T09:24:01Z</time>
      </trkpt>
      <trkpt lat="43.90344" lon="7.39468">
        <ele>732.53930664062</ele>
        <time>2014-01-11T09:24:05Z</time>
      </trkpt>
      <trkpt lat="43.90343" lon="7.39467">
        <ele>733.10229492188</ele>
        <time>2014-01-11T09:24:10Z</time>
      </trkpt>
      <trkpt lat="43.90345" lon="7.39467">
        <ele>732.20281982422</ele>
        <time>2014-01-11T09:24:21Z</time>
      </trkpt>
      <trkpt lat="43.90345" lon="7.39468">
        <ele>731.94189453125</ele>
        <time>2014-01-11T09:24:27Z</time>
      </trkpt>
      <trkpt lat="43.90345" lon="7.39467">
        <ele>731.96252441406</ele>
        <time>2014-01-11T09:24:34Z</time>
      </trkpt>
      <trkpt lat="43.90345" lon="7.39468">
        <ele>731.95562744141</ele>
        <time>2014-01-11T09:24:40Z</time>
      </trkpt>
      <trkpt lat="43.90345" lon="7.39467">
        <ele>731.99682617188</ele>
        <time>2014-01-11T09:24:46Z</time>
      </trkpt>
      <trkpt lat="43.90345" lon="7.39467">
        <ele>731.79083251953</ele>
        <time>2014-01-11T09:24:49Z</time>
      </trkpt>
      <trkpt lat="43.90348" lon="7.39467">
        <ele>730.45874023438</ele>
        <time>2014-01-11T09:24:55Z</time>
      </trkpt>
      <trkpt lat="43.90347" lon="7.39468">
        <ele>730.5205078125</ele>
        <time>2014-01-11T09:24:57Z</time>
      </trkpt>
      <trkpt lat="43.90347" lon="7.3947">
        <ele>730.48620605469</ele>
        <time>2014-01-11T09:25:03Z</time>
      </trkpt>
      <trkpt lat="43.90347" lon="7.39471">
        <ele>730.54797363281</ele>
        <time>2014-01-11T09:25:04Z</time>
      </trkpt>
      <trkpt lat="43.90339" lon="7.39479">
        <ele>732.41839599609</ele>
        <time>2014-01-11T09:25:10Z</time>
      </trkpt>
      <trkpt lat="43.90331" lon="7.39487">
        <ele>733.59387207031</ele>
        <time>2014-01-11T09:25:15Z</time>
      </trkpt>
      <trkpt lat="43.90329" lon="7.39488">
        <ele>733.73822021484</ele>
        <time>2014-01-11T09:25:16Z</time>
      </trkpt>
      <trkpt lat="43.90326" lon="7.39491">
        <ele>734.32720947266</ele>
        <time>2014-01-11T09:25:18Z</time>
      </trkpt>
      <trkpt lat="43.90334" lon="7.39497">
        <ele>727.95843505859</ele>
        <time>2014-01-11T09:25:23Z</time>
      </trkpt>
      <trkpt lat="43.90341" lon="7.395">
        <ele>723.72686767578</ele>
        <time>2014-01-11T09:25:28Z</time>
      </trkpt>
      <trkpt lat="43.90331" lon="7.39508">
        <ele>725.53918457031</ele>
        <time>2014-01-11T09:25:34Z</time>
      </trkpt>
      <trkpt lat="43.90325" lon="7.3951">
        <ele>727.21179199219</ele>
        <time>2014-01-11T09:25:36Z</time>
      </trkpt>
      <trkpt lat="43.90316" lon="7.39511">
        <ele>730.2880859375</ele>
        <time>2014-01-11T09:25:40Z</time>
      </trkpt>
      <trkpt lat="43.90315" lon="7.39512">
        <ele>730.40155029297</ele>
        <time>2014-01-11T09:25:41Z</time>
      </trkpt>
      <trkpt lat="43.9031" lon="7.39517">
        <ele>730.72113037109</ele>
        <time>2014-01-11T09:25:45Z</time>
      </trkpt>
      <trkpt lat="43.90311" lon="7.39518">
        <ele>730.17987060547</ele>
        <time>2014-01-11T09:25:50Z</time>
      </trkpt>
      <trkpt lat="43.90314" lon="7.39519">
        <ele>728.24548339844</ele>
        <time>2014-01-11T09:25:54Z</time>
      </trkpt>
      <trkpt lat="43.90314" lon="7.3952">
        <ele>727.67315673828</ele>
        <time>2014-01-11T09:25:58Z</time>
      </trkpt>
      <trkpt lat="43.90316" lon="7.3952">
        <ele>726.90270996094</ele>
        <time>2014-01-11T09:26:06Z</time>
      </trkpt>
      <trkpt lat="43.90316" lon="7.3952">
        <ele>727.19671630859</ele>
        <time>2014-01-11T09:26:11Z</time>
      </trkpt>
      <trkpt lat="43.90317" lon="7.3952">
        <ele>726.59973144531</ele>
        <time>2014-01-11T09:26:19Z</time>
      </trkpt>
      <trkpt lat="43.90319" lon="7.39523">
        <ele>724.82543945312</ele>
        <time>2014-01-11T09:26:26Z</time>
      </trkpt>
      <trkpt lat="43.90319" lon="7.39524">
        <ele>724.30969238281</ele>
        <time>2014-01-11T09:26:28Z</time>
      </trkpt>
      <trkpt lat="43.90319" lon="7.39524">
        <ele>724.17718505859</ele>
        <time>2014-01-11T09:26:29Z</time>
      </trkpt>
      <trkpt lat="43.90316" lon="7.39523">
        <ele>725.53082275391</ele>
        <time>2014-01-11T09:26:39Z</time>
      </trkpt>
      <trkpt lat="43.90314" lon="7.3952">
        <ele>727.69262695312</ele>
        <time>2014-01-11T09:26:50Z</time>
      </trkpt>
      <trkpt lat="43.90316" lon="7.3952">
        <ele>727.09576416016</ele>
        <time>2014-01-11T09:26:53Z</time>
      </trkpt>
      <trkpt lat="43.90323" lon="7.39522">
        <ele>723.13647460938</ele>
        <time>2014-01-11T09:26:58Z</time>
      </trkpt>
      <trkpt lat="43.90324" lon="7.39525">
        <ele>721.88922119141</ele>
        <time>2014-01-11T09:27:13Z</time>
      </trkpt>
      <trkpt lat="43.90324" lon="7.39526">
        <ele>721.35803222656</ele>
        <time>2014-01-11T09:27:22Z</time>
      </trkpt>
      <trkpt lat="43.90326" lon="7.39526">
        <ele>720.31506347656</ele>
        <time>2014-01-11T09:27:34Z</time>
      </trkpt>
      <trkpt lat="43.90332" lon="7.39529">
        <ele>717.08862304688</ele>
        <time>2014-01-11T09:27:39Z</time>
      </trkpt>
      <trkpt lat="43.90343" lon="7.39536">
        <ele>711.62347412109</ele>
        <time>2014-01-11T09:27:45Z</time>
      </trkpt>
      <trkpt lat="43.90356" lon="7.3954">
        <ele>707.05474853516</ele>
        <time>2014-01-11T09:27:52Z</time>
      </trkpt>
      <trkpt lat="43.90364" lon="7.3953">
        <ele>707.57672119141</ele>
        <time>2014-01-11T09:27:57Z</time>
      </trkpt>
      <trkpt lat="43.90369" lon="7.39522">
        <ele>707.96380615234</ele>
        <time>2014-01-11T09:28:02Z</time>
      </trkpt>
      <trkpt lat="43.9037" lon="7.3952">
        <ele>707.96343994141</ele>
        <time>2014-01-11T09:28:03Z</time>
      </trkpt>
      <trkpt lat="43.90376" lon="7.39501">
        <ele>708.84301757812</ele>
        <time>2014-01-11T09:28:08Z</time>
      </trkpt>
      <trkpt lat="43.90387" lon="7.3948">
        <ele>707.66613769531</ele>
        <time>2014-01-11T09:28:13Z</time>
      </trkpt>
      <trkpt lat="43.90395" lon="7.39466">
        <ele>701.3134765625</ele>
        <time>2014-01-11T09:28:17Z</time>
      </trkpt>
      <trkpt lat="43.90399" lon="7.3946">
        <ele>697.13067626953</ele>
        <time>2014-01-11T09:28:19Z</time>
      </trkpt>
      <trkpt lat="43.90401" lon="7.39442">
        <ele>694.56622314453</ele>
        <time>2014-01-11T09:28:23Z</time>
      </trkpt>
      <trkpt lat="43.904" lon="7.39429">
        <ele>694.50225830078</ele>
        <time>2014-01-11T09:28:25Z</time>
      </trkpt>
      <trkpt lat="43.904" lon="7.39406">
        <ele>690.73974609375</ele>
        <time>2014-01-11T09:28:30Z</time>
      </trkpt>
      <trkpt lat="43.90398" lon="7.39389">
        <ele>690.9990234375</ele>
        <time>2014-01-11T09:28:35Z</time>
      </trkpt>
      <trkpt lat="43.90398" lon="7.39388">
        <ele>690.95239257812</ele>
        <time>2014-01-11T09:28:36Z</time>
      </trkpt>
      <trkpt lat="43.90399" lon="7.39383">
        <ele>690.34509277344</ele>
        <time>2014-01-11T09:28:43Z</time>
      </trkpt>
      <trkpt lat="43.90398" lon="7.39376">
        <ele>690.69415283203</ele>
        <time>2014-01-11T09:28:48Z</time>
      </trkpt>
      <trkpt lat="43.90397" lon="7.39366">
        <ele>691.89739990234</ele>
        <time>2014-01-11T09:28:54Z</time>
      </trkpt>
      <trkpt lat="43.90398" lon="7.39364">
        <ele>691.36956787109</ele>
        <time>2014-01-11T09:28:55Z</time>
      </trkpt>
      <trkpt lat="43.904" lon="7.39353">
        <ele>688.03179931641</ele>
        <time>2014-01-11T09:29:00Z</time>
      </trkpt>
      <trkpt lat="43.90404" lon="7.39349">
        <ele>684.10980224609</ele>
        <time>2014-01-11T09:29:06Z</time>
      </trkpt>
      <trkpt lat="43.90405" lon="7.39353">
        <ele>682.68481445312</ele>
        <time>2014-01-11T09:29:12Z</time>
      </trkpt>
      <trkpt lat="43.90406" lon="7.39353">
        <ele>681.32733154297</ele>
        <time>2014-01-11T09:29:17Z</time>
      </trkpt>
      <trkpt lat="43.90409" lon="7.39353">
        <ele>678.22277832031</ele>
        <time>2014-01-11T09:29:22Z</time>
      </trkpt>
      <trkpt lat="43.90409" lon="7.39351">
        <ele>677.84710693359</ele>
        <time>2014-01-11T09:29:25Z</time>
      </trkpt>
      <trkpt lat="43.90413" lon="7.39346">
        <ele>673.86810302734</ele>
        <time>2014-01-11T09:29:30Z</time>
      </trkpt>
      <trkpt lat="43.90416" lon="7.3935">
        <ele>669.53698730469</ele>
        <time>2014-01-11T09:29:32Z</time>
      </trkpt>
      <trkpt lat="43.90419" lon="7.39351">
        <ele>668.80633544922</ele>
        <time>2014-01-11T09:29:39Z</time>
      </trkpt>
      <trkpt lat="43.90419" lon="7.39348">
        <ele>669.1015625</ele>
        <time>2014-01-11T09:29:44Z</time>
      </trkpt>
      <trkpt lat="43.90421" lon="7.39347">
        <ele>668.85437011719</ele>
        <time>2014-01-11T09:29:55Z</time>
      </trkpt>
      <trkpt lat="43.90422" lon="7.39348">
        <ele>668.68273925781</ele>
        <time>2014-01-11T09:29:59Z</time>
      </trkpt>
      <trkpt lat="43.90422" lon="7.39348">
        <ele>668.62609863281</ele>
        <time>2014-01-11T09:30:04Z</time>
      </trkpt>
      <trkpt lat="43.90422" lon="7.39349">
        <ele>668.57287597656</ele>
        <time>2014-01-11T09:30:08Z</time>
      </trkpt>
      <trkpt lat="43.90423" lon="7.39363">
        <ele>666.94738769531</ele>
        <time>2014-01-11T09:30:13Z</time>
      </trkpt>
      <trkpt lat="43.90424" lon="7.39371">
        <ele>666.13909912109</ele>
        <time>2014-01-11T09:30:15Z</time>
      </trkpt>
      <trkpt lat="43.90425" lon="7.39372">
        <ele>665.71740722656</ele>
        <time>2014-01-11T09:30:20Z</time>
      </trkpt>
      <trkpt lat="43.90427" lon="7.39367">
        <ele>665.96881103516</ele>
        <time>2014-01-11T09:30:27Z</time>
      </trkpt>
      <trkpt lat="43.90427" lon="7.39363">
        <ele>666.29431152344</ele>
        <time>2014-01-11T09:30:31Z</time>
      </trkpt>
      <trkpt lat="43.90429" lon="7.39358">
        <ele>666.58502197266</ele>
        <time>2014-01-11T09:30:38Z</time>
      </trkpt>
      <trkpt lat="43.9043" lon="7.39355">
        <ele>666.63482666016</ele>
        <time>2014-01-11T09:30:45Z</time>
      </trkpt>
      <trkpt lat="43.90432" lon="7.39353">
        <ele>666.71203613281</ele>
        <time>2014-01-11T09:30:53Z</time>
      </trkpt>
      <trkpt lat="43.90431" lon="7.39352">
        <ele>666.92663574219</ele>
        <time>2014-01-11T09:30:56Z</time>
      </trkpt>
      <trkpt lat="43.90432" lon="7.39347">
        <ele>667.30255126953</ele>
        <time>2014-01-11T09:31:00Z</time>
      </trkpt>
      <trkpt lat="43.90437" lon="7.39346">
        <ele>666.66058349609</ele>
        <time>2014-01-11T09:31:06Z</time>
      </trkpt>
      <trkpt lat="43.90443" lon="7.39345">
        <ele>665.99963378906</ele>
        <time>2014-01-11T09:31:15Z</time>
      </trkpt>
      <trkpt lat="43.90443" lon="7.39345">
        <ele>665.98937988281</ele>
        <time>2014-01-11T09:31:16Z</time>
      </trkpt>
      <trkpt lat="43.90445" lon="7.39346">
        <ele>666.11108398438</ele>
        <time>2014-01-11T09:31:24Z</time>
      </trkpt>
      <trkpt lat="43.90445" lon="7.39348">
        <ele>665.86090087891</ele>
        <time>2014-01-11T09:31:29Z</time>
      </trkpt>
      <trkpt lat="43.90444" lon="7.39349">
        <ele>665.40228271484</ele>
        <time>2014-01-11T09:31:33Z</time>
      </trkpt>
      <trkpt lat="43.90442" lon="7.39348">
        <ele>665.74047851562</ele>
        <time>2014-01-11T09:31:38Z</time>
      </trkpt>
      <trkpt lat="43.90443" lon="7.39351">
        <ele>665.28552246094</ele>
        <time>2014-01-11T09:31:46Z</time>
      </trkpt>
      <trkpt lat="43.90445" lon="7.39354">
        <ele>665.17297363281</ele>
        <time>2014-01-11T09:31:51Z</time>
      </trkpt>
      <trkpt lat="43.90446" lon="7.39352">
        <ele>666.02532958984</ele>
        <time>2014-01-11T09:31:57Z</time>
      </trkpt>
      <trkpt lat="43.90446" lon="7.3935">
        <ele>666.89581298828</ele>
        <time>2014-01-11T09:32:04Z</time>
      </trkpt>
      <trkpt lat="43.90447" lon="7.39347">
        <ele>667.89495849609</ele>
        <time>2014-01-11T09:32:10Z</time>
      </trkpt>
      <trkpt lat="43.9045" lon="7.3935">
        <ele>669.54235839844</ele>
        <time>2014-01-11T09:32:17Z</time>
      </trkpt>
      <trkpt lat="43.90452" lon="7.39354">
        <ele>670.99987792969</ele>
        <time>2014-01-11T09:32:28Z</time>
      </trkpt>
      <trkpt lat="43.90455" lon="7.39358">
        <ele>672.98400878906</ele>
        <time>2014-01-11T09:32:38Z</time>
      </trkpt>
      <trkpt lat="43.90453" lon="7.39352">
        <ele>672.19171142578</ele>
        <time>2014-01-11T09:32:48Z</time>
      </trkpt>
      <trkpt lat="43.90454" lon="7.39348">
        <ele>673.38861083984</ele>
        <time>2014-01-11T09:32:57Z</time>
      </trkpt>
      <trkpt lat="43.90455" lon="7.39347">
        <ele>674.91717529297</ele>
        <time>2014-01-11T09:33:05Z</time>
      </trkpt>
      <trkpt lat="43.90458" lon="7.39348">
        <ele>676.96282958984</ele>
        <time>2014-01-11T09:33:13Z</time>
      </trkpt>
      <trkpt lat="43.90459" lon="7.39348">
        <ele>677.75775146484</ele>
        <time>2014-01-11T09:33:18Z</time>
      </trkpt>
      <trkpt lat="43.90461" lon="7.3935">
        <ele>679.06134033203</ele>
        <time>2014-01-11T09:33:26Z</time>
      </trkpt>
      <trkpt lat="43.90464" lon="7.39356">
        <ele>680.67730712891</ele>
        <time>2014-01-11T09:33:34Z</time>
      </trkpt>
      <trkpt lat="43.90467" lon="7.39361">
        <ele>682.5009765625</ele>
        <time>2014-01-11T09:33:39Z</time>
      </trkpt>
      <trkpt lat="43.90469" lon="7.39365">
        <ele>683.66345214844</ele>
        <time>2014-01-11T09:33:44Z</time>
      </trkpt>
      <trkpt lat="43.90472" lon="7.39372">
        <ele>685.18609619141</ele>
        <time>2014-01-11T09:33:52Z</time>
      </trkpt>
      <trkpt lat="43.90476" lon="7.39377">
        <ele>686.7138671875</ele>
        <time>2014-01-11T09:33:59Z</time>
      </trkpt>
      <trkpt lat="43.90479" lon="7.39378">
        <ele>688.55407714844</ele>
        <time>2014-01-11T09:34:06Z</time>
      </trkpt>
      <trkpt lat="43.90479" lon="7.39377">
        <ele>688.40991210938</ele>
        <time>2014-01-11T09:34:11Z</time>
      </trkpt>
      <trkpt lat="43.90482" lon="7.39384">
        <ele>689.27160644531</ele>
        <time>2014-01-11T09:34:16Z</time>
      </trkpt>
      <trkpt lat="43.90483" lon="7.39388">
        <ele>689.26647949219</ele>
        <time>2014-01-11T09:34:24Z</time>
      </trkpt>
      <trkpt lat="43.90486" lon="7.39392">
        <ele>690.25274658203</ele>
        <time>2014-01-11T09:34:30Z</time>
      </trkpt>
      <trkpt lat="43.90488" lon="7.39391">
        <ele>692.10479736328</ele>
        <time>2014-01-11T09:34:39Z</time>
      </trkpt>
      <trkpt lat="43.90492" lon="7.39392">
        <ele>694.18957519531</ele>
        <time>2014-01-11T09:34:50Z</time>
      </trkpt>
      <trkpt lat="43.90496" lon="7.39396">
        <ele>696.00518798828</ele>
        <time>2014-01-11T09:34:58Z</time>
      </trkpt>
      <trkpt lat="43.905" lon="7.394">
        <ele>697.65649414062</ele>
        <time>2014-01-11T09:35:07Z</time>
      </trkpt>
      <trkpt lat="43.90501" lon="7.39403">
        <ele>697.51232910156</ele>
        <time>2014-01-11T09:35:13Z</time>
      </trkpt>
      <trkpt lat="43.90501" lon="7.394">
        <ele>698.41870117188</ele>
        <time>2014-01-11T09:35:21Z</time>
      </trkpt>
      <trkpt lat="43.90501" lon="7.39395">
        <ele>699.12939453125</ele>
        <time>2014-01-11T09:35:29Z</time>
      </trkpt>
      <trkpt lat="43.90503" lon="7.39393">
        <ele>700.82885742188</ele>
        <time>2014-01-11T09:35:35Z</time>
      </trkpt>
      <trkpt lat="43.90504" lon="7.39395">
        <ele>700.80822753906</ele>
        <time>2014-01-11T09:35:41Z</time>
      </trkpt>
      <trkpt lat="43.90504" lon="7.39394">
        <ele>700.93182373047</ele>
        <time>2014-01-11T09:35:50Z</time>
      </trkpt>
      <trkpt lat="43.90505" lon="7.39389">
        <ele>702.76513671875</ele>
        <time>2014-01-11T09:35:58Z</time>
      </trkpt>
      <trkpt lat="43.90508" lon="7.3939">
        <ele>703.76422119141</ele>
        <time>2014-01-11T09:36:04Z</time>
      </trkpt>
      <trkpt lat="43.90512" lon="7.39392">
        <ele>706.00958251953</ele>
        <time>2014-01-11T09:36:15Z</time>
      </trkpt>
      <trkpt lat="43.90516" lon="7.39393">
        <ele>707.62658691406</ele>
        <time>2014-01-11T09:36:23Z</time>
      </trkpt>
      <trkpt lat="43.90518" lon="7.39394">
        <ele>708.78015136719</ele>
        <time>2014-01-11T09:36:30Z</time>
      </trkpt>
      <trkpt lat="43.90521" lon="7.39395">
        <ele>709.91314697266</ele>
        <time>2014-01-11T09:36:38Z</time>
      </trkpt>
      <trkpt lat="43.90523" lon="7.39396">
        <ele>710.96374511719</ele>
        <time>2014-01-11T09:36:47Z</time>
      </trkpt>
      <trkpt lat="43.90525" lon="7.39397">
        <ele>711.54052734375</ele>
        <time>2014-01-11T09:36:54Z</time>
      </trkpt>
      <trkpt lat="43.90527" lon="7.39397">
        <ele>713.07513427734</ele>
        <time>2014-01-11T09:37:00Z</time>
      </trkpt>
      <trkpt lat="43.90528" lon="7.39392">
        <ele>714.25964355469</ele>
        <time>2014-01-11T09:37:08Z</time>
      </trkpt>
      <trkpt lat="43.9053" lon="7.39382">
        <ele>717.35375976562</ele>
        <time>2014-01-11T09:37:16Z</time>
      </trkpt>
      <trkpt lat="43.9053" lon="7.39378">
        <ele>718.41955566406</ele>
        <time>2014-01-11T09:37:22Z</time>
      </trkpt>
      <trkpt lat="43.9053" lon="7.39375">
        <ele>719.02191162109</ele>
        <time>2014-01-11T09:37:28Z</time>
      </trkpt>
      <trkpt lat="43.90529" lon="7.39369">
        <ele>719.19537353516</ele>
        <time>2014-01-11T09:37:37Z</time>
      </trkpt>
      <trkpt lat="43.90529" lon="7.39364">
        <ele>720.16430664062</ele>
        <time>2014-01-11T09:37:45Z</time>
      </trkpt>
      <trkpt lat="43.90527" lon="7.39358">
        <ele>721.05828857422</ele>
        <time>2014-01-11T09:37:55Z</time>
      </trkpt>
      <trkpt lat="43.9053" lon="7.39359">
        <ele>722.19769287109</ele>
        <time>2014-01-11T09:38:01Z</time>
      </trkpt>
      <trkpt lat="43.90534" lon="7.39363">
        <ele>723.80035400391</ele>
        <time>2014-01-11T09:38:12Z</time>
      </trkpt>
      <trkpt lat="43.90536" lon="7.39367">
        <ele>724.32690429688</ele>
        <time>2014-01-11T09:38:19Z</time>
      </trkpt>
      <trkpt lat="43.90539" lon="7.39369">
        <ele>725.62280273438</ele>
        <time>2014-01-11T09:38:27Z</time>
      </trkpt>
      <trkpt lat="43.90542" lon="7.39371">
        <ele>726.94677734375</ele>
        <time>2014-01-11T09:38:35Z</time>
      </trkpt>
      <trkpt lat="43.90545" lon="7.39374">
        <ele>728.138671875</ele>
        <time>2014-01-11T09:38:44Z</time>
      </trkpt>
      <trkpt lat="43.90548" lon="7.39374">
        <ele>729.63903808594</ele>
        <time>2014-01-11T09:38:52Z</time>
      </trkpt>
      <trkpt lat="43.90549" lon="7.39369">
        <ele>732.21704101562</ele>
        <time>2014-01-11T09:39:00Z</time>
      </trkpt>
      <trkpt lat="43.90547" lon="7.39365">
        <ele>732.73602294922</ele>
        <time>2014-01-11T09:39:07Z</time>
      </trkpt>
      <trkpt lat="43.90548" lon="7.39357">
        <ele>736.19024658203</ele>
        <time>2014-01-11T09:39:18Z</time>
      </trkpt>
      <trkpt lat="43.90549" lon="7.39356">
        <ele>737.30718994141</ele>
        <time>2014-01-11T09:39:25Z</time>
      </trkpt>
      <trkpt lat="43.9055" lon="7.39359">
        <ele>736.63092041016</ele>
        <time>2014-01-11T09:39:31Z</time>
      </trkpt>
      <trkpt lat="43.9055" lon="7.39356">
        <ele>738.02655029297</ele>
        <time>2014-01-11T09:39:37Z</time>
      </trkpt>
      <trkpt lat="43.90551" lon="7.39349">
        <ele>741.54125976562</ele>
        <time>2014-01-11T09:39:47Z</time>
      </trkpt>
      <trkpt lat="43.90553" lon="7.39351">
        <ele>741.96405029297</ele>
        <time>2014-01-11T09:39:53Z</time>
      </trkpt>
      <trkpt lat="43.90556" lon="7.39354">
        <ele>742.65911865234</ele>
        <time>2014-01-11T09:40:01Z</time>
      </trkpt>
      <trkpt lat="43.90558" lon="7.39357">
        <ele>743.23352050781</ele>
        <time>2014-01-11T09:40:09Z</time>
      </trkpt>
      <trkpt lat="43.90562" lon="7.39358">
        <ele>745.36193847656</ele>
        <time>2014-01-11T09:40:18Z</time>
      </trkpt>
      <trkpt lat="43.90562" lon="7.39351">
        <ele>747.22448730469</ele>
        <time>2014-01-11T09:40:26Z</time>
      </trkpt>
      <trkpt lat="43.9056" lon="7.39346">
        <ele>747.82574462891</ele>
        <time>2014-01-11T09:40:34Z</time>
      </trkpt>
      <trkpt lat="43.9056" lon="7.39341">
        <ele>749.62939453125</ele>
        <time>2014-01-11T09:40:42Z</time>
      </trkpt>
      <trkpt lat="43.90559" lon="7.39336">
        <ele>750.923828125</ele>
        <time>2014-01-11T09:40:48Z</time>
      </trkpt>
      <trkpt lat="43.9056" lon="7.39332">
        <ele>752.31567382812</ele>
        <time>2014-01-11T09:40:57Z</time>
      </trkpt>
      <trkpt lat="43.90562" lon="7.39333">
        <ele>753.46923828125</ele>
        <time>2014-01-11T09:41:05Z</time>
      </trkpt>
      <trkpt lat="43.9056" lon="7.39329">
        <ele>752.31567382812</ele>
        <time>2014-01-11T09:41:11Z</time>
      </trkpt>
      <trkpt lat="43.90559" lon="7.39324">
        <ele>751.54663085938</ele>
        <time>2014-01-11T09:41:19Z</time>
      </trkpt>
      <trkpt lat="43.90559" lon="7.39319">
        <ele>751.54663085938</ele>
        <time>2014-01-11T09:41:25Z</time>
      </trkpt>
      <trkpt lat="43.90557" lon="7.39312">
        <ele>750.96984863281</ele>
        <time>2014-01-11T09:41:34Z</time>
      </trkpt>
      <trkpt lat="43.90559" lon="7.39306">
        <ele>751.93115234375</ele>
        <time>2014-01-11T09:41:42Z</time>
      </trkpt>
      <trkpt lat="43.90561" lon="7.39303">
        <ele>752.04248046875</ele>
        <time>2014-01-11T09:41:49Z</time>
      </trkpt>
      <trkpt lat="43.90561" lon="7.39295">
        <ele>750.85797119141</ele>
        <time>2014-01-11T09:41:59Z</time>
      </trkpt>
      <trkpt lat="43.90562" lon="7.3929">
        <ele>750.39971923828</ele>
        <time>2014-01-11T09:42:07Z</time>
      </trkpt>
      <trkpt lat="43.90565" lon="7.39288">
        <ele>752.15246582031</ele>
        <time>2014-01-11T09:42:16Z</time>
      </trkpt>
      <trkpt lat="43.90565" lon="7.39293">
        <ele>752.94140625</ele>
        <time>2014-01-11T09:42:23Z</time>
      </trkpt>
      <trkpt lat="43.90568" lon="7.39296">
        <ele>754.60125732422</ele>
        <time>2014-01-11T09:42:33Z</time>
      </trkpt>
      <trkpt lat="43.9057" lon="7.39291">
        <ele>754.77655029297</ele>
        <time>2014-01-11T09:42:43Z</time>
      </trkpt>
      <trkpt lat="43.90573" lon="7.39289">
        <ele>756.01098632812</ele>
        <time>2014-01-11T09:42:52Z</time>
      </trkpt>
      <trkpt lat="43.90575" lon="7.3929">
        <ele>757.42102050781</ele>
        <time>2014-01-11T09:43:00Z</time>
      </trkpt>
      <trkpt lat="43.90577" lon="7.39292">
        <ele>758.97509765625</ele>
        <time>2014-01-11T09:43:07Z</time>
      </trkpt>
      <trkpt lat="43.9058" lon="7.39291">
        <ele>759.98309326172</ele>
        <time>2014-01-11T09:43:14Z</time>
      </trkpt>
      <trkpt lat="43.90583" lon="7.39289">
        <ele>761.30163574219</ele>
        <time>2014-01-11T09:43:20Z</time>
      </trkpt>
      <trkpt lat="43.90585" lon="7.39285">
        <ele>762.18963623047</ele>
        <time>2014-01-11T09:43:28Z</time>
      </trkpt>
      <trkpt lat="43.90589" lon="7.39281">
        <ele>764.37396240234</ele>
        <time>2014-01-11T09:43:37Z</time>
      </trkpt>
      <trkpt lat="43.90591" lon="7.39276">
        <ele>765.65966796875</ele>
        <time>2014-01-11T09:43:45Z</time>
      </trkpt>
      <trkpt lat="43.90594" lon="7.39273">
        <ele>767.37652587891</ele>
        <time>2014-01-11T09:43:54Z</time>
      </trkpt>
      <trkpt lat="43.90597" lon="7.39271">
        <ele>769.00561523438</ele>
        <time>2014-01-11T09:44:01Z</time>
      </trkpt>
      <trkpt lat="43.906" lon="7.39271">
        <ele>771.05688476562</ele>
        <time>2014-01-11T09:44:09Z</time>
      </trkpt>
      <trkpt lat="43.90603" lon="7.39267">
        <ele>772.63397216797</ele>
        <time>2014-01-11T09:44:17Z</time>
      </trkpt>
      <trkpt lat="43.90604" lon="7.3927">
        <ele>773.34228515625</ele>
        <time>2014-01-11T09:44:22Z</time>
      </trkpt>
      <trkpt lat="43.90603" lon="7.39273">
        <ele>773.26263427734</ele>
        <time>2014-01-11T09:44:30Z</time>
      </trkpt>
      <trkpt lat="43.90603" lon="7.39276">
        <ele>773.73919677734</ele>
        <time>2014-01-11T09:44:38Z</time>
      </trkpt>
      <trkpt lat="43.90605" lon="7.39274">
        <ele>775.14721679688</ele>
        <time>2014-01-11T09:44:45Z</time>
      </trkpt>
      <trkpt lat="43.90609" lon="7.39272">
        <ele>777.15814208984</ele>
        <time>2014-01-11T09:44:54Z</time>
      </trkpt>
      <trkpt lat="43.90611" lon="7.39272">
        <ele>778.45947265625</ele>
        <time>2014-01-11T09:45:01Z</time>
      </trkpt>
      <trkpt lat="43.90613" lon="7.3927">
        <ele>779.66467285156</ele>
        <time>2014-01-11T09:45:08Z</time>
      </trkpt>
      <trkpt lat="43.90616" lon="7.39263">
        <ele>780.22875976562</ele>
        <time>2014-01-11T09:45:17Z</time>
      </trkpt>
      <trkpt lat="43.90621" lon="7.39259">
        <ele>782.37982177734</ele>
        <time>2014-01-11T09:45:28Z</time>
      </trkpt>
      <trkpt lat="43.90623" lon="7.39255">
        <ele>783.23199462891</ele>
        <time>2014-01-11T09:45:36Z</time>
      </trkpt>
      <trkpt lat="43.90625" lon="7.39251">
        <ele>783.61322021484</ele>
        <time>2014-01-11T09:45:43Z</time>
      </trkpt>
      <trkpt lat="43.90627" lon="7.39249">
        <ele>784.80010986328</ele>
        <time>2014-01-11T09:45:50Z</time>
      </trkpt>
      <trkpt lat="43.9063" lon="7.39245">
        <ele>785.98101806641</ele>
        <time>2014-01-11T09:45:58Z</time>
      </trkpt>
      <trkpt lat="43.90633" lon="7.39247">
        <ele>787.76965332031</ele>
        <time>2014-01-11T09:46:05Z</time>
      </trkpt>
      <trkpt lat="43.90635" lon="7.39252">
        <ele>789.95031738281</ele>
        <time>2014-01-11T09:46:12Z</time>
      </trkpt>
      <trkpt lat="43.90634" lon="7.39259">
        <ele>789.72766113281</ele>
        <time>2014-01-11T09:46:20Z</time>
      </trkpt>
      <trkpt lat="43.90631" lon="7.39262">
        <ele>788.28247070312</ele>
        <time>2014-01-11T09:46:26Z</time>
      </trkpt>
      <trkpt lat="43.9063" lon="7.39263">
        <ele>788.11749267578</ele>
        <time>2014-01-11T09:46:31Z</time>
      </trkpt>
      <trkpt lat="43.9063" lon="7.39263">
        <ele>788.09741210938</ele>
        <time>2014-01-11T09:46:40Z</time>
      </trkpt>
      <trkpt lat="43.9063" lon="7.39262">
        <ele>788.03216552734</ele>
        <time>2014-01-11T09:46:46Z</time>
      </trkpt>
      <trkpt lat="43.9063" lon="7.39262">
        <ele>787.99200439453</ele>
        <time>2014-01-11T09:46:51Z</time>
      </trkpt>
      <trkpt lat="43.9063" lon="7.39261">
        <ele>787.70458984375</ele>
        <time>2014-01-11T09:47:01Z</time>
      </trkpt>
      <trkpt lat="43.9063" lon="7.39261">
        <ele>787.92175292969</ele>
        <time>2014-01-11T09:47:09Z</time>
      </trkpt>
      <trkpt lat="43.9063" lon="7.39261">
        <ele>787.74530029297</ele>
        <time>2014-01-11T09:47:16Z</time>
      </trkpt>
      <trkpt lat="43.9063" lon="7.39261">
        <ele>787.67401123047</ele>
        <time>2014-01-11T09:47:21Z</time>
      </trkpt>
      <trkpt lat="43.9063" lon="7.39262">
        <ele>788.02215576172</ele>
        <time>2014-01-11T09:47:24Z</time>
      </trkpt>
      <trkpt lat="43.90631" lon="7.39261">
        <ele>788.38055419922</ele>
        <time>2014-01-11T09:47:31Z</time>
      </trkpt>
      <trkpt lat="43.90631" lon="7.39261">
        <ele>788.12908935547</ele>
        <time>2014-01-11T09:47:34Z</time>
      </trkpt>
      <trkpt lat="43.90631" lon="7.39261">
        <ele>788.1142578125</ele>
        <time>2014-01-11T09:47:38Z</time>
      </trkpt>
      <trkpt lat="43.9063" lon="7.3926">
        <ele>787.87158203125</ele>
        <time>2014-01-11T09:47:49Z</time>
      </trkpt>
      <trkpt lat="43.90631" lon="7.39261">
        <ele>788.31719970703</ele>
        <time>2014-01-11T09:48:03Z</time>
      </trkpt>
      <trkpt lat="43.90632" lon="7.39261">
        <ele>788.77166748047</ele>
        <time>2014-01-11T09:48:15Z</time>
      </trkpt>
      <trkpt lat="43.90631" lon="7.39261">
        <ele>788.5830078125</ele>
        <time>2014-01-11T09:48:21Z</time>
      </trkpt>
      <trkpt lat="43.90631" lon="7.39262">
        <ele>788.67913818359</ele>
        <time>2014-01-11T09:48:29Z</time>
      </trkpt>
      <trkpt lat="43.90631" lon="7.39262">
        <ele>788.43908691406</ele>
        <time>2014-01-11T09:48:36Z</time>
      </trkpt>
      <trkpt lat="43.90631" lon="7.39262">
        <ele>788.24285888672</ele>
        <time>2014-01-11T09:48:44Z</time>
      </trkpt>
      <trkpt lat="43.90631" lon="7.39263">
        <ele>788.31707763672</ele>
        <time>2014-01-11T09:48:56Z</time>
      </trkpt>
      <trkpt lat="43.9063" lon="7.39262">
        <ele>788.03216552734</ele>
        <time>2014-01-11T09:49:18Z</time>
      </trkpt>
      <trkpt lat="43.9063" lon="7.39262">
        <ele>788.03717041016</ele>
        <time>2014-01-11T09:49:23Z</time>
      </trkpt>
      <trkpt lat="43.9063" lon="7.39262">
        <ele>787.8623046875</ele>
        <time>2014-01-11T09:49:34Z</time>
      </trkpt>
      <trkpt lat="43.9063" lon="7.39262">
        <ele>787.82159423828</ele>
        <time>2014-01-11T09:49:41Z</time>
      </trkpt>
      <trkpt lat="43.9063" lon="7.39262">
        <ele>787.82672119141</ele>
        <time>2014-01-11T09:49:43Z</time>
      </trkpt>
      <trkpt lat="43.9063" lon="7.39262">
        <ele>787.85723876953</ele>
        <time>2014-01-11T09:49:45Z</time>
      </trkpt>
      <trkpt lat="43.9063" lon="7.39262">
        <ele>787.8623046875</ele>
        <time>2014-01-11T09:49:46Z</time>
      </trkpt>
      <trkpt lat="43.9063" lon="7.39262">
        <ele>787.84197998047</ele>
        <time>2014-01-11T09:49:48Z</time>
      </trkpt>
      <trkpt lat="43.9063" lon="7.39262">
        <ele>788.04223632812</ele>
        <time>2014-01-11T09:50:04Z</time>
      </trkpt>
      <trkpt lat="43.9063" lon="7.39261">
        <ele>787.49768066406</ele>
        <time>2014-01-11T09:50:19Z</time>
      </trkpt>
      <trkpt lat="43.90628" lon="7.39261">
        <ele>786.80352783203</ele>
        <time>2014-01-11T09:50:30Z</time>
      </trkpt>
      <trkpt lat="43.9063" lon="7.39261">
        <ele>787.48736572266</ele>
        <time>2014-01-11T09:50:49Z</time>
      </trkpt>
      <trkpt lat="43.90629" lon="7.39262">
        <ele>787.35382080078</ele>
        <time>2014-01-11T09:50:57Z</time>
      </trkpt>
      <trkpt lat="43.90629" lon="7.39261">
        <ele>787.10064697266</ele>
        <time>2014-01-11T09:51:03Z</time>
      </trkpt>
      <trkpt lat="43.90629" lon="7.39261">
        <ele>787.02117919922</ele>
        <time>2014-01-11T09:51:20Z</time>
      </trkpt>
      <trkpt lat="43.90629" lon="7.39261">
        <ele>787.02117919922</ele>
        <time>2014-01-11T09:51:23Z</time>
      </trkpt>
      <trkpt lat="43.90629" lon="7.39261">
        <ele>787.02117919922</ele>
        <time>2014-01-11T09:51:24Z</time>
      </trkpt>
      <trkpt lat="43.90628" lon="7.39261">
        <ele>786.80889892578</ele>
        <time>2014-01-11T09:51:31Z</time>
      </trkpt>
      <trkpt lat="43.90628" lon="7.39261">
        <ele>786.36828613281</ele>
        <time>2014-01-11T09:51:35Z</time>
      </trkpt>
      <trkpt lat="43.90628" lon="7.39261">
        <ele>786.81964111328</ele>
        <time>2014-01-11T09:51:43Z</time>
      </trkpt>
      <trkpt lat="43.90628" lon="7.39261">
        <ele>786.84112548828</ele>
        <time>2014-01-11T09:51:50Z</time>
      </trkpt>
      <trkpt lat="43.90629" lon="7.39261">
        <ele>787.32244873047</ele>
        <time>2014-01-11T09:52:03Z</time>
      </trkpt>
      <trkpt lat="43.90628" lon="7.39263">
        <ele>787.07745361328</ele>
        <time>2014-01-11T09:52:10Z</time>
      </trkpt>
      <trkpt lat="43.90628" lon="7.39273">
        <ele>787.95190429688</ele>
        <time>2014-01-11T09:52:15Z</time>
      </trkpt>
      <trkpt lat="43.9063" lon="7.39281">
        <ele>789.78125</ele>
        <time>2014-01-11T09:52:18Z</time>
      </trkpt>
      <trkpt lat="43.90635" lon="7.39289">
        <ele>793.17730712891</ele>
        <time>2014-01-11T09:52:22Z</time>
      </trkpt>
      <trkpt lat="43.90641" lon="7.39298">
        <ele>797.15753173828</ele>
        <time>2014-01-11T09:52:25Z</time>
      </trkpt>
      <trkpt lat="43.90643" lon="7.393">
        <ele>798.07434082031</ele>
        <time>2014-01-11T09:52:26Z</time>
      </trkpt>
      <trkpt lat="43.90652" lon="7.39312">
        <ele>801.56671142578</ele>
        <time>2014-01-11T09:52:31Z</time>
      </trkpt>
      <trkpt lat="43.90656" lon="7.3932">
        <ele>802.06158447266</ele>
        <time>2014-01-11T09:52:35Z</time>
      </trkpt>
      <trkpt lat="43.90661" lon="7.39325">
        <ele>802.78240966797</ele>
        <time>2014-01-11T09:52:38Z</time>
      </trkpt>
      <trkpt lat="43.9067" lon="7.39338">
        <ele>802.42596435547</ele>
        <time>2014-01-11T09:52:44Z</time>
      </trkpt>
      <trkpt lat="43.90676" lon="7.39345">
        <ele>801.90411376953</ele>
        <time>2014-01-11T09:52:48Z</time>
      </trkpt>
      <trkpt lat="43.90678" lon="7.39346">
        <ele>802.17877197266</ele>
        <time>2014-01-11T09:52:50Z</time>
      </trkpt>
      <trkpt lat="43.90688" lon="7.39356">
        <ele>801.86291503906</ele>
        <time>2014-01-11T09:52:56Z</time>
      </trkpt>
      <trkpt lat="43.90697" lon="7.39364">
        <ele>801.81805419922</ele>
        <time>2014-01-11T09:53:01Z</time>
      </trkpt>
      <trkpt lat="43.90697" lon="7.39365">
        <ele>801.67950439453</ele>
        <time>2014-01-11T09:53:05Z</time>
      </trkpt>
      <trkpt lat="43.90698" lon="7.39366">
        <ele>801.48809814453</ele>
        <time>2014-01-11T09:53:14Z</time>
      </trkpt>
      <trkpt lat="43.90698" lon="7.39364">
        <ele>802.28887939453</ele>
        <time>2014-01-11T09:53:23Z</time>
      </trkpt>
      <trkpt lat="43.90698" lon="7.39364">
        <ele>802.26049804688</ele>
        <time>2014-01-11T09:53:27Z</time>
      </trkpt>
      <trkpt lat="43.90698" lon="7.39365">
        <ele>801.92687988281</ele>
        <time>2014-01-11T09:53:33Z</time>
      </trkpt>
      <trkpt lat="43.90697" lon="7.39368">
        <ele>800.94586181641</ele>
        <time>2014-01-11T09:53:41Z</time>
      </trkpt>
      <trkpt lat="43.90702" lon="7.39372">
        <ele>800.87713623047</ele>
        <time>2014-01-11T09:53:46Z</time>
      </trkpt>
      <trkpt lat="43.90715" lon="7.39383">
        <ele>800.56658935547</ele>
        <time>2014-01-11T09:53:50Z</time>
      </trkpt>
      <trkpt lat="43.90726" lon="7.39388">
        <ele>801.25598144531</ele>
        <time>2014-01-11T09:53:53Z</time>
      </trkpt>
      <trkpt lat="43.9073" lon="7.39396">
        <ele>800.07159423828</ele>
        <time>2014-01-11T09:53:56Z</time>
      </trkpt>
      <trkpt lat="43.90732" lon="7.39398">
        <ele>799.92950439453</ele>
        <time>2014-01-11T09:53:57Z</time>
      </trkpt>
      <trkpt lat="43.90742" lon="7.39406">
        <ele>799.67260742188</ele>
        <time>2014-01-11T09:54:02Z</time>
      </trkpt>
      <trkpt lat="43.90757" lon="7.39416">
        <ele>799.75354003906</ele>
        <time>2014-01-11T09:54:08Z</time>
      </trkpt>
      <trkpt lat="43.90769" lon="7.39425">
        <ele>798.93170166016</ele>
        <time>2014-01-11T09:54:13Z</time>
      </trkpt>
      <trkpt lat="43.9078" lon="7.39436">
        <ele>797.33386230469</ele>
        <time>2014-01-11T09:54:18Z</time>
      </trkpt>
      <trkpt lat="43.90793" lon="7.39444">
        <ele>798.28833007812</ele>
        <time>2014-01-11T09:54:23Z</time>
      </trkpt>
      <trkpt lat="43.90803" lon="7.39454">
        <ele>796.65716552734</ele>
        <time>2014-01-11T09:54:27Z</time>
      </trkpt>
      <trkpt lat="43.90814" lon="7.39467">
        <ele>793.34875488281</ele>
        <time>2014-01-11T09:54:31Z</time>
      </trkpt>
      <trkpt lat="43.90821" lon="7.3947">
        <ele>793.13177490234</ele>
        <time>2014-01-11T09:54:34Z</time>
      </trkpt>
      <trkpt lat="43.90834" lon="7.39469">
        <ele>796.62493896484</ele>
        <time>2014-01-11T09:54:40Z</time>
      </trkpt>
      <trkpt lat="43.90836" lon="7.39468">
        <ele>797.16796875</ele>
        <time>2014-01-11T09:54:41Z</time>
      </trkpt>
      <trkpt lat="43.90844" lon="7.39469">
        <ele>797.05407714844</ele>
        <time>2014-01-11T09:54:46Z</time>
      </trkpt>
      <trkpt lat="43.9085" lon="7.39481">
        <ele>790.84045410156</ele>
        <time>2014-01-11T09:55:02Z</time>
      </trkpt>
      <trkpt lat="43.9085" lon="7.39485">
        <ele>788.95831298828</ele>
        <time>2014-01-11T09:55:07Z</time>
      </trkpt>
      <trkpt lat="43.90855" lon="7.39494">
        <ele>783.29907226562</ele>
        <time>2014-01-11T09:55:14Z</time>
      </trkpt>
      <trkpt lat="43.90858" lon="7.39488">
        <ele>787.12829589844</ele>
        <time>2014-01-11T09:55:20Z</time>
      </trkpt>
      <trkpt lat="43.90861" lon="7.3949">
        <ele>786.10791015625</ele>
        <time>2014-01-11T09:55:23Z</time>
      </trkpt>
      <trkpt lat="43.90859" lon="7.39494">
        <ele>783.5908203125</ele>
        <time>2014-01-11T09:55:29Z</time>
      </trkpt>
      <trkpt lat="43.90861" lon="7.39495">
        <ele>783.01617431641</ele>
        <time>2014-01-11T09:55:32Z</time>
      </trkpt>
      <trkpt lat="43.9087" lon="7.39505">
        <ele>784.73156738281</ele>
        <time>2014-01-11T09:55:39Z</time>
      </trkpt>
      <trkpt lat="43.90871" lon="7.39502">
        <ele>785.5830078125</ele>
        <time>2014-01-11T09:55:46Z</time>
      </trkpt>
      <trkpt lat="43.90872" lon="7.39497">
        <ele>787.68151855469</ele>
        <time>2014-01-11T09:55:49Z</time>
      </trkpt>
      <trkpt lat="43.90873" lon="7.39494">
        <ele>789.37976074219</ele>
        <time>2014-01-11T09:55:53Z</time>
      </trkpt>
      <trkpt lat="43.90866" lon="7.39496">
        <ele>784.84063720703</ele>
        <time>2014-01-11T09:56:01Z</time>
      </trkpt>
      <trkpt lat="43.90864" lon="7.39494">
        <ele>784.81958007812</ele>
        <time>2014-01-11T09:56:02Z</time>
      </trkpt>
      <trkpt lat="43.90862" lon="7.39493">
        <ele>784.79528808594</ele>
        <time>2014-01-11T09:56:03Z</time>
      </trkpt>
      <trkpt lat="43.90859" lon="7.39493">
        <ele>784.01849365234</ele>
        <time>2014-01-11T09:56:08Z</time>
      </trkpt>
      <trkpt lat="43.90862" lon="7.39502">
        <ele>780.33703613281</ele>
        <time>2014-01-11T09:56:14Z</time>
      </trkpt>
      <trkpt lat="43.9086" lon="7.39496">
        <ele>782.52380371094</ele>
        <time>2014-01-11T09:56:18Z</time>
      </trkpt>
      <trkpt lat="43.90857" lon="7.3949">
        <ele>785.85864257812</ele>
        <time>2014-01-11T09:56:22Z</time>
      </trkpt>
      <trkpt lat="43.90857" lon="7.39487">
        <ele>787.68365478516</ele>
        <time>2014-01-11T09:56:24Z</time>
      </trkpt>
      <trkpt lat="43.90859" lon="7.39485">
        <ele>788.85955810547</ele>
        <time>2014-01-11T09:56:27Z</time>
      </trkpt>
      <trkpt lat="43.90861" lon="7.39485">
        <ele>789.47088623047</ele>
        <time>2014-01-11T09:56:30Z</time>
      </trkpt>
      <trkpt lat="43.90855" lon="7.39484">
        <ele>789.34173583984</ele>
        <time>2014-01-11T09:56:36Z</time>
      </trkpt>
      <trkpt lat="43.9086" lon="7.39484">
        <ele>789.97583007812</ele>
        <time>2014-01-11T09:56:49Z</time>
      </trkpt>
      <trkpt lat="43.90861" lon="7.39487">
        <ele>787.71209716797</ele>
        <time>2014-01-11T09:56:57Z</time>
      </trkpt>
      <trkpt lat="43.90858" lon="7.3949">
        <ele>785.84906005859</ele>
        <time>2014-01-11T09:57:02Z</time>
      </trkpt>
      <trkpt lat="43.90855" lon="7.39494">
        <ele>783.55493164062</ele>
        <time>2014-01-11T09:57:08Z</time>
      </trkpt>
      <trkpt lat="43.90849" lon="7.395">
        <ele>779.98657226562</ele>
        <time>2014-01-11T09:57:12Z</time>
      </trkpt>
      <trkpt lat="43.90839" lon="7.39512">
        <ele>774.32434082031</ele>
        <time>2014-01-11T09:57:17Z</time>
      </trkpt>
      <trkpt lat="43.90838" lon="7.39531">
        <ele>765.93511962891</ele>
        <time>2014-01-11T09:57:23Z</time>
      </trkpt>
      <trkpt lat="43.90839" lon="7.39535">
        <ele>765.88562011719</ele>
        <time>2014-01-11T09:57:25Z</time>
      </trkpt>
      <trkpt lat="43.9084" lon="7.3955">
        <ele>764.27203369141</ele>
        <time>2014-01-11T09:57:31Z</time>
      </trkpt>
      <trkpt lat="43.90831" lon="7.39553">
        <ele>757.85711669922</ele>
        <time>2014-01-11T09:57:37Z</time>
      </trkpt>
      <trkpt lat="43.90823" lon="7.39549">
        <ele>755.80895996094</ele>
        <time>2014-01-11T09:57:43Z</time>
      </trkpt>
      <trkpt lat="43.90811" lon="7.39546">
        <ele>753.19061279297</ele>
        <time>2014-01-11T09:57:49Z</time>
      </trkpt>
      <trkpt lat="43.9081" lon="7.39545">
        <ele>753.04034423828</ele>
        <time>2014-01-11T09:57:50Z</time>
      </trkpt>
      <trkpt lat="43.908" lon="7.39552">
        <ele>747.74432373047</ele>
        <time>2014-01-11T09:57:55Z</time>
      </trkpt>
      <trkpt lat="43.90791" lon="7.39559">
        <ele>744.90118408203</ele>
        <time>2014-01-11T09:57:59Z</time>
      </trkpt>
      <trkpt lat="43.90784" lon="7.39559">
        <ele>742.81378173828</ele>
        <time>2014-01-11T09:58:03Z</time>
      </trkpt>
      <trkpt lat="43.90782" lon="7.39558">
        <ele>741.93487548828</ele>
        <time>2014-01-11T09:58:04Z</time>
      </trkpt>
      <trkpt lat="43.90778" lon="7.39559">
        <ele>741.04223632812</ele>
        <time>2014-01-11T09:58:06Z</time>
      </trkpt>
      <trkpt lat="43.90778" lon="7.39559">
        <ele>740.90319824219</ele>
        <time>2014-01-11T09:58:08Z</time>
      </trkpt>
      <trkpt lat="43.90769" lon="7.39563">
        <ele>740.853515625</ele>
        <time>2014-01-11T09:58:12Z</time>
      </trkpt>
      <trkpt lat="43.90752" lon="7.39572">
        <ele>740.02325439453</ele>
        <time>2014-01-11T09:58:19Z</time>
      </trkpt>
      <trkpt lat="43.90739" lon="7.39581">
        <ele>740.54205322266</ele>
        <time>2014-01-11T09:58:25Z</time>
      </trkpt>
      <trkpt lat="43.90732" lon="7.39585">
        <ele>741.54919433594</ele>
        <time>2014-01-11T09:58:29Z</time>
      </trkpt>
      <trkpt lat="43.90732" lon="7.39597">
        <ele>746.27648925781</ele>
        <time>2014-01-11T09:58:33Z</time>
      </trkpt>
      <trkpt lat="43.90733" lon="7.39607">
        <ele>750.45855712891</ele>
        <time>2014-01-11T09:58:35Z</time>
      </trkpt>
      <trkpt lat="43.90733" lon="7.39616">
        <ele>753.84246826172</ele>
        <time>2014-01-11T09:58:37Z</time>
      </trkpt>
      <trkpt lat="43.90728" lon="7.39621">
        <ele>754.99298095703</ele>
        <time>2014-01-11T09:58:41Z</time>
      </trkpt>
      <trkpt lat="43.90726" lon="7.39621">
        <ele>754.47747802734</ele>
        <time>2014-01-11T09:58:42Z</time>
      </trkpt>
      <trkpt lat="43.90713" lon="7.39614">
        <ele>748.34979248047</ele>
        <time>2014-01-11T09:58:48Z</time>
      </trkpt>
      <trkpt lat="43.90699" lon="7.39613">
        <ele>744.13092041016</ele>
        <time>2014-01-11T09:58:53Z</time>
      </trkpt>
      <trkpt lat="43.90687" lon="7.39609">
        <ele>740.43786621094</ele>
        <time>2014-01-11T09:58:58Z</time>
      </trkpt>
      <trkpt lat="43.90676" lon="7.39609">
        <ele>739.47320556641</ele>
        <time>2014-01-11T09:59:03Z</time>
      </trkpt>
      <trkpt lat="43.90665" lon="7.39616">
        <ele>741.14227294922</ele>
        <time>2014-01-11T09:59:08Z</time>
      </trkpt>
      <trkpt lat="43.90655" lon="7.39625">
        <ele>742.61273193359</ele>
        <time>2014-01-11T09:59:14Z</time>
      </trkpt>
      <trkpt lat="43.90652" lon="7.39628">
        <ele>743.28381347656</ele>
        <time>2014-01-11T09:59:16Z</time>
      </trkpt>
      <trkpt lat="43.9064" lon="7.3963">
        <ele>741.80981445312</ele>
        <time>2014-01-11T09:59:22Z</time>
      </trkpt>
      <trkpt lat="43.90638" lon="7.3963">
        <ele>741.80322265625</ele>
        <time>2014-01-11T09:59:23Z</time>
      </trkpt>
      <trkpt lat="43.9062" lon="7.39637">
        <ele>742.31762695312</ele>
        <time>2014-01-11T09:59:31Z</time>
      </trkpt>
      <trkpt lat="43.90611" lon="7.3964">
        <ele>742.74243164062</ele>
        <time>2014-01-11T09:59:36Z</time>
      </trkpt>
      <trkpt lat="43.90601" lon="7.39645">
        <ele>742.5439453125</ele>
        <time>2014-01-11T09:59:42Z</time>
      </trkpt>
      <trkpt lat="43.90596" lon="7.39649">
        <ele>743.48120117188</ele>
        <time>2014-01-11T09:59:47Z</time>
      </trkpt>
      <trkpt lat="43.90595" lon="7.3965">
        <ele>743.56188964844</ele>
        <time>2014-01-11T09:59:55Z</time>
      </trkpt>
      <trkpt lat="43.90589" lon="7.3966">
        <ele>746.90759277344</ele>
        <time>2014-01-11T10:00:01Z</time>
      </trkpt>
      <trkpt lat="43.90586" lon="7.39671">
        <ele>750.88562011719</ele>
        <time>2014-01-11T10:00:06Z</time>
      </trkpt>
      <trkpt lat="43.90582" lon="7.3969">
        <ele>755.90112304688</ele>
        <time>2014-01-11T10:00:11Z</time>
      </trkpt>
      <trkpt lat="43.90574" lon="7.39704">
        <ele>756.19891357422</ele>
        <time>2014-01-11T10:00:15Z</time>
      </trkpt>
      <trkpt lat="43.90568" lon="7.39713">
        <ele>756.92742919922</ele>
        <time>2014-01-11T10:00:20Z</time>
      </trkpt>
      <trkpt lat="43.90561" lon="7.39724">
        <ele>757.66223144531</ele>
        <time>2014-01-11T10:00:26Z</time>
      </trkpt>
      <trkpt lat="43.90552" lon="7.39733">
        <ele>754.51245117188</ele>
        <time>2014-01-11T10:00:32Z</time>
      </trkpt>
      <trkpt lat="43.90544" lon="7.39743">
        <ele>748.91888427734</ele>
        <time>2014-01-11T10:00:37Z</time>
      </trkpt>
      <trkpt lat="43.90539" lon="7.39756">
        <ele>747.05694580078</ele>
        <time>2014-01-11T10:00:43Z</time>
      </trkpt>
      <trkpt lat="43.90542" lon="7.39772">
        <ele>753.62054443359</ele>
        <time>2014-01-11T10:00:48Z</time>
      </trkpt>
      <trkpt lat="43.90548" lon="7.39787">
        <ele>759.03680419922</ele>
        <time>2014-01-11T10:00:53Z</time>
      </trkpt>
      <trkpt lat="43.90554" lon="7.398">
        <ele>762.63067626953</ele>
        <time>2014-01-11T10:00:57Z</time>
      </trkpt>
      <trkpt lat="43.90562" lon="7.39809">
        <ele>765.94226074219</ele>
        <time>2014-01-11T10:01:03Z</time>
      </trkpt>
      <trkpt lat="43.90562" lon="7.3981">
        <ele>766.04516601562</ele>
        <time>2014-01-11T10:01:08Z</time>
      </trkpt>
      <trkpt lat="43.90563" lon="7.39813">
        <ele>765.95556640625</ele>
        <time>2014-01-11T10:01:21Z</time>
      </trkpt>
      <trkpt lat="43.90564" lon="7.39815">
        <ele>766.17425537109</ele>
        <time>2014-01-11T10:01:23Z</time>
      </trkpt>
      <trkpt lat="43.90563" lon="7.39818">
        <ele>765.52673339844</ele>
        <time>2014-01-11T10:01:26Z</time>
      </trkpt>
      <trkpt lat="43.90559" lon="7.39819">
        <ele>763.66204833984</ele>
        <time>2014-01-11T10:01:30Z</time>
      </trkpt>
      <trkpt lat="43.90557" lon="7.3982">
        <ele>762.89056396484</ele>
        <time>2014-01-11T10:01:34Z</time>
      </trkpt>
      <trkpt lat="43.90556" lon="7.39821">
        <ele>762.07946777344</ele>
        <time>2014-01-11T10:01:37Z</time>
      </trkpt>
      <trkpt lat="43.90548" lon="7.39826">
        <ele>756.09893798828</ele>
        <time>2014-01-11T10:01:42Z</time>
      </trkpt>
      <trkpt lat="43.9054" lon="7.39831">
        <ele>749.96038818359</ele>
        <time>2014-01-11T10:01:48Z</time>
      </trkpt>
      <trkpt lat="43.90536" lon="7.39835">
        <ele>747.6201171875</ele>
        <time>2014-01-11T10:01:51Z</time>
      </trkpt>
      <trkpt lat="43.90533" lon="7.39843">
        <ele>747.82135009766</ele>
        <time>2014-01-11T10:01:55Z</time>
      </trkpt>
      <trkpt lat="43.9053" lon="7.39844">
        <ele>746.28668212891</ele>
        <time>2014-01-11T10:01:58Z</time>
      </trkpt>
      <trkpt lat="43.90524" lon="7.39839">
        <ele>741.72637939453</ele>
        <time>2014-01-11T10:02:04Z</time>
      </trkpt>
      <trkpt lat="43.90524" lon="7.39838">
        <ele>741.13006591797</ele>
        <time>2014-01-11T10:02:10Z</time>
      </trkpt>
      <trkpt lat="43.9052" lon="7.39839">
        <ele>739.69781494141</ele>
        <time>2014-01-11T10:02:18Z</time>
      </trkpt>
      <trkpt lat="43.90514" lon="7.39841">
        <ele>737.6162109375</ele>
        <time>2014-01-11T10:02:24Z</time>
      </trkpt>
      <trkpt lat="43.9051" lon="7.39843">
        <ele>736.68640136719</ele>
        <time>2014-01-11T10:02:30Z</time>
      </trkpt>
      <trkpt lat="43.90507" lon="7.39844">
        <ele>735.58551025391</ele>
        <time>2014-01-11T10:02:35Z</time>
      </trkpt>
      <trkpt lat="43.90502" lon="7.39846">
        <ele>734.35632324219</ele>
        <time>2014-01-11T10:02:40Z</time>
      </trkpt>
      <trkpt lat="43.90499" lon="7.39847">
        <ele>733.82135009766</ele>
        <time>2014-01-11T10:02:42Z</time>
      </trkpt>
      <trkpt lat="43.90495" lon="7.39852">
        <ele>735.61547851562</ele>
        <time>2014-01-11T10:02:48Z</time>
      </trkpt>
      <trkpt lat="43.9049" lon="7.39853">
        <ele>735.61993408203</ele>
        <time>2014-01-11T10:02:53Z</time>
      </trkpt>
      <trkpt lat="43.90485" lon="7.39856">
        <ele>736.27264404297</ele>
        <time>2014-01-11T10:02:59Z</time>
      </trkpt>
      <trkpt lat="43.90483" lon="7.39863">
        <ele>739.27026367188</ele>
        <time>2014-01-11T10:03:08Z</time>
      </trkpt>
      <trkpt lat="43.90483" lon="7.39871">
        <ele>744.93817138672</ele>
        <time>2014-01-11T10:03:15Z</time>
      </trkpt>
      <trkpt lat="43.90482" lon="7.39875">
        <ele>748.30426025391</ele>
        <time>2014-01-11T10:03:24Z</time>
      </trkpt>
      <trkpt lat="43.9048" lon="7.39878">
        <ele>749.65960693359</ele>
        <time>2014-01-11T10:03:30Z</time>
      </trkpt>
      <trkpt lat="43.90481" lon="7.39882">
        <ele>753.14996337891</ele>
        <time>2014-01-11T10:03:35Z</time>
      </trkpt>
      <trkpt lat="43.9048" lon="7.39886">
        <ele>755.90649414062</ele>
        <time>2014-01-11T10:03:40Z</time>
      </trkpt>
      <trkpt lat="43.90479" lon="7.39887">
        <ele>755.68273925781</ele>
        <time>2014-01-11T10:03:46Z</time>
      </trkpt>
      <trkpt lat="43.90476" lon="7.3989">
        <ele>757.2041015625</ele>
        <time>2014-01-11T10:03:53Z</time>
      </trkpt>
      <trkpt lat="43.90473" lon="7.39889">
        <ele>756.13293457031</ele>
        <time>2014-01-11T10:03:59Z</time>
      </trkpt>
      <trkpt lat="43.90468" lon="7.39889">
        <ele>755.70025634766</ele>
        <time>2014-01-11T10:04:06Z</time>
      </trkpt>
      <trkpt lat="43.90464" lon="7.39891">
        <ele>756.16436767578</ele>
        <time>2014-01-11T10:04:12Z</time>
      </trkpt>
      <trkpt lat="43.90462" lon="7.39895">
        <ele>757.94604492188</ele>
        <time>2014-01-11T10:04:17Z</time>
      </trkpt>
      <trkpt lat="43.90462" lon="7.39901">
        <ele>760.78021240234</ele>
        <time>2014-01-11T10:04:25Z</time>
      </trkpt>
      <trkpt lat="43.90457" lon="7.39902">
        <ele>760.23913574219</ele>
        <time>2014-01-11T10:04:31Z</time>
      </trkpt>
      <trkpt lat="43.90452" lon="7.39905">
        <ele>760.78070068359</ele>
        <time>2014-01-11T10:04:38Z</time>
      </trkpt>
      <trkpt lat="43.90446" lon="7.39907">
        <ele>760.63079833984</ele>
        <time>2014-01-11T10:04:46Z</time>
      </trkpt>
      <trkpt lat="43.90441" lon="7.39909">
        <ele>760.43786621094</ele>
        <time>2014-01-11T10:04:51Z</time>
      </trkpt>
      <trkpt lat="43.90434" lon="7.39912">
        <ele>760.76245117188</ele>
        <time>2014-01-11T10:05:00Z</time>
      </trkpt>
      <trkpt lat="43.90432" lon="7.39915">
        <ele>761.64001464844</ele>
        <time>2014-01-11T10:05:05Z</time>
      </trkpt>
      <trkpt lat="43.90428" lon="7.39919">
        <ele>762.32922363281</ele>
        <time>2014-01-11T10:05:11Z</time>
      </trkpt>
      <trkpt lat="43.90424" lon="7.39922">
        <ele>763.12188720703</ele>
        <time>2014-01-11T10:05:18Z</time>
      </trkpt>
      <trkpt lat="43.90423" lon="7.39928">
        <ele>764.90130615234</ele>
        <time>2014-01-11T10:05:22Z</time>
      </trkpt>
      <trkpt lat="43.90422" lon="7.39933">
        <ele>766.88061523438</ele>
        <time>2014-01-11T10:05:30Z</time>
      </trkpt>
      <trkpt lat="43.90424" lon="7.39938">
        <ele>769.11663818359</ele>
        <time>2014-01-11T10:05:33Z</time>
      </trkpt>
      <trkpt lat="43.90427" lon="7.39949">
        <ele>773.41723632812</ele>
        <time>2014-01-11T10:05:39Z</time>
      </trkpt>
      <trkpt lat="43.90424" lon="7.39952">
        <ele>774.17279052734</ele>
        <time>2014-01-11T10:05:43Z</time>
      </trkpt>
      <trkpt lat="43.90421" lon="7.39957">
        <ele>775.40545654297</ele>
        <time>2014-01-11T10:05:49Z</time>
      </trkpt>
      <trkpt lat="43.90419" lon="7.39958">
        <ele>775.42254638672</ele>
        <time>2014-01-11T10:05:55Z</time>
      </trkpt>
      <trkpt lat="43.90419" lon="7.39964">
        <ele>777.60070800781</ele>
        <time>2014-01-11T10:06:02Z</time>
      </trkpt>
      <trkpt lat="43.90417" lon="7.39955">
        <ele>774.11114501953</ele>
        <time>2014-01-11T10:06:10Z</time>
      </trkpt>
      <trkpt lat="43.90419" lon="7.39953">
        <ele>773.57281494141</ele>
        <time>2014-01-11T10:06:15Z</time>
      </trkpt>
      <trkpt lat="43.90418" lon="7.39959">
        <ele>775.39874267578</ele>
        <time>2014-01-11T10:06:21Z</time>
      </trkpt>
      <trkpt lat="43.90419" lon="7.39962">
        <ele>776.82281494141</ele>
        <time>2014-01-11T10:06:26Z</time>
      </trkpt>
      <trkpt lat="43.90419" lon="7.39964">
        <ele>777.28955078125</ele>
        <time>2014-01-11T10:06:32Z</time>
      </trkpt>
      <trkpt lat="43.90419" lon="7.39967">
        <ele>778.361328125</ele>
        <time>2014-01-11T10:06:40Z</time>
      </trkpt>
      <trkpt lat="43.90421" lon="7.39963">
        <ele>777.583984375</ele>
        <time>2014-01-11T10:06:46Z</time>
      </trkpt>
      <trkpt lat="43.90424" lon="7.39959">
        <ele>776.89135742188</ele>
        <time>2014-01-11T10:06:54Z</time>
      </trkpt>
      <trkpt lat="43.9043" lon="7.39958">
        <ele>777.36596679688</ele>
        <time>2014-01-11T10:07:02Z</time>
      </trkpt>
      <trkpt lat="43.90432" lon="7.39959">
        <ele>778.17309570312</ele>
        <time>2014-01-11T10:07:06Z</time>
      </trkpt>
      <trkpt lat="43.90434" lon="7.39959">
        <ele>778.84674072266</ele>
        <time>2014-01-11T10:07:13Z</time>
      </trkpt>
      <trkpt lat="43.90434" lon="7.39967">
        <ele>781.76354980469</ele>
        <time>2014-01-11T10:07:23Z</time>
      </trkpt>
      <trkpt lat="43.90432" lon="7.39971">
        <ele>783.01239013672</ele>
        <time>2014-01-11T10:07:43Z</time>
      </trkpt>
      <trkpt lat="43.90429" lon="7.39976">
        <ele>783.99267578125</ele>
        <time>2014-01-11T10:07:52Z</time>
      </trkpt>
      <trkpt lat="43.90429" lon="7.39982">
        <ele>786.24810791016</ele>
        <time>2014-01-11T10:08:05Z</time>
      </trkpt>
      <trkpt lat="43.90426" lon="7.39987">
        <ele>787.51824951172</ele>
        <time>2014-01-11T10:08:15Z</time>
      </trkpt>
      <trkpt lat="43.90427" lon="7.39996">
        <ele>790.97375488281</ele>
        <time>2014-01-11T10:08:30Z</time>
      </trkpt>
      <trkpt lat="43.90429" lon="7.4">
        <ele>792.81744384766</ele>
        <time>2014-01-11T10:08:38Z</time>
      </trkpt>
      <trkpt lat="43.90427" lon="7.39999">
        <ele>792.44061279297</ele>
        <time>2014-01-11T10:08:45Z</time>
      </trkpt>
      <trkpt lat="43.90429" lon="7.39999">
        <ele>792.44152832031</ele>
        <time>2014-01-11T10:08:51Z</time>
      </trkpt>
      <trkpt lat="43.9043" lon="7.39999">
        <ele>792.99060058594</ele>
        <time>2014-01-11T10:08:57Z</time>
      </trkpt>
      <trkpt lat="43.90431" lon="7.39996">
        <ele>792.06158447266</ele>
        <time>2014-01-11T10:09:03Z</time>
      </trkpt>
      <trkpt lat="43.90435" lon="7.39998">
        <ele>793.67907714844</ele>
        <time>2014-01-11T10:09:11Z</time>
      </trkpt>
      <trkpt lat="43.90436" lon="7.39996">
        <ele>793.42858886719</ele>
        <time>2014-01-11T10:09:16Z</time>
      </trkpt>
      <trkpt lat="43.90438" lon="7.39997">
        <ele>794.38519287109</ele>
        <time>2014-01-11T10:09:23Z</time>
      </trkpt>
      <trkpt lat="43.90438" lon="7.4">
        <ele>795.6611328125</ele>
        <time>2014-01-11T10:09:31Z</time>
      </trkpt>
      <trkpt lat="43.90438" lon="7.40005">
        <ele>797.28161621094</ele>
        <time>2014-01-11T10:09:37Z</time>
      </trkpt>
      <trkpt lat="43.90437" lon="7.40013">
        <ele>800.77667236328</ele>
        <time>2014-01-11T10:09:44Z</time>
      </trkpt>
      <trkpt lat="43.90436" lon="7.40016">
        <ele>802.0263671875</ele>
        <time>2014-01-11T10:09:49Z</time>
      </trkpt>
      <trkpt lat="43.90436" lon="7.40015">
        <ele>801.59375</ele>
        <time>2014-01-11T10:09:51Z</time>
      </trkpt>
      <trkpt lat="43.90433" lon="7.40018">
        <ele>801.71740722656</ele>
        <time>2014-01-11T10:09:59Z</time>
      </trkpt>
      <trkpt lat="43.90432" lon="7.40022">
        <ele>803.23486328125</ele>
        <time>2014-01-11T10:10:07Z</time>
      </trkpt>
      <trkpt lat="43.90431" lon="7.40025">
        <ele>804.46398925781</ele>
        <time>2014-01-11T10:10:19Z</time>
      </trkpt>
      <trkpt lat="43.90432" lon="7.40032">
        <ele>807.50347900391</ele>
        <time>2014-01-11T10:10:26Z</time>
      </trkpt>
      <trkpt lat="43.90432" lon="7.4003">
        <ele>806.8232421875</ele>
        <time>2014-01-11T10:10:32Z</time>
      </trkpt>
      <trkpt lat="43.90434" lon="7.40028">
        <ele>806.44665527344</ele>
        <time>2014-01-11T10:10:38Z</time>
      </trkpt>
      <trkpt lat="43.90437" lon="7.40026">
        <ele>806.53759765625</ele>
        <time>2014-01-11T10:10:47Z</time>
      </trkpt>
      <trkpt lat="43.90439" lon="7.40024">
        <ele>806.15307617188</ele>
        <time>2014-01-11T10:10:55Z</time>
      </trkpt>
      <trkpt lat="43.90441" lon="7.40024">
        <ele>806.73675537109</ele>
        <time>2014-01-11T10:11:02Z</time>
      </trkpt>
      <trkpt lat="43.90443" lon="7.40022">
        <ele>806.44836425781</ele>
        <time>2014-01-11T10:11:10Z</time>
      </trkpt>
      <trkpt lat="43.90446" lon="7.40021">
        <ele>806.37969970703</ele>
        <time>2014-01-11T10:11:16Z</time>
      </trkpt>
      <trkpt lat="43.90449" lon="7.40018">
        <ele>806.09814453125</ele>
        <time>2014-01-11T10:11:22Z</time>
      </trkpt>
      <trkpt lat="43.90452" lon="7.40016">
        <ele>805.87841796875</ele>
        <time>2014-01-11T10:11:29Z</time>
      </trkpt>
      <trkpt lat="43.90454" lon="7.40018">
        <ele>806.92211914062</ele>
        <time>2014-01-11T10:11:36Z</time>
      </trkpt>
      <trkpt lat="43.90454" lon="7.40019">
        <ele>807.66369628906</ele>
        <time>2014-01-11T10:11:42Z</time>
      </trkpt>
      <trkpt lat="43.90454" lon="7.40023">
        <ele>809.54516601562</ele>
        <time>2014-01-11T10:11:49Z</time>
      </trkpt>
      <trkpt lat="43.90451" lon="7.40029">
        <ele>811.28289794922</ele>
        <time>2014-01-11T10:11:57Z</time>
      </trkpt>
      <trkpt lat="43.90449" lon="7.40032">
        <ele>811.42468261719</ele>
        <time>2014-01-11T10:12:03Z</time>
      </trkpt>
      <trkpt lat="43.90449" lon="7.40034">
        <ele>812.54425048828</ele>
        <time>2014-01-11T10:12:05Z</time>
      </trkpt>
      <trkpt lat="43.90448" lon="7.40046">
        <ele>816.06207275391</ele>
        <time>2014-01-11T10:12:15Z</time>
      </trkpt>
      <trkpt lat="43.90449" lon="7.4005">
        <ele>817.93658447266</ele>
        <time>2014-01-11T10:12:17Z</time>
      </trkpt>
      <trkpt lat="43.90449" lon="7.40053">
        <ele>818.89324951172</ele>
        <time>2014-01-11T10:12:19Z</time>
      </trkpt>
      <trkpt lat="43.90448" lon="7.40054">
        <ele>819.05718994141</ele>
        <time>2014-01-11T10:12:21Z</time>
      </trkpt>
      <trkpt lat="43.90448" lon="7.40057">
        <ele>820.54809570312</ele>
        <time>2014-01-11T10:12:24Z</time>
      </trkpt>
      <trkpt lat="43.90448" lon="7.40065">
        <ele>825.58465576172</ele>
        <time>2014-01-11T10:12:31Z</time>
      </trkpt>
      <trkpt lat="43.90447" lon="7.40068">
        <ele>827.27380371094</ele>
        <time>2014-01-11T10:12:36Z</time>
      </trkpt>
      <trkpt lat="43.90445" lon="7.40066">
        <ele>824.69885253906</ele>
        <time>2014-01-11T10:12:42Z</time>
      </trkpt>
      <trkpt lat="43.9044" lon="7.40065">
        <ele>823.03753662109</ele>
        <time>2014-01-11T10:12:51Z</time>
      </trkpt>
      <trkpt lat="43.90434" lon="7.40065">
        <ele>821.05047607422</ele>
        <time>2014-01-11T10:12:59Z</time>
      </trkpt>
      <trkpt lat="43.90432" lon="7.40069">
        <ele>822.65698242188</ele>
        <time>2014-01-11T10:13:06Z</time>
      </trkpt>
      <trkpt lat="43.90429" lon="7.40076">
        <ele>824.93572998047</ele>
        <time>2014-01-11T10:13:12Z</time>
      </trkpt>
      <trkpt lat="43.90427" lon="7.40076">
        <ele>824.21325683594</ele>
        <time>2014-01-11T10:13:17Z</time>
      </trkpt>
      <trkpt lat="43.90421" lon="7.40079">
        <ele>822.88873291016</ele>
        <time>2014-01-11T10:13:22Z</time>
      </trkpt>
      <trkpt lat="43.90415" lon="7.40083">
        <ele>822.09020996094</ele>
        <time>2014-01-11T10:13:26Z</time>
      </trkpt>
      <trkpt lat="43.90412" lon="7.40085">
        <ele>822.27410888672</ele>
        <time>2014-01-11T10:13:31Z</time>
      </trkpt>
      <trkpt lat="43.90409" lon="7.40087">
        <ele>822.58825683594</ele>
        <time>2014-01-11T10:13:37Z</time>
      </trkpt>
      <trkpt lat="43.90405" lon="7.4009">
        <ele>823.16809082031</ele>
        <time>2014-01-11T10:13:43Z</time>
      </trkpt>
      <trkpt lat="43.90401" lon="7.40094">
        <ele>823.59063720703</ele>
        <time>2014-01-11T10:13:49Z</time>
      </trkpt>
      <trkpt lat="43.90396" lon="7.40097">
        <ele>823.24188232422</ele>
        <time>2014-01-11T10:13:55Z</time>
      </trkpt>
      <trkpt lat="43.9039" lon="7.40099">
        <ele>822.11163330078</ele>
        <time>2014-01-11T10:13:59Z</time>
      </trkpt>
      <trkpt lat="43.90388" lon="7.401">
        <ele>822.47161865234</ele>
        <time>2014-01-11T10:14:02Z</time>
      </trkpt>
      <trkpt lat="43.90383" lon="7.40104">
        <ele>822.36108398438</ele>
        <time>2014-01-11T10:14:07Z</time>
      </trkpt>
      <trkpt lat="43.9038" lon="7.40105">
        <ele>822.09680175781</ele>
        <time>2014-01-11T10:14:11Z</time>
      </trkpt>
      <trkpt lat="43.90375" lon="7.40106">
        <ele>820.69451904297</ele>
        <time>2014-01-11T10:14:17Z</time>
      </trkpt>
      <trkpt lat="43.90372" lon="7.40106">
        <ele>820.00329589844</ele>
        <time>2014-01-11T10:14:19Z</time>
      </trkpt>
      <trkpt lat="43.90367" lon="7.40105">
        <ele>817.75988769531</ele>
        <time>2014-01-11T10:14:22Z</time>
      </trkpt>
      <trkpt lat="43.90358" lon="7.40103">
        <ele>814.28735351562</ele>
        <time>2014-01-11T10:14:27Z</time>
      </trkpt>
      <trkpt lat="43.9035" lon="7.40101">
        <ele>811.921875</ele>
        <time>2014-01-11T10:14:32Z</time>
      </trkpt>
      <trkpt lat="43.90343" lon="7.401">
        <ele>810.04040527344</ele>
        <time>2014-01-11T10:14:36Z</time>
      </trkpt>
      <trkpt lat="43.90334" lon="7.401">
        <ele>807.92901611328</ele>
        <time>2014-01-11T10:14:41Z</time>
      </trkpt>
      <trkpt lat="43.90331" lon="7.40103">
        <ele>808.30053710938</ele>
        <time>2014-01-11T10:14:46Z</time>
      </trkpt>
      <trkpt lat="43.90327" lon="7.40106">
        <ele>808.68585205078</ele>
        <time>2014-01-11T10:14:51Z</time>
      </trkpt>
      <trkpt lat="43.90324" lon="7.40109">
        <ele>809.05499267578</ele>
        <time>2014-01-11T10:14:58Z</time>
      </trkpt>
      <trkpt lat="43.90321" lon="7.4011">
        <ele>808.96630859375</ele>
        <time>2014-01-11T10:15:02Z</time>
      </trkpt>
      <trkpt lat="43.90313" lon="7.40115">
        <ele>809.90655517578</ele>
        <time>2014-01-11T10:15:08Z</time>
      </trkpt>
      <trkpt lat="43.90305" lon="7.40124">
        <ele>812.60784912109</ele>
        <time>2014-01-11T10:15:15Z</time>
      </trkpt>
      <trkpt lat="43.90301" lon="7.4013">
        <ele>814.36297607422</ele>
        <time>2014-01-11T10:15:17Z</time>
      </trkpt>
      <trkpt lat="43.90297" lon="7.40134">
        <ele>815.19573974609</ele>
        <time>2014-01-11T10:15:19Z</time>
      </trkpt>
      <trkpt lat="43.90295" lon="7.40138">
        <ele>816.63531494141</ele>
        <time>2014-01-11T10:15:22Z</time>
      </trkpt>
      <trkpt lat="43.90294" lon="7.4014">
        <ele>817.26684570312</ele>
        <time>2014-01-11T10:15:27Z</time>
      </trkpt>
      <trkpt lat="43.90289" lon="7.40148">
        <ele>820.89294433594</ele>
        <time>2014-01-11T10:15:34Z</time>
      </trkpt>
      <trkpt lat="43.90284" lon="7.40153">
        <ele>822.62078857422</ele>
        <time>2014-01-11T10:15:40Z</time>
      </trkpt>
      <trkpt lat="43.90274" lon="7.40157">
        <ele>822.97930908203</ele>
        <time>2014-01-11T10:15:47Z</time>
      </trkpt>
      <trkpt lat="43.90268" lon="7.40159">
        <ele>823.7861328125</ele>
        <time>2014-01-11T10:15:53Z</time>
      </trkpt>
      <trkpt lat="43.90262" lon="7.4016">
        <ele>823.43249511719</ele>
        <time>2014-01-11T10:15:58Z</time>
      </trkpt>
      <trkpt lat="43.90259" lon="7.4016">
        <ele>823.02392578125</ele>
        <time>2014-01-11T10:16:00Z</time>
      </trkpt>
      <trkpt lat="43.90253" lon="7.4016">
        <ele>822.12097167969</ele>
        <time>2014-01-11T10:16:07Z</time>
      </trkpt>
      <trkpt lat="43.90248" lon="7.4016">
        <ele>821.20104980469</ele>
        <time>2014-01-11T10:16:13Z</time>
      </trkpt>
      <trkpt lat="43.90244" lon="7.4016">
        <ele>820.54449462891</ele>
        <time>2014-01-11T10:16:18Z</time>
      </trkpt>
      <trkpt lat="43.90239" lon="7.4016">
        <ele>819.40051269531</ele>
        <time>2014-01-11T10:16:24Z</time>
      </trkpt>
      <trkpt lat="43.90235" lon="7.40161">
        <ele>819.04064941406</ele>
        <time>2014-01-11T10:16:30Z</time>
      </trkpt>
      <trkpt lat="43.90224" lon="7.40162">
        <ele>817.34381103516</ele>
        <time>2014-01-11T10:16:38Z</time>
      </trkpt>
      <trkpt lat="43.90213" lon="7.40163">
        <ele>818.85589599609</ele>
        <time>2014-01-11T10:16:47Z</time>
      </trkpt>
      <trkpt lat="43.90205" lon="7.40159">
        <ele>817.29040527344</ele>
        <time>2014-01-11T10:16:54Z</time>
      </trkpt>
      <trkpt lat="43.90197" lon="7.40156">
        <ele>815.49993896484</ele>
        <time>2014-01-11T10:17:01Z</time>
      </trkpt>
      <trkpt lat="43.90195" lon="7.40156">
        <ele>815.62353515625</ele>
        <time>2014-01-11T10:17:04Z</time>
      </trkpt>
      <trkpt lat="43.90189" lon="7.40154">
        <ele>814.43707275391</ele>
        <time>2014-01-11T10:17:12Z</time>
      </trkpt>
      <trkpt lat="43.90188" lon="7.40155">
        <ele>815.43267822266</ele>
        <time>2014-01-11T10:17:26Z</time>
      </trkpt>
      <trkpt lat="43.90188" lon="7.40155">
        <ele>815.4755859375</ele>
        <time>2014-01-11T10:17:30Z</time>
      </trkpt>
      <trkpt lat="43.90188" lon="7.40155">
        <ele>815.26104736328</ele>
        <time>2014-01-11T10:17:34Z</time>
      </trkpt>
      <trkpt lat="43.90188" lon="7.40155">
        <ele>815.30395507812</ele>
        <time>2014-01-11T10:17:36Z</time>
      </trkpt>
      <trkpt lat="43.90185" lon="7.40155">
        <ele>816.00775146484</ele>
        <time>2014-01-11T10:17:44Z</time>
      </trkpt>
      <trkpt lat="43.90181" lon="7.40155">
        <ele>817.05493164062</ele>
        <time>2014-01-11T10:17:50Z</time>
      </trkpt>
      <trkpt lat="43.90182" lon="7.40156">
        <ele>817.80163574219</ele>
        <time>2014-01-11T10:17:57Z</time>
      </trkpt>
      <trkpt lat="43.90182" lon="7.40157">
        <ele>818.35949707031</ele>
        <time>2014-01-11T10:18:04Z</time>
      </trkpt>
      <trkpt lat="43.90181" lon="7.40157">
        <ele>818.34234619141</ele>
        <time>2014-01-11T10:18:10Z</time>
      </trkpt>
      <trkpt lat="43.90181" lon="7.40156">
        <ele>817.8359375</ele>
        <time>2014-01-11T10:18:27Z</time>
      </trkpt>
      <trkpt lat="43.90181" lon="7.40155">
        <ele>817.16650390625</ele>
        <time>2014-01-11T10:18:36Z</time>
      </trkpt>
      <trkpt lat="43.90181" lon="7.40155">
        <ele>817.29522705078</ele>
        <time>2014-01-11T10:18:42Z</time>
      </trkpt>
      <trkpt lat="43.90182" lon="7.40159">
        <ele>820.36798095703</ele>
        <time>2014-01-11T10:18:48Z</time>
      </trkpt>
      <trkpt lat="43.90181" lon="7.40159">
        <ele>820.94305419922</ele>
        <time>2014-01-11T10:18:53Z</time>
      </trkpt>
      <trkpt lat="43.90178" lon="7.40159">
        <ele>821.33782958984</ele>
        <time>2014-01-11T10:18:59Z</time>
      </trkpt>
      <trkpt lat="43.9018" lon="7.40164">
        <ele>824.96850585938</ele>
        <time>2014-01-11T10:19:05Z</time>
      </trkpt>
      <trkpt lat="43.90181" lon="7.40165">
        <ele>826.23876953125</ele>
        <time>2014-01-11T10:19:09Z</time>
      </trkpt>
      <trkpt lat="43.90184" lon="7.40167">
        <ele>827.27209472656</ele>
        <time>2014-01-11T10:19:11Z</time>
      </trkpt>
      <trkpt lat="43.90189" lon="7.40176">
        <ele>831.02978515625</ele>
        <time>2014-01-11T10:19:16Z</time>
      </trkpt>
      <trkpt lat="43.90191" lon="7.40181">
        <ele>833.45672607422</ele>
        <time>2014-01-11T10:19:23Z</time>
      </trkpt>
      <trkpt lat="43.90188" lon="7.40182">
        <ele>834.41827392578</ele>
        <time>2014-01-11T10:19:28Z</time>
      </trkpt>
      <trkpt lat="43.90188" lon="7.40183">
        <ele>834.79351806641</ele>
        <time>2014-01-11T10:19:32Z</time>
      </trkpt>
      <trkpt lat="43.90189" lon="7.40183">
        <ele>834.62701416016</ele>
        <time>2014-01-11T10:19:38Z</time>
      </trkpt>
      <trkpt lat="43.90189" lon="7.40188">
        <ele>837.13153076172</ele>
        <time>2014-01-11T10:19:47Z</time>
      </trkpt>
      <trkpt lat="43.90187" lon="7.40192">
        <ele>839.60693359375</ele>
        <time>2014-01-11T10:19:52Z</time>
      </trkpt>
      <trkpt lat="43.90188" lon="7.40194">
        <ele>840.74719238281</ele>
        <time>2014-01-11T10:19:59Z</time>
      </trkpt>
      <trkpt lat="43.90186" lon="7.40204">
        <ele>841.44506835938</ele>
        <time>2014-01-11T10:20:04Z</time>
      </trkpt>
      <trkpt lat="43.90184" lon="7.40212">
        <ele>841.55139160156</ele>
        <time>2014-01-11T10:20:09Z</time>
      </trkpt>
      <trkpt lat="43.90183" lon="7.40221">
        <ele>841.80090332031</ele>
        <time>2014-01-11T10:20:16Z</time>
      </trkpt>
      <trkpt lat="43.90181" lon="7.40228">
        <ele>841.12365722656</ele>
        <time>2014-01-11T10:20:23Z</time>
      </trkpt>
      <trkpt lat="43.9018" lon="7.40233">
        <ele>840.84216308594</ele>
        <time>2014-01-11T10:20:28Z</time>
      </trkpt>
      <trkpt lat="43.90182" lon="7.4024">
        <ele>841.98156738281</ele>
        <time>2014-01-11T10:20:32Z</time>
      </trkpt>
      <trkpt lat="43.90178" lon="7.40255">
        <ele>839.24078369141</ele>
        <time>2014-01-11T10:20:41Z</time>
      </trkpt>
      <trkpt lat="43.90176" lon="7.40258">
        <ele>837.39831542969</ele>
        <time>2014-01-11T10:20:43Z</time>
      </trkpt>
      <trkpt lat="43.90173" lon="7.40261">
        <ele>835.03247070312</ele>
        <time>2014-01-11T10:20:48Z</time>
      </trkpt>
      <trkpt lat="43.9017" lon="7.40261">
        <ele>833.10174560547</ele>
        <time>2014-01-11T10:20:50Z</time>
      </trkpt>
      <trkpt lat="43.90168" lon="7.40265">
        <ele>830.88946533203</ele>
        <time>2014-01-11T10:20:56Z</time>
      </trkpt>
      <trkpt lat="43.90169" lon="7.40269">
        <ele>831.17810058594</ele>
        <time>2014-01-11T10:21:03Z</time>
      </trkpt>
      <trkpt lat="43.90169" lon="7.40271">
        <ele>830.94671630859</ele>
        <time>2014-01-11T10:21:09Z</time>
      </trkpt>
      <trkpt lat="43.90169" lon="7.40276">
        <ele>830.24621582031</ele>
        <time>2014-01-11T10:21:14Z</time>
      </trkpt>
      <trkpt lat="43.90173" lon="7.40284">
        <ele>832.19116210938</ele>
        <time>2014-01-11T10:21:21Z</time>
      </trkpt>
      <trkpt lat="43.90176" lon="7.40286">
        <ele>834.16473388672</ele>
        <time>2014-01-11T10:21:26Z</time>
      </trkpt>
      <trkpt lat="43.90179" lon="7.40294">
        <ele>834.94848632812</ele>
        <time>2014-01-11T10:21:32Z</time>
      </trkpt>
      <trkpt lat="43.90179" lon="7.40302">
        <ele>833.65557861328</ele>
        <time>2014-01-11T10:21:38Z</time>
      </trkpt>
      <trkpt lat="43.90179" lon="7.40303">
        <ele>833.43560791016</ele>
        <time>2014-01-11T10:21:39Z</time>
      </trkpt>
      <trkpt lat="43.90175" lon="7.40312">
        <ele>829.04254150391</ele>
        <time>2014-01-11T10:21:46Z</time>
      </trkpt>
      <trkpt lat="43.90176" lon="7.40312">
        <ele>829.65057373047</ele>
        <time>2014-01-11T10:22:03Z</time>
      </trkpt>
      <trkpt lat="43.90173" lon="7.40318">
        <ele>826.22521972656</ele>
        <time>2014-01-11T10:22:10Z</time>
      </trkpt>
      <trkpt lat="43.90172" lon="7.40331">
        <ele>823.94732666016</ele>
        <time>2014-01-11T10:22:16Z</time>
      </trkpt>
      <trkpt lat="43.90173" lon="7.40333">
        <ele>824.37274169922</ele>
        <time>2014-01-11T10:22:21Z</time>
      </trkpt>
      <trkpt lat="43.90176" lon="7.40337">
        <ele>824.72052001953</ele>
        <time>2014-01-11T10:22:26Z</time>
      </trkpt>
      <trkpt lat="43.90179" lon="7.4034">
        <ele>825.93524169922</ele>
        <time>2014-01-11T10:22:30Z</time>
      </trkpt>
      <trkpt lat="43.90182" lon="7.40344">
        <ele>827.27886962891</ele>
        <time>2014-01-11T10:22:34Z</time>
      </trkpt>
      <trkpt lat="43.90189" lon="7.40349">
        <ele>830.375</ele>
        <time>2014-01-11T10:22:44Z</time>
      </trkpt>
      <trkpt lat="43.90191" lon="7.40353">
        <ele>830.89697265625</ele>
        <time>2014-01-11T10:22:51Z</time>
      </trkpt>
      <trkpt lat="43.90192" lon="7.40355">
        <ele>831.78314208984</ele>
        <time>2014-01-11T10:22:56Z</time>
      </trkpt>
      <trkpt lat="43.90197" lon="7.40358">
        <ele>834.63793945312</ele>
        <time>2014-01-11T10:23:04Z</time>
      </trkpt>
      <trkpt lat="43.902" lon="7.4036">
        <ele>837.76867675781</ele>
        <time>2014-01-11T10:23:10Z</time>
      </trkpt>
      <trkpt lat="43.90206" lon="7.40361">
        <ele>842.099609375</ele>
        <time>2014-01-11T10:23:18Z</time>
      </trkpt>
      <trkpt lat="43.9021" lon="7.40365">
        <ele>845.36560058594</ele>
        <time>2014-01-11T10:23:25Z</time>
      </trkpt>
      <trkpt lat="43.90213" lon="7.40365">
        <ele>847.25866699219</ele>
        <time>2014-01-11T10:23:29Z</time>
      </trkpt>
      <trkpt lat="43.90217" lon="7.40367">
        <ele>850.78692626953</ele>
        <time>2014-01-11T10:23:36Z</time>
      </trkpt>
      <trkpt lat="43.90221" lon="7.40368">
        <ele>853.72619628906</ele>
        <time>2014-01-11T10:23:42Z</time>
      </trkpt>
      <trkpt lat="43.90226" lon="7.40373">
        <ele>857.62298583984</ele>
        <time>2014-01-11T10:23:50Z</time>
      </trkpt>
      <trkpt lat="43.90231" lon="7.40377">
        <ele>861.65081787109</ele>
        <time>2014-01-11T10:23:56Z</time>
      </trkpt>
      <trkpt lat="43.90237" lon="7.40381">
        <ele>867.32318115234</ele>
        <time>2014-01-11T10:24:03Z</time>
      </trkpt>
      <trkpt lat="43.90239" lon="7.40392">
        <ele>866.38616943359</ele>
        <time>2014-01-11T10:24:11Z</time>
      </trkpt>
      <trkpt lat="43.9024" lon="7.40395">
        <ele>866.31750488281</ele>
        <time>2014-01-11T10:24:17Z</time>
      </trkpt>
      <trkpt lat="43.9024" lon="7.40397">
        <ele>865.78192138672</ele>
        <time>2014-01-11T10:24:22Z</time>
      </trkpt>
      <trkpt lat="43.9024" lon="7.40401">
        <ele>865.21887207031</ele>
        <time>2014-01-11T10:24:28Z</time>
      </trkpt>
      <trkpt lat="43.9024" lon="7.40405">
        <ele>863.91424560547</ele>
        <time>2014-01-11T10:24:33Z</time>
      </trkpt>
      <trkpt lat="43.90241" lon="7.4041">
        <ele>863.85931396484</ele>
        <time>2014-01-11T10:24:39Z</time>
      </trkpt>
      <trkpt lat="43.90242" lon="7.40413">
        <ele>863.35119628906</ele>
        <time>2014-01-11T10:24:43Z</time>
      </trkpt>
      <trkpt lat="43.90242" lon="7.40419">
        <ele>862.09906005859</ele>
        <time>2014-01-11T10:24:49Z</time>
      </trkpt>
      <trkpt lat="43.90243" lon="7.40423">
        <ele>862.01153564453</ele>
        <time>2014-01-11T10:24:54Z</time>
      </trkpt>
      <trkpt lat="43.90243" lon="7.40427">
        <ele>860.23126220703</ele>
        <time>2014-01-11T10:24:58Z</time>
      </trkpt>
      <trkpt lat="43.90243" lon="7.40431">
        <ele>858.73120117188</ele>
        <time>2014-01-11T10:25:02Z</time>
      </trkpt>
      <trkpt lat="43.90243" lon="7.40435">
        <ele>857.74017333984</ele>
        <time>2014-01-11T10:25:05Z</time>
      </trkpt>
      <trkpt lat="43.90245" lon="7.40439">
        <ele>858.52862548828</ele>
        <time>2014-01-11T10:25:09Z</time>
      </trkpt>
      <trkpt lat="43.90247" lon="7.40444">
        <ele>858.15270996094</ele>
        <time>2014-01-11T10:25:13Z</time>
      </trkpt>
      <trkpt lat="43.90247" lon="7.40451">
        <ele>856.412109375</ele>
        <time>2014-01-11T10:25:20Z</time>
      </trkpt>
      <trkpt lat="43.90247" lon="7.4046">
        <ele>854.52685546875</ele>
        <time>2014-01-11T10:25:27Z</time>
      </trkpt>
      <trkpt lat="43.9025" lon="7.40467">
        <ele>855.10662841797</ele>
        <time>2014-01-11T10:25:35Z</time>
      </trkpt>
      <trkpt lat="43.90251" lon="7.40473">
        <ele>854.50213623047</ele>
        <time>2014-01-11T10:25:41Z</time>
      </trkpt>
      <trkpt lat="43.90253" lon="7.40478">
        <ele>855.15850830078</ele>
        <time>2014-01-11T10:25:46Z</time>
      </trkpt>
      <trkpt lat="43.90253" lon="7.40485">
        <ele>854.15661621094</ele>
        <time>2014-01-11T10:25:52Z</time>
      </trkpt>
      <trkpt lat="43.90255" lon="7.40496">
        <ele>852.52905273438</ele>
        <time>2014-01-11T10:26:02Z</time>
      </trkpt>
      <trkpt lat="43.90256" lon="7.40507">
        <ele>851.04754638672</ele>
        <time>2014-01-11T10:26:11Z</time>
      </trkpt>
      <trkpt lat="43.90258" lon="7.40516">
        <ele>850.75915527344</ele>
        <time>2014-01-11T10:26:19Z</time>
      </trkpt>
      <trkpt lat="43.90258" lon="7.40517">
        <ele>850.30255126953</ele>
        <time>2014-01-11T10:26:27Z</time>
      </trkpt>
      <trkpt lat="43.90258" lon="7.40519">
        <ele>850.36267089844</ele>
        <time>2014-01-11T10:26:31Z</time>
      </trkpt>
      <trkpt lat="43.90258" lon="7.40525">
        <ele>848.81256103516</ele>
        <time>2014-01-11T10:26:36Z</time>
      </trkpt>
      <trkpt lat="43.90261" lon="7.40539">
        <ele>850.01672363281</ele>
        <time>2014-01-11T10:26:42Z</time>
      </trkpt>
      <trkpt lat="43.90265" lon="7.40551">
        <ele>851.35998535156</ele>
        <time>2014-01-11T10:26:48Z</time>
      </trkpt>
      <trkpt lat="43.90268" lon="7.40564">
        <ele>852.32824707031</ele>
        <time>2014-01-11T10:26:55Z</time>
      </trkpt>
      <trkpt lat="43.9027" lon="7.40576">
        <ele>852.85833740234</ele>
        <time>2014-01-11T10:27:00Z</time>
      </trkpt>
      <trkpt lat="43.90271" lon="7.40588">
        <ele>853.10803222656</ele>
        <time>2014-01-11T10:27:05Z</time>
      </trkpt>
      <trkpt lat="43.90271" lon="7.40597">
        <ele>852.20220947266</ele>
        <time>2014-01-11T10:27:09Z</time>
      </trkpt>
      <trkpt lat="43.90268" lon="7.40606">
        <ele>849.50500488281</ele>
        <time>2014-01-11T10:27:14Z</time>
      </trkpt>
      <trkpt lat="43.90264" lon="7.40622">
        <ele>847.53924560547</ele>
        <time>2014-01-11T10:27:22Z</time>
      </trkpt>
      <trkpt lat="43.90258" lon="7.40634">
        <ele>845.33465576172</ele>
        <time>2014-01-11T10:27:28Z</time>
      </trkpt>
      <trkpt lat="43.90254" lon="7.40644">
        <ele>844.759765625</ele>
        <time>2014-01-11T10:27:32Z</time>
      </trkpt>
      <trkpt lat="43.9025" lon="7.40655">
        <ele>844.89770507812</ele>
        <time>2014-01-11T10:27:37Z</time>
      </trkpt>
      <trkpt lat="43.90242" lon="7.40661">
        <ele>843.494140625</ele>
        <time>2014-01-11T10:27:42Z</time>
      </trkpt>
      <trkpt lat="43.90233" lon="7.40667">
        <ele>841.78295898438</ele>
        <time>2014-01-11T10:27:48Z</time>
      </trkpt>
      <trkpt lat="43.90225" lon="7.40669">
        <ele>839.60180664062</ele>
        <time>2014-01-11T10:27:54Z</time>
      </trkpt>
      <trkpt lat="43.90223" lon="7.40669">
        <ele>839.14501953125</ele>
        <time>2014-01-11T10:27:55Z</time>
      </trkpt>
      <trkpt lat="43.90218" lon="7.40667">
        <ele>838.04016113281</ele>
        <time>2014-01-11T10:27:58Z</time>
      </trkpt>
      <trkpt lat="43.90213" lon="7.40671">
        <ele>839.01318359375</ele>
        <time>2014-01-11T10:28:03Z</time>
      </trkpt>
      <trkpt lat="43.90213" lon="7.40671">
        <ele>839.0029296875</ele>
        <time>2014-01-11T10:28:10Z</time>
      </trkpt>
      <trkpt lat="43.90208" lon="7.40671">
        <ele>838.59356689453</ele>
        <time>2014-01-11T10:28:16Z</time>
      </trkpt>
      <trkpt lat="43.90209" lon="7.4067">
        <ele>838.42724609375</ele>
        <time>2014-01-11T10:28:21Z</time>
      </trkpt>
      <trkpt lat="43.90211" lon="7.40669">
        <ele>838.14672851562</ele>
        <time>2014-01-11T10:28:27Z</time>
      </trkpt>
      <trkpt lat="43.90211" lon="7.40669">
        <ele>838.16033935547</ele>
        <time>2014-01-11T10:28:32Z</time>
      </trkpt>
      <trkpt lat="43.90211" lon="7.40668">
        <ele>837.94561767578</ele>
        <time>2014-01-11T10:28:35Z</time>
      </trkpt>
      <trkpt lat="43.90211" lon="7.40668">
        <ele>838.04174804688</ele>
        <time>2014-01-11T10:28:37Z</time>
      </trkpt>
      <trkpt lat="43.90212" lon="7.40667">
        <ele>837.61224365234</ele>
        <time>2014-01-11T10:28:43Z</time>
      </trkpt>
      <trkpt lat="43.90212" lon="7.40665">
        <ele>836.98205566406</ele>
        <time>2014-01-11T10:28:48Z</time>
      </trkpt>
      <trkpt lat="43.90212" lon="7.40665">
        <ele>836.91131591797</ele>
        <time>2014-01-11T10:28:52Z</time>
      </trkpt>
      <trkpt lat="43.90212" lon="7.40665">
        <ele>837.02197265625</ele>
        <time>2014-01-11T10:28:54Z</time>
      </trkpt>
      <trkpt lat="43.90211" lon="7.40665">
        <ele>837.00994873047</ele>
        <time>2014-01-11T10:29:08Z</time>
      </trkpt>
      <trkpt lat="43.90211" lon="7.40665">
        <ele>837.08764648438</ele>
        <time>2014-01-11T10:29:12Z</time>
      </trkpt>
      <trkpt lat="43.90211" lon="7.40667">
        <ele>837.60235595703</ele>
        <time>2014-01-11T10:29:14Z</time>
      </trkpt>
      <trkpt lat="43.90209" lon="7.40669">
        <ele>838.11889648438</ele>
        <time>2014-01-11T10:29:20Z</time>
      </trkpt>
      <trkpt lat="43.90212" lon="7.40669">
        <ele>838.41198730469</ele>
        <time>2014-01-11T10:29:27Z</time>
      </trkpt>
      <trkpt lat="43.90212" lon="7.4067">
        <ele>838.56567382812</ele>
        <time>2014-01-11T10:29:32Z</time>
      </trkpt>
      <trkpt lat="43.90213" lon="7.40669">
        <ele>838.43011474609</ele>
        <time>2014-01-11T10:29:41Z</time>
      </trkpt>
      <trkpt lat="43.90213" lon="7.40669">
        <ele>838.50787353516</ele>
        <time>2014-01-11T10:29:48Z</time>
      </trkpt>
      <trkpt lat="43.90214" lon="7.4067">
        <ele>838.62219238281</ele>
        <time>2014-01-11T10:29:53Z</time>
      </trkpt>
      <trkpt lat="43.90214" lon="7.4067">
        <ele>838.72491455078</ele>
        <time>2014-01-11T10:29:58Z</time>
      </trkpt>
      <trkpt lat="43.90214" lon="7.4067">
        <ele>838.77581787109</ele>
        <time>2014-01-11T10:30:01Z</time>
      </trkpt>
      <trkpt lat="43.90214" lon="7.4067">
        <ele>838.79034423828</ele>
        <time>2014-01-11T10:30:02Z</time>
      </trkpt>
      <trkpt lat="43.90214" lon="7.40671">
        <ele>838.93591308594</ele>
        <time>2014-01-11T10:30:18Z</time>
      </trkpt>
      <trkpt lat="43.90214" lon="7.4067">
        <ele>838.86315917969</ele>
        <time>2014-01-11T10:30:24Z</time>
      </trkpt>
      <trkpt lat="43.90213" lon="7.40671">
        <ele>838.82196044922</ele>
        <time>2014-01-11T10:30:44Z</time>
      </trkpt>
      <trkpt lat="43.90211" lon="7.4067">
        <ele>838.60473632812</ele>
        <time>2014-01-11T10:30:57Z</time>
      </trkpt>
      <trkpt lat="43.90211" lon="7.4067">
        <ele>838.50860595703</ele>
        <time>2014-01-11T10:31:11Z</time>
      </trkpt>
      <trkpt lat="43.90211" lon="7.40669">
        <ele>838.28894042969</ele>
        <time>2014-01-11T10:31:34Z</time>
      </trkpt>
      <trkpt lat="43.9021" lon="7.40669">
        <ele>838.17645263672</ele>
        <time>2014-01-11T10:31:40Z</time>
      </trkpt>
      <trkpt lat="43.9021" lon="7.40669">
        <ele>838.11468505859</ele>
        <time>2014-01-11T10:31:49Z</time>
      </trkpt>
      <trkpt lat="43.90211" lon="7.40669">
        <ele>838.24206542969</ele>
        <time>2014-01-11T10:32:02Z</time>
      </trkpt>
      <trkpt lat="43.90211" lon="7.40669">
        <ele>838.26928710938</ele>
        <time>2014-01-11T10:32:14Z</time>
      </trkpt>
      <trkpt lat="43.9021" lon="7.40668">
        <ele>837.83123779297</ele>
        <time>2014-01-11T10:32:26Z</time>
      </trkpt>
      <trkpt lat="43.90211" lon="7.40668">
        <ele>837.87445068359</ele>
        <time>2014-01-11T10:32:35Z</time>
      </trkpt>
      <trkpt lat="43.90211" lon="7.40668">
        <ele>837.86083984375</ele>
        <time>2014-01-11T10:32:47Z</time>
      </trkpt>
      <trkpt lat="43.90211" lon="7.40668">
        <ele>838.04174804688</ele>
        <time>2014-01-11T10:32:54Z</time>
      </trkpt>
      <trkpt lat="43.90211" lon="7.40668">
        <ele>838.11468505859</ele>
        <time>2014-01-11T10:33:00Z</time>
      </trkpt>
      <trkpt lat="43.90211" lon="7.40668">
        <ele>838.12854003906</ele>
        <time>2014-01-11T10:33:21Z</time>
      </trkpt>
      <trkpt lat="43.90212" lon="7.40669">
        <ele>838.22106933594</ele>
        <time>2014-01-11T10:33:30Z</time>
      </trkpt>
      <trkpt lat="43.90212" lon="7.40669">
        <ele>838.30029296875</ele>
        <time>2014-01-11T10:34:06Z</time>
      </trkpt>
      <trkpt lat="43.90211" lon="7.40668">
        <ele>838.12854003906</ele>
        <time>2014-01-11T10:34:27Z</time>
      </trkpt>
      <trkpt lat="43.90211" lon="7.40668">
        <ele>838.12854003906</ele>
        <time>2014-01-11T10:34:38Z</time>
      </trkpt>
      <trkpt lat="43.90211" lon="7.40669">
        <ele>838.27520751953</ele>
        <time>2014-01-11T10:34:56Z</time>
      </trkpt>
      <trkpt lat="43.9021" lon="7.40668">
        <ele>837.97576904297</ele>
        <time>2014-01-11T10:35:08Z</time>
      </trkpt>
      <trkpt lat="43.9021" lon="7.40668">
        <ele>837.95269775391</ele>
        <time>2014-01-11T10:35:15Z</time>
      </trkpt>
      <trkpt lat="43.9021" lon="7.40668">
        <ele>837.99322509766</ele>
        <time>2014-01-11T10:35:30Z</time>
      </trkpt>
      <trkpt lat="43.90209" lon="7.40668">
        <ele>837.93658447266</ele>
        <time>2014-01-11T10:35:37Z</time>
      </trkpt>
      <trkpt lat="43.90208" lon="7.40669">
        <ele>838.02233886719</ele>
        <time>2014-01-11T10:35:53Z</time>
      </trkpt>
      <trkpt lat="43.90207" lon="7.40668">
        <ele>837.92926025391</ele>
        <time>2014-01-11T10:35:57Z</time>
      </trkpt>
      <trkpt lat="43.90207" lon="7.40669">
        <ele>837.96691894531</ele>
        <time>2014-01-11T10:35:59Z</time>
      </trkpt>
      <trkpt lat="43.90207" lon="7.40669">
        <ele>838.09240722656</ele>
        <time>2014-01-11T10:36:06Z</time>
      </trkpt>
      <trkpt lat="43.9021" lon="7.40671">
        <ele>838.64788818359</ele>
        <time>2014-01-11T10:36:22Z</time>
      </trkpt>
      <trkpt lat="43.90211" lon="7.40672">
        <ele>839.04522705078</ele>
        <time>2014-01-11T10:36:48Z</time>
      </trkpt>
      <trkpt lat="43.9021" lon="7.40671">
        <ele>838.87042236328</ele>
        <time>2014-01-11T10:37:07Z</time>
      </trkpt>
      <trkpt lat="43.90208" lon="7.40669">
        <ele>838.07391357422</ele>
        <time>2014-01-11T10:37:53Z</time>
      </trkpt>
      <trkpt lat="43.90208" lon="7.40669">
        <ele>838.19006347656</ele>
        <time>2014-01-11T10:38:01Z</time>
      </trkpt>
      <trkpt lat="43.90208" lon="7.40669">
        <ele>838.24169921875</ele>
        <time>2014-01-11T10:38:13Z</time>
      </trkpt>
      <trkpt lat="43.90208" lon="7.40669">
        <ele>838.26751708984</ele>
        <time>2014-01-11T10:38:21Z</time>
      </trkpt>
      <trkpt lat="43.90208" lon="7.4067">
        <ele>838.49981689453</ele>
        <time>2014-01-11T10:38:44Z</time>
      </trkpt>
      <trkpt lat="43.90208" lon="7.4067">
        <ele>838.41613769531</ele>
        <time>2014-01-11T10:39:01Z</time>
      </trkpt>
      <trkpt lat="43.90207" lon="7.40669">
        <ele>837.96691894531</ele>
        <time>2014-01-11T10:39:43Z</time>
      </trkpt>
      <trkpt lat="43.90208" lon="7.40669">
        <ele>837.97271728516</ele>
        <time>2014-01-11T10:39:47Z</time>
      </trkpt>
      <trkpt lat="43.90208" lon="7.40668">
        <ele>837.88403320312</ele>
        <time>2014-01-11T10:39:54Z</time>
      </trkpt>
      <trkpt lat="43.90207" lon="7.40668">
        <ele>837.72839355469</ele>
        <time>2014-01-11T10:40:10Z</time>
      </trkpt>
      <trkpt lat="43.90208" lon="7.40667">
        <ele>837.70971679688</ele>
        <time>2014-01-11T10:40:40Z</time>
      </trkpt>
      <trkpt lat="43.90208" lon="7.40668">
        <ele>837.73840332031</ele>
        <time>2014-01-11T10:40:45Z</time>
      </trkpt>
      <trkpt lat="43.90209" lon="7.40668">
        <ele>837.79333496094</ele>
        <time>2014-01-11T10:40:55Z</time>
      </trkpt>
      <trkpt lat="43.90209" lon="7.40668">
        <ele>837.83239746094</ele>
        <time>2014-01-11T10:41:02Z</time>
      </trkpt>
      <trkpt lat="43.90209" lon="7.40668">
        <ele>837.86212158203</ele>
        <time>2014-01-11T10:41:06Z</time>
      </trkpt>
      <trkpt lat="43.90209" lon="7.40668">
        <ele>837.87524414062</ele>
        <time>2014-01-11T10:41:09Z</time>
      </trkpt>
      <trkpt lat="43.90209" lon="7.40668">
        <ele>837.90155029297</ele>
        <time>2014-01-11T10:41:23Z</time>
      </trkpt>
      <trkpt lat="43.90209" lon="7.40668">
        <ele>837.88842773438</ele>
        <time>2014-01-11T10:41:31Z</time>
      </trkpt>
      <trkpt lat="43.90209" lon="7.40667">
        <ele>837.75701904297</ele>
        <time>2014-01-11T10:41:34Z</time>
      </trkpt>
      <trkpt lat="43.90211" lon="7.40667">
        <ele>837.65667724609</ele>
        <time>2014-01-11T10:41:39Z</time>
      </trkpt>
      <trkpt lat="43.90213" lon="7.40667">
        <ele>837.80041503906</ele>
        <time>2014-01-11T10:41:43Z</time>
      </trkpt>
      <trkpt lat="43.90215" lon="7.40667">
        <ele>837.90362548828</ele>
        <time>2014-01-11T10:41:46Z</time>
      </trkpt>
      <trkpt lat="43.90216" lon="7.40668">
        <ele>838.30010986328</ele>
        <time>2014-01-11T10:41:58Z</time>
      </trkpt>
      <trkpt lat="43.90216" lon="7.40669">
        <ele>838.45275878906</ele>
        <time>2014-01-11T10:42:03Z</time>
      </trkpt>
      <trkpt lat="43.90216" lon="7.40669">
        <ele>838.48706054688</ele>
        <time>2014-01-11T10:42:13Z</time>
      </trkpt>
      <trkpt lat="43.90216" lon="7.40669">
        <ele>838.41015625</ele>
        <time>2014-01-11T10:42:23Z</time>
      </trkpt>
      <trkpt lat="43.90217" lon="7.4067">
        <ele>838.75946044922</ele>
        <time>2014-01-11T10:42:33Z</time>
      </trkpt>
      <trkpt lat="43.90217" lon="7.4067">
        <ele>838.86877441406</ele>
        <time>2014-01-11T10:42:38Z</time>
      </trkpt>
      <trkpt lat="43.90217" lon="7.4067">
        <ele>839.00213623047</ele>
        <time>2014-01-11T10:42:52Z</time>
      </trkpt>
      <trkpt lat="43.90216" lon="7.40671">
        <ele>839.21594238281</ele>
        <time>2014-01-11T10:43:03Z</time>
      </trkpt>
      <trkpt lat="43.90215" lon="7.40671">
        <ele>839.16094970703</ele>
        <time>2014-01-11T10:43:20Z</time>
      </trkpt>
      <trkpt lat="43.90214" lon="7.40672">
        <ele>839.22705078125</ele>
        <time>2014-01-11T10:43:30Z</time>
      </trkpt>
      <trkpt lat="43.90213" lon="7.40671">
        <ele>838.97821044922</ele>
        <time>2014-01-11T10:43:39Z</time>
      </trkpt>
      <trkpt lat="43.90213" lon="7.40671">
        <ele>838.83111572266</ele>
        <time>2014-01-11T10:43:52Z</time>
      </trkpt>
      <trkpt lat="43.90213" lon="7.4067">
        <ele>838.53033447266</ele>
        <time>2014-01-11T10:43:58Z</time>
      </trkpt>
      <trkpt lat="43.90212" lon="7.4067">
        <ele>838.5732421875</ele>
        <time>2014-01-11T10:44:10Z</time>
      </trkpt>
      <trkpt lat="43.9021" lon="7.40667">
        <ele>837.74835205078</ele>
        <time>2014-01-11T10:44:24Z</time>
      </trkpt>
      <trkpt lat="43.90208" lon="7.40665">
        <ele>836.77459716797</ele>
        <time>2014-01-11T10:44:54Z</time>
      </trkpt>
      <trkpt lat="43.90209" lon="7.40665">
        <ele>836.86212158203</ele>
        <time>2014-01-11T10:45:28Z</time>
      </trkpt>
      <trkpt lat="43.90209" lon="7.40665">
        <ele>837.03149414062</ele>
        <time>2014-01-11T10:45:32Z</time>
      </trkpt>
      <trkpt lat="43.90209" lon="7.40666">
        <ele>837.31384277344</ele>
        <time>2014-01-11T10:45:47Z</time>
      </trkpt>
      <trkpt lat="43.90209" lon="7.40666">
        <ele>837.34686279297</ele>
        <time>2014-01-11T10:45:56Z</time>
      </trkpt>
      <trkpt lat="43.90209" lon="7.40666">
        <ele>837.25299072266</ele>
        <time>2014-01-11T10:46:15Z</time>
      </trkpt>
      <trkpt lat="43.90209" lon="7.40666">
        <ele>837.21545410156</ele>
        <time>2014-01-11T10:46:31Z</time>
      </trkpt>
      <trkpt lat="43.9021" lon="7.40666">
        <ele>837.21124267578</ele>
        <time>2014-01-11T10:46:44Z</time>
      </trkpt>
      <trkpt lat="43.9021" lon="7.40666">
        <ele>837.22998046875</ele>
        <time>2014-01-11T10:46:48Z</time>
      </trkpt>
      <trkpt lat="43.9021" lon="7.40666">
        <ele>837.37524414062</ele>
        <time>2014-01-11T10:47:17Z</time>
      </trkpt>
      <trkpt lat="43.90211" lon="7.40666">
        <ele>837.51519775391</ele>
        <time>2014-01-11T10:47:35Z</time>
      </trkpt>
      <trkpt lat="43.90213" lon="7.40669">
        <ele>838.38714599609</ele>
        <time>2014-01-11T10:47:44Z</time>
      </trkpt>
      <trkpt lat="43.90213" lon="7.4067">
        <ele>838.58056640625</ele>
        <time>2014-01-11T10:47:48Z</time>
      </trkpt>
      <trkpt lat="43.90213" lon="7.4067">
        <ele>838.5947265625</ele>
        <time>2014-01-11T10:47:52Z</time>
      </trkpt>
      <trkpt lat="43.90212" lon="7.4067">
        <ele>838.58728027344</ele>
        <time>2014-01-11T10:47:54Z</time>
      </trkpt>
      <trkpt lat="43.90212" lon="7.40669">
        <ele>838.43237304688</ele>
        <time>2014-01-11T10:48:00Z</time>
      </trkpt>
      <trkpt lat="43.90212" lon="7.4067">
        <ele>838.58728027344</ele>
        <time>2014-01-11T10:48:08Z</time>
      </trkpt>
      <trkpt lat="43.9021" lon="7.4067">
        <ele>838.53302001953</ele>
        <time>2014-01-11T10:48:27Z</time>
      </trkpt>
      <trkpt lat="43.9021" lon="7.4067">
        <ele>838.43572998047</ele>
        <time>2014-01-11T10:48:31Z</time>
      </trkpt>
      <trkpt lat="43.9021" lon="7.40669">
        <ele>838.32965087891</ele>
        <time>2014-01-11T10:48:36Z</time>
      </trkpt>
      <trkpt lat="43.90209" lon="7.40669">
        <ele>838.27520751953</ele>
        <time>2014-01-11T10:48:48Z</time>
      </trkpt>
      <trkpt lat="43.90209" lon="7.4067">
        <ele>838.32733154297</ele>
        <time>2014-01-11T10:48:53Z</time>
      </trkpt>
      <trkpt lat="43.90208" lon="7.40671">
        <ele>838.54095458984</ele>
        <time>2014-01-11T10:48:58Z</time>
      </trkpt>
      <trkpt lat="43.90208" lon="7.4067">
        <ele>838.53857421875</ele>
        <time>2014-01-11T10:49:04Z</time>
      </trkpt>
      <trkpt lat="43.90208" lon="7.4067">
        <ele>838.51275634766</ele>
        <time>2014-01-11T10:49:12Z</time>
      </trkpt>
      <trkpt lat="43.90209" lon="7.40671">
        <ele>838.80834960938</ele>
        <time>2014-01-11T10:49:20Z</time>
      </trkpt>
      <trkpt lat="43.90208" lon="7.4067">
        <ele>838.53857421875</ele>
        <time>2014-01-11T10:49:29Z</time>
      </trkpt>
      <trkpt lat="43.90208" lon="7.40671">
        <ele>838.55145263672</ele>
        <time>2014-01-11T10:49:35Z</time>
      </trkpt>
      <trkpt lat="43.90208" lon="7.4067">
        <ele>838.53857421875</ele>
        <time>2014-01-11T10:49:38Z</time>
      </trkpt>
      <trkpt lat="43.90208" lon="7.4067">
        <ele>838.53857421875</ele>
        <time>2014-01-11T10:49:39Z</time>
      </trkpt>
      <trkpt lat="43.90208" lon="7.4067">
        <ele>838.48693847656</ele>
        <time>2014-01-11T10:49:49Z</time>
      </trkpt>
      <trkpt lat="43.90208" lon="7.4067">
        <ele>838.40026855469</ele>
        <time>2014-01-11T10:49:55Z</time>
      </trkpt>
      <trkpt lat="43.90207" lon="7.40669">
        <ele>838.12249755859</ele>
        <time>2014-01-11T10:50:01Z</time>
      </trkpt>
      <trkpt lat="43.90202" lon="7.4067">
        <ele>838.06842041016</ele>
        <time>2014-01-11T10:50:05Z</time>
      </trkpt>
      <trkpt lat="43.90202" lon="7.4067">
        <ele>838.04632568359</ele>
        <time>2014-01-11T10:50:10Z</time>
      </trkpt>
      <trkpt lat="43.90202" lon="7.4067">
        <ele>837.92639160156</ele>
        <time>2014-01-11T10:50:14Z</time>
      </trkpt>
      <trkpt lat="43.90203" lon="7.40669">
        <ele>837.93463134766</ele>
        <time>2014-01-11T10:50:19Z</time>
      </trkpt>
      <trkpt lat="43.90203" lon="7.4067">
        <ele>837.98883056641</ele>
        <time>2014-01-11T10:50:24Z</time>
      </trkpt>
      <trkpt lat="43.90203" lon="7.40668">
        <ele>837.64501953125</ele>
        <time>2014-01-11T10:50:34Z</time>
      </trkpt>
      <trkpt lat="43.90203" lon="7.40668">
        <ele>837.60046386719</ele>
        <time>2014-01-11T10:50:45Z</time>
      </trkpt>
      <trkpt lat="43.90203" lon="7.40668">
        <ele>837.57818603516</ele>
        <time>2014-01-11T10:50:48Z</time>
      </trkpt>
      <trkpt lat="43.90202" lon="7.40668">
        <ele>837.68273925781</ele>
        <time>2014-01-11T10:50:58Z</time>
      </trkpt>
      <trkpt lat="43.90202" lon="7.40669">
        <ele>837.69744873047</ele>
        <time>2014-01-11T10:51:19Z</time>
      </trkpt>
      <trkpt lat="43.90201" lon="7.4067">
        <ele>838.05535888672</ele>
        <time>2014-01-11T10:51:27Z</time>
      </trkpt>
      <trkpt lat="43.90201" lon="7.4067">
        <ele>838.00207519531</ele>
        <time>2014-01-11T10:51:31Z</time>
      </trkpt>
      <trkpt lat="43.902" lon="7.4067">
        <ele>838.00531005859</ele>
        <time>2014-01-11T10:51:34Z</time>
      </trkpt>
      <trkpt lat="43.90198" lon="7.40671">
        <ele>838.01428222656</ele>
        <time>2014-01-11T10:51:35Z</time>
      </trkpt>
      <trkpt lat="43.90184" lon="7.40678">
        <ele>838.31219482422</ele>
        <time>2014-01-11T10:51:40Z</time>
      </trkpt>
      <trkpt lat="43.90163" lon="7.40686">
        <ele>839.41400146484</ele>
        <time>2014-01-11T10:51:46Z</time>
      </trkpt>
      <trkpt lat="43.90157" lon="7.40684">
        <ele>838.83331298828</ele>
        <time>2014-01-11T10:51:49Z</time>
      </trkpt>
      <trkpt lat="43.90157" lon="7.40684">
        <ele>838.67901611328</ele>
        <time>2014-01-11T10:51:55Z</time>
      </trkpt>
      <trkpt lat="43.90157" lon="7.40685">
        <ele>838.97235107422</ele>
        <time>2014-01-11T10:52:00Z</time>
      </trkpt>
      <trkpt lat="43.90158" lon="7.40685">
        <ele>839.01165771484</ele>
        <time>2014-01-11T10:52:09Z</time>
      </trkpt>
      <trkpt lat="43.90158" lon="7.40685">
        <ele>838.93237304688</ele>
        <time>2014-01-11T10:52:12Z</time>
      </trkpt>
      <trkpt lat="43.90158" lon="7.40684">
        <ele>838.74450683594</ele>
        <time>2014-01-11T10:52:17Z</time>
      </trkpt>
      <trkpt lat="43.90158" lon="7.40684">
        <ele>838.74450683594</ele>
        <time>2014-01-11T10:52:24Z</time>
      </trkpt>
      <trkpt lat="43.90158" lon="7.40684">
        <ele>838.77416992188</ele>
        <time>2014-01-11T10:52:27Z</time>
      </trkpt>
      <trkpt lat="43.90158" lon="7.40684">
        <ele>838.78900146484</ele>
        <time>2014-01-11T10:52:28Z</time>
      </trkpt>
      <trkpt lat="43.90155" lon="7.40681">
        <ele>837.71447753906</ele>
        <time>2014-01-11T10:52:38Z</time>
      </trkpt>
      <trkpt lat="43.90154" lon="7.40681">
        <ele>837.61700439453</ele>
        <time>2014-01-11T10:52:43Z</time>
      </trkpt>
      <trkpt lat="43.90153" lon="7.4068">
        <ele>837.42010498047</ele>
        <time>2014-01-11T10:52:44Z</time>
      </trkpt>
      <trkpt lat="43.90139" lon="7.40671">
        <ele>833.50390625</ele>
        <time>2014-01-11T10:52:49Z</time>
      </trkpt>
      <trkpt lat="43.90135" lon="7.40671">
        <ele>833.33538818359</ele>
        <time>2014-01-11T10:52:50Z</time>
      </trkpt>
      <trkpt lat="43.90112" lon="7.40673">
        <ele>832.68615722656</ele>
        <time>2014-01-11T10:52:55Z</time>
      </trkpt>
      <trkpt lat="43.90108" lon="7.40673">
        <ele>832.57806396484</ele>
        <time>2014-01-11T10:52:56Z</time>
      </trkpt>
      <trkpt lat="43.90091" lon="7.40672">
        <ele>830.54339599609</ele>
        <time>2014-01-11T10:53:00Z</time>
      </trkpt>
      <trkpt lat="43.90069" lon="7.40676">
        <ele>831.48065185547</ele>
        <time>2014-01-11T10:53:04Z</time>
      </trkpt>
      <trkpt lat="43.90054" lon="7.4068">
        <ele>832.05169677734</ele>
        <time>2014-01-11T10:53:07Z</time>
      </trkpt>
      <trkpt lat="43.90044" lon="7.40681">
        <ele>832.45416259766</ele>
        <time>2014-01-11T10:53:09Z</time>
      </trkpt>
      <trkpt lat="43.90035" lon="7.40684">
        <ele>833.48199462891</ele>
        <time>2014-01-11T10:53:11Z</time>
      </trkpt>
      <trkpt lat="43.90015" lon="7.40685">
        <ele>833.08813476562</ele>
        <time>2014-01-11T10:53:15Z</time>
      </trkpt>
      <trkpt lat="43.90001" lon="7.40686">
        <ele>832.26324462891</ele>
        <time>2014-01-11T10:53:18Z</time>
      </trkpt>
      <trkpt lat="43.89988" lon="7.40681">
        <ele>829.71331787109</ele>
        <time>2014-01-11T10:53:22Z</time>
      </trkpt>
      <trkpt lat="43.89986" lon="7.40681">
        <ele>829.31512451172</ele>
        <time>2014-01-11T10:53:23Z</time>
      </trkpt>
      <trkpt lat="43.8997" lon="7.40686">
        <ele>829.27691650391</ele>
        <time>2014-01-11T10:53:28Z</time>
      </trkpt>
      <trkpt lat="43.89946" lon="7.40684">
        <ele>824.7138671875</ele>
        <time>2014-01-11T10:53:34Z</time>
      </trkpt>
      <trkpt lat="43.89931" lon="7.40689">
        <ele>823.96282958984</ele>
        <time>2014-01-11T10:53:38Z</time>
      </trkpt>
      <trkpt lat="43.89927" lon="7.40689">
        <ele>823.62847900391</ele>
        <time>2014-01-11T10:53:39Z</time>
      </trkpt>
      <trkpt lat="43.89915" lon="7.40689">
        <ele>822.49468994141</ele>
        <time>2014-01-11T10:53:42Z</time>
      </trkpt>
      <trkpt lat="43.89902" lon="7.40685">
        <ele>821.46984863281</ele>
        <time>2014-01-11T10:53:46Z</time>
      </trkpt>
      <trkpt lat="43.8989" lon="7.40688">
        <ele>820.86218261719</ele>
        <time>2014-01-11T10:53:50Z</time>
      </trkpt>
      <trkpt lat="43.89883" lon="7.40691">
        <ele>820.67938232422</ele>
        <time>2014-01-11T10:53:53Z</time>
      </trkpt>
      <trkpt lat="43.89871" lon="7.40691">
        <ele>820.32360839844</ele>
        <time>2014-01-11T10:53:58Z</time>
      </trkpt>
      <trkpt lat="43.89861" lon="7.40697">
        <ele>820</ele>
        <time>2014-01-11T10:54:02Z</time>
      </trkpt>
      <trkpt lat="43.89851" lon="7.40708">
        <ele>820</ele>
        <time>2014-01-11T10:54:06Z</time>
      </trkpt>
      <trkpt lat="43.89843" lon="7.40712">
        <ele>820</ele>
        <time>2014-01-11T10:54:09Z</time>
      </trkpt>
      <trkpt lat="43.8982" lon="7.4072">
        <ele>820</ele>
        <time>2014-01-11T10:54:14Z</time>
      </trkpt>
      <trkpt lat="43.89814" lon="7.40721">
        <ele>820</ele>
        <time>2014-01-11T10:54:15Z</time>
      </trkpt>
      <trkpt lat="43.89788" lon="7.40727">
        <ele>820</ele>
        <time>2014-01-11T10:54:20Z</time>
      </trkpt>
      <trkpt lat="43.89779" lon="7.40734">
        <ele>820</ele>
        <time>2014-01-11T10:54:22Z</time>
      </trkpt>
      <trkpt lat="43.89762" lon="7.40742">
        <ele>820</ele>
        <time>2014-01-11T10:54:26Z</time>
      </trkpt>
      <trkpt lat="43.89753" lon="7.40749">
        <ele>820</ele>
        <time>2014-01-11T10:54:29Z</time>
      </trkpt>
      <trkpt lat="43.89737" lon="7.4077">
        <ele>820</ele>
        <time>2014-01-11T10:54:34Z</time>
      </trkpt>
      <trkpt lat="43.89719" lon="7.4078">
        <ele>818.7763671875</ele>
        <time>2014-01-11T10:54:39Z</time>
      </trkpt>
      <trkpt lat="43.89717" lon="7.40782">
        <ele>818.09875488281</ele>
        <time>2014-01-11T10:54:40Z</time>
      </trkpt>
      <trkpt lat="43.89702" lon="7.40792">
        <ele>812.89953613281</ele>
        <time>2014-01-11T10:54:45Z</time>
      </trkpt>
      <trkpt lat="43.89698" lon="7.408">
        <ele>809.95739746094</ele>
        <time>2014-01-11T10:54:47Z</time>
      </trkpt>
      <trkpt lat="43.89686" lon="7.40814">
        <ele>803.73510742188</ele>
        <time>2014-01-11T10:54:52Z</time>
      </trkpt>
      <trkpt lat="43.89684" lon="7.40817">
        <ele>802.68273925781</ele>
        <time>2014-01-11T10:54:53Z</time>
      </trkpt>
      <trkpt lat="43.89683" lon="7.40829">
        <ele>798.32879638672</ele>
        <time>2014-01-11T10:54:57Z</time>
      </trkpt>
      <trkpt lat="43.89671" lon="7.40836">
        <ele>796.24401855469</ele>
        <time>2014-01-11T10:55:01Z</time>
      </trkpt>
      <trkpt lat="43.89653" lon="7.40837">
        <ele>793.71343994141</ele>
        <time>2014-01-11T10:55:07Z</time>
      </trkpt>
      <trkpt lat="43.89643" lon="7.40834">
        <ele>793.38385009766</ele>
        <time>2014-01-11T10:55:11Z</time>
      </trkpt>
      <trkpt lat="43.89632" lon="7.4083">
        <ele>793.47741699219</ele>
        <time>2014-01-11T10:55:16Z</time>
      </trkpt>
      <trkpt lat="43.8963" lon="7.40829">
        <ele>793.82244873047</ele>
        <time>2014-01-11T10:55:17Z</time>
      </trkpt>
      <trkpt lat="43.8961" lon="7.40824">
        <ele>793.80352783203</ele>
        <time>2014-01-11T10:55:23Z</time>
      </trkpt>
      <trkpt lat="43.89597" lon="7.40818">
        <ele>795.01721191406</ele>
        <time>2014-01-11T10:55:28Z</time>
      </trkpt>
      <trkpt lat="43.89584" lon="7.40811">
        <ele>796.1416015625</ele>
        <time>2014-01-11T10:55:33Z</time>
      </trkpt>
      <trkpt lat="43.89567" lon="7.40809">
        <ele>791.33416748047</ele>
        <time>2014-01-11T10:55:38Z</time>
      </trkpt>
      <trkpt lat="43.89548" lon="7.40807">
        <ele>786.67834472656</ele>
        <time>2014-01-11T10:55:43Z</time>
      </trkpt>
      <trkpt lat="43.89536" lon="7.40816">
        <ele>784.70465087891</ele>
        <time>2014-01-11T10:55:47Z</time>
      </trkpt>
      <trkpt lat="43.89523" lon="7.4083">
        <ele>783.78430175781</ele>
        <time>2014-01-11T10:55:52Z</time>
      </trkpt>
      <trkpt lat="43.89515" lon="7.40837">
        <ele>783.07006835938</ele>
        <time>2014-01-11T10:55:55Z</time>
      </trkpt>
      <trkpt lat="43.89504" lon="7.40846">
        <ele>781.73297119141</ele>
        <time>2014-01-11T10:55:59Z</time>
      </trkpt>
      <trkpt lat="43.89489" lon="7.40858">
        <ele>780.18835449219</ele>
        <time>2014-01-11T10:56:04Z</time>
      </trkpt>
      <trkpt lat="43.89476" lon="7.40874">
        <ele>774.95184326172</ele>
        <time>2014-01-11T10:56:08Z</time>
      </trkpt>
      <trkpt lat="43.89468" lon="7.40881">
        <ele>770.96368408203</ele>
        <time>2014-01-11T10:56:11Z</time>
      </trkpt>
      <trkpt lat="43.89468" lon="7.40882">
        <ele>770.27008056641</ele>
        <time>2014-01-11T10:56:16Z</time>
      </trkpt>
      <trkpt lat="43.89468" lon="7.40882">
        <ele>770.40197753906</ele>
        <time>2014-01-11T10:56:23Z</time>
      </trkpt>
      <trkpt lat="43.89468" lon="7.40883">
        <ele>770.07757568359</ele>
        <time>2014-01-11T10:56:29Z</time>
      </trkpt>
      <trkpt lat="43.89468" lon="7.40883">
        <ele>770.12567138672</ele>
        <time>2014-01-11T10:56:37Z</time>
      </trkpt>
      <trkpt lat="43.89468" lon="7.40882">
        <ele>770.25402832031</ele>
        <time>2014-01-11T10:56:42Z</time>
      </trkpt>
      <trkpt lat="43.89468" lon="7.40882">
        <ele>770.43041992188</ele>
        <time>2014-01-11T10:56:49Z</time>
      </trkpt>
      <trkpt lat="43.89466" lon="7.40883">
        <ele>769.38464355469</ele>
        <time>2014-01-11T10:56:51Z</time>
      </trkpt>
      <trkpt lat="43.8945" lon="7.40894">
        <ele>763.28277587891</ele>
        <time>2014-01-11T10:56:56Z</time>
      </trkpt>
      <trkpt lat="43.89436" lon="7.40899">
        <ele>755.76019287109</ele>
        <time>2014-01-11T10:56:59Z</time>
      </trkpt>
      <trkpt lat="43.89433" lon="7.40904">
        <ele>754.1337890625</ele>
        <time>2014-01-11T10:57:02Z</time>
      </trkpt>
      <trkpt lat="43.89434" lon="7.40906">
        <ele>755.06567382812</ele>
        <time>2014-01-11T10:57:03Z</time>
      </trkpt>
      <trkpt lat="43.89437" lon="7.4091">
        <ele>757.07946777344</ele>
        <time>2014-01-11T10:57:05Z</time>
      </trkpt>
      <trkpt lat="43.8943" lon="7.40916">
        <ele>754.54669189453</ele>
        <time>2014-01-11T10:57:10Z</time>
      </trkpt>
      <trkpt lat="43.8943" lon="7.40918">
        <ele>754.56286621094</ele>
        <time>2014-01-11T10:57:12Z</time>
      </trkpt>
      <trkpt lat="43.89431" lon="7.40923">
        <ele>753.33441162109</ele>
        <time>2014-01-11T10:57:17Z</time>
      </trkpt>
      <trkpt lat="43.89423" lon="7.40929">
        <ele>749.21319580078</ele>
        <time>2014-01-11T10:57:20Z</time>
      </trkpt>
      <trkpt lat="43.89404" lon="7.40938">
        <ele>741.39099121094</ele>
        <time>2014-01-11T10:57:25Z</time>
      </trkpt>
      <trkpt lat="43.89403" lon="7.4094">
        <ele>741.63513183594</ele>
        <time>2014-01-11T10:57:27Z</time>
      </trkpt>
      <trkpt lat="43.89415" lon="7.40947">
        <ele>744.24432373047</ele>
        <time>2014-01-11T10:57:32Z</time>
      </trkpt>
      <trkpt lat="43.89425" lon="7.40953">
        <ele>743.75866699219</ele>
        <time>2014-01-11T10:57:35Z</time>
      </trkpt>
      <trkpt lat="43.89432" lon="7.40956">
        <ele>743.46734619141</ele>
        <time>2014-01-11T10:57:38Z</time>
      </trkpt>
      <trkpt lat="43.89431" lon="7.40961">
        <ele>742.15441894531</ele>
        <time>2014-01-11T10:57:42Z</time>
      </trkpt>
      <trkpt lat="43.89429" lon="7.40962">
        <ele>741.85906982422</ele>
        <time>2014-01-11T10:57:43Z</time>
      </trkpt>
      <trkpt lat="43.89421" lon="7.40967">
        <ele>740.80828857422</ele>
        <time>2014-01-11T10:57:47Z</time>
      </trkpt>
      <trkpt lat="43.89424" lon="7.40971">
        <ele>739.74603271484</ele>
        <time>2014-01-11T10:57:51Z</time>
      </trkpt>
      <trkpt lat="43.89427" lon="7.40972">
        <ele>739.21533203125</ele>
        <time>2014-01-11T10:57:52Z</time>
      </trkpt>
      <trkpt lat="43.89444" lon="7.4098">
        <ele>733.63037109375</ele>
        <time>2014-01-11T10:57:58Z</time>
      </trkpt>
      <trkpt lat="43.89455" lon="7.40987">
        <ele>728.99725341797</ele>
        <time>2014-01-11T10:58:02Z</time>
      </trkpt>
      <trkpt lat="43.8946" lon="7.40991">
        <ele>726.28845214844</ele>
        <time>2014-01-11T10:58:04Z</time>
      </trkpt>
      <trkpt lat="43.89458" lon="7.40997">
        <ele>723.15734863281</ele>
        <time>2014-01-11T10:58:08Z</time>
      </trkpt>
      <trkpt lat="43.89451" lon="7.41001">
        <ele>722.09411621094</ele>
        <time>2014-01-11T10:58:11Z</time>
      </trkpt>
      <trkpt lat="43.89442" lon="7.41006">
        <ele>721.17156982422</ele>
        <time>2014-01-11T10:58:15Z</time>
      </trkpt>
      <trkpt lat="43.89437" lon="7.41006">
        <ele>721.4169921875</ele>
        <time>2014-01-11T10:58:20Z</time>
      </trkpt>
      <trkpt lat="43.89434" lon="7.41009">
        <ele>720.67327880859</ele>
        <time>2014-01-11T10:58:25Z</time>
      </trkpt>
      <trkpt lat="43.89433" lon="7.41012">
        <ele>719.87097167969</ele>
        <time>2014-01-11T10:58:27Z</time>
      </trkpt>
      <trkpt lat="43.89434" lon="7.41014">
        <ele>718.92932128906</ele>
        <time>2014-01-11T10:58:32Z</time>
      </trkpt>
      <trkpt lat="43.89434" lon="7.41014">
        <ele>718.80194091797</ele>
        <time>2014-01-11T10:58:44Z</time>
      </trkpt>
      <trkpt lat="43.89434" lon="7.41015">
        <ele>718.60577392578</ele>
        <time>2014-01-11T10:58:50Z</time>
      </trkpt>
      <trkpt lat="43.89434" lon="7.41015">
        <ele>718.65924072266</ele>
        <time>2014-01-11T10:58:56Z</time>
      </trkpt>
      <trkpt lat="43.89434" lon="7.41015">
        <ele>718.43133544922</ele>
        <time>2014-01-11T10:58:57Z</time>
      </trkpt>
      <trkpt lat="43.89441" lon="7.41019">
        <ele>716.51971435547</ele>
        <time>2014-01-11T10:59:02Z</time>
      </trkpt>
      <trkpt lat="43.89439" lon="7.41022">
        <ele>715.62451171875</ele>
        <time>2014-01-11T10:59:07Z</time>
      </trkpt>
      <trkpt lat="43.89438" lon="7.41022">
        <ele>715.73809814453</ele>
        <time>2014-01-11T10:59:12Z</time>
      </trkpt>
      <trkpt lat="43.89438" lon="7.41022">
        <ele>715.59747314453</ele>
        <time>2014-01-11T10:59:17Z</time>
      </trkpt>
      <trkpt lat="43.89438" lon="7.41023">
        <ele>715.35662841797</ele>
        <time>2014-01-11T10:59:21Z</time>
      </trkpt>
      <trkpt lat="43.89438" lon="7.41021">
        <ele>716.05438232422</ele>
        <time>2014-01-11T10:59:25Z</time>
      </trkpt>
      <trkpt lat="43.89434" lon="7.41024">
        <ele>715.31298828125</ele>
        <time>2014-01-11T10:59:29Z</time>
      </trkpt>
      <trkpt lat="43.89416" lon="7.41026">
        <ele>715.84930419922</ele>
        <time>2014-01-11T10:59:35Z</time>
      </trkpt>
      <trkpt lat="43.89407" lon="7.41031">
        <ele>714.12634277344</ele>
        <time>2014-01-11T10:59:38Z</time>
      </trkpt>
      <trkpt lat="43.894" lon="7.41038">
        <ele>711.15447998047</ele>
        <time>2014-01-11T10:59:42Z</time>
      </trkpt>
      <trkpt lat="43.894" lon="7.41039">
        <ele>710.99523925781</ele>
        <time>2014-01-11T10:59:43Z</time>
      </trkpt>
      <trkpt lat="43.89411" lon="7.41042">
        <ele>709.56317138672</ele>
        <time>2014-01-11T10:59:48Z</time>
      </trkpt>
      <trkpt lat="43.89425" lon="7.41053">
        <ele>704.60473632812</ele>
        <time>2014-01-11T10:59:53Z</time>
      </trkpt>
      <trkpt lat="43.89439" lon="7.41062">
        <ele>699.97631835938</ele>
        <time>2014-01-11T10:59:58Z</time>
      </trkpt>
      <trkpt lat="43.8945" lon="7.41065">
        <ele>698.45355224609</ele>
        <time>2014-01-11T11:00:02Z</time>
      </trkpt>
      <trkpt lat="43.89447" lon="7.41067">
        <ele>697.90423583984</ele>
        <time>2014-01-11T11:00:06Z</time>
      </trkpt>
      <trkpt lat="43.89444" lon="7.41069">
        <ele>697.20922851562</ele>
        <time>2014-01-11T11:00:09Z</time>
      </trkpt>
      <trkpt lat="43.89448" lon="7.4107">
        <ele>696.90856933594</ele>
        <time>2014-01-11T11:00:14Z</time>
      </trkpt>
      <trkpt lat="43.89447" lon="7.41069">
        <ele>697.09741210938</ele>
        <time>2014-01-11T11:00:17Z</time>
      </trkpt>
      <trkpt lat="43.89448" lon="7.4107">
        <ele>696.97729492188</ele>
        <time>2014-01-11T11:00:21Z</time>
      </trkpt>
      <trkpt lat="43.89449" lon="7.4107">
        <ele>696.85711669922</ele>
        <time>2014-01-11T11:00:30Z</time>
      </trkpt>
      <trkpt lat="43.89449" lon="7.4107">
        <ele>696.71978759766</ele>
        <time>2014-01-11T11:00:31Z</time>
      </trkpt>
      <trkpt lat="43.89452" lon="7.41075">
        <ele>695.10614013672</ele>
        <time>2014-01-11T11:00:36Z</time>
      </trkpt>
      <trkpt lat="43.89452" lon="7.41073">
        <ele>695.55249023438</ele>
        <time>2014-01-11T11:00:40Z</time>
      </trkpt>
      <trkpt lat="43.89449" lon="7.41071">
        <ele>696.41076660156</ele>
        <time>2014-01-11T11:00:44Z</time>
      </trkpt>
      <trkpt lat="43.89449" lon="7.4107">
        <ele>696.78845214844</ele>
        <time>2014-01-11T11:00:48Z</time>
      </trkpt>
      <trkpt lat="43.89451" lon="7.41071">
        <ele>696.54809570312</ele>
        <time>2014-01-11T11:00:52Z</time>
      </trkpt>
      <trkpt lat="43.89453" lon="7.41073">
        <ele>695.70697021484</ele>
        <time>2014-01-11T11:00:55Z</time>
      </trkpt>
      <trkpt lat="43.89449" lon="7.41073">
        <ele>695.74133300781</ele>
        <time>2014-01-11T11:01:00Z</time>
      </trkpt>
      <trkpt lat="43.89447" lon="7.41073">
        <ele>695.68981933594</ele>
        <time>2014-01-11T11:01:10Z</time>
      </trkpt>
      <trkpt lat="43.89448" lon="7.41076">
        <ele>694.71130371094</ele>
        <time>2014-01-11T11:01:14Z</time>
      </trkpt>
      <trkpt lat="43.89449" lon="7.41077">
        <ele>694.35083007812</ele>
        <time>2014-01-11T11:01:15Z</time>
      </trkpt>
      <trkpt lat="43.89458" lon="7.41085">
        <ele>691.33868408203</ele>
        <time>2014-01-11T11:01:21Z</time>
      </trkpt>
      <trkpt lat="43.89462" lon="7.41088">
        <ele>690.32507324219</ele>
        <time>2014-01-11T11:01:23Z</time>
      </trkpt>
      <trkpt lat="43.89467" lon="7.4109">
        <ele>689.38507080078</ele>
        <time>2014-01-11T11:01:26Z</time>
      </trkpt>
      <trkpt lat="43.89467" lon="7.41096">
        <ele>687.14953613281</ele>
        <time>2014-01-11T11:01:30Z</time>
      </trkpt>
      <trkpt lat="43.89465" lon="7.411">
        <ele>685.64019775391</ele>
        <time>2014-01-11T11:01:34Z</time>
      </trkpt>
      <trkpt lat="43.89474" lon="7.41102">
        <ele>685.33862304688</ele>
        <time>2014-01-11T11:01:39Z</time>
      </trkpt>
      <trkpt lat="43.89473" lon="7.41106">
        <ele>683.7421875</ele>
        <time>2014-01-11T11:01:43Z</time>
      </trkpt>
      <trkpt lat="43.89468" lon="7.4111">
        <ele>682.19171142578</ele>
        <time>2014-01-11T11:01:47Z</time>
      </trkpt>
      <trkpt lat="43.8947" lon="7.41111">
        <ele>681.95648193359</ele>
        <time>2014-01-11T11:01:49Z</time>
      </trkpt>
      <trkpt lat="43.89482" lon="7.41121">
        <ele>677.54772949219</ele>
        <time>2014-01-11T11:01:55Z</time>
      </trkpt>
      <trkpt lat="43.89488" lon="7.41125">
        <ele>675.67315673828</ele>
        <time>2014-01-11T11:01:59Z</time>
      </trkpt>
      <trkpt lat="43.89484" lon="7.41129">
        <ele>673.50854492188</ele>
        <time>2014-01-11T11:02:04Z</time>
      </trkpt>
      <trkpt lat="43.89474" lon="7.41132">
        <ele>672.14721679688</ele>
        <time>2014-01-11T11:02:09Z</time>
      </trkpt>
      <trkpt lat="43.8947" lon="7.41133">
        <ele>671.40106201172</ele>
        <time>2014-01-11T11:02:11Z</time>
      </trkpt>
      <trkpt lat="43.89469" lon="7.41134">
        <ele>671.03802490234</ele>
        <time>2014-01-11T11:02:16Z</time>
      </trkpt>
      <trkpt lat="43.89469" lon="7.41133">
        <ele>671.23425292969</ele>
        <time>2014-01-11T11:02:20Z</time>
      </trkpt>
      <trkpt lat="43.8947" lon="7.41133">
        <ele>671.64141845703</ele>
        <time>2014-01-11T11:02:24Z</time>
      </trkpt>
      <trkpt lat="43.89471" lon="7.41134">
        <ele>670.91760253906</ele>
        <time>2014-01-11T11:02:29Z</time>
      </trkpt>
      <trkpt lat="43.89474" lon="7.41134">
        <ele>671.14300537109</ele>
        <time>2014-01-11T11:02:34Z</time>
      </trkpt>
      <trkpt lat="43.89476" lon="7.41133">
        <ele>671.63397216797</ele>
        <time>2014-01-11T11:02:41Z</time>
      </trkpt>
      <trkpt lat="43.89477" lon="7.41133">
        <ele>671.58935546875</ele>
        <time>2014-01-11T11:02:49Z</time>
      </trkpt>
      <trkpt lat="43.89477" lon="7.41134">
        <ele>671.27691650391</ele>
        <time>2014-01-11T11:02:55Z</time>
      </trkpt>
      <trkpt lat="43.89479" lon="7.41132">
        <ele>671.99102783203</ele>
        <time>2014-01-11T11:03:04Z</time>
      </trkpt>
      <trkpt lat="43.89478" lon="7.41133">
        <ele>671.90179443359</ele>
        <time>2014-01-11T11:03:05Z</time>
      </trkpt>
      <trkpt lat="43.89473" lon="7.41134">
        <ele>671.3662109375</ele>
        <time>2014-01-11T11:03:08Z</time>
      </trkpt>
      <trkpt lat="43.89474" lon="7.41137">
        <ele>669.91564941406</ele>
        <time>2014-01-11T11:03:13Z</time>
      </trkpt>
      <trkpt lat="43.89472" lon="7.41141">
        <ele>667.72662353516</ele>
        <time>2014-01-11T11:03:16Z</time>
      </trkpt>
      <trkpt lat="43.89467" lon="7.41142">
        <ele>666.30780029297</ele>
        <time>2014-01-11T11:03:18Z</time>
      </trkpt>
      <trkpt lat="43.89466" lon="7.41143">
        <ele>665.91528320312</ele>
        <time>2014-01-11T11:03:25Z</time>
      </trkpt>
      <trkpt lat="43.89466" lon="7.41142">
        <ele>666.31927490234</ele>
        <time>2014-01-11T11:03:30Z</time>
      </trkpt>
      <trkpt lat="43.89466" lon="7.41143">
        <ele>665.87951660156</ele>
        <time>2014-01-11T11:03:37Z</time>
      </trkpt>
      <trkpt lat="43.89466" lon="7.41143">
        <ele>665.91528320312</ele>
        <time>2014-01-11T11:03:44Z</time>
      </trkpt>
      <trkpt lat="43.89466" lon="7.41143">
        <ele>665.85235595703</ele>
        <time>2014-01-11T11:03:50Z</time>
      </trkpt>
      <trkpt lat="43.89466" lon="7.41143">
        <ele>665.88793945312</ele>
        <time>2014-01-11T11:03:56Z</time>
      </trkpt>
      <trkpt lat="43.89466" lon="7.41143">
        <ele>665.95104980469</ele>
        <time>2014-01-11T11:03:58Z</time>
      </trkpt>
      <trkpt lat="43.89466" lon="7.41143">
        <ele>665.98260498047</ele>
        <time>2014-01-11T11:03:59Z</time>
      </trkpt>
      <trkpt lat="43.89466" lon="7.41141">
        <ele>666.70227050781</ele>
        <time>2014-01-11T11:04:03Z</time>
      </trkpt>
      <trkpt lat="43.89466" lon="7.41143">
        <ele>665.50262451172</ele>
        <time>2014-01-11T11:04:09Z</time>
      </trkpt>
      <trkpt lat="43.89465" lon="7.41143">
        <ele>665.62445068359</ele>
        <time>2014-01-11T11:04:16Z</time>
      </trkpt>
      <trkpt lat="43.89464" lon="7.41144">
        <ele>664.52069091797</ele>
        <time>2014-01-11T11:04:31Z</time>
      </trkpt>
      <trkpt lat="43.89464" lon="7.41144">
        <ele>665.11401367188</ele>
        <time>2014-01-11T11:04:36Z</time>
      </trkpt>
      <trkpt lat="43.89465" lon="7.41144">
        <ele>664.89874267578</ele>
        <time>2014-01-11T11:04:41Z</time>
      </trkpt>
      <trkpt lat="43.89464" lon="7.41143">
        <ele>665.20739746094</ele>
        <time>2014-01-11T11:04:47Z</time>
      </trkpt>
      <trkpt lat="43.89465" lon="7.41144">
        <ele>664.61798095703</ele>
        <time>2014-01-11T11:04:52Z</time>
      </trkpt>
      <trkpt lat="43.89464" lon="7.41145">
        <ele>664.36535644531</ele>
        <time>2014-01-11T11:04:57Z</time>
      </trkpt>
      <trkpt lat="43.89465" lon="7.41144">
        <ele>665.11712646484</ele>
        <time>2014-01-11T11:05:03Z</time>
      </trkpt>
      <trkpt lat="43.89463" lon="7.41144">
        <ele>664.64251708984</ele>
        <time>2014-01-11T11:05:16Z</time>
      </trkpt>
      <trkpt lat="43.89452" lon="7.41145">
        <ele>662.88946533203</ele>
        <time>2014-01-11T11:05:21Z</time>
      </trkpt>
      <trkpt lat="43.89439" lon="7.41144">
        <ele>662.92468261719</ele>
        <time>2014-01-11T11:05:26Z</time>
      </trkpt>
      <trkpt lat="43.89432" lon="7.41146">
        <ele>661.99084472656</ele>
        <time>2014-01-11T11:05:29Z</time>
      </trkpt>
      <trkpt lat="43.89427" lon="7.41149">
        <ele>660.28796386719</ele>
        <time>2014-01-11T11:05:33Z</time>
      </trkpt>
      <trkpt lat="43.89432" lon="7.41153">
        <ele>657.65124511719</ele>
        <time>2014-01-11T11:05:36Z</time>
      </trkpt>
      <trkpt lat="43.89439" lon="7.41156">
        <ele>656.33288574219</ele>
        <time>2014-01-11T11:05:40Z</time>
      </trkpt>
      <trkpt lat="43.89439" lon="7.41156">
        <ele>655.86596679688</ele>
        <time>2014-01-11T11:05:41Z</time>
      </trkpt>
      <trkpt lat="43.8943" lon="7.4116">
        <ele>653.66870117188</ele>
        <time>2014-01-11T11:05:45Z</time>
      </trkpt>
      <trkpt lat="43.8942" lon="7.41164">
        <ele>651.60876464844</ele>
        <time>2014-01-11T11:05:49Z</time>
      </trkpt>
      <trkpt lat="43.89407" lon="7.41178">
        <ele>644.43927001953</ele>
        <time>2014-01-11T11:05:54Z</time>
      </trkpt>
      <trkpt lat="43.89394" lon="7.4119">
        <ele>637.41192626953</ele>
        <time>2014-01-11T11:05:59Z</time>
      </trkpt>
      <trkpt lat="43.89383" lon="7.41197">
        <ele>633.68975830078</ele>
        <time>2014-01-11T11:06:04Z</time>
      </trkpt>
      <trkpt lat="43.89381" lon="7.41199">
        <ele>632.73706054688</ele>
        <time>2014-01-11T11:06:06Z</time>
      </trkpt>
      <trkpt lat="43.89386" lon="7.41201">
        <ele>631.37231445312</ele>
        <time>2014-01-11T11:06:10Z</time>
      </trkpt>
      <trkpt lat="43.89381" lon="7.41207">
        <ele>628.02496337891</ele>
        <time>2014-01-11T11:06:15Z</time>
      </trkpt>
      <trkpt lat="43.89384" lon="7.41212">
        <ele>625.50152587891</ele>
        <time>2014-01-11T11:06:19Z</time>
      </trkpt>
      <trkpt lat="43.89389" lon="7.41215">
        <ele>623.70849609375</ele>
        <time>2014-01-11T11:06:22Z</time>
      </trkpt>
      <trkpt lat="43.89384" lon="7.41221">
        <ele>620.86663818359</ele>
        <time>2014-01-11T11:06:27Z</time>
      </trkpt>
      <trkpt lat="43.89372" lon="7.41224">
        <ele>619.36358642578</ele>
        <time>2014-01-11T11:06:32Z</time>
      </trkpt>
      <trkpt lat="43.89363" lon="7.41226">
        <ele>618.86920166016</ele>
        <time>2014-01-11T11:06:36Z</time>
      </trkpt>
      <trkpt lat="43.89356" lon="7.41229">
        <ele>617.43341064453</ele>
        <time>2014-01-11T11:06:41Z</time>
      </trkpt>
      <trkpt lat="43.89355" lon="7.41231">
        <ele>616.92266845703</ele>
        <time>2014-01-11T11:06:47Z</time>
      </trkpt>
      <trkpt lat="43.89354" lon="7.41233">
        <ele>615.92413330078</ele>
        <time>2014-01-11T11:06:52Z</time>
      </trkpt>
      <trkpt lat="43.89354" lon="7.41235">
        <ele>615.36865234375</ele>
        <time>2014-01-11T11:06:56Z</time>
      </trkpt>
      <trkpt lat="43.89354" lon="7.41241">
        <ele>613.74963378906</ele>
        <time>2014-01-11T11:07:01Z</time>
      </trkpt>
      <trkpt lat="43.89352" lon="7.4124">
        <ele>613.49096679688</ele>
        <time>2014-01-11T11:07:06Z</time>
      </trkpt>
      <trkpt lat="43.89351" lon="7.41242">
        <ele>612.66394042969</ele>
        <time>2014-01-11T11:07:13Z</time>
      </trkpt>
      <trkpt lat="43.89349" lon="7.41243">
        <ele>612.06866455078</ele>
        <time>2014-01-11T11:07:16Z</time>
      </trkpt>
      <trkpt lat="43.8934" lon="7.41245">
        <ele>610.13500976562</ele>
        <time>2014-01-11T11:07:22Z</time>
      </trkpt>
      <trkpt lat="43.89337" lon="7.41248">
        <ele>608.45538330078</ele>
        <time>2014-01-11T11:07:26Z</time>
      </trkpt>
      <trkpt lat="43.89342" lon="7.41253">
        <ele>607.51782226562</ele>
        <time>2014-01-11T11:07:29Z</time>
      </trkpt>
      <trkpt lat="43.89342" lon="7.4126">
        <ele>604.71508789062</ele>
        <time>2014-01-11T11:07:32Z</time>
      </trkpt>
      <trkpt lat="43.89338" lon="7.4126">
        <ele>603.8115234375</ele>
        <time>2014-01-11T11:07:34Z</time>
      </trkpt>
      <trkpt lat="43.8933" lon="7.41266">
        <ele>599.88275146484</ele>
        <time>2014-01-11T11:07:40Z</time>
      </trkpt>
      <trkpt lat="43.8933" lon="7.4127">
        <ele>598.43334960938</ele>
        <time>2014-01-11T11:07:42Z</time>
      </trkpt>
      <trkpt lat="43.89331" lon="7.41275">
        <ele>596.57165527344</ele>
        <time>2014-01-11T11:07:44Z</time>
      </trkpt>
      <trkpt lat="43.89327" lon="7.41281">
        <ele>594.27551269531</ele>
        <time>2014-01-11T11:07:48Z</time>
      </trkpt>
      <trkpt lat="43.89327" lon="7.41282">
        <ele>594.09381103516</ele>
        <time>2014-01-11T11:07:49Z</time>
      </trkpt>
      <trkpt lat="43.8933" lon="7.41289">
        <ele>592.44641113281</ele>
        <time>2014-01-11T11:07:54Z</time>
      </trkpt>
      <trkpt lat="43.8933" lon="7.41289">
        <ele>592.37585449219</ele>
        <time>2014-01-11T11:07:57Z</time>
      </trkpt>
      <trkpt lat="43.8933" lon="7.41289">
        <ele>592.25604248047</ele>
        <time>2014-01-11T11:07:59Z</time>
      </trkpt>
      <trkpt lat="43.8933" lon="7.41291">
        <ele>591.82800292969</ele>
        <time>2014-01-11T11:08:11Z</time>
      </trkpt>
      <trkpt lat="43.89329" lon="7.41291">
        <ele>591.80975341797</ele>
        <time>2014-01-11T11:08:19Z</time>
      </trkpt>
      <trkpt lat="43.89329" lon="7.41292">
        <ele>591.53485107422</ele>
        <time>2014-01-11T11:08:24Z</time>
      </trkpt>
      <trkpt lat="43.89325" lon="7.41301">
        <ele>588.48577880859</ele>
        <time>2014-01-11T11:08:29Z</time>
      </trkpt>
      <trkpt lat="43.89313" lon="7.41314">
        <ele>584.31561279297</ele>
        <time>2014-01-11T11:08:35Z</time>
      </trkpt>
      <trkpt lat="43.89302" lon="7.41326">
        <ele>580.4443359375</ele>
        <time>2014-01-11T11:08:41Z</time>
      </trkpt>
      <trkpt lat="43.89302" lon="7.4133">
        <ele>579.61413574219</ele>
        <time>2014-01-11T11:08:43Z</time>
      </trkpt>
      <trkpt lat="43.89306" lon="7.41332">
        <ele>579.43078613281</ele>
        <time>2014-01-11T11:08:46Z</time>
      </trkpt>
      <trkpt lat="43.89306" lon="7.41334">
        <ele>578.96105957031</ele>
        <time>2014-01-11T11:08:50Z</time>
      </trkpt>
      <trkpt lat="43.89306" lon="7.41337">
        <ele>577.92883300781</ele>
        <time>2014-01-11T11:08:53Z</time>
      </trkpt>
      <trkpt lat="43.89307" lon="7.41346">
        <ele>574.88311767578</ele>
        <time>2014-01-11T11:08:58Z</time>
      </trkpt>
      <trkpt lat="43.89307" lon="7.41346">
        <ele>575.08752441406</ele>
        <time>2014-01-11T11:09:05Z</time>
      </trkpt>
      <trkpt lat="43.89307" lon="7.41347">
        <ele>574.71893310547</ele>
        <time>2014-01-11T11:09:15Z</time>
      </trkpt>
      <trkpt lat="43.89307" lon="7.41347">
        <ele>574.56011962891</ele>
        <time>2014-01-11T11:09:23Z</time>
      </trkpt>
      <trkpt lat="43.89307" lon="7.41347">
        <ele>574.63195800781</ele>
        <time>2014-01-11T11:09:29Z</time>
      </trkpt>
      <trkpt lat="43.89307" lon="7.41347">
        <ele>574.57061767578</ele>
        <time>2014-01-11T11:09:34Z</time>
      </trkpt>
      <trkpt lat="43.89306" lon="7.41344">
        <ele>575.53723144531</ele>
        <time>2014-01-11T11:09:42Z</time>
      </trkpt>
      <trkpt lat="43.89305" lon="7.41343">
        <ele>575.77697753906</ele>
        <time>2014-01-11T11:09:48Z</time>
      </trkpt>
      <trkpt lat="43.89305" lon="7.41343">
        <ele>575.9775390625</ele>
        <time>2014-01-11T11:09:51Z</time>
      </trkpt>
      <trkpt lat="43.89306" lon="7.41343">
        <ele>575.86444091797</ele>
        <time>2014-01-11T11:09:57Z</time>
      </trkpt>
      <trkpt lat="43.89307" lon="7.41344">
        <ele>575.67120361328</ele>
        <time>2014-01-11T11:10:06Z</time>
      </trkpt>
      <trkpt lat="43.89309" lon="7.41349">
        <ele>574.11975097656</ele>
        <time>2014-01-11T11:10:12Z</time>
      </trkpt>
      <trkpt lat="43.89309" lon="7.41353">
        <ele>572.76330566406</ele>
        <time>2014-01-11T11:10:16Z</time>
      </trkpt>
      <trkpt lat="43.89306" lon="7.4136">
        <ele>570.26031494141</ele>
        <time>2014-01-11T11:10:20Z</time>
      </trkpt>
      <trkpt lat="43.89299" lon="7.41359">
        <ele>569.68176269531</ele>
        <time>2014-01-11T11:10:24Z</time>
      </trkpt>
      <trkpt lat="43.89294" lon="7.41362">
        <ele>568.08618164062</ele>
        <time>2014-01-11T11:10:27Z</time>
      </trkpt>
      <trkpt lat="43.89292" lon="7.41364">
        <ele>566.30059814453</ele>
        <time>2014-01-11T11:10:31Z</time>
      </trkpt>
      <trkpt lat="43.89291" lon="7.41365">
        <ele>565.87426757812</ele>
        <time>2014-01-11T11:10:35Z</time>
      </trkpt>
      <trkpt lat="43.89291" lon="7.41366">
        <ele>565.34002685547</ele>
        <time>2014-01-11T11:10:39Z</time>
      </trkpt>
      <trkpt lat="43.8929" lon="7.41368">
        <ele>563.99340820312</ele>
        <time>2014-01-11T11:10:43Z</time>
      </trkpt>
      <trkpt lat="43.89293" lon="7.41371">
        <ele>563.02160644531</ele>
        <time>2014-01-11T11:10:47Z</time>
      </trkpt>
      <trkpt lat="43.89283" lon="7.4138">
        <ele>555.17456054688</ele>
        <time>2014-01-11T11:10:52Z</time>
      </trkpt>
      <trkpt lat="43.89281" lon="7.41383">
        <ele>552.77746582031</ele>
        <time>2014-01-11T11:10:53Z</time>
      </trkpt>
      <trkpt lat="43.89281" lon="7.414">
        <ele>543.53967285156</ele>
        <time>2014-01-11T11:10:59Z</time>
      </trkpt>
      <trkpt lat="43.89281" lon="7.41411">
        <ele>538.64343261719</ele>
        <time>2014-01-11T11:11:03Z</time>
      </trkpt>
      <trkpt lat="43.89282" lon="7.41418">
        <ele>535.74920654297</ele>
        <time>2014-01-11T11:11:08Z</time>
      </trkpt>
      <trkpt lat="43.89283" lon="7.4142">
        <ele>535.62567138672</ele>
        <time>2014-01-11T11:11:09Z</time>
      </trkpt>
      <trkpt lat="43.89285" lon="7.41421">
        <ele>535.73370361328</ele>
        <time>2014-01-11T11:11:14Z</time>
      </trkpt>
      <trkpt lat="43.89289" lon="7.41426">
        <ele>535.06817626953</ele>
        <time>2014-01-11T11:11:20Z</time>
      </trkpt>
      <trkpt lat="43.89298" lon="7.41436">
        <ele>533.90979003906</ele>
        <time>2014-01-11T11:11:24Z</time>
      </trkpt>
      <trkpt lat="43.893" lon="7.41438">
        <ele>533.40618896484</ele>
        <time>2014-01-11T11:11:25Z</time>
      </trkpt>
      <trkpt lat="43.89302" lon="7.4144">
        <ele>532.93951416016</ele>
        <time>2014-01-11T11:11:26Z</time>
      </trkpt>
      <trkpt lat="43.89313" lon="7.41451">
        <ele>530.751953125</ele>
        <time>2014-01-11T11:11:32Z</time>
      </trkpt>
      <trkpt lat="43.89325" lon="7.41456">
        <ele>530.46704101562</ele>
        <time>2014-01-11T11:11:37Z</time>
      </trkpt>
      <trkpt lat="43.89333" lon="7.41466">
        <ele>528.30749511719</ele>
        <time>2014-01-11T11:11:41Z</time>
      </trkpt>
      <trkpt lat="43.89342" lon="7.41473">
        <ele>525.28948974609</ele>
        <time>2014-01-11T11:11:46Z</time>
      </trkpt>
      <trkpt lat="43.89352" lon="7.41481">
        <ele>522.00201416016</ele>
        <time>2014-01-11T11:11:51Z</time>
      </trkpt>
      <trkpt lat="43.89357" lon="7.41484">
        <ele>520.46490478516</ele>
        <time>2014-01-11T11:11:53Z</time>
      </trkpt>
      <trkpt lat="43.89364" lon="7.41502">
        <ele>512.37475585938</ele>
        <time>2014-01-11T11:12:00Z</time>
      </trkpt>
      <trkpt lat="43.89363" lon="7.41507">
        <ele>510.25244140625</ele>
        <time>2014-01-11T11:12:02Z</time>
      </trkpt>
      <trkpt lat="43.89362" lon="7.41509">
        <ele>509.01861572266</ele>
        <time>2014-01-11T11:12:07Z</time>
      </trkpt>
      <trkpt lat="43.89362" lon="7.41512">
        <ele>508.02407836914</ele>
        <time>2014-01-11T11:12:17Z</time>
      </trkpt>
      <trkpt lat="43.89365" lon="7.41514">
        <ele>506.09948730469</ele>
        <time>2014-01-11T11:12:21Z</time>
      </trkpt>
      <trkpt lat="43.89368" lon="7.41513">
        <ele>506.04437255859</ele>
        <time>2014-01-11T11:12:23Z</time>
      </trkpt>
      <trkpt lat="43.89373" lon="7.4152">
        <ele>502.31259155273</ele>
        <time>2014-01-11T11:12:27Z</time>
      </trkpt>
      <trkpt lat="43.89375" lon="7.41525">
        <ele>499.66009521484</ele>
        <time>2014-01-11T11:12:29Z</time>
      </trkpt>
      <trkpt lat="43.89378" lon="7.41545">
        <ele>495.14556884766</ele>
        <time>2014-01-11T11:12:35Z</time>
      </trkpt>
      <trkpt lat="43.8938" lon="7.41553">
        <ele>493.45300292969</ele>
        <time>2014-01-11T11:12:37Z</time>
      </trkpt>
      <trkpt lat="43.89378" lon="7.41566">
        <ele>490.96591186523</ele>
        <time>2014-01-11T11:12:40Z</time>
      </trkpt>
      <trkpt lat="43.89378" lon="7.41584">
        <ele>487.07263183594</ele>
        <time>2014-01-11T11:12:44Z</time>
      </trkpt>
      <trkpt lat="43.89376" lon="7.41623">
        <ele>478.19848632812</ele>
        <time>2014-01-11T11:12:50Z</time>
      </trkpt>
      <trkpt lat="43.89375" lon="7.41635">
        <ele>474.99450683594</ele>
        <time>2014-01-11T11:12:52Z</time>
      </trkpt>
      <trkpt lat="43.89371" lon="7.41658">
        <ele>470.10321044922</ele>
        <time>2014-01-11T11:12:56Z</time>
      </trkpt>
      <trkpt lat="43.89368" lon="7.41681">
        <ele>465.26330566406</ele>
        <time>2014-01-11T11:13:00Z</time>
      </trkpt>
      <trkpt lat="43.89367" lon="7.41701">
        <ele>460.71051025391</ele>
        <time>2014-01-11T11:13:05Z</time>
      </trkpt>
      <trkpt lat="43.89359" lon="7.41717">
        <ele>456.9560546875</ele>
        <time>2014-01-11T11:13:11Z</time>
      </trkpt>
      <trkpt lat="43.89357" lon="7.41723">
        <ele>455.28649902344</ele>
        <time>2014-01-11T11:13:13Z</time>
      </trkpt>
      <trkpt lat="43.8935" lon="7.41735">
        <ele>451.00183105469</ele>
        <time>2014-01-11T11:13:19Z</time>
      </trkpt>
      <trkpt lat="43.89345" lon="7.41755">
        <ele>445.22729492188</ele>
        <time>2014-01-11T11:13:24Z</time>
      </trkpt>
      <trkpt lat="43.89346" lon="7.41773">
        <ele>441.25158691406</ele>
        <time>2014-01-11T11:13:29Z</time>
      </trkpt>
      <trkpt lat="43.89345" lon="7.41773">
        <ele>441.37518310547</ele>
        <time>2014-01-11T11:13:37Z</time>
      </trkpt>
      <trkpt lat="43.89345" lon="7.41772">
        <ele>441.48849487305</ele>
        <time>2014-01-11T11:13:44Z</time>
      </trkpt>
      <trkpt lat="43.89345" lon="7.41772">
        <ele>441.42669677734</ele>
        <time>2014-01-11T11:13:50Z</time>
      </trkpt>
      <trkpt lat="43.89346" lon="7.41778">
        <ele>440.333984375</ele>
        <time>2014-01-11T11:13:59Z</time>
      </trkpt>
      <trkpt lat="43.89352" lon="7.41794">
        <ele>438.93585205078</ele>
        <time>2014-01-11T11:14:04Z</time>
      </trkpt>
      <trkpt lat="43.89357" lon="7.41806">
        <ele>437.71051025391</ele>
        <time>2014-01-11T11:14:07Z</time>
      </trkpt>
      <trkpt lat="43.89352" lon="7.41824">
        <ele>434.84423828125</ele>
        <time>2014-01-11T11:14:11Z</time>
      </trkpt>
      <trkpt lat="43.8935" lon="7.4183">
        <ele>434.08145141602</ele>
        <time>2014-01-11T11:14:12Z</time>
      </trkpt>
      <trkpt lat="43.89347" lon="7.41834">
        <ele>433.36145019531</ele>
        <time>2014-01-11T11:14:13Z</time>
      </trkpt>
      <trkpt lat="43.89341" lon="7.41854">
        <ele>430.88900756836</ele>
        <time>2014-01-11T11:14:17Z</time>
      </trkpt>
      <trkpt lat="43.89334" lon="7.41876">
        <ele>428.34756469727</ele>
        <time>2014-01-11T11:14:21Z</time>
      </trkpt>
      <trkpt lat="43.89332" lon="7.41888">
        <ele>426.67706298828</ele>
        <time>2014-01-11T11:14:23Z</time>
      </trkpt>
      <trkpt lat="43.8933" lon="7.41919">
        <ele>422.75863647461</ele>
        <time>2014-01-11T11:14:28Z</time>
      </trkpt>
      <trkpt lat="43.89323" lon="7.4194">
        <ele>417.00140380859</ele>
        <time>2014-01-11T11:14:33Z</time>
      </trkpt>
      <trkpt lat="43.8932" lon="7.41947">
        <ele>414.46206665039</ele>
        <time>2014-01-11T11:14:35Z</time>
      </trkpt>
      <trkpt lat="43.89325" lon="7.41958">
        <ele>413.36743164062</ele>
        <time>2014-01-11T11:14:39Z</time>
      </trkpt>
      <trkpt lat="43.89334" lon="7.4196">
        <ele>415.87817382812</ele>
        <time>2014-01-11T11:14:43Z</time>
      </trkpt>
      <trkpt lat="43.89331" lon="7.41965">
        <ele>413.32620239258</ele>
        <time>2014-01-11T11:14:46Z</time>
      </trkpt>
      <trkpt lat="43.89325" lon="7.41975">
        <ele>408.60159301758</ele>
        <time>2014-01-11T11:14:50Z</time>
      </trkpt>
      <trkpt lat="43.89324" lon="7.41974">
        <ele>408.58212280273</ele>
        <time>2014-01-11T11:14:56Z</time>
      </trkpt>
      <trkpt lat="43.89325" lon="7.41974">
        <ele>409.03952026367</ele>
        <time>2014-01-11T11:15:10Z</time>
      </trkpt>
      <trkpt lat="43.89325" lon="7.41973">
        <ele>409.06463623047</ele>
        <time>2014-01-11T11:15:23Z</time>
      </trkpt>
      <trkpt lat="43.89325" lon="7.41972">
        <ele>409.31677246094</ele>
        <time>2014-01-11T11:15:32Z</time>
      </trkpt>
      <trkpt lat="43.89325" lon="7.41972">
        <ele>409.38558959961</ele>
        <time>2014-01-11T11:15:40Z</time>
      </trkpt>
      <trkpt lat="43.89324" lon="7.41969">
        <ele>409.77951049805</ele>
        <time>2014-01-11T11:15:53Z</time>
      </trkpt>
      <trkpt lat="43.8932" lon="7.41962">
        <ele>410.20327758789</ele>
        <time>2014-01-11T11:15:57Z</time>
      </trkpt>
      <trkpt lat="43.89311" lon="7.41941">
        <ele>411.85708618164</ele>
        <time>2014-01-11T11:16:03Z</time>
      </trkpt>
      <trkpt lat="43.89312" lon="7.41914">
        <ele>417.5041809082</ele>
        <time>2014-01-11T11:16:07Z</time>
      </trkpt>
      <trkpt lat="43.89316" lon="7.41868">
        <ele>424.32357788086</ele>
        <time>2014-01-11T11:16:13Z</time>
      </trkpt>
      <trkpt lat="43.89313" lon="7.41823">
        <ele>429.19607543945</ele>
        <time>2014-01-11T11:16:18Z</time>
      </trkpt>
      <trkpt lat="43.89311" lon="7.41813">
        <ele>430.14169311523</ele>
        <time>2014-01-11T11:16:19Z</time>
      </trkpt>
      <trkpt lat="43.89297" lon="7.41782">
        <ele>429.51214599609</ele>
        <time>2014-01-11T11:16:23Z</time>
      </trkpt>
      <trkpt lat="43.89277" lon="7.41781">
        <ele>422.1572265625</ele>
        <time>2014-01-11T11:16:26Z</time>
      </trkpt>
      <trkpt lat="43.89265" lon="7.41791">
        <ele>414.65927124023</ele>
        <time>2014-01-11T11:16:28Z</time>
      </trkpt>
      <trkpt lat="43.8923" lon="7.41839">
        <ele>400</ele>
        <time>2014-01-11T11:16:35Z</time>
      </trkpt>
      <trkpt lat="43.89224" lon="7.4185">
        <ele>400</ele>
        <time>2014-01-11T11:16:38Z</time>
      </trkpt>
      <trkpt lat="43.89223" lon="7.41852">
        <ele>400</ele>
        <time>2014-01-11T11:16:39Z</time>
      </trkpt>
      <trkpt lat="43.89213" lon="7.41875">
        <ele>401.46228027344</ele>
        <time>2014-01-11T11:16:45Z</time>
      </trkpt>
      <trkpt lat="43.89202" lon="7.41908">
        <ele>404.71118164062</ele>
        <time>2014-01-11T11:16:52Z</time>
      </trkpt>
      <trkpt lat="43.89202" lon="7.41935">
        <ele>405.45132446289</ele>
        <time>2014-01-11T11:16:57Z</time>
      </trkpt>
      <trkpt lat="43.89205" lon="7.41977">
        <ele>406.39227294922</ele>
        <time>2014-01-11T11:17:05Z</time>
      </trkpt>
      <trkpt lat="43.89209" lon="7.42009">
        <ele>405.89764404297</ele>
        <time>2014-01-11T11:17:11Z</time>
      </trkpt>
      <trkpt lat="43.89211" lon="7.42035">
        <ele>405.72998046875</ele>
        <time>2014-01-11T11:17:16Z</time>
      </trkpt>
      <trkpt lat="43.89212" lon="7.42056">
        <ele>405.40374755859</ele>
        <time>2014-01-11T11:17:20Z</time>
      </trkpt>
      <trkpt lat="43.89212" lon="7.42085">
        <ele>405.72698974609</ele>
        <time>2014-01-11T11:17:26Z</time>
      </trkpt>
      <trkpt lat="43.89207" lon="7.42116">
        <ele>405.2463684082</ele>
        <time>2014-01-11T11:17:32Z</time>
      </trkpt>
      <trkpt lat="43.89194" lon="7.4215">
        <ele>406.98519897461</ele>
        <time>2014-01-11T11:17:39Z</time>
      </trkpt>
      <trkpt lat="43.8918" lon="7.42176">
        <ele>409.37371826172</ele>
        <time>2014-01-11T11:17:45Z</time>
      </trkpt>
      <trkpt lat="43.89161" lon="7.42209">
        <ele>410.09243774414</ele>
        <time>2014-01-11T11:17:52Z</time>
      </trkpt>
      <trkpt lat="43.89158" lon="7.42213">
        <ele>410.41302490234</ele>
        <time>2014-01-11T11:17:53Z</time>
      </trkpt>
      <trkpt lat="43.89133" lon="7.42243">
        <ele>413.13784790039</ele>
        <time>2014-01-11T11:18:01Z</time>
      </trkpt>
      <trkpt lat="43.89109" lon="7.42268">
        <ele>415.48397827148</ele>
        <time>2014-01-11T11:18:09Z</time>
      </trkpt>
      <trkpt lat="43.89092" lon="7.42286">
        <ele>416.21051025391</ele>
        <time>2014-01-11T11:18:15Z</time>
      </trkpt>
      <trkpt lat="43.89066" lon="7.42315">
        <ele>414.74163818359</ele>
        <time>2014-01-11T11:18:24Z</time>
      </trkpt>
      <trkpt lat="43.89045" lon="7.42331">
        <ele>411.27041625977</ele>
        <time>2014-01-11T11:18:31Z</time>
      </trkpt>
      <trkpt lat="43.89031" lon="7.42325">
        <ele>411.14682006836</ele>
        <time>2014-01-11T11:18:35Z</time>
      </trkpt>
      <trkpt lat="43.89004" lon="7.42303">
        <ele>409.48669433594</ele>
        <time>2014-01-11T11:18:43Z</time>
      </trkpt>
      <trkpt lat="43.88987" lon="7.42288">
        <ele>410.03961181641</ele>
        <time>2014-01-11T11:18:48Z</time>
      </trkpt>
      <trkpt lat="43.88969" lon="7.42284">
        <ele>409.76504516602</ele>
        <time>2014-01-11T11:18:53Z</time>
      </trkpt>
      <trkpt lat="43.88953" lon="7.423">
        <ele>410.26470947266</ele>
        <time>2014-01-11T11:18:58Z</time>
      </trkpt>
      <trkpt lat="43.88946" lon="7.42324">
        <ele>408.72668457031</ele>
        <time>2014-01-11T11:19:03Z</time>
      </trkpt>
      <trkpt lat="43.88948" lon="7.42352">
        <ele>406.36978149414</ele>
        <time>2014-01-11T11:19:09Z</time>
      </trkpt>
      <trkpt lat="43.88951" lon="7.42384">
        <ele>405.22393798828</ele>
        <time>2014-01-11T11:19:16Z</time>
      </trkpt>
      <trkpt lat="43.88943" lon="7.42401">
        <ele>407.2080078125</ele>
        <time>2014-01-11T11:19:21Z</time>
      </trkpt>
      <trkpt lat="43.88924" lon="7.42421">
        <ele>411.2077331543</ele>
        <time>2014-01-11T11:19:29Z</time>
      </trkpt>
      <trkpt lat="43.8891" lon="7.42436">
        <ele>413.29870605469</ele>
        <time>2014-01-11T11:19:35Z</time>
      </trkpt>
      <trkpt lat="43.88891" lon="7.4246">
        <ele>415.17080688477</ele>
        <time>2014-01-11T11:19:44Z</time>
      </trkpt>
      <trkpt lat="43.88876" lon="7.4248">
        <ele>415.84362792969</ele>
        <time>2014-01-11T11:19:51Z</time>
      </trkpt>
      <trkpt lat="43.8886" lon="7.42507">
        <ele>415.80902099609</ele>
        <time>2014-01-11T11:19:59Z</time>
      </trkpt>
      <trkpt lat="43.88846" lon="7.42536">
        <ele>415.38629150391</ele>
        <time>2014-01-11T11:20:06Z</time>
      </trkpt>
      <trkpt lat="43.88825" lon="7.42577">
        <ele>414.03427124023</ele>
        <time>2014-01-11T11:20:15Z</time>
      </trkpt>
      <trkpt lat="43.8881" lon="7.42606">
        <ele>413.71539306641</ele>
        <time>2014-01-11T11:20:22Z</time>
      </trkpt>
      <trkpt lat="43.88798" lon="7.4263">
        <ele>413.19750976562</ele>
        <time>2014-01-11T11:20:29Z</time>
      </trkpt>
      <trkpt lat="43.88786" lon="7.42652">
        <ele>412.47994995117</ele>
        <time>2014-01-11T11:20:35Z</time>
      </trkpt>
      <trkpt lat="43.88769" lon="7.4268">
        <ele>411.49237060547</ele>
        <time>2014-01-11T11:20:42Z</time>
      </trkpt>
      <trkpt lat="43.88752" lon="7.42719">
        <ele>410.09042358398</ele>
        <time>2014-01-11T11:20:50Z</time>
      </trkpt>
      <trkpt lat="43.88731" lon="7.4277">
        <ele>407.98928833008</ele>
        <time>2014-01-11T11:21:00Z</time>
      </trkpt>
      <trkpt lat="43.88725" lon="7.4278">
        <ele>407.69979858398</ele>
        <time>2014-01-11T11:21:02Z</time>
      </trkpt>
      <trkpt lat="43.88705" lon="7.428">
        <ele>407.92755126953</ele>
        <time>2014-01-11T11:21:08Z</time>
      </trkpt>
      <trkpt lat="43.88677" lon="7.42822">
        <ele>408.29638671875</ele>
        <time>2014-01-11T11:21:16Z</time>
      </trkpt>
      <trkpt lat="43.8866" lon="7.42834">
        <ele>408.23669433594</ele>
        <time>2014-01-11T11:21:21Z</time>
      </trkpt>
      <trkpt lat="43.88626" lon="7.42851">
        <ele>408.3616027832</ele>
        <time>2014-01-11T11:21:29Z</time>
      </trkpt>
      <trkpt lat="43.88579" lon="7.42873">
        <ele>407.19805908203</ele>
        <time>2014-01-11T11:21:40Z</time>
      </trkpt>
      <trkpt lat="43.88553" lon="7.42894">
        <ele>406.60241699219</ele>
        <time>2014-01-11T11:21:47Z</time>
      </trkpt>
      <trkpt lat="43.8853" lon="7.4292">
        <ele>404.8879699707</ele>
        <time>2014-01-11T11:21:53Z</time>
      </trkpt>
      <trkpt lat="43.88526" lon="7.42925">
        <ele>404.74182128906</ele>
        <time>2014-01-11T11:21:54Z</time>
      </trkpt>
      <trkpt lat="43.88502" lon="7.42947">
        <ele>403.82928466797</ele>
        <time>2014-01-11T11:21:59Z</time>
      </trkpt>
      <trkpt lat="43.88477" lon="7.42947">
        <ele>403.89208984375</ele>
        <time>2014-01-11T11:22:03Z</time>
      </trkpt>
      <trkpt lat="43.88471" lon="7.42944">
        <ele>404.03869628906</ele>
        <time>2014-01-11T11:22:04Z</time>
      </trkpt>
      <trkpt lat="43.88445" lon="7.42919">
        <ele>405.83428955078</ele>
        <time>2014-01-11T11:22:09Z</time>
      </trkpt>
      <trkpt lat="43.88422" lon="7.42914">
        <ele>406.97143554688</ele>
        <time>2014-01-11T11:22:13Z</time>
      </trkpt>
      <trkpt lat="43.88408" lon="7.42928">
        <ele>406.49078369141</ele>
        <time>2014-01-11T11:22:16Z</time>
      </trkpt>
      <trkpt lat="43.88376" lon="7.42971">
        <ele>404.52011108398</ele>
        <time>2014-01-11T11:22:24Z</time>
      </trkpt>
      <trkpt lat="43.88363" lon="7.42983">
        <ele>404.16650390625</ele>
        <time>2014-01-11T11:22:27Z</time>
      </trkpt>
      <trkpt lat="43.88351" lon="7.42984">
        <ele>404.16510009766</ele>
        <time>2014-01-11T11:22:30Z</time>
      </trkpt>
      <trkpt lat="43.88351" lon="7.42973">
        <ele>404.94445800781</ele>
        <time>2014-01-11T11:22:33Z</time>
      </trkpt>
      <trkpt lat="43.88352" lon="7.4297">
        <ele>405.22235107422</ele>
        <time>2014-01-11T11:22:34Z</time>
      </trkpt>
      <trkpt lat="43.88355" lon="7.42943">
        <ele>407.34222412109</ele>
        <time>2014-01-11T11:22:42Z</time>
      </trkpt>
      <trkpt lat="43.88357" lon="7.42924">
        <ele>408.60223388672</ele>
        <time>2014-01-11T11:22:48Z</time>
      </trkpt>
      <trkpt lat="43.88359" lon="7.42913">
        <ele>409.30603027344</ele>
        <time>2014-01-11T11:22:53Z</time>
      </trkpt>
      <trkpt lat="43.88362" lon="7.42904">
        <ele>409.90686035156</ele>
        <time>2014-01-11T11:22:57Z</time>
      </trkpt>
      <trkpt lat="43.8836" lon="7.42883">
        <ele>411.45855712891</ele>
        <time>2014-01-11T11:23:05Z</time>
      </trkpt>
      <trkpt lat="43.88354" lon="7.4286">
        <ele>413.58865356445</ele>
        <time>2014-01-11T11:23:13Z</time>
      </trkpt>
      <trkpt lat="43.88345" lon="7.4284">
        <ele>415.64859008789</ele>
        <time>2014-01-11T11:23:20Z</time>
      </trkpt>
      <trkpt lat="43.88338" lon="7.42827">
        <ele>417.31216430664</ele>
        <time>2014-01-11T11:23:25Z</time>
      </trkpt>
      <trkpt lat="43.88329" lon="7.42807">
        <ele>420.01467895508</ele>
        <time>2014-01-11T11:23:33Z</time>
      </trkpt>
      <trkpt lat="43.88317" lon="7.42798">
        <ele>421.0234375</ele>
        <time>2014-01-11T11:23:39Z</time>
      </trkpt>
      <trkpt lat="43.8831" lon="7.42793">
        <ele>421.69879150391</ele>
        <time>2014-01-11T11:23:43Z</time>
      </trkpt>
      <trkpt lat="43.88308" lon="7.42778">
        <ele>422.84118652344</ele>
        <time>2014-01-11T11:23:49Z</time>
      </trkpt>
      <trkpt lat="43.88314" lon="7.42761">
        <ele>423.62396240234</ele>
        <time>2014-01-11T11:23:56Z</time>
      </trkpt>
      <trkpt lat="43.88324" lon="7.42744">
        <ele>424.08486938477</ele>
        <time>2014-01-11T11:24:05Z</time>
      </trkpt>
      <trkpt lat="43.88333" lon="7.42736">
        <ele>424.0185546875</ele>
        <time>2014-01-11T11:24:12Z</time>
      </trkpt>
      <trkpt lat="43.88343" lon="7.42743">
        <ele>423.09072875977</ele>
        <time>2014-01-11T11:24:19Z</time>
      </trkpt>
      <trkpt lat="43.88345" lon="7.42744">
        <ele>422.96636962891</ele>
        <time>2014-01-11T11:24:20Z</time>
      </trkpt>
      <trkpt lat="43.88354" lon="7.42748">
        <ele>422.36267089844</ele>
        <time>2014-01-11T11:24:27Z</time>
      </trkpt>
      <trkpt lat="43.88363" lon="7.42739">
        <ele>422.30084228516</ele>
        <time>2014-01-11T11:24:34Z</time>
      </trkpt>
      <trkpt lat="43.88372" lon="7.42727">
        <ele>422.36911010742</ele>
        <time>2014-01-11T11:24:42Z</time>
      </trkpt>
      <trkpt lat="43.88381" lon="7.4271">
        <ele>423.14193725586</ele>
        <time>2014-01-11T11:24:52Z</time>
      </trkpt>
      <trkpt lat="43.88386" lon="7.42702">
        <ele>423.57452392578</ele>
        <time>2014-01-11T11:24:57Z</time>
      </trkpt>
      <trkpt lat="43.88389" lon="7.42689">
        <ele>424.34698486328</ele>
        <time>2014-01-11T11:25:04Z</time>
      </trkpt>
      <trkpt lat="43.8839" lon="7.42681">
        <ele>424.90319824219</ele>
        <time>2014-01-11T11:25:10Z</time>
      </trkpt>
      <trkpt lat="43.88391" lon="7.42682">
        <ele>424.85168457031</ele>
        <time>2014-01-11T11:25:19Z</time>
      </trkpt>
      <trkpt lat="43.88391" lon="7.42681">
        <ele>424.86883544922</ele>
        <time>2014-01-11T11:25:25Z</time>
      </trkpt>
      <trkpt lat="43.88391" lon="7.4268">
        <ele>424.94439697266</ele>
        <time>2014-01-11T11:25:29Z</time>
      </trkpt>
      <trkpt lat="43.88391" lon="7.4268">
        <ele>424.94781494141</ele>
        <time>2014-01-11T11:25:30Z</time>
      </trkpt>
      <trkpt lat="43.88391" lon="7.4268">
        <ele>424.95812988281</ele>
        <time>2014-01-11T11:25:35Z</time>
      </trkpt>
      <trkpt lat="43.88391" lon="7.4268">
        <ele>424.96496582031</ele>
        <time>2014-01-11T11:25:41Z</time>
      </trkpt>
      <trkpt lat="43.88391" lon="7.4268">
        <ele>424.97869873047</ele>
        <time>2014-01-11T11:25:43Z</time>
      </trkpt>
      <trkpt lat="43.88393" lon="7.42679">
        <ele>424.99588012695</ele>
        <time>2014-01-11T11:25:46Z</time>
      </trkpt>
      <trkpt lat="43.88393" lon="7.42679">
        <ele>424.99588012695</ele>
        <time>2014-01-11T11:25:47Z</time>
      </trkpt>
      <trkpt lat="43.88393" lon="7.42678">
        <ele>425.05081176758</ele>
        <time>2014-01-11T11:25:54Z</time>
      </trkpt>
      <trkpt lat="43.88393" lon="7.42677">
        <ele>425.08514404297</ele>
        <time>2014-01-11T11:25:57Z</time>
      </trkpt>
      <trkpt lat="43.88394" lon="7.42676">
        <ele>425.12292480469</ele>
        <time>2014-01-11T11:26:03Z</time>
      </trkpt>
      <trkpt lat="43.88394" lon="7.42677">
        <ele>425.09887695312</ele>
        <time>2014-01-11T11:26:09Z</time>
      </trkpt>
      <trkpt lat="43.88395" lon="7.42677">
        <ele>425.05426025391</ele>
        <time>2014-01-11T11:26:16Z</time>
      </trkpt>
      <trkpt lat="43.88394" lon="7.42676">
        <ele>425.12976074219</ele>
        <time>2014-01-11T11:26:24Z</time>
      </trkpt>
      <trkpt lat="43.88393" lon="7.42676">
        <ele>425.14349365234</ele>
        <time>2014-01-11T11:26:28Z</time>
      </trkpt>
      <trkpt lat="43.88393" lon="7.42678">
        <ele>425.06454467773</ele>
        <time>2014-01-11T11:26:34Z</time>
      </trkpt>
      <trkpt lat="43.88391" lon="7.42677">
        <ele>425.17095947266</ele>
        <time>2014-01-11T11:26:38Z</time>
      </trkpt>
      <trkpt lat="43.88391" lon="7.42679">
        <ele>425.07827758789</ele>
        <time>2014-01-11T11:26:42Z</time>
      </trkpt>
      <trkpt lat="43.8839" lon="7.42677">
        <ele>425.23620605469</ele>
        <time>2014-01-11T11:26:49Z</time>
      </trkpt>
      <trkpt lat="43.88391" lon="7.42664">
        <ele>426.13226318359</ele>
        <time>2014-01-11T11:26:55Z</time>
      </trkpt>
      <trkpt lat="43.88395" lon="7.42649">
        <ele>427.06268310547</ele>
        <time>2014-01-11T11:27:02Z</time>
      </trkpt>
      <trkpt lat="43.88397" lon="7.42638">
        <ele>427.74365234375</ele>
        <time>2014-01-11T11:27:07Z</time>
      </trkpt>
      <trkpt lat="43.88398" lon="7.42627">
        <ele>428.09555053711</ele>
        <time>2014-01-11T11:27:12Z</time>
      </trkpt>
      <trkpt lat="43.884" lon="7.42623">
        <ele>428.1916809082</ele>
        <time>2014-01-11T11:27:14Z</time>
      </trkpt>
      <trkpt lat="43.88401" lon="7.42611">
        <ele>428.58953857422</ele>
        <time>2014-01-11T11:27:19Z</time>
      </trkpt>
      <trkpt lat="43.88403" lon="7.42594">
        <ele>429.70877075195</ele>
        <time>2014-01-11T11:27:26Z</time>
      </trkpt>
      <trkpt lat="43.88405" lon="7.42569">
        <ele>431.44940185547</ele>
        <time>2014-01-11T11:27:36Z</time>
      </trkpt>
      <trkpt lat="43.88406" lon="7.42544">
        <ele>433.17291259766</ele>
        <time>2014-01-11T11:27:46Z</time>
      </trkpt>
      <trkpt lat="43.88407" lon="7.42524">
        <ele>434.58010864258</ele>
        <time>2014-01-11T11:27:54Z</time>
      </trkpt>
      <trkpt lat="43.88407" lon="7.42501">
        <ele>435.95904541016</ele>
        <time>2014-01-11T11:28:03Z</time>
      </trkpt>
      <trkpt lat="43.88408" lon="7.42474">
        <ele>437.25424194336</ele>
        <time>2014-01-11T11:28:13Z</time>
      </trkpt>
      <trkpt lat="43.88409" lon="7.42454">
        <ele>438.60333251953</ele>
        <time>2014-01-11T11:28:20Z</time>
      </trkpt>
      <trkpt lat="43.88411" lon="7.42433">
        <ele>440.04870605469</ele>
        <time>2014-01-11T11:28:27Z</time>
      </trkpt>
      <trkpt lat="43.88407" lon="7.42407">
        <ele>442.05715942383</ele>
        <time>2014-01-11T11:28:36Z</time>
      </trkpt>
      <trkpt lat="43.88404" lon="7.42391">
        <ele>443.27938842773</ele>
        <time>2014-01-11T11:28:42Z</time>
      </trkpt>
      <trkpt lat="43.88398" lon="7.42372">
        <ele>445.33480834961</ele>
        <time>2014-01-11T11:28:50Z</time>
      </trkpt>
      <trkpt lat="43.88394" lon="7.42358">
        <ele>446.86383056641</ele>
        <time>2014-01-11T11:28:56Z</time>
      </trkpt>
      <trkpt lat="43.88392" lon="7.42353">
        <ele>447.43209838867</ele>
        <time>2014-01-11T11:28:59Z</time>
      </trkpt>
      <trkpt lat="43.8839" lon="7.4234">
        <ele>448.44473266602</ele>
        <time>2014-01-11T11:29:04Z</time>
      </trkpt>
      <trkpt lat="43.88392" lon="7.42322">
        <ele>450.10568237305</ele>
        <time>2014-01-11T11:29:11Z</time>
      </trkpt>
      <trkpt lat="43.88399" lon="7.4231">
        <ele>450.89459228516</ele>
        <time>2014-01-11T11:29:17Z</time>
      </trkpt>
      <trkpt lat="43.88411" lon="7.42293">
        <ele>451.31732177734</ele>
        <time>2014-01-11T11:29:25Z</time>
      </trkpt>
      <trkpt lat="43.88425" lon="7.42276">
        <ele>451.8359375</ele>
        <time>2014-01-11T11:29:31Z</time>
      </trkpt>
      <trkpt lat="43.88438" lon="7.42261">
        <ele>452.42987060547</ele>
        <time>2014-01-11T11:29:37Z</time>
      </trkpt>
      <trkpt lat="43.88454" lon="7.42245">
        <ele>453.02380371094</ele>
        <time>2014-01-11T11:29:44Z</time>
      </trkpt>
      <trkpt lat="43.88468" lon="7.42229">
        <ele>453.68988037109</ele>
        <time>2014-01-11T11:29:52Z</time>
      </trkpt>
      <trkpt lat="43.88479" lon="7.42211">
        <ele>454.54473876953</ele>
        <time>2014-01-11T11:30:00Z</time>
      </trkpt>
      <trkpt lat="43.88491" lon="7.42194">
        <ele>455.37557983398</ele>
        <time>2014-01-11T11:30:09Z</time>
      </trkpt>
      <trkpt lat="43.88503" lon="7.42177">
        <ele>456.12744140625</ele>
        <time>2014-01-11T11:30:18Z</time>
      </trkpt>
      <trkpt lat="43.88513" lon="7.42167">
        <ele>456.49822998047</ele>
        <time>2014-01-11T11:30:25Z</time>
      </trkpt>
      <trkpt lat="43.88521" lon="7.42153">
        <ele>457.13684082031</ele>
        <time>2014-01-11T11:30:32Z</time>
      </trkpt>
      <trkpt lat="43.88528" lon="7.42124">
        <ele>458.52981567383</ele>
        <time>2014-01-11T11:30:42Z</time>
      </trkpt>
      <trkpt lat="43.88533" lon="7.421">
        <ele>459.65588378906</ele>
        <time>2014-01-11T11:30:50Z</time>
      </trkpt>
      <trkpt lat="43.88539" lon="7.4207">
        <ele>461.82147216797</ele>
        <time>2014-01-11T11:30:59Z</time>
      </trkpt>
      <trkpt lat="43.88542" lon="7.42057">
        <ele>462.87057495117</ele>
        <time>2014-01-11T11:31:03Z</time>
      </trkpt>
      <trkpt lat="43.88548" lon="7.42026">
        <ele>465.38000488281</ele>
        <time>2014-01-11T11:31:12Z</time>
      </trkpt>
      <trkpt lat="43.88554" lon="7.41995">
        <ele>467.42730712891</ele>
        <time>2014-01-11T11:31:22Z</time>
      </trkpt>
      <trkpt lat="43.88562" lon="7.41979">
        <ele>468.30169677734</ele>
        <time>2014-01-11T11:31:28Z</time>
      </trkpt>
      <trkpt lat="43.88578" lon="7.41965">
        <ele>468.93389892578</ele>
        <time>2014-01-11T11:31:36Z</time>
      </trkpt>
      <trkpt lat="43.88593" lon="7.41953">
        <ele>469.76647949219</ele>
        <time>2014-01-11T11:31:44Z</time>
      </trkpt>
      <trkpt lat="43.88598" lon="7.41936">
        <ele>471.23709106445</ele>
        <time>2014-01-11T11:31:51Z</time>
      </trkpt>
      <trkpt lat="43.88604" lon="7.4192">
        <ele>472.69964599609</ele>
        <time>2014-01-11T11:31:58Z</time>
      </trkpt>
      <trkpt lat="43.88616" lon="7.41911">
        <ele>472.33389282227</ele>
        <time>2014-01-11T11:32:05Z</time>
      </trkpt>
      <trkpt lat="43.88633" lon="7.41908">
        <ele>468.65902709961</ele>
        <time>2014-01-11T11:32:14Z</time>
      </trkpt>
      <trkpt lat="43.88639" lon="7.41901">
        <ele>467.50900268555</ele>
        <time>2014-01-11T11:32:18Z</time>
      </trkpt>
      <trkpt lat="43.8864" lon="7.41877">
        <ele>468.16516113281</ele>
        <time>2014-01-11T11:32:27Z</time>
      </trkpt>
      <trkpt lat="43.88632" lon="7.41864">
        <ele>470.88732910156</ele>
        <time>2014-01-11T11:32:33Z</time>
      </trkpt>
      <trkpt lat="43.8862" lon="7.41853">
        <ele>475.2158203125</ele>
        <time>2014-01-11T11:32:40Z</time>
      </trkpt>
      <trkpt lat="43.886" lon="7.41834">
        <ele>480.33380126953</ele>
        <time>2014-01-11T11:32:51Z</time>
      </trkpt>
      <trkpt lat="43.88581" lon="7.41816">
        <ele>483.14706420898</ele>
        <time>2014-01-11T11:33:01Z</time>
      </trkpt>
      <trkpt lat="43.88562" lon="7.41802">
        <ele>487.59246826172</ele>
        <time>2014-01-11T11:33:10Z</time>
      </trkpt>
      <trkpt lat="43.88544" lon="7.41794">
        <ele>490.86672973633</ele>
        <time>2014-01-11T11:33:18Z</time>
      </trkpt>
      <trkpt lat="43.88529" lon="7.41793">
        <ele>492.59020996094</ele>
        <time>2014-01-11T11:33:24Z</time>
      </trkpt>
      <trkpt lat="43.88506" lon="7.418">
        <ele>493.96603393555</ele>
        <time>2014-01-11T11:33:33Z</time>
      </trkpt>
      <trkpt lat="43.88486" lon="7.41821">
        <ele>493.76354980469</ele>
        <time>2014-01-11T11:33:41Z</time>
      </trkpt>
      <trkpt lat="43.8847" lon="7.41845">
        <ele>493.39416503906</ele>
        <time>2014-01-11T11:33:49Z</time>
      </trkpt>
      <trkpt lat="43.88453" lon="7.41872">
        <ele>495.89514160156</ele>
        <time>2014-01-11T11:33:58Z</time>
      </trkpt>
      <trkpt lat="43.88435" lon="7.41903">
        <ele>498.31750488281</ele>
        <time>2014-01-11T11:34:07Z</time>
      </trkpt>
      <trkpt lat="43.88423" lon="7.41933">
        <ele>497.12600708008</ele>
        <time>2014-01-11T11:34:15Z</time>
      </trkpt>
      <trkpt lat="43.88418" lon="7.41944">
        <ele>496.59945678711</ele>
        <time>2014-01-11T11:34:18Z</time>
      </trkpt>
      <trkpt lat="43.8841" lon="7.41942">
        <ele>498.91357421875</ele>
        <time>2014-01-11T11:34:22Z</time>
      </trkpt>
      <trkpt lat="43.88409" lon="7.41928">
        <ele>501.78472900391</ele>
        <time>2014-01-11T11:34:26Z</time>
      </trkpt>
      <trkpt lat="43.88412" lon="7.41922">
        <ele>502.2119140625</ele>
        <time>2014-01-11T11:34:28Z</time>
      </trkpt>
      <trkpt lat="43.8842" lon="7.41909">
        <ele>502.43841552734</ele>
        <time>2014-01-11T11:34:33Z</time>
      </trkpt>
      <trkpt lat="43.88432" lon="7.41884">
        <ele>502.63812255859</ele>
        <time>2014-01-11T11:34:42Z</time>
      </trkpt>
      <trkpt lat="43.8844" lon="7.41857">
        <ele>503.11541748047</ele>
        <time>2014-01-11T11:34:51Z</time>
      </trkpt>
      <trkpt lat="43.88447" lon="7.41825">
        <ele>506.52792358398</ele>
        <time>2014-01-11T11:35:03Z</time>
      </trkpt>
      <trkpt lat="43.88449" lon="7.41811">
        <ele>507.84423828125</ele>
        <time>2014-01-11T11:35:08Z</time>
      </trkpt>
      <trkpt lat="43.88453" lon="7.41793">
        <ele>508.85424804688</ele>
        <time>2014-01-11T11:35:15Z</time>
      </trkpt>
      <trkpt lat="43.88456" lon="7.41772">
        <ele>510.22970581055</ele>
        <time>2014-01-11T11:35:23Z</time>
      </trkpt>
      <trkpt lat="43.88458" lon="7.41757">
        <ele>512.20861816406</ele>
        <time>2014-01-11T11:35:29Z</time>
      </trkpt>
      <trkpt lat="43.88463" lon="7.4174">
        <ele>513.955078125</ele>
        <time>2014-01-11T11:35:36Z</time>
      </trkpt>
      <trkpt lat="43.8847" lon="7.41723">
        <ele>515.58227539062</ele>
        <time>2014-01-11T11:35:43Z</time>
      </trkpt>
      <trkpt lat="43.88476" lon="7.41709">
        <ele>517.17449951172</ele>
        <time>2014-01-11T11:35:49Z</time>
      </trkpt>
      <trkpt lat="43.88486" lon="7.4169">
        <ele>518.70599365234</ele>
        <time>2014-01-11T11:35:58Z</time>
      </trkpt>
      <trkpt lat="43.88491" lon="7.41682">
        <ele>518.74725341797</ele>
        <time>2014-01-11T11:36:03Z</time>
      </trkpt>
      <trkpt lat="43.88498" lon="7.41677">
        <ele>517.79974365234</ele>
        <time>2014-01-11T11:36:08Z</time>
      </trkpt>
      <trkpt lat="43.88508" lon="7.41674">
        <ele>516.60101318359</ele>
        <time>2014-01-11T11:36:14Z</time>
      </trkpt>
      <trkpt lat="43.88518" lon="7.41662">
        <ele>517.85272216797</ele>
        <time>2014-01-11T11:36:21Z</time>
      </trkpt>
      <trkpt lat="43.8852" lon="7.41653">
        <ele>519.53143310547</ele>
        <time>2014-01-11T11:36:24Z</time>
      </trkpt>
      <trkpt lat="43.88515" lon="7.41637">
        <ele>524.74346923828</ele>
        <time>2014-01-11T11:36:31Z</time>
      </trkpt>
      <trkpt lat="43.88514" lon="7.41636">
        <ele>525.25421142578</ele>
        <time>2014-01-11T11:36:32Z</time>
      </trkpt>
      <trkpt lat="43.88511" lon="7.41635">
        <ele>526.44219970703</ele>
        <time>2014-01-11T11:36:34Z</time>
      </trkpt>
      <trkpt lat="43.88494" lon="7.4164">
        <ele>529.0927734375</ele>
        <time>2014-01-11T11:36:41Z</time>
      </trkpt>
      <trkpt lat="43.88475" lon="7.4165">
        <ele>530.82379150391</ele>
        <time>2014-01-11T11:36:49Z</time>
      </trkpt>
      <trkpt lat="43.88461" lon="7.41661">
        <ele>532.39080810547</ele>
        <time>2014-01-11T11:36:56Z</time>
      </trkpt>
      <trkpt lat="43.88448" lon="7.41673">
        <ele>533.76068115234</ele>
        <time>2014-01-11T11:37:03Z</time>
      </trkpt>
      <trkpt lat="43.88432" lon="7.41698">
        <ele>533.56860351562</ele>
        <time>2014-01-11T11:37:13Z</time>
      </trkpt>
      <trkpt lat="43.8842" lon="7.41718">
        <ele>534.29321289062</ele>
        <time>2014-01-11T11:37:21Z</time>
      </trkpt>
      <trkpt lat="43.88411" lon="7.41737">
        <ele>535.42749023438</ele>
        <time>2014-01-11T11:37:29Z</time>
      </trkpt>
      <trkpt lat="43.88406" lon="7.41749">
        <ele>535.51214599609</ele>
        <time>2014-01-11T11:37:35Z</time>
      </trkpt>
      <trkpt lat="43.88399" lon="7.41762">
        <ele>536.40844726562</ele>
        <time>2014-01-11T11:37:42Z</time>
      </trkpt>
      <trkpt lat="43.88392" lon="7.41775">
        <ele>537.25305175781</ele>
        <time>2014-01-11T11:37:49Z</time>
      </trkpt>
      <trkpt lat="43.88389" lon="7.41786">
        <ele>536.45190429688</ele>
        <time>2014-01-11T11:37:54Z</time>
      </trkpt>
      <trkpt lat="43.88385" lon="7.418">
        <ele>535.4326171875</ele>
        <time>2014-01-11T11:38:00Z</time>
      </trkpt>
      <trkpt lat="43.88378" lon="7.41815">
        <ele>535.24371337891</ele>
        <time>2014-01-11T11:38:07Z</time>
      </trkpt>
      <trkpt lat="43.88366" lon="7.4183">
        <ele>536.29986572266</ele>
        <time>2014-01-11T11:38:15Z</time>
      </trkpt>
      <trkpt lat="43.88353" lon="7.41839">
        <ele>537.91760253906</ele>
        <time>2014-01-11T11:38:23Z</time>
      </trkpt>
      <trkpt lat="43.88343" lon="7.41835">
        <ele>542.21258544922</ele>
        <time>2014-01-11T11:38:29Z</time>
      </trkpt>
      <trkpt lat="43.8834" lon="7.41823">
        <ele>546.20001220703</ele>
        <time>2014-01-11T11:38:35Z</time>
      </trkpt>
      <trkpt lat="43.88344" lon="7.41816">
        <ele>546.90209960938</ele>
        <time>2014-01-11T11:38:39Z</time>
      </trkpt>
      <trkpt lat="43.88352" lon="7.41806">
        <ele>546.87805175781</ele>
        <time>2014-01-11T11:38:45Z</time>
      </trkpt>
      <trkpt lat="43.88363" lon="7.41792">
        <ele>545.92108154297</ele>
        <time>2014-01-11T11:38:53Z</time>
      </trkpt>
      <trkpt lat="43.88373" lon="7.41773">
        <ele>545.14440917969</ele>
        <time>2014-01-11T11:39:01Z</time>
      </trkpt>
      <trkpt lat="43.88377" lon="7.41757">
        <ele>545.98840332031</ele>
        <time>2014-01-11T11:39:07Z</time>
      </trkpt>
      <trkpt lat="43.88378" lon="7.41754">
        <ele>546.09649658203</ele>
        <time>2014-01-11T11:39:08Z</time>
      </trkpt>
      <trkpt lat="43.88379" lon="7.41741">
        <ele>548.42095947266</ele>
        <time>2014-01-11T11:39:13Z</time>
      </trkpt>
      <trkpt lat="43.88377" lon="7.41728">
        <ele>552.13763427734</ele>
        <time>2014-01-11T11:39:18Z</time>
      </trkpt>
      <trkpt lat="43.8838" lon="7.41711">
        <ele>554.80450439453</ele>
        <time>2014-01-11T11:39:25Z</time>
      </trkpt>
      <trkpt lat="43.88388" lon="7.41689">
        <ele>556.55120849609</ele>
        <time>2014-01-11T11:39:34Z</time>
      </trkpt>
      <trkpt lat="43.88392" lon="7.41675">
        <ele>556.77416992188</ele>
        <time>2014-01-11T11:39:40Z</time>
      </trkpt>
      <trkpt lat="43.88395" lon="7.4166">
        <ele>557.99432373047</ele>
        <time>2014-01-11T11:39:46Z</time>
      </trkpt>
      <trkpt lat="43.88402" lon="7.41643">
        <ele>558.56530761719</ele>
        <time>2014-01-11T11:39:54Z</time>
      </trkpt>
      <trkpt lat="43.88406" lon="7.41631">
        <ele>559.59619140625</ele>
        <time>2014-01-11T11:39:59Z</time>
      </trkpt>
      <trkpt lat="43.88411" lon="7.41618">
        <ele>561.43383789062</ele>
        <time>2014-01-11T11:40:05Z</time>
      </trkpt>
      <trkpt lat="43.88414" lon="7.4161">
        <ele>562.47277832031</ele>
        <time>2014-01-11T11:40:09Z</time>
      </trkpt>
      <trkpt lat="43.8842" lon="7.41593">
        <ele>563.23138427734</ele>
        <time>2014-01-11T11:40:17Z</time>
      </trkpt>
      <trkpt lat="43.8843" lon="7.41583">
        <ele>562.64739990234</ele>
        <time>2014-01-11T11:40:24Z</time>
      </trkpt>
      <trkpt lat="43.8844" lon="7.41576">
        <ele>561.07623291016</ele>
        <time>2014-01-11T11:40:31Z</time>
      </trkpt>
      <trkpt lat="43.88453" lon="7.41563">
        <ele>557.43933105469</ele>
        <time>2014-01-11T11:40:40Z</time>
      </trkpt>
      <trkpt lat="43.88467" lon="7.41549">
        <ele>551.84796142578</ele>
        <time>2014-01-11T11:40:48Z</time>
      </trkpt>
      <trkpt lat="43.8848" lon="7.41545">
        <ele>546.80883789062</ele>
        <time>2014-01-11T11:40:55Z</time>
      </trkpt>
      <trkpt lat="43.8849" lon="7.41536">
        <ele>544.48913574219</ele>
        <time>2014-01-11T11:41:01Z</time>
      </trkpt>
      <trkpt lat="43.88493" lon="7.4152">
        <ele>543.49353027344</ele>
        <time>2014-01-11T11:41:07Z</time>
      </trkpt>
      <trkpt lat="43.88491" lon="7.41503">
        <ele>544.05218505859</ele>
        <time>2014-01-11T11:41:13Z</time>
      </trkpt>
      <trkpt lat="43.88482" lon="7.41484">
        <ele>546.009765625</ele>
        <time>2014-01-11T11:41:21Z</time>
      </trkpt>
      <trkpt lat="43.88477" lon="7.41481">
        <ele>548.08514404297</ele>
        <time>2014-01-11T11:41:24Z</time>
      </trkpt>
      <trkpt lat="43.8847" lon="7.41483">
        <ele>552.95904541016</ele>
        <time>2014-01-11T11:41:29Z</time>
      </trkpt>
      <trkpt lat="43.88463" lon="7.41497">
        <ele>558.07092285156</ele>
        <time>2014-01-11T11:41:36Z</time>
      </trkpt>
      <trkpt lat="43.88456" lon="7.41513">
        <ele>561.59289550781</ele>
        <time>2014-01-11T11:41:44Z</time>
      </trkpt>
      <trkpt lat="43.88447" lon="7.41523">
        <ele>565.31219482422</ele>
        <time>2014-01-11T11:41:50Z</time>
      </trkpt>
      <trkpt lat="43.88432" lon="7.41537">
        <ele>569.04858398438</ele>
        <time>2014-01-11T11:41:58Z</time>
      </trkpt>
      <trkpt lat="43.88417" lon="7.41543">
        <ele>573.16900634766</ele>
        <time>2014-01-11T11:42:05Z</time>
      </trkpt>
      <trkpt lat="43.88406" lon="7.41552">
        <ele>576.44775390625</ele>
        <time>2014-01-11T11:42:11Z</time>
      </trkpt>
      <trkpt lat="43.88396" lon="7.41566">
        <ele>578.20043945312</ele>
        <time>2014-01-11T11:42:18Z</time>
      </trkpt>
      <trkpt lat="43.88386" lon="7.41584">
        <ele>579.00317382812</ele>
        <time>2014-01-11T11:42:25Z</time>
      </trkpt>
      <trkpt lat="43.88377" lon="7.41608">
        <ele>578.25988769531</ele>
        <time>2014-01-11T11:42:34Z</time>
      </trkpt>
      <trkpt lat="43.88371" lon="7.41625">
        <ele>577.10198974609</ele>
        <time>2014-01-11T11:42:41Z</time>
      </trkpt>
      <trkpt lat="43.88367" lon="7.41637">
        <ele>576.05212402344</ele>
        <time>2014-01-11T11:42:46Z</time>
      </trkpt>
      <trkpt lat="43.88359" lon="7.41663">
        <ele>573.47357177734</ele>
        <time>2014-01-11T11:42:55Z</time>
      </trkpt>
      <trkpt lat="43.8835" lon="7.41679">
        <ele>574.35607910156</ele>
        <time>2014-01-11T11:43:02Z</time>
      </trkpt>
      <trkpt lat="43.88338" lon="7.41699">
        <ele>576.02465820312</ele>
        <time>2014-01-11T11:43:10Z</time>
      </trkpt>
      <trkpt lat="43.88325" lon="7.4172">
        <ele>576.70739746094</ele>
        <time>2014-01-11T11:43:19Z</time>
      </trkpt>
      <trkpt lat="43.88317" lon="7.41722">
        <ele>579.494140625</ele>
        <time>2014-01-11T11:43:23Z</time>
      </trkpt>
      <trkpt lat="43.88312" lon="7.41715">
        <ele>582.92468261719</ele>
        <time>2014-01-11T11:43:27Z</time>
      </trkpt>
      <trkpt lat="43.88313" lon="7.417">
        <ele>585.32025146484</ele>
        <time>2014-01-11T11:43:34Z</time>
      </trkpt>
      <trkpt lat="43.88319" lon="7.41689">
        <ele>585.455078125</ele>
        <time>2014-01-11T11:43:40Z</time>
      </trkpt>
      <trkpt lat="43.88328" lon="7.41677">
        <ele>584.61895751953</ele>
        <time>2014-01-11T11:43:46Z</time>
      </trkpt>
      <trkpt lat="43.88339" lon="7.41663">
        <ele>583.04498291016</ele>
        <time>2014-01-11T11:43:53Z</time>
      </trkpt>
      <trkpt lat="43.88352" lon="7.41646">
        <ele>580.58123779297</ele>
        <time>2014-01-11T11:44:01Z</time>
      </trkpt>
      <trkpt lat="43.88359" lon="7.41623">
        <ele>582.09320068359</ele>
        <time>2014-01-11T11:44:08Z</time>
      </trkpt>
      <trkpt lat="43.88369" lon="7.41592">
        <ele>584.28173828125</ele>
        <time>2014-01-11T11:44:18Z</time>
      </trkpt>
      <trkpt lat="43.88375" lon="7.41578">
        <ele>584.65081787109</ele>
        <time>2014-01-11T11:44:23Z</time>
      </trkpt>
      <trkpt lat="43.88382" lon="7.41559">
        <ele>585.05426025391</ele>
        <time>2014-01-11T11:44:30Z</time>
      </trkpt>
      <trkpt lat="43.88391" lon="7.41538">
        <ele>585.44964599609</ele>
        <time>2014-01-11T11:44:37Z</time>
      </trkpt>
      <trkpt lat="43.88401" lon="7.41514">
        <ele>585.90222167969</ele>
        <time>2014-01-11T11:44:45Z</time>
      </trkpt>
      <trkpt lat="43.88404" lon="7.415">
        <ele>587.47106933594</ele>
        <time>2014-01-11T11:44:50Z</time>
      </trkpt>
      <trkpt lat="43.88406" lon="7.41476">
        <ele>589.34039306641</ele>
        <time>2014-01-11T11:44:59Z</time>
      </trkpt>
      <trkpt lat="43.88411" lon="7.41465">
        <ele>588.06414794922</ele>
        <time>2014-01-11T11:45:05Z</time>
      </trkpt>
      <trkpt lat="43.88416" lon="7.41454">
        <ele>586.60400390625</ele>
        <time>2014-01-11T11:45:11Z</time>
      </trkpt>
      <trkpt lat="43.88422" lon="7.41442">
        <ele>583.80969238281</ele>
        <time>2014-01-11T11:45:18Z</time>
      </trkpt>
      <trkpt lat="43.8843" lon="7.41432">
        <ele>578.20104980469</ele>
        <time>2014-01-11T11:45:25Z</time>
      </trkpt>
      <trkpt lat="43.88433" lon="7.41421">
        <ele>575.13403320312</ele>
        <time>2014-01-11T11:45:30Z</time>
      </trkpt>
      <trkpt lat="43.88435" lon="7.4141">
        <ele>571.71514892578</ele>
        <time>2014-01-11T11:45:35Z</time>
      </trkpt>
      <trkpt lat="43.88432" lon="7.41393">
        <ele>571.45904541016</ele>
        <time>2014-01-11T11:45:43Z</time>
      </trkpt>
      <trkpt lat="43.88429" lon="7.41379">
        <ele>571.86279296875</ele>
        <time>2014-01-11T11:45:49Z</time>
      </trkpt>
      <trkpt lat="43.88419" lon="7.4136">
        <ele>579.07818603516</ele>
        <time>2014-01-11T11:45:58Z</time>
      </trkpt>
      <trkpt lat="43.88412" lon="7.41344">
        <ele>583.23254394531</ele>
        <time>2014-01-11T11:46:05Z</time>
      </trkpt>
      <trkpt lat="43.88405" lon="7.41324">
        <ele>585.06604003906</ele>
        <time>2014-01-11T11:46:14Z</time>
      </trkpt>
      <trkpt lat="43.88397" lon="7.41309">
        <ele>588.58520507812</ele>
        <time>2014-01-11T11:46:21Z</time>
      </trkpt>
      <trkpt lat="43.88391" lon="7.41291">
        <ele>590.94464111328</ele>
        <time>2014-01-11T11:46:29Z</time>
      </trkpt>
      <trkpt lat="43.8839" lon="7.41275">
        <ele>590.24029541016</ele>
        <time>2014-01-11T11:46:36Z</time>
      </trkpt>
      <trkpt lat="43.8839" lon="7.41259">
        <ele>589.85681152344</ele>
        <time>2014-01-11T11:46:43Z</time>
      </trkpt>
      <trkpt lat="43.88387" lon="7.41244">
        <ele>590.61029052734</ele>
        <time>2014-01-11T11:46:49Z</time>
      </trkpt>
      <trkpt lat="43.88383" lon="7.41226">
        <ele>592.28802490234</ele>
        <time>2014-01-11T11:46:56Z</time>
      </trkpt>
      <trkpt lat="43.8838" lon="7.41207">
        <ele>592.49658203125</ele>
        <time>2014-01-11T11:47:03Z</time>
      </trkpt>
      <trkpt lat="43.88373" lon="7.4119">
        <ele>595.74200439453</ele>
        <time>2014-01-11T11:47:10Z</time>
      </trkpt>
      <trkpt lat="43.88369" lon="7.41176">
        <ele>598.61218261719</ele>
        <time>2014-01-11T11:47:16Z</time>
      </trkpt>
      <trkpt lat="43.88371" lon="7.41161">
        <ele>598.03643798828</ele>
        <time>2014-01-11T11:47:23Z</time>
      </trkpt>
      <trkpt lat="43.88372" lon="7.41161">
        <ele>597.30682373047</ele>
        <time>2014-01-11T11:47:26Z</time>
      </trkpt>
      <trkpt lat="43.88374" lon="7.41161">
        <ele>595.44189453125</ele>
        <time>2014-01-11T11:47:31Z</time>
      </trkpt>
      <trkpt lat="43.88373" lon="7.41161">
        <ele>596.49151611328</ele>
        <time>2014-01-11T11:47:42Z</time>
      </trkpt>
      <trkpt lat="43.88369" lon="7.41162">
        <ele>598.763671875</ele>
        <time>2014-01-11T11:47:47Z</time>
      </trkpt>
      <trkpt lat="43.88368" lon="7.41162">
        <ele>599.51965332031</ele>
        <time>2014-01-11T11:47:50Z</time>
      </trkpt>
      <trkpt lat="43.88368" lon="7.41162">
        <ele>599.77056884766</ele>
        <time>2014-01-11T11:47:51Z</time>
      </trkpt>
      <trkpt lat="43.88367" lon="7.41162">
        <ele>600.01770019531</ele>
        <time>2014-01-11T11:47:53Z</time>
      </trkpt>
      <trkpt lat="43.88371" lon="7.41161">
        <ele>597.75402832031</ele>
        <time>2014-01-11T11:47:58Z</time>
      </trkpt>
      <trkpt lat="43.88374" lon="7.4116">
        <ele>595.78045654297</ele>
        <time>2014-01-11T11:48:10Z</time>
      </trkpt>
      <trkpt lat="43.88373" lon="7.4116">
        <ele>596.31280517578</ele>
        <time>2014-01-11T11:48:17Z</time>
      </trkpt>
      <trkpt lat="43.88373" lon="7.4116">
        <ele>596.30023193359</ele>
        <time>2014-01-11T11:48:20Z</time>
      </trkpt>
      <trkpt lat="43.88373" lon="7.4116">
        <ele>596.30444335938</ele>
        <time>2014-01-11T11:48:21Z</time>
      </trkpt>
      <trkpt lat="43.88374" lon="7.41161">
        <ele>595.97521972656</ele>
        <time>2014-01-11T11:48:30Z</time>
      </trkpt>
      <trkpt lat="43.88374" lon="7.4116">
        <ele>596.05505371094</ele>
        <time>2014-01-11T11:48:43Z</time>
      </trkpt>
      <trkpt lat="43.88373" lon="7.41161">
        <ele>596.45416259766</ele>
        <time>2014-01-11T11:48:54Z</time>
      </trkpt>
      <trkpt lat="43.88372" lon="7.41162">
        <ele>596.93798828125</ele>
        <time>2014-01-11T11:48:58Z</time>
      </trkpt>
      <trkpt lat="43.88372" lon="7.41163">
        <ele>597.13934326172</ele>
        <time>2014-01-11T11:49:07Z</time>
      </trkpt>
      <trkpt lat="43.88373" lon="7.41163">
        <ele>596.09130859375</ele>
        <time>2014-01-11T11:49:10Z</time>
      </trkpt>
      <trkpt lat="43.88376" lon="7.41163">
        <ele>593.9541015625</ele>
        <time>2014-01-11T11:49:21Z</time>
      </trkpt>
      <trkpt lat="43.88377" lon="7.41164">
        <ele>593.41784667969</ele>
        <time>2014-01-11T11:49:25Z</time>
      </trkpt>
      <trkpt lat="43.88375" lon="7.41164">
        <ele>594.90588378906</ele>
        <time>2014-01-11T11:49:36Z</time>
      </trkpt>
      <trkpt lat="43.88374" lon="7.41165">
        <ele>595.40856933594</ele>
        <time>2014-01-11T11:49:41Z</time>
      </trkpt>
      <trkpt lat="43.88375" lon="7.41164">
        <ele>594.96997070312</ele>
        <time>2014-01-11T11:49:52Z</time>
      </trkpt>
      <trkpt lat="43.88374" lon="7.41162">
        <ele>595.86175537109</ele>
        <time>2014-01-11T11:49:59Z</time>
      </trkpt>
      <trkpt lat="43.88372" lon="7.41161">
        <ele>596.97497558594</ele>
        <time>2014-01-11T11:50:04Z</time>
      </trkpt>
      <trkpt lat="43.88372" lon="7.41161">
        <ele>596.72900390625</ele>
        <time>2014-01-11T11:50:06Z</time>
      </trkpt>
      <trkpt lat="43.88373" lon="7.4116">
        <ele>596.32531738281</ele>
        <time>2014-01-11T11:50:20Z</time>
      </trkpt>
      <trkpt lat="43.88372" lon="7.4116">
        <ele>597.08587646484</ele>
        <time>2014-01-11T11:50:23Z</time>
      </trkpt>
      <trkpt lat="43.88369" lon="7.4116">
        <ele>599.3896484375</ele>
        <time>2014-01-11T11:50:38Z</time>
      </trkpt>
      <trkpt lat="43.88368" lon="7.41157">
        <ele>599.93408203125</ele>
        <time>2014-01-11T11:50:45Z</time>
      </trkpt>
      <trkpt lat="43.88366" lon="7.41157">
        <ele>601.71905517578</ele>
        <time>2014-01-11T11:50:48Z</time>
      </trkpt>
      <trkpt lat="43.88359" lon="7.41158">
        <ele>607.23577880859</ele>
        <time>2014-01-11T11:50:55Z</time>
      </trkpt>
      <trkpt lat="43.88359" lon="7.41158">
        <ele>607.20397949219</ele>
        <time>2014-01-11T11:51:02Z</time>
      </trkpt>
      <trkpt lat="43.88359" lon="7.41155">
        <ele>606.91156005859</ele>
        <time>2014-01-11T11:51:15Z</time>
      </trkpt>
      <trkpt lat="43.88362" lon="7.41162">
        <ele>603.65344238281</ele>
        <time>2014-01-11T11:51:22Z</time>
      </trkpt>
      <trkpt lat="43.88364" lon="7.41161">
        <ele>602.1708984375</ele>
        <time>2014-01-11T11:51:28Z</time>
      </trkpt>
      <trkpt lat="43.88364" lon="7.41161">
        <ele>602.1708984375</ele>
        <time>2014-01-11T11:51:31Z</time>
      </trkpt>
      <trkpt lat="43.88364" lon="7.41161">
        <ele>602.1708984375</ele>
        <time>2014-01-11T11:51:41Z</time>
      </trkpt>
      <trkpt lat="43.88365" lon="7.41162">
        <ele>601.85784912109</ele>
        <time>2014-01-11T11:51:46Z</time>
      </trkpt>
      <trkpt lat="43.88364" lon="7.41162">
        <ele>602.13092041016</ele>
        <time>2014-01-11T11:51:49Z</time>
      </trkpt>
      <trkpt lat="43.88366" lon="7.41161">
        <ele>601.16070556641</ele>
        <time>2014-01-11T11:51:53Z</time>
      </trkpt>
      <trkpt lat="43.88366" lon="7.41158">
        <ele>601.38458251953</ele>
        <time>2014-01-11T11:51:56Z</time>
      </trkpt>
      <trkpt lat="43.88365" lon="7.41145">
        <ele>602.87408447266</ele>
        <time>2014-01-11T11:52:01Z</time>
      </trkpt>
      <trkpt lat="43.88369" lon="7.41131">
        <ele>601.56225585938</ele>
        <time>2014-01-11T11:52:07Z</time>
      </trkpt>
      <trkpt lat="43.88371" lon="7.4112">
        <ele>601.46868896484</ele>
        <time>2014-01-11T11:52:11Z</time>
      </trkpt>
      <trkpt lat="43.8837" lon="7.41102">
        <ele>603.38629150391</ele>
        <time>2014-01-11T11:52:19Z</time>
      </trkpt>
      <trkpt lat="43.88374" lon="7.41086">
        <ele>603.04553222656</ele>
        <time>2014-01-11T11:52:26Z</time>
      </trkpt>
      <trkpt lat="43.88379" lon="7.41069">
        <ele>601.90509033203</ele>
        <time>2014-01-11T11:52:34Z</time>
      </trkpt>
      <trkpt lat="43.88387" lon="7.41054">
        <ele>600.26788330078</ele>
        <time>2014-01-11T11:52:42Z</time>
      </trkpt>
      <trkpt lat="43.88388" lon="7.4104">
        <ele>602.64245605469</ele>
        <time>2014-01-11T11:52:48Z</time>
      </trkpt>
      <trkpt lat="43.88388" lon="7.41018">
        <ele>607.03552246094</ele>
        <time>2014-01-11T11:52:58Z</time>
      </trkpt>
      <trkpt lat="43.88384" lon="7.41002">
        <ele>610.58532714844</ele>
        <time>2014-01-11T11:53:06Z</time>
      </trkpt>
      <trkpt lat="43.88378" lon="7.40997">
        <ele>612.30358886719</ele>
        <time>2014-01-11T11:53:11Z</time>
      </trkpt>
      <trkpt lat="43.88373" lon="7.41006">
        <ele>612.14807128906</ele>
        <time>2014-01-11T11:53:17Z</time>
      </trkpt>
      <trkpt lat="43.88374" lon="7.41012">
        <ele>611.35314941406</ele>
        <time>2014-01-11T11:53:19Z</time>
      </trkpt>
      <trkpt lat="43.88376" lon="7.41032">
        <ele>607.99041748047</ele>
        <time>2014-01-11T11:53:28Z</time>
      </trkpt>
      <trkpt lat="43.88371" lon="7.41052">
        <ele>607.09246826172</ele>
        <time>2014-01-11T11:53:36Z</time>
      </trkpt>
      <trkpt lat="43.88365" lon="7.41066">
        <ele>608.72991943359</ele>
        <time>2014-01-11T11:53:43Z</time>
      </trkpt>
      <trkpt lat="43.88359" lon="7.41087">
        <ele>612.39703369141</ele>
        <time>2014-01-11T11:53:53Z</time>
      </trkpt>
      <trkpt lat="43.88353" lon="7.41107">
        <ele>617.61212158203</ele>
        <time>2014-01-11T11:54:00Z</time>
      </trkpt>
      <trkpt lat="43.88348" lon="7.41124">
        <ele>622.58874511719</ele>
        <time>2014-01-11T11:54:08Z</time>
      </trkpt>
      <trkpt lat="43.88345" lon="7.41142">
        <ele>626.16229248047</ele>
        <time>2014-01-11T11:54:16Z</time>
      </trkpt>
      <trkpt lat="43.88345" lon="7.41155">
        <ele>625.75939941406</ele>
        <time>2014-01-11T11:54:23Z</time>
      </trkpt>
      <trkpt lat="43.88345" lon="7.41172">
        <ele>624.396484375</ele>
        <time>2014-01-11T11:54:30Z</time>
      </trkpt>
      <trkpt lat="43.88346" lon="7.41189">
        <ele>620.87884521484</ele>
        <time>2014-01-11T11:54:37Z</time>
      </trkpt>
      <trkpt lat="43.88346" lon="7.41204">
        <ele>621.06951904297</ele>
        <time>2014-01-11T11:54:44Z</time>
      </trkpt>
      <trkpt lat="43.88346" lon="7.4122">
        <ele>621.99090576172</ele>
        <time>2014-01-11T11:54:51Z</time>
      </trkpt>
      <trkpt lat="43.88346" lon="7.41231">
        <ele>622.69134521484</ele>
        <time>2014-01-11T11:54:57Z</time>
      </trkpt>
      <trkpt lat="43.88346" lon="7.41247">
        <ele>623.73699951172</ele>
        <time>2014-01-11T11:55:03Z</time>
      </trkpt>
      <trkpt lat="43.88348" lon="7.41261">
        <ele>622.57781982422</ele>
        <time>2014-01-11T11:55:10Z</time>
      </trkpt>
      <trkpt lat="43.8835" lon="7.41276">
        <ele>622.39544677734</ele>
        <time>2014-01-11T11:55:16Z</time>
      </trkpt>
      <trkpt lat="43.88352" lon="7.41289">
        <ele>621.6767578125</ele>
        <time>2014-01-11T11:55:22Z</time>
      </trkpt>
      <trkpt lat="43.88355" lon="7.41302">
        <ele>621.02777099609</ele>
        <time>2014-01-11T11:55:28Z</time>
      </trkpt>
      <trkpt lat="43.88358" lon="7.41315">
        <ele>619.71722412109</ele>
        <time>2014-01-11T11:55:34Z</time>
      </trkpt>
      <trkpt lat="43.88361" lon="7.41328">
        <ele>617.44610595703</ele>
        <time>2014-01-11T11:55:41Z</time>
      </trkpt>
      <trkpt lat="43.8836" lon="7.41344">
        <ele>619.51910400391</ele>
        <time>2014-01-11T11:55:49Z</time>
      </trkpt>
      <trkpt lat="43.88359" lon="7.41345">
        <ele>620.55938720703</ele>
        <time>2014-01-11T11:55:50Z</time>
      </trkpt>
      <trkpt lat="43.88351" lon="7.41345">
        <ele>626.85247802734</ele>
        <time>2014-01-11T11:55:55Z</time>
      </trkpt>
      <trkpt lat="43.88344" lon="7.41334">
        <ele>632.04351806641</ele>
        <time>2014-01-11T11:56:02Z</time>
      </trkpt>
      <trkpt lat="43.88342" lon="7.41322">
        <ele>633.04809570312</ele>
        <time>2014-01-11T11:56:08Z</time>
      </trkpt>
      <trkpt lat="43.88341" lon="7.41316">
        <ele>633.74194335938</ele>
        <time>2014-01-11T11:56:11Z</time>
      </trkpt>
      <trkpt lat="43.88343" lon="7.41303">
        <ele>630.93798828125</ele>
        <time>2014-01-11T11:56:17Z</time>
      </trkpt>
      <trkpt lat="43.88343" lon="7.41297">
        <ele>630.14520263672</ele>
        <time>2014-01-11T11:56:20Z</time>
      </trkpt>
      <trkpt lat="43.88343" lon="7.4128">
        <ele>628.58184814453</ele>
        <time>2014-01-11T11:56:28Z</time>
      </trkpt>
      <trkpt lat="43.8834" lon="7.4126">
        <ele>629.87731933594</ele>
        <time>2014-01-11T11:56:36Z</time>
      </trkpt>
      <trkpt lat="43.88337" lon="7.41245">
        <ele>632.62329101562</ele>
        <time>2014-01-11T11:56:43Z</time>
      </trkpt>
      <trkpt lat="43.88334" lon="7.41228">
        <ele>634.25653076172</ele>
        <time>2014-01-11T11:56:50Z</time>
      </trkpt>
      <trkpt lat="43.88335" lon="7.41208">
        <ele>633.15844726562</ele>
        <time>2014-01-11T11:56:59Z</time>
      </trkpt>
      <trkpt lat="43.88335" lon="7.41193">
        <ele>633.75402832031</ele>
        <time>2014-01-11T11:57:07Z</time>
      </trkpt>
      <trkpt lat="43.88334" lon="7.41181">
        <ele>636.73986816406</ele>
        <time>2014-01-11T11:57:13Z</time>
      </trkpt>
      <trkpt lat="43.88331" lon="7.41172">
        <ele>641.09967041016</ele>
        <time>2014-01-11T11:57:18Z</time>
      </trkpt>
      <trkpt lat="43.88326" lon="7.41162">
        <ele>645.87103271484</ele>
        <time>2014-01-11T11:57:23Z</time>
      </trkpt>
      <trkpt lat="43.88322" lon="7.41151">
        <ele>648.00842285156</ele>
        <time>2014-01-11T11:57:28Z</time>
      </trkpt>
      <trkpt lat="43.88322" lon="7.41143">
        <ele>648.45532226562</ele>
        <time>2014-01-11T11:57:32Z</time>
      </trkpt>
      <trkpt lat="43.88322" lon="7.41137">
        <ele>647.8369140625</ele>
        <time>2014-01-11T11:57:36Z</time>
      </trkpt>
      <trkpt lat="43.88324" lon="7.41117">
        <ele>646.46362304688</ele>
        <time>2014-01-11T11:57:45Z</time>
      </trkpt>
      <trkpt lat="43.88324" lon="7.41103">
        <ele>646.46362304688</ele>
        <time>2014-01-11T11:57:51Z</time>
      </trkpt>
      <trkpt lat="43.88325" lon="7.41088">
        <ele>646.18896484375</ele>
        <time>2014-01-11T11:57:58Z</time>
      </trkpt>
      <trkpt lat="43.88324" lon="7.41074">
        <ele>646.14819335938</ele>
        <time>2014-01-11T11:58:05Z</time>
      </trkpt>
      <trkpt lat="43.88322" lon="7.4106">
        <ele>646.11590576172</ele>
        <time>2014-01-11T11:58:12Z</time>
      </trkpt>
      <trkpt lat="43.88322" lon="7.41049">
        <ele>646.0634765625</ele>
        <time>2014-01-11T11:58:19Z</time>
      </trkpt>
      <trkpt lat="43.88324" lon="7.41034">
        <ele>644.41552734375</ele>
        <time>2014-01-11T11:58:26Z</time>
      </trkpt>
      <trkpt lat="43.88323" lon="7.41021">
        <ele>644.57141113281</ele>
        <time>2014-01-11T11:58:33Z</time>
      </trkpt>
      <trkpt lat="43.88324" lon="7.41008">
        <ele>643.92211914062</ele>
        <time>2014-01-11T11:58:39Z</time>
      </trkpt>
      <trkpt lat="43.88323" lon="7.40994">
        <ele>643.85083007812</ele>
        <time>2014-01-11T11:58:46Z</time>
      </trkpt>
      <trkpt lat="43.88319" lon="7.40977">
        <ele>646.19647216797</ele>
        <time>2014-01-11T11:58:55Z</time>
      </trkpt>
      <trkpt lat="43.88318" lon="7.40959">
        <ele>647.11145019531</ele>
        <time>2014-01-11T11:59:03Z</time>
      </trkpt>
      <trkpt lat="43.8832" lon="7.40943">
        <ele>645.99182128906</ele>
        <time>2014-01-11T11:59:11Z</time>
      </trkpt>
      <trkpt lat="43.88317" lon="7.40927">
        <ele>648.25531005859</ele>
        <time>2014-01-11T11:59:18Z</time>
      </trkpt>
      <trkpt lat="43.88312" lon="7.40906">
        <ele>652.63494873047</ele>
        <time>2014-01-11T11:59:28Z</time>
      </trkpt>
      <trkpt lat="43.88308" lon="7.40889">
        <ele>656.27514648438</ele>
        <time>2014-01-11T11:59:36Z</time>
      </trkpt>
      <trkpt lat="43.88308" lon="7.40871">
        <ele>656.32830810547</ele>
        <time>2014-01-11T11:59:44Z</time>
      </trkpt>
      <trkpt lat="43.88308" lon="7.40854">
        <ele>656.62115478516</ele>
        <time>2014-01-11T11:59:52Z</time>
      </trkpt>
      <trkpt lat="43.88311" lon="7.40835">
        <ele>654.27282714844</ele>
        <time>2014-01-11T12:00:01Z</time>
      </trkpt>
      <trkpt lat="43.88311" lon="7.40816">
        <ele>654.89605712891</ele>
        <time>2014-01-11T12:00:09Z</time>
      </trkpt>
      <trkpt lat="43.88311" lon="7.40797">
        <ele>655.64562988281</ele>
        <time>2014-01-11T12:00:17Z</time>
      </trkpt>
      <trkpt lat="43.88308" lon="7.40774">
        <ele>658.25073242188</ele>
        <time>2014-01-11T12:00:27Z</time>
      </trkpt>
      <trkpt lat="43.88303" lon="7.40758">
        <ele>661.30633544922</ele>
        <time>2014-01-11T12:00:35Z</time>
      </trkpt>
      <trkpt lat="43.88302" lon="7.40743">
        <ele>662.36309814453</ele>
        <time>2014-01-11T12:00:42Z</time>
      </trkpt>
      <trkpt lat="43.88299" lon="7.40727">
        <ele>664.66467285156</ele>
        <time>2014-01-11T12:00:51Z</time>
      </trkpt>
      <trkpt lat="43.88298" lon="7.40714">
        <ele>665.14428710938</ele>
        <time>2014-01-11T12:00:58Z</time>
      </trkpt>
      <trkpt lat="43.88296" lon="7.40696">
        <ele>666.70983886719</ele>
        <time>2014-01-11T12:01:07Z</time>
      </trkpt>
      <trkpt lat="43.88295" lon="7.4068">
        <ele>669.52136230469</ele>
        <time>2014-01-11T12:01:15Z</time>
      </trkpt>
      <trkpt lat="43.88297" lon="7.40663">
        <ele>672.09143066406</ele>
        <time>2014-01-11T12:01:24Z</time>
      </trkpt>
      <trkpt lat="43.88296" lon="7.40646">
        <ele>674.96514892578</ele>
        <time>2014-01-11T12:01:33Z</time>
      </trkpt>
      <trkpt lat="43.88295" lon="7.40629">
        <ele>677.50726318359</ele>
        <time>2014-01-11T12:01:41Z</time>
      </trkpt>
      <trkpt lat="43.88297" lon="7.40617">
        <ele>679.1162109375</ele>
        <time>2014-01-11T12:01:47Z</time>
      </trkpt>
      <trkpt lat="43.88301" lon="7.40607">
        <ele>681.14971923828</ele>
        <time>2014-01-11T12:01:54Z</time>
      </trkpt>
      <trkpt lat="43.88306" lon="7.40603">
        <ele>682.62164306641</ele>
        <time>2014-01-11T12:02:00Z</time>
      </trkpt>
      <trkpt lat="43.88313" lon="7.40606">
        <ele>685.83190917969</ele>
        <time>2014-01-11T12:02:05Z</time>
      </trkpt>
      <trkpt lat="43.88321" lon="7.40614">
        <ele>687.94543457031</ele>
        <time>2014-01-11T12:02:11Z</time>
      </trkpt>
      <trkpt lat="43.88326" lon="7.40634">
        <ele>684.47082519531</ele>
        <time>2014-01-11T12:02:20Z</time>
      </trkpt>
      <trkpt lat="43.8833" lon="7.40653">
        <ele>679.94146728516</ele>
        <time>2014-01-11T12:02:29Z</time>
      </trkpt>
      <trkpt lat="43.88335" lon="7.4067">
        <ele>676.03021240234</ele>
        <time>2014-01-11T12:02:37Z</time>
      </trkpt>
      <trkpt lat="43.88341" lon="7.40683">
        <ele>675.48022460938</ele>
        <time>2014-01-11T12:02:44Z</time>
      </trkpt>
      <trkpt lat="43.88351" lon="7.40695">
        <ele>679.34893798828</ele>
        <time>2014-01-11T12:02:53Z</time>
      </trkpt>
      <trkpt lat="43.8836" lon="7.40704">
        <ele>683.87359619141</ele>
        <time>2014-01-11T12:03:00Z</time>
      </trkpt>
      <trkpt lat="43.88372" lon="7.40714">
        <ele>689.75738525391</ele>
        <time>2014-01-11T12:03:10Z</time>
      </trkpt>
      <trkpt lat="43.88384" lon="7.40722">
        <ele>696.47198486328</ele>
        <time>2014-01-11T12:03:19Z</time>
      </trkpt>
      <trkpt lat="43.88394" lon="7.40731">
        <ele>699.79754638672</ele>
        <time>2014-01-11T12:03:27Z</time>
      </trkpt>
      <trkpt lat="43.88403" lon="7.40744">
        <ele>701.42224121094</ele>
        <time>2014-01-11T12:03:36Z</time>
      </trkpt>
      <trkpt lat="43.88409" lon="7.40755">
        <ele>702.38366699219</ele>
        <time>2014-01-11T12:03:43Z</time>
      </trkpt>
      <trkpt lat="43.88415" lon="7.40769">
        <ele>701.38543701172</ele>
        <time>2014-01-11T12:03:51Z</time>
      </trkpt>
      <trkpt lat="43.8842" lon="7.40788">
        <ele>699.17321777344</ele>
        <time>2014-01-11T12:04:00Z</time>
      </trkpt>
      <trkpt lat="43.88424" lon="7.4081">
        <ele>695.16412353516</ele>
        <time>2014-01-11T12:04:09Z</time>
      </trkpt>
      <trkpt lat="43.88428" lon="7.40815">
        <ele>696.00384521484</ele>
        <time>2014-01-11T12:04:12Z</time>
      </trkpt>
      <trkpt lat="43.88434" lon="7.40806">
        <ele>702.66479492188</ele>
        <time>2014-01-11T12:04:18Z</time>
      </trkpt>
      <trkpt lat="43.88433" lon="7.40787">
        <ele>707.25885009766</ele>
        <time>2014-01-11T12:04:26Z</time>
      </trkpt>
      <trkpt lat="43.88428" lon="7.40772">
        <ele>709.00134277344</ele>
        <time>2014-01-11T12:04:34Z</time>
      </trkpt>
      <trkpt lat="43.88425" lon="7.40762">
        <ele>709.98840332031</ele>
        <time>2014-01-11T12:04:40Z</time>
      </trkpt>
      <trkpt lat="43.88421" lon="7.40748">
        <ele>712.123046875</ele>
        <time>2014-01-11T12:04:48Z</time>
      </trkpt>
      <trkpt lat="43.88413" lon="7.40733">
        <ele>711.60205078125</ele>
        <time>2014-01-11T12:04:57Z</time>
      </trkpt>
      <trkpt lat="43.88408" lon="7.40724">
        <ele>711.21716308594</ele>
        <time>2014-01-11T12:05:04Z</time>
      </trkpt>
      <trkpt lat="43.88406" lon="7.4072">
        <ele>711.30255126953</ele>
        <time>2014-01-11T12:05:06Z</time>
      </trkpt>
      <trkpt lat="43.88403" lon="7.4071">
        <ele>711.83813476562</ele>
        <time>2014-01-11T12:05:12Z</time>
      </trkpt>
      <trkpt lat="43.884" lon="7.40703">
        <ele>712.42864990234</ele>
        <time>2014-01-11T12:05:16Z</time>
      </trkpt>
      <trkpt lat="43.88395" lon="7.40692">
        <ele>712.36395263672</ele>
        <time>2014-01-11T12:05:23Z</time>
      </trkpt>
      <trkpt lat="43.8839" lon="7.40679">
        <ele>712.978515625</ele>
        <time>2014-01-11T12:05:31Z</time>
      </trkpt>
      <trkpt lat="43.88383" lon="7.40668">
        <ele>712.27960205078</ele>
        <time>2014-01-11T12:05:38Z</time>
      </trkpt>
      <trkpt lat="43.88372" lon="7.40656">
        <ele>709.65563964844</ele>
        <time>2014-01-11T12:05:47Z</time>
      </trkpt>
      <trkpt lat="43.88366" lon="7.40644">
        <ele>708.33215332031</ele>
        <time>2014-01-11T12:05:55Z</time>
      </trkpt>
      <trkpt lat="43.88363" lon="7.4063">
        <ele>709.52691650391</ele>
        <time>2014-01-11T12:06:03Z</time>
      </trkpt>
      <trkpt lat="43.88361" lon="7.40616">
        <ele>711.12707519531</ele>
        <time>2014-01-11T12:06:11Z</time>
      </trkpt>
      <trkpt lat="43.88358" lon="7.40606">
        <ele>711.18597412109</ele>
        <time>2014-01-11T12:06:18Z</time>
      </trkpt>
      <trkpt lat="43.88354" lon="7.40598">
        <ele>710.48791503906</ele>
        <time>2014-01-11T12:06:24Z</time>
      </trkpt>
      <trkpt lat="43.8835" lon="7.40587">
        <ele>710.41546630859</ele>
        <time>2014-01-11T12:06:31Z</time>
      </trkpt>
      <trkpt lat="43.88346" lon="7.40578">
        <ele>710.68939208984</ele>
        <time>2014-01-11T12:06:36Z</time>
      </trkpt>
      <trkpt lat="43.88343" lon="7.40561">
        <ele>712.76989746094</ele>
        <time>2014-01-11T12:06:45Z</time>
      </trkpt>
      <trkpt lat="43.88342" lon="7.40545">
        <ele>715.61145019531</ele>
        <time>2014-01-11T12:06:53Z</time>
      </trkpt>
      <trkpt lat="43.88334" lon="7.40534">
        <ele>714.2041015625</ele>
        <time>2014-01-11T12:07:01Z</time>
      </trkpt>
      <trkpt lat="43.88329" lon="7.40517">
        <ele>714.96148681641</ele>
        <time>2014-01-11T12:07:10Z</time>
      </trkpt>
      <trkpt lat="43.88327" lon="7.40509">
        <ele>715.79919433594</ele>
        <time>2014-01-11T12:07:15Z</time>
      </trkpt>
      <trkpt lat="43.88327" lon="7.40497">
        <ele>718.61926269531</ele>
        <time>2014-01-11T12:07:23Z</time>
      </trkpt>
      <trkpt lat="43.88325" lon="7.40484">
        <ele>721.96228027344</ele>
        <time>2014-01-11T12:07:31Z</time>
      </trkpt>
      <trkpt lat="43.88321" lon="7.40474">
        <ele>723.07879638672</ele>
        <time>2014-01-11T12:07:38Z</time>
      </trkpt>
      <trkpt lat="43.88317" lon="7.40464">
        <ele>723.68798828125</ele>
        <time>2014-01-11T12:07:44Z</time>
      </trkpt>
      <trkpt lat="43.88314" lon="7.40456">
        <ele>723.98205566406</ele>
        <time>2014-01-11T12:07:50Z</time>
      </trkpt>
      <trkpt lat="43.88312" lon="7.40453">
        <ele>723.76354980469</ele>
        <time>2014-01-11T12:07:52Z</time>
      </trkpt>
      <trkpt lat="43.88308" lon="7.40444">
        <ele>723.68817138672</ele>
        <time>2014-01-11T12:07:58Z</time>
      </trkpt>
      <trkpt lat="43.883" lon="7.40426">
        <ele>725.25750732422</ele>
        <time>2014-01-11T12:08:08Z</time>
      </trkpt>
      <trkpt lat="43.88295" lon="7.40411">
        <ele>727.09594726562</ele>
        <time>2014-01-11T12:08:16Z</time>
      </trkpt>
      <trkpt lat="43.8829" lon="7.40397">
        <ele>727.91656494141</ele>
        <time>2014-01-11T12:08:24Z</time>
      </trkpt>
      <trkpt lat="43.88286" lon="7.40383">
        <ele>729.04632568359</ele>
        <time>2014-01-11T12:08:32Z</time>
      </trkpt>
      <trkpt lat="43.88284" lon="7.40369">
        <ele>732.18078613281</ele>
        <time>2014-01-11T12:08:40Z</time>
      </trkpt>
      <trkpt lat="43.88284" lon="7.40363">
        <ele>734.09057617188</ele>
        <time>2014-01-11T12:08:45Z</time>
      </trkpt>
      <trkpt lat="43.88282" lon="7.40359">
        <ele>733.72888183594</ele>
        <time>2014-01-11T12:08:48Z</time>
      </trkpt>
      <trkpt lat="43.88276" lon="7.40354">
        <ele>731.77410888672</ele>
        <time>2014-01-11T12:08:54Z</time>
      </trkpt>
      <trkpt lat="43.88272" lon="7.40343">
        <ele>733.53186035156</ele>
        <time>2014-01-11T12:09:01Z</time>
      </trkpt>
      <trkpt lat="43.88267" lon="7.40333">
        <ele>733.61151123047</ele>
        <time>2014-01-11T12:09:07Z</time>
      </trkpt>
      <trkpt lat="43.88262" lon="7.40322">
        <ele>735.31372070312</ele>
        <time>2014-01-11T12:09:13Z</time>
      </trkpt>
      <trkpt lat="43.88256" lon="7.40311">
        <ele>734.52471923828</ele>
        <time>2014-01-11T12:09:19Z</time>
      </trkpt>
      <trkpt lat="43.88246" lon="7.40307">
        <ele>731.58526611328</ele>
        <time>2014-01-11T12:09:26Z</time>
      </trkpt>
      <trkpt lat="43.88238" lon="7.40313">
        <ele>732.84289550781</ele>
        <time>2014-01-11T12:09:32Z</time>
      </trkpt>
      <trkpt lat="43.88234" lon="7.40326">
        <ele>732.22943115234</ele>
        <time>2014-01-11T12:09:38Z</time>
      </trkpt>
      <trkpt lat="43.88237" lon="7.4034">
        <ele>728.97442626953</ele>
        <time>2014-01-11T12:09:45Z</time>
      </trkpt>
      <trkpt lat="43.88236" lon="7.40357">
        <ele>727.02917480469</ele>
        <time>2014-01-11T12:09:53Z</time>
      </trkpt>
      <trkpt lat="43.88232" lon="7.40374">
        <ele>728.21435546875</ele>
        <time>2014-01-11T12:10:01Z</time>
      </trkpt>
      <trkpt lat="43.88226" lon="7.40385">
        <ele>731.63189697266</ele>
        <time>2014-01-11T12:10:08Z</time>
      </trkpt>
      <trkpt lat="43.88217" lon="7.404">
        <ele>735.71734619141</ele>
        <time>2014-01-11T12:10:17Z</time>
      </trkpt>
      <trkpt lat="43.88212" lon="7.4041">
        <ele>737.7060546875</ele>
        <time>2014-01-11T12:10:23Z</time>
      </trkpt>
      <trkpt lat="43.88208" lon="7.4042">
        <ele>739.70092773438</ele>
        <time>2014-01-11T12:10:29Z</time>
      </trkpt>
      <trkpt lat="43.88203" lon="7.4043">
        <ele>741.51788330078</ele>
        <time>2014-01-11T12:10:36Z</time>
      </trkpt>
      <trkpt lat="43.882" lon="7.40437">
        <ele>742.85296630859</ele>
        <time>2014-01-11T12:10:41Z</time>
      </trkpt>
      <trkpt lat="43.88195" lon="7.40449">
        <ele>744.16357421875</ele>
        <time>2014-01-11T12:10:47Z</time>
      </trkpt>
      <trkpt lat="43.88194" lon="7.40457">
        <ele>744.35137939453</ele>
        <time>2014-01-11T12:10:51Z</time>
      </trkpt>
      <trkpt lat="43.88192" lon="7.40466">
        <ele>744.54791259766</ele>
        <time>2014-01-11T12:10:55Z</time>
      </trkpt>
      <trkpt lat="43.88192" lon="7.4047">
        <ele>744.27691650391</ele>
        <time>2014-01-11T12:10:57Z</time>
      </trkpt>
      <trkpt lat="43.88192" lon="7.40482">
        <ele>744.17474365234</ele>
        <time>2014-01-11T12:11:03Z</time>
      </trkpt>
      <trkpt lat="43.88189" lon="7.40491">
        <ele>745.10516357422</ele>
        <time>2014-01-11T12:11:08Z</time>
      </trkpt>
      <trkpt lat="43.88186" lon="7.40504">
        <ele>746.54296875</ele>
        <time>2014-01-11T12:11:15Z</time>
      </trkpt>
      <trkpt lat="43.88184" lon="7.40511">
        <ele>747.05102539062</ele>
        <time>2014-01-11T12:11:20Z</time>
      </trkpt>
      <trkpt lat="43.88182" lon="7.40521">
        <ele>747.14031982422</ele>
        <time>2014-01-11T12:11:26Z</time>
      </trkpt>
      <trkpt lat="43.88182" lon="7.40524">
        <ele>746.93090820312</ele>
        <time>2014-01-11T12:11:28Z</time>
      </trkpt>
      <trkpt lat="43.88182" lon="7.40543">
        <ele>745.931640625</ele>
        <time>2014-01-11T12:11:37Z</time>
      </trkpt>
      <trkpt lat="43.88184" lon="7.40557">
        <ele>744.79010009766</ele>
        <time>2014-01-11T12:11:45Z</time>
      </trkpt>
      <trkpt lat="43.88186" lon="7.40576">
        <ele>743.09582519531</ele>
        <time>2014-01-11T12:11:54Z</time>
      </trkpt>
      <trkpt lat="43.88182" lon="7.40588">
        <ele>744.33038330078</ele>
        <time>2014-01-11T12:12:00Z</time>
      </trkpt>
      <trkpt lat="43.88174" lon="7.40586">
        <ele>748.63903808594</ele>
        <time>2014-01-11T12:12:06Z</time>
      </trkpt>
      <trkpt lat="43.88173" lon="7.40579">
        <ele>749.98974609375</ele>
        <time>2014-01-11T12:12:09Z</time>
      </trkpt>
      <trkpt lat="43.88173" lon="7.40568">
        <ele>750.18542480469</ele>
        <time>2014-01-11T12:12:16Z</time>
      </trkpt>
      <trkpt lat="43.88172" lon="7.40552">
        <ele>751.375</ele>
        <time>2014-01-11T12:12:24Z</time>
      </trkpt>
      <trkpt lat="43.88169" lon="7.40536">
        <ele>753.40234375</ele>
        <time>2014-01-11T12:12:31Z</time>
      </trkpt>
      <trkpt lat="43.8817" lon="7.40518">
        <ele>753.77331542969</ele>
        <time>2014-01-11T12:12:39Z</time>
      </trkpt>
      <trkpt lat="43.88174" lon="7.40501">
        <ele>752.71929931641</ele>
        <time>2014-01-11T12:12:46Z</time>
      </trkpt>
      <trkpt lat="43.88175" lon="7.40489">
        <ele>752.76983642578</ele>
        <time>2014-01-11T12:12:51Z</time>
      </trkpt>
      <trkpt lat="43.88177" lon="7.40472">
        <ele>752.18395996094</ele>
        <time>2014-01-11T12:12:59Z</time>
      </trkpt>
      <trkpt lat="43.88179" lon="7.40462">
        <ele>752.06787109375</ele>
        <time>2014-01-11T12:13:03Z</time>
      </trkpt>
      <trkpt lat="43.88181" lon="7.40452">
        <ele>751.39239501953</ele>
        <time>2014-01-11T12:13:07Z</time>
      </trkpt>
      <trkpt lat="43.88187" lon="7.4043">
        <ele>749.82336425781</ele>
        <time>2014-01-11T12:13:17Z</time>
      </trkpt>
      <trkpt lat="43.88188" lon="7.40416">
        <ele>750.12579345703</ele>
        <time>2014-01-11T12:13:24Z</time>
      </trkpt>
      <trkpt lat="43.88188" lon="7.40403">
        <ele>750.34869384766</ele>
        <time>2014-01-11T12:13:29Z</time>
      </trkpt>
      <trkpt lat="43.88189" lon="7.40394">
        <ele>750.10089111328</ele>
        <time>2014-01-11T12:13:33Z</time>
      </trkpt>
      <trkpt lat="43.8819" lon="7.4038">
        <ele>750.07904052734</ele>
        <time>2014-01-11T12:13:39Z</time>
      </trkpt>
      <trkpt lat="43.88192" lon="7.40365">
        <ele>749.74133300781</ele>
        <time>2014-01-11T12:13:46Z</time>
      </trkpt>
      <trkpt lat="43.88194" lon="7.40352">
        <ele>747.68072509766</ele>
        <time>2014-01-11T12:13:52Z</time>
      </trkpt>
      <trkpt lat="43.88193" lon="7.40342">
        <ele>747.04901123047</ele>
        <time>2014-01-11T12:13:57Z</time>
      </trkpt>
      <trkpt lat="43.8819" lon="7.40326">
        <ele>747.59887695312</ele>
        <time>2014-01-11T12:14:05Z</time>
      </trkpt>
      <trkpt lat="43.88185" lon="7.40315">
        <ele>750.31945800781</ele>
        <time>2014-01-11T12:14:12Z</time>
      </trkpt>
      <trkpt lat="43.88177" lon="7.40308">
        <ele>753.98547363281</ele>
        <time>2014-01-11T12:14:18Z</time>
      </trkpt>
      <trkpt lat="43.88172" lon="7.40301">
        <ele>756.68048095703</ele>
        <time>2014-01-11T12:14:24Z</time>
      </trkpt>
      <trkpt lat="43.88166" lon="7.40291">
        <ele>759.73522949219</ele>
        <time>2014-01-11T12:14:30Z</time>
      </trkpt>
      <trkpt lat="43.88161" lon="7.40278">
        <ele>762.25866699219</ele>
        <time>2014-01-11T12:14:37Z</time>
      </trkpt>
      <trkpt lat="43.88163" lon="7.40265">
        <ele>761.08367919922</ele>
        <time>2014-01-11T12:14:43Z</time>
      </trkpt>
      <trkpt lat="43.88166" lon="7.4026">
        <ele>759.67419433594</ele>
        <time>2014-01-11T12:14:46Z</time>
      </trkpt>
      <trkpt lat="43.88171" lon="7.40244">
        <ele>759.12261962891</ele>
        <time>2014-01-11T12:14:54Z</time>
      </trkpt>
      <trkpt lat="43.8817" lon="7.40225">
        <ele>761.0234375</ele>
        <time>2014-01-11T12:15:02Z</time>
      </trkpt>
      <trkpt lat="43.88166" lon="7.40206">
        <ele>765.52130126953</ele>
        <time>2014-01-11T12:15:10Z</time>
      </trkpt>
      <trkpt lat="43.88166" lon="7.40204">
        <ele>766.25</ele>
        <time>2014-01-11T12:15:11Z</time>
      </trkpt>
      <trkpt lat="43.88166" lon="7.40196">
        <ele>767.68829345703</ele>
        <time>2014-01-11T12:15:15Z</time>
      </trkpt>
      <trkpt lat="43.88172" lon="7.40188">
        <ele>768.70391845703</ele>
        <time>2014-01-11T12:15:21Z</time>
      </trkpt>
      <trkpt lat="43.88179" lon="7.4018">
        <ele>769.54504394531</ele>
        <time>2014-01-11T12:15:27Z</time>
      </trkpt>
      <trkpt lat="43.88186" lon="7.40175">
        <ele>769.65832519531</ele>
        <time>2014-01-11T12:15:33Z</time>
      </trkpt>
      <trkpt lat="43.8819" lon="7.40172">
        <ele>769.3974609375</ele>
        <time>2014-01-11T12:15:38Z</time>
      </trkpt>
      <trkpt lat="43.88192" lon="7.4016">
        <ele>773.03546142578</ele>
        <time>2014-01-11T12:15:46Z</time>
      </trkpt>
      <trkpt lat="43.88189" lon="7.40157">
        <ele>774.79724121094</ele>
        <time>2014-01-11T12:15:49Z</time>
      </trkpt>
      <trkpt lat="43.88185" lon="7.40156">
        <ele>776.54028320312</ele>
        <time>2014-01-11T12:15:54Z</time>
      </trkpt>
      <trkpt lat="43.88175" lon="7.4016">
        <ele>777.83831787109</ele>
        <time>2014-01-11T12:16:01Z</time>
      </trkpt>
      <trkpt lat="43.88166" lon="7.40164">
        <ele>778.91046142578</ele>
        <time>2014-01-11T12:16:07Z</time>
      </trkpt>
      <trkpt lat="43.8816" lon="7.40168">
        <ele>779.46203613281</ele>
        <time>2014-01-11T12:16:12Z</time>
      </trkpt>
      <trkpt lat="43.88156" lon="7.40172">
        <ele>779.11138916016</ele>
        <time>2014-01-11T12:16:16Z</time>
      </trkpt>
      <trkpt lat="43.88155" lon="7.40175">
        <ele>778.64898681641</ele>
        <time>2014-01-11T12:16:18Z</time>
      </trkpt>
      <trkpt lat="43.88152" lon="7.40192">
        <ele>774.89013671875</ele>
        <time>2014-01-11T12:16:25Z</time>
      </trkpt>
      <trkpt lat="43.88152" lon="7.40195">
        <ele>774.26879882812</ele>
        <time>2014-01-11T12:16:26Z</time>
      </trkpt>
      <trkpt lat="43.88149" lon="7.4021">
        <ele>772.77783203125</ele>
        <time>2014-01-11T12:16:32Z</time>
      </trkpt>
      <trkpt lat="43.8815" lon="7.40228">
        <ele>770.07781982422</ele>
        <time>2014-01-11T12:16:39Z</time>
      </trkpt>
      <trkpt lat="43.8815" lon="7.40232">
        <ele>769.90704345703</ele>
        <time>2014-01-11T12:16:43Z</time>
      </trkpt>
      <trkpt lat="43.88152" lon="7.40233">
        <ele>769.03424072266</ele>
        <time>2014-01-11T12:16:48Z</time>
      </trkpt>
      <trkpt lat="43.88154" lon="7.40234">
        <ele>767.6337890625</ele>
        <time>2014-01-11T12:16:54Z</time>
      </trkpt>
      <trkpt lat="43.88153" lon="7.40235">
        <ele>767.97467041016</ele>
        <time>2014-01-11T12:17:00Z</time>
      </trkpt>
      <trkpt lat="43.88153" lon="7.40235">
        <ele>768.15753173828</ele>
        <time>2014-01-11T12:17:10Z</time>
      </trkpt>
      <trkpt lat="43.88153" lon="7.40235">
        <ele>768.16534423828</ele>
        <time>2014-01-11T12:17:12Z</time>
      </trkpt>
      <trkpt lat="43.88153" lon="7.40235">
        <ele>768.17053222656</ele>
        <time>2014-01-11T12:17:13Z</time>
      </trkpt>
      <trkpt lat="43.88153" lon="7.40234">
        <ele>768.20941162109</ele>
        <time>2014-01-11T12:17:19Z</time>
      </trkpt>
      <trkpt lat="43.88153" lon="7.40231">
        <ele>768.35980224609</ele>
        <time>2014-01-11T12:17:32Z</time>
      </trkpt>
      <trkpt lat="43.88153" lon="7.40231">
        <ele>768.37280273438</ele>
        <time>2014-01-11T12:17:39Z</time>
      </trkpt>
      <trkpt lat="43.88153" lon="7.40231">
        <ele>768.18664550781</ele>
        <time>2014-01-11T12:17:43Z</time>
      </trkpt>
      <trkpt lat="43.88154" lon="7.40231">
        <ele>767.99279785156</ele>
        <time>2014-01-11T12:17:44Z</time>
      </trkpt>
      <trkpt lat="43.88154" lon="7.40229">
        <ele>767.89489746094</ele>
        <time>2014-01-11T12:18:06Z</time>
      </trkpt>
      <trkpt lat="43.88155" lon="7.4023">
        <ele>767.62939453125</ele>
        <time>2014-01-11T12:18:24Z</time>
      </trkpt>
      <trkpt lat="43.88151" lon="7.4023">
        <ele>769.39782714844</ele>
        <time>2014-01-11T12:18:29Z</time>
      </trkpt>
      <trkpt lat="43.8815" lon="7.4023">
        <ele>769.79510498047</ele>
        <time>2014-01-11T12:18:37Z</time>
      </trkpt>
      <trkpt lat="43.8815" lon="7.4023">
        <ele>769.9912109375</ele>
        <time>2014-01-11T12:18:39Z</time>
      </trkpt>
      <trkpt lat="43.88148" lon="7.40229">
        <ele>770.84051513672</ele>
        <time>2014-01-11T12:18:44Z</time>
      </trkpt>
      <trkpt lat="43.88148" lon="7.40229">
        <ele>770.84979248047</ele>
        <time>2014-01-11T12:18:47Z</time>
      </trkpt>
      <trkpt lat="43.88148" lon="7.40229">
        <ele>770.84515380859</ele>
        <time>2014-01-11T12:18:51Z</time>
      </trkpt>
      <trkpt lat="43.88148" lon="7.40229">
        <ele>771.03826904297</ele>
        <time>2014-01-11T12:18:54Z</time>
      </trkpt>
      <trkpt lat="43.88148" lon="7.40228">
        <ele>770.87054443359</ele>
        <time>2014-01-11T12:18:59Z</time>
      </trkpt>
      <trkpt lat="43.88148" lon="7.40229">
        <ele>770.81744384766</ele>
        <time>2014-01-11T12:19:06Z</time>
      </trkpt>
      <trkpt lat="43.88151" lon="7.40231">
        <ele>769.34338378906</ele>
        <time>2014-01-11T12:19:25Z</time>
      </trkpt>
      <trkpt lat="43.88153" lon="7.40231">
        <ele>768.37017822266</ele>
        <time>2014-01-11T12:19:44Z</time>
      </trkpt>
      <trkpt lat="43.88152" lon="7.40229">
        <ele>769.24664306641</ele>
        <time>2014-01-11T12:19:50Z</time>
      </trkpt>
      <trkpt lat="43.88151" lon="7.4023">
        <ele>769.38299560547</ele>
        <time>2014-01-11T12:19:55Z</time>
      </trkpt>
      <trkpt lat="43.88143" lon="7.40239">
        <ele>773.17132568359</ele>
        <time>2014-01-11T12:20:01Z</time>
      </trkpt>
      <trkpt lat="43.88137" lon="7.40243">
        <ele>776.47589111328</ele>
        <time>2014-01-11T12:20:05Z</time>
      </trkpt>
      <trkpt lat="43.88132" lon="7.40244">
        <ele>778.93487548828</ele>
        <time>2014-01-11T12:20:08Z</time>
      </trkpt>
      <trkpt lat="43.88129" lon="7.40244">
        <ele>780.79412841797</ele>
        <time>2014-01-11T12:20:11Z</time>
      </trkpt>
      <trkpt lat="43.88124" lon="7.40245">
        <ele>783.45709228516</ele>
        <time>2014-01-11T12:20:15Z</time>
      </trkpt>
      <trkpt lat="43.88121" lon="7.40251">
        <ele>784.65759277344</ele>
        <time>2014-01-11T12:20:19Z</time>
      </trkpt>
      <trkpt lat="43.88124" lon="7.4026">
        <ele>783.64025878906</ele>
        <time>2014-01-11T12:20:24Z</time>
      </trkpt>
      <trkpt lat="43.88124" lon="7.40262">
        <ele>783.38684082031</ele>
        <time>2014-01-11T12:20:25Z</time>
      </trkpt>
      <trkpt lat="43.88131" lon="7.40268">
        <ele>780.83569335938</ele>
        <time>2014-01-11T12:20:30Z</time>
      </trkpt>
      <trkpt lat="43.88138" lon="7.40283">
        <ele>779.5947265625</ele>
        <time>2014-01-11T12:20:36Z</time>
      </trkpt>
      <trkpt lat="43.88144" lon="7.40299">
        <ele>776.74340820312</ele>
        <time>2014-01-11T12:20:42Z</time>
      </trkpt>
      <trkpt lat="43.88146" lon="7.40305">
        <ele>775.43878173828</ele>
        <time>2014-01-11T12:20:44Z</time>
      </trkpt>
      <trkpt lat="43.88147" lon="7.40317">
        <ele>776.57946777344</ele>
        <time>2014-01-11T12:20:48Z</time>
      </trkpt>
      <trkpt lat="43.88147" lon="7.40339">
        <ele>779.78125</ele>
        <time>2014-01-11T12:20:56Z</time>
      </trkpt>
      <trkpt lat="43.88146" lon="7.40362">
        <ele>783.92126464844</ele>
        <time>2014-01-11T12:21:04Z</time>
      </trkpt>
      <trkpt lat="43.88146" lon="7.40372">
        <ele>784.05023193359</ele>
        <time>2014-01-11T12:21:08Z</time>
      </trkpt>
      <trkpt lat="43.88146" lon="7.40387">
        <ele>783.78735351562</ele>
        <time>2014-01-11T12:21:14Z</time>
      </trkpt>
      <trkpt lat="43.88141" lon="7.40405">
        <ele>787.20013427734</ele>
        <time>2014-01-11T12:21:21Z</time>
      </trkpt>
      <trkpt lat="43.88135" lon="7.40422">
        <ele>789.93798828125</ele>
        <time>2014-01-11T12:21:28Z</time>
      </trkpt>
      <trkpt lat="43.88134" lon="7.4043">
        <ele>790.00848388672</ele>
        <time>2014-01-11T12:21:31Z</time>
      </trkpt>
      <trkpt lat="43.88131" lon="7.40445">
        <ele>790.24847412109</ele>
        <time>2014-01-11T12:21:38Z</time>
      </trkpt>
      <trkpt lat="43.88131" lon="7.4045">
        <ele>789.96124267578</ele>
        <time>2014-01-11T12:21:40Z</time>
      </trkpt>
      <trkpt lat="43.88126" lon="7.40465">
        <ele>791.63812255859</ele>
        <time>2014-01-11T12:21:46Z</time>
      </trkpt>
      <trkpt lat="43.88126" lon="7.40467">
        <ele>792.07885742188</ele>
        <time>2014-01-11T12:21:47Z</time>
      </trkpt>
      <trkpt lat="43.88121" lon="7.40482">
        <ele>794.77563476562</ele>
        <time>2014-01-11T12:21:53Z</time>
      </trkpt>
      <trkpt lat="43.88118" lon="7.40495">
        <ele>796.52325439453</ele>
        <time>2014-01-11T12:21:58Z</time>
      </trkpt>
      <trkpt lat="43.88118" lon="7.40499">
        <ele>796.16802978516</ele>
        <time>2014-01-11T12:22:00Z</time>
      </trkpt>
      <trkpt lat="43.88117" lon="7.40507">
        <ele>796.47064208984</ele>
        <time>2014-01-11T12:22:04Z</time>
      </trkpt>
      <trkpt lat="43.88114" lon="7.4052">
        <ele>798.33416748047</ele>
        <time>2014-01-11T12:22:10Z</time>
      </trkpt>
      <trkpt lat="43.88112" lon="7.40529">
        <ele>799.41314697266</ele>
        <time>2014-01-11T12:22:14Z</time>
      </trkpt>
      <trkpt lat="43.88108" lon="7.40544">
        <ele>801.50213623047</ele>
        <time>2014-01-11T12:22:21Z</time>
      </trkpt>
      <trkpt lat="43.88107" lon="7.40546">
        <ele>801.89770507812</ele>
        <time>2014-01-11T12:22:22Z</time>
      </trkpt>
      <trkpt lat="43.88105" lon="7.40562">
        <ele>802.42193603516</ele>
        <time>2014-01-11T12:22:28Z</time>
      </trkpt>
      <trkpt lat="43.88102" lon="7.40572">
        <ele>803.29443359375</ele>
        <time>2014-01-11T12:22:33Z</time>
      </trkpt>
      <trkpt lat="43.881" lon="7.40585">
        <ele>803.39123535156</ele>
        <time>2014-01-11T12:22:39Z</time>
      </trkpt>
      <trkpt lat="43.88098" lon="7.40596">
        <ele>804.02978515625</ele>
        <time>2014-01-11T12:22:44Z</time>
      </trkpt>
      <trkpt lat="43.88095" lon="7.40609">
        <ele>804.92248535156</ele>
        <time>2014-01-11T12:22:51Z</time>
      </trkpt>
      <trkpt lat="43.88095" lon="7.40613">
        <ele>804.90209960938</ele>
        <time>2014-01-11T12:22:53Z</time>
      </trkpt>
      <trkpt lat="43.88094" lon="7.40625">
        <ele>803.92340087891</ele>
        <time>2014-01-11T12:23:00Z</time>
      </trkpt>
      <trkpt lat="43.88093" lon="7.40632">
        <ele>804.23999023438</ele>
        <time>2014-01-11T12:23:03Z</time>
      </trkpt>
      <trkpt lat="43.88092" lon="7.40645">
        <ele>803.56256103516</ele>
        <time>2014-01-11T12:23:11Z</time>
      </trkpt>
      <trkpt lat="43.88092" lon="7.40653">
        <ele>803.45953369141</ele>
        <time>2014-01-11T12:23:16Z</time>
      </trkpt>
      <trkpt lat="43.88092" lon="7.4066">
        <ele>803.43035888672</ele>
        <time>2014-01-11T12:23:20Z</time>
      </trkpt>
      <trkpt lat="43.8809" lon="7.40678">
        <ele>804.49566650391</ele>
        <time>2014-01-11T12:23:27Z</time>
      </trkpt>
      <trkpt lat="43.88094" lon="7.40696">
        <ele>802.53839111328</ele>
        <time>2014-01-11T12:23:35Z</time>
      </trkpt>
      <trkpt lat="43.88095" lon="7.4071">
        <ele>802.67199707031</ele>
        <time>2014-01-11T12:23:42Z</time>
      </trkpt>
      <trkpt lat="43.88095" lon="7.40711">
        <ele>802.76324462891</ele>
        <time>2014-01-11T12:23:43Z</time>
      </trkpt>
      <trkpt lat="43.88093" lon="7.40715">
        <ele>804.22039794922</ele>
        <time>2014-01-11T12:23:46Z</time>
      </trkpt>
      <trkpt lat="43.88089" lon="7.40717">
        <ele>806.3193359375</ele>
        <time>2014-01-11T12:23:50Z</time>
      </trkpt>
      <trkpt lat="43.88085" lon="7.40717">
        <ele>808.12731933594</ele>
        <time>2014-01-11T12:23:53Z</time>
      </trkpt>
      <trkpt lat="43.88078" lon="7.40712">
        <ele>810.44775390625</ele>
        <time>2014-01-11T12:23:59Z</time>
      </trkpt>
      <trkpt lat="43.88077" lon="7.4071">
        <ele>810.66925048828</ele>
        <time>2014-01-11T12:24:00Z</time>
      </trkpt>
      <trkpt lat="43.88075" lon="7.40706">
        <ele>811.32879638672</ele>
        <time>2014-01-11T12:24:03Z</time>
      </trkpt>
      <trkpt lat="43.88075" lon="7.40699">
        <ele>811.16522216797</ele>
        <time>2014-01-11T12:24:07Z</time>
      </trkpt>
      <trkpt lat="43.88078" lon="7.40686">
        <ele>810.06958007812</ele>
        <time>2014-01-11T12:24:14Z</time>
      </trkpt>
      <trkpt lat="43.88081" lon="7.40671">
        <ele>808.82934570312</ele>
        <time>2014-01-11T12:24:20Z</time>
      </trkpt>
      <trkpt lat="43.88082" lon="7.4065">
        <ele>809.15319824219</ele>
        <time>2014-01-11T12:24:29Z</time>
      </trkpt>
      <trkpt lat="43.88081" lon="7.40629">
        <ele>811.24206542969</ele>
        <time>2014-01-11T12:24:38Z</time>
      </trkpt>
      <trkpt lat="43.88081" lon="7.40615">
        <ele>812.94152832031</ele>
        <time>2014-01-11T12:24:44Z</time>
      </trkpt>
      <trkpt lat="43.88081" lon="7.40597">
        <ele>814.52465820312</ele>
        <time>2014-01-11T12:24:52Z</time>
      </trkpt>
      <trkpt lat="43.88083" lon="7.40585">
        <ele>814.326171875</ele>
        <time>2014-01-11T12:24:58Z</time>
      </trkpt>
      <trkpt lat="43.88081" lon="7.40567">
        <ele>817.00933837891</ele>
        <time>2014-01-11T12:25:07Z</time>
      </trkpt>
      <trkpt lat="43.88082" lon="7.40551">
        <ele>818.23828125</ele>
        <time>2014-01-11T12:25:14Z</time>
      </trkpt>
      <trkpt lat="43.88082" lon="7.40539">
        <ele>819.89569091797</ele>
        <time>2014-01-11T12:25:20Z</time>
      </trkpt>
      <trkpt lat="43.88082" lon="7.40526">
        <ele>821.14978027344</ele>
        <time>2014-01-11T12:25:26Z</time>
      </trkpt>
      <trkpt lat="43.88081" lon="7.40514">
        <ele>822.01806640625</ele>
        <time>2014-01-11T12:25:32Z</time>
      </trkpt>
      <trkpt lat="43.88081" lon="7.40502">
        <ele>821.77398681641</ele>
        <time>2014-01-11T12:25:38Z</time>
      </trkpt>
      <trkpt lat="43.88083" lon="7.4049">
        <ele>821.7998046875</ele>
        <time>2014-01-11T12:25:44Z</time>
      </trkpt>
      <trkpt lat="43.88084" lon="7.40477">
        <ele>823.02673339844</ele>
        <time>2014-01-11T12:25:50Z</time>
      </trkpt>
      <trkpt lat="43.88085" lon="7.40465">
        <ele>823.93194580078</ele>
        <time>2014-01-11T12:25:56Z</time>
      </trkpt>
      <trkpt lat="43.88088" lon="7.40451">
        <ele>823.5087890625</ele>
        <time>2014-01-11T12:26:02Z</time>
      </trkpt>
      <trkpt lat="43.88091" lon="7.40443">
        <ele>822.05462646484</ele>
        <time>2014-01-11T12:26:05Z</time>
      </trkpt>
      <trkpt lat="43.88095" lon="7.40428">
        <ele>819.79797363281</ele>
        <time>2014-01-11T12:26:11Z</time>
      </trkpt>
      <trkpt lat="43.88096" lon="7.40422">
        <ele>818.93780517578</ele>
        <time>2014-01-11T12:26:14Z</time>
      </trkpt>
      <trkpt lat="43.881" lon="7.40401">
        <ele>816.48010253906</ele>
        <time>2014-01-11T12:26:23Z</time>
      </trkpt>
      <trkpt lat="43.881" lon="7.40386">
        <ele>815.35089111328</ele>
        <time>2014-01-11T12:26:29Z</time>
      </trkpt>
      <trkpt lat="43.88099" lon="7.40369">
        <ele>812.44195556641</ele>
        <time>2014-01-11T12:26:36Z</time>
      </trkpt>
      <trkpt lat="43.88094" lon="7.40353">
        <ele>809.07153320312</ele>
        <time>2014-01-11T12:26:42Z</time>
      </trkpt>
      <trkpt lat="43.88084" lon="7.40343">
        <ele>806.95373535156</ele>
        <time>2014-01-11T12:26:49Z</time>
      </trkpt>
      <trkpt lat="43.88074" lon="7.40338">
        <ele>807.47253417969</ele>
        <time>2014-01-11T12:26:56Z</time>
      </trkpt>
      <trkpt lat="43.88061" lon="7.40327">
        <ele>808.53680419922</ele>
        <time>2014-01-11T12:27:06Z</time>
      </trkpt>
      <trkpt lat="43.88054" lon="7.40323">
        <ele>809.73211669922</ele>
        <time>2014-01-11T12:27:12Z</time>
      </trkpt>
      <trkpt lat="43.88045" lon="7.40316">
        <ele>810.02252197266</ele>
        <time>2014-01-11T12:27:19Z</time>
      </trkpt>
      <trkpt lat="43.88036" lon="7.4031">
        <ele>810.79705810547</ele>
        <time>2014-01-11T12:27:26Z</time>
      </trkpt>
      <trkpt lat="43.88027" lon="7.40303">
        <ele>812.67163085938</ele>
        <time>2014-01-11T12:27:33Z</time>
      </trkpt>
      <trkpt lat="43.88025" lon="7.40301">
        <ele>813.65869140625</ele>
        <time>2014-01-11T12:27:35Z</time>
      </trkpt>
      <trkpt lat="43.88016" lon="7.40293">
        <ele>817.66870117188</ele>
        <time>2014-01-11T12:27:42Z</time>
      </trkpt>
      <trkpt lat="43.88005" lon="7.40284">
        <ele>822.34301757812</ele>
        <time>2014-01-11T12:27:50Z</time>
      </trkpt>
      <trkpt lat="43.87994" lon="7.40275">
        <ele>829.27087402344</ele>
        <time>2014-01-11T12:27:59Z</time>
      </trkpt>
      <trkpt lat="43.87988" lon="7.40271">
        <ele>834.56481933594</ele>
        <time>2014-01-11T12:28:05Z</time>
      </trkpt>
      <trkpt lat="43.87981" lon="7.40268">
        <ele>839.15649414062</ele>
        <time>2014-01-11T12:28:11Z</time>
      </trkpt>
      <trkpt lat="43.87974" lon="7.40261">
        <ele>845.37408447266</ele>
        <time>2014-01-11T12:28:17Z</time>
      </trkpt>
      <trkpt lat="43.8797" lon="7.40255">
        <ele>849.23388671875</ele>
        <time>2014-01-11T12:28:21Z</time>
      </trkpt>
      <trkpt lat="43.87968" lon="7.40247">
        <ele>853.43731689453</ele>
        <time>2014-01-11T12:28:28Z</time>
      </trkpt>
      <trkpt lat="43.8797" lon="7.40237">
        <ele>855.76354980469</ele>
        <time>2014-01-11T12:28:35Z</time>
      </trkpt>
      <trkpt lat="43.87971" lon="7.40236">
        <ele>855.71246337891</ele>
        <time>2014-01-11T12:28:37Z</time>
      </trkpt>
      <trkpt lat="43.87974" lon="7.40229">
        <ele>856.89636230469</ele>
        <time>2014-01-11T12:28:44Z</time>
      </trkpt>
      <trkpt lat="43.87978" lon="7.40225">
        <ele>856.78649902344</ele>
        <time>2014-01-11T12:28:48Z</time>
      </trkpt>
      <trkpt lat="43.87981" lon="7.40222">
        <ele>856.37548828125</ele>
        <time>2014-01-11T12:28:52Z</time>
      </trkpt>
      <trkpt lat="43.87989" lon="7.40216">
        <ele>854.35675048828</ele>
        <time>2014-01-11T12:28:59Z</time>
      </trkpt>
      <trkpt lat="43.88" lon="7.40206">
        <ele>852.18182373047</ele>
        <time>2014-01-11T12:29:07Z</time>
      </trkpt>
      <trkpt lat="43.88008" lon="7.40199">
        <ele>850.48059082031</ele>
        <time>2014-01-11T12:29:14Z</time>
      </trkpt>
      <trkpt lat="43.88017" lon="7.40194">
        <ele>848.20690917969</ele>
        <time>2014-01-11T12:29:20Z</time>
      </trkpt>
      <trkpt lat="43.88029" lon="7.40184">
        <ele>843.45422363281</ele>
        <time>2014-01-11T12:29:29Z</time>
      </trkpt>
      <trkpt lat="43.88036" lon="7.40174">
        <ele>840.62634277344</ele>
        <time>2014-01-11T12:29:35Z</time>
      </trkpt>
      <trkpt lat="43.88037" lon="7.40165">
        <ele>840.05767822266</ele>
        <time>2014-01-11T12:29:40Z</time>
      </trkpt>
      <trkpt lat="43.88037" lon="7.40154">
        <ele>839.80316162109</ele>
        <time>2014-01-11T12:29:47Z</time>
      </trkpt>
      <trkpt lat="43.88036" lon="7.40141">
        <ele>840.21496582031</ele>
        <time>2014-01-11T12:29:55Z</time>
      </trkpt>
      <trkpt lat="43.88034" lon="7.40124">
        <ele>840.21533203125</ele>
        <time>2014-01-11T12:30:03Z</time>
      </trkpt>
      <trkpt lat="43.88034" lon="7.40116">
        <ele>839.97302246094</ele>
        <time>2014-01-11T12:30:07Z</time>
      </trkpt>
      <trkpt lat="43.88029" lon="7.40092">
        <ele>840.86407470703</ele>
        <time>2014-01-11T12:30:17Z</time>
      </trkpt>
      <trkpt lat="43.88023" lon="7.40076">
        <ele>843.92864990234</ele>
        <time>2014-01-11T12:30:25Z</time>
      </trkpt>
      <trkpt lat="43.88021" lon="7.40056">
        <ele>846.63153076172</ele>
        <time>2014-01-11T12:30:35Z</time>
      </trkpt>
      <trkpt lat="43.88021" lon="7.40045">
        <ele>848.07775878906</ele>
        <time>2014-01-11T12:30:41Z</time>
      </trkpt>
      <trkpt lat="43.88021" lon="7.40029">
        <ele>850.55883789062</ele>
        <time>2014-01-11T12:30:49Z</time>
      </trkpt>
      <trkpt lat="43.8802" lon="7.40028">
        <ele>850.96990966797</ele>
        <time>2014-01-11T12:30:50Z</time>
      </trkpt>
      <trkpt lat="43.88013" lon="7.40029">
        <ele>852.62768554688</ele>
        <time>2014-01-11T12:30:57Z</time>
      </trkpt>
      <trkpt lat="43.8801" lon="7.40039">
        <ele>852.5625</ele>
        <time>2014-01-11T12:31:02Z</time>
      </trkpt>
      <trkpt lat="43.8801" lon="7.40052">
        <ele>851.20446777344</ele>
        <time>2014-01-11T12:31:09Z</time>
      </trkpt>
      <trkpt lat="43.88013" lon="7.40062">
        <ele>849.54510498047</ele>
        <time>2014-01-11T12:31:15Z</time>
      </trkpt>
      <trkpt lat="43.88013" lon="7.40076">
        <ele>848.22351074219</ele>
        <time>2014-01-11T12:31:22Z</time>
      </trkpt>
      <trkpt lat="43.88015" lon="7.40088">
        <ele>847.04376220703</ele>
        <time>2014-01-11T12:31:28Z</time>
      </trkpt>
      <trkpt lat="43.8802" lon="7.40103">
        <ele>845.76055908203</ele>
        <time>2014-01-11T12:31:35Z</time>
      </trkpt>
      <trkpt lat="43.88021" lon="7.40119">
        <ele>846.10321044922</ele>
        <time>2014-01-11T12:31:42Z</time>
      </trkpt>
      <trkpt lat="43.8802" lon="7.40135">
        <ele>847.87475585938</ele>
        <time>2014-01-11T12:31:50Z</time>
      </trkpt>
      <trkpt lat="43.88015" lon="7.40149">
        <ele>850.64196777344</ele>
        <time>2014-01-11T12:31:57Z</time>
      </trkpt>
      <trkpt lat="43.88012" lon="7.40156">
        <ele>852.24896240234</ele>
        <time>2014-01-11T12:32:01Z</time>
      </trkpt>
      <trkpt lat="43.88007" lon="7.40162">
        <ele>854.87347412109</ele>
        <time>2014-01-11T12:32:08Z</time>
      </trkpt>
      <trkpt lat="43.88002" lon="7.40166">
        <ele>856.87762451172</ele>
        <time>2014-01-11T12:32:13Z</time>
      </trkpt>
      <trkpt lat="43.87994" lon="7.40171">
        <ele>860.78460693359</ele>
        <time>2014-01-11T12:32:19Z</time>
      </trkpt>
      <trkpt lat="43.87986" lon="7.40178">
        <ele>863.85583496094</ele>
        <time>2014-01-11T12:32:25Z</time>
      </trkpt>
      <trkpt lat="43.87976" lon="7.40187">
        <ele>867.04638671875</ele>
        <time>2014-01-11T12:32:33Z</time>
      </trkpt>
      <trkpt lat="43.87969" lon="7.40195">
        <ele>869.04992675781</ele>
        <time>2014-01-11T12:32:39Z</time>
      </trkpt>
      <trkpt lat="43.87959" lon="7.40205">
        <ele>872.72595214844</ele>
        <time>2014-01-11T12:32:47Z</time>
      </trkpt>
      <trkpt lat="43.87955" lon="7.40208">
        <ele>874.02740478516</ele>
        <time>2014-01-11T12:32:50Z</time>
      </trkpt>
      <trkpt lat="43.87944" lon="7.40216">
        <ele>879.58441162109</ele>
        <time>2014-01-11T12:32:59Z</time>
      </trkpt>
      <trkpt lat="43.87937" lon="7.40224">
        <ele>880.20825195312</ele>
        <time>2014-01-11T12:33:04Z</time>
      </trkpt>
      <trkpt lat="43.87929" lon="7.40233">
        <ele>879.92309570312</ele>
        <time>2014-01-11T12:33:10Z</time>
      </trkpt>
      <trkpt lat="43.87922" lon="7.40241">
        <ele>880.64270019531</ele>
        <time>2014-01-11T12:33:15Z</time>
      </trkpt>
      <trkpt lat="43.87913" lon="7.4025">
        <ele>882.2509765625</ele>
        <time>2014-01-11T12:33:21Z</time>
      </trkpt>
      <trkpt lat="43.87908" lon="7.40261">
        <ele>881.53131103516</ele>
        <time>2014-01-11T12:33:29Z</time>
      </trkpt>
      <trkpt lat="43.87904" lon="7.40268">
        <ele>882.04858398438</ele>
        <time>2014-01-11T12:33:34Z</time>
      </trkpt>
      <trkpt lat="43.87897" lon="7.40273">
        <ele>884.7265625</ele>
        <time>2014-01-11T12:33:40Z</time>
      </trkpt>
      <trkpt lat="43.87895" lon="7.40272">
        <ele>886.20550537109</ele>
        <time>2014-01-11T12:33:46Z</time>
      </trkpt>
      <trkpt lat="43.87893" lon="7.4027">
        <ele>888.07641601562</ele>
        <time>2014-01-11T12:33:57Z</time>
      </trkpt>
      <trkpt lat="43.87891" lon="7.40269">
        <ele>889.20257568359</ele>
        <time>2014-01-11T12:34:03Z</time>
      </trkpt>
      <trkpt lat="43.87888" lon="7.40275">
        <ele>888.87945556641</ele>
        <time>2014-01-11T12:34:19Z</time>
      </trkpt>
      <trkpt lat="43.87889" lon="7.40275">
        <ele>888.86676025391</ele>
        <time>2014-01-11T12:34:21Z</time>
      </trkpt>
      <trkpt lat="43.87889" lon="7.40275">
        <ele>888.37072753906</ele>
        <time>2014-01-11T12:34:24Z</time>
      </trkpt>
      <trkpt lat="43.87893" lon="7.40275">
        <ele>886.44329833984</ele>
        <time>2014-01-11T12:34:27Z</time>
      </trkpt>
      <trkpt lat="43.87895" lon="7.40276">
        <ele>884.73229980469</ele>
        <time>2014-01-11T12:34:31Z</time>
      </trkpt>
      <trkpt lat="43.87895" lon="7.40276">
        <ele>884.80291748047</ele>
        <time>2014-01-11T12:34:32Z</time>
      </trkpt>
      <trkpt lat="43.87895" lon="7.40274">
        <ele>885.34545898438</ele>
        <time>2014-01-11T12:34:35Z</time>
      </trkpt>
      <trkpt lat="43.87895" lon="7.40274">
        <ele>885.45825195312</ele>
        <time>2014-01-11T12:34:36Z</time>
      </trkpt>
      <trkpt lat="43.87895" lon="7.4027">
        <ele>886.57208251953</ele>
        <time>2014-01-11T12:34:45Z</time>
      </trkpt>
      <trkpt lat="43.87895" lon="7.4027">
        <ele>886.55798339844</ele>
        <time>2014-01-11T12:34:46Z</time>
      </trkpt>
      <trkpt lat="43.87899" lon="7.40275">
        <ele>882.63739013672</ele>
        <time>2014-01-11T12:34:59Z</time>
      </trkpt>
      <trkpt lat="43.879" lon="7.40275">
        <ele>881.92669677734</ele>
        <time>2014-01-11T12:35:20Z</time>
      </trkpt>
      <trkpt lat="43.87894" lon="7.40277">
        <ele>884.74676513672</ele>
        <time>2014-01-11T12:35:33Z</time>
      </trkpt>
      <trkpt lat="43.87896" lon="7.40278">
        <ele>883.68640136719</ele>
        <time>2014-01-11T12:35:39Z</time>
      </trkpt>
      <trkpt lat="43.879" lon="7.40279">
        <ele>880.830078125</ele>
        <time>2014-01-11T12:35:47Z</time>
      </trkpt>
      <trkpt lat="43.87899" lon="7.40277">
        <ele>882.00561523438</ele>
        <time>2014-01-11T12:35:58Z</time>
      </trkpt>
      <trkpt lat="43.87896" lon="7.40275">
        <ele>884.35241699219</ele>
        <time>2014-01-11T12:36:16Z</time>
      </trkpt>
      <trkpt lat="43.87901" lon="7.40283">
        <ele>878.98693847656</ele>
        <time>2014-01-11T12:36:26Z</time>
      </trkpt>
      <trkpt lat="43.87902" lon="7.40285">
        <ele>877.99182128906</ele>
        <time>2014-01-11T12:36:27Z</time>
      </trkpt>
      <trkpt lat="43.87902" lon="7.40287">
        <ele>876.86212158203</ele>
        <time>2014-01-11T12:36:28Z</time>
      </trkpt>
      <trkpt lat="43.87905" lon="7.40294">
        <ele>872.91168212891</ele>
        <time>2014-01-11T12:36:32Z</time>
      </trkpt>
      <trkpt lat="43.87907" lon="7.40298">
        <ele>870.99572753906</ele>
        <time>2014-01-11T12:36:34Z</time>
      </trkpt>
      <trkpt lat="43.87918" lon="7.40311">
        <ele>859.99884033203</ele>
        <time>2014-01-11T12:36:41Z</time>
      </trkpt>
      <trkpt lat="43.87927" lon="7.40319">
        <ele>852.35211181641</ele>
        <time>2014-01-11T12:36:47Z</time>
      </trkpt>
      <trkpt lat="43.87937" lon="7.40327">
        <ele>845.00921630859</ele>
        <time>2014-01-11T12:36:54Z</time>
      </trkpt>
      <trkpt lat="43.87945" lon="7.40334">
        <ele>840.16979980469</ele>
        <time>2014-01-11T12:37:00Z</time>
      </trkpt>
      <trkpt lat="43.87956" lon="7.40342">
        <ele>841.41253662109</ele>
        <time>2014-01-11T12:37:07Z</time>
      </trkpt>
      <trkpt lat="43.87967" lon="7.40347">
        <ele>841.18865966797</ele>
        <time>2014-01-11T12:37:13Z</time>
      </trkpt>
      <trkpt lat="43.87978" lon="7.40354">
        <ele>841.01751708984</ele>
        <time>2014-01-11T12:37:20Z</time>
      </trkpt>
      <trkpt lat="43.87988" lon="7.40363">
        <ele>841.94958496094</ele>
        <time>2014-01-11T12:37:27Z</time>
      </trkpt>
      <trkpt lat="43.87998" lon="7.40374">
        <ele>844.27471923828</ele>
        <time>2014-01-11T12:37:34Z</time>
      </trkpt>
      <trkpt lat="43.88007" lon="7.40387">
        <ele>847.83361816406</ele>
        <time>2014-01-11T12:37:42Z</time>
      </trkpt>
      <trkpt lat="43.88008" lon="7.40395">
        <ele>851.30108642578</ele>
        <time>2014-01-11T12:37:46Z</time>
      </trkpt>
      <trkpt lat="43.88005" lon="7.40409">
        <ele>858.21606445312</ele>
        <time>2014-01-11T12:37:53Z</time>
      </trkpt>
      <trkpt lat="43.88003" lon="7.40417">
        <ele>862.56811523438</ele>
        <time>2014-01-11T12:37:58Z</time>
      </trkpt>
      <trkpt lat="43.88002" lon="7.40432">
        <ele>867.39532470703</ele>
        <time>2014-01-11T12:38:05Z</time>
      </trkpt>
      <trkpt lat="43.87999" lon="7.40445">
        <ele>872.68786621094</ele>
        <time>2014-01-11T12:38:11Z</time>
      </trkpt>
      <trkpt lat="43.87997" lon="7.40459">
        <ele>877.55487060547</ele>
        <time>2014-01-11T12:38:17Z</time>
      </trkpt>
      <trkpt lat="43.87993" lon="7.40477">
        <ele>884.79345703125</ele>
        <time>2014-01-11T12:38:24Z</time>
      </trkpt>
      <trkpt lat="43.87993" lon="7.4048">
        <ele>885.29754638672</ele>
        <time>2014-01-11T12:38:25Z</time>
      </trkpt>
      <trkpt lat="43.87996" lon="7.40495">
        <ele>886.82751464844</ele>
        <time>2014-01-11T12:38:31Z</time>
      </trkpt>
      <trkpt lat="43.87993" lon="7.4051">
        <ele>889.31689453125</ele>
        <time>2014-01-11T12:38:37Z</time>
      </trkpt>
      <trkpt lat="43.87993" lon="7.40527">
        <ele>889.86151123047</ele>
        <time>2014-01-11T12:38:43Z</time>
      </trkpt>
      <trkpt lat="43.87993" lon="7.40547">
        <ele>887.57965087891</ele>
        <time>2014-01-11T12:38:50Z</time>
      </trkpt>
      <trkpt lat="43.87991" lon="7.40562">
        <ele>887.95446777344</ele>
        <time>2014-01-11T12:38:56Z</time>
      </trkpt>
      <trkpt lat="43.87986" lon="7.40578">
        <ele>889.70196533203</ele>
        <time>2014-01-11T12:39:02Z</time>
      </trkpt>
      <trkpt lat="43.87982" lon="7.40594">
        <ele>891.71624755859</ele>
        <time>2014-01-11T12:39:08Z</time>
      </trkpt>
      <trkpt lat="43.87974" lon="7.4061">
        <ele>895.03186035156</ele>
        <time>2014-01-11T12:39:15Z</time>
      </trkpt>
      <trkpt lat="43.8797" lon="7.40622">
        <ele>896.89739990234</ele>
        <time>2014-01-11T12:39:20Z</time>
      </trkpt>
      <trkpt lat="43.87967" lon="7.40636">
        <ele>898.34002685547</ele>
        <time>2014-01-11T12:39:26Z</time>
      </trkpt>
      <trkpt lat="43.87963" lon="7.40647">
        <ele>899.84869384766</ele>
        <time>2014-01-11T12:39:31Z</time>
      </trkpt>
      <trkpt lat="43.87961" lon="7.40656">
        <ele>900.15948486328</ele>
        <time>2014-01-11T12:39:35Z</time>
      </trkpt>
      <trkpt lat="43.87955" lon="7.40671">
        <ele>902.00103759766</ele>
        <time>2014-01-11T12:39:42Z</time>
      </trkpt>
      <trkpt lat="43.87953" lon="7.40685">
        <ele>902.27740478516</ele>
        <time>2014-01-11T12:39:48Z</time>
      </trkpt>
      <trkpt lat="43.87947" lon="7.40707">
        <ele>903.63104248047</ele>
        <time>2014-01-11T12:39:57Z</time>
      </trkpt>
      <trkpt lat="43.87943" lon="7.4072">
        <ele>905.0810546875</ele>
        <time>2014-01-11T12:40:03Z</time>
      </trkpt>
      <trkpt lat="43.87942" lon="7.40735">
        <ele>903.79858398438</ele>
        <time>2014-01-11T12:40:09Z</time>
      </trkpt>
      <trkpt lat="43.87941" lon="7.40748">
        <ele>902.82403564453</ele>
        <time>2014-01-11T12:40:14Z</time>
      </trkpt>
      <trkpt lat="43.87945" lon="7.40759">
        <ele>899.77349853516</ele>
        <time>2014-01-11T12:40:19Z</time>
      </trkpt>
      <trkpt lat="43.87947" lon="7.40766">
        <ele>897.96417236328</ele>
        <time>2014-01-11T12:40:22Z</time>
      </trkpt>
      <trkpt lat="43.87949" lon="7.40784">
        <ele>897.60180664062</ele>
        <time>2014-01-11T12:40:29Z</time>
      </trkpt>
      <trkpt lat="43.87948" lon="7.40804">
        <ele>900.08215332031</ele>
        <time>2014-01-11T12:40:36Z</time>
      </trkpt>
      <trkpt lat="43.87951" lon="7.40827">
        <ele>900.57928466797</ele>
        <time>2014-01-11T12:40:43Z</time>
      </trkpt>
      <trkpt lat="43.87955" lon="7.40843">
        <ele>898.625</ele>
        <time>2014-01-11T12:40:48Z</time>
      </trkpt>
      <trkpt lat="43.8796" lon="7.40859">
        <ele>895.58312988281</ele>
        <time>2014-01-11T12:40:53Z</time>
      </trkpt>
      <trkpt lat="43.87962" lon="7.40865">
        <ele>895.07092285156</ele>
        <time>2014-01-11T12:40:55Z</time>
      </trkpt>
      <trkpt lat="43.87962" lon="7.40887">
        <ele>898.37182617188</ele>
        <time>2014-01-11T12:41:01Z</time>
      </trkpt>
      <trkpt lat="43.87966" lon="7.40905">
        <ele>897.60382080078</ele>
        <time>2014-01-11T12:41:06Z</time>
      </trkpt>
      <trkpt lat="43.87967" lon="7.40917">
        <ele>899.42993164062</ele>
        <time>2014-01-11T12:41:10Z</time>
      </trkpt>
      <trkpt lat="43.87971" lon="7.40942">
        <ele>900.48461914062</ele>
        <time>2014-01-11T12:41:17Z</time>
      </trkpt>
      <trkpt lat="43.87971" lon="7.40959">
        <ele>901.06390380859</ele>
        <time>2014-01-11T12:41:21Z</time>
      </trkpt>
      <trkpt lat="43.87973" lon="7.40984">
        <ele>901.25061035156</ele>
        <time>2014-01-11T12:41:27Z</time>
      </trkpt>
      <trkpt lat="43.87978" lon="7.41007">
        <ele>899.64276123047</ele>
        <time>2014-01-11T12:41:33Z</time>
      </trkpt>
      <trkpt lat="43.87986" lon="7.41026">
        <ele>897.54846191406</ele>
        <time>2014-01-11T12:41:38Z</time>
      </trkpt>
      <trkpt lat="43.87991" lon="7.4105">
        <ele>898.62573242188</ele>
        <time>2014-01-11T12:41:44Z</time>
      </trkpt>
      <trkpt lat="43.87999" lon="7.4107">
        <ele>897.97570800781</ele>
        <time>2014-01-11T12:41:50Z</time>
      </trkpt>
      <trkpt lat="43.88008" lon="7.41085">
        <ele>896.76287841797</ele>
        <time>2014-01-11T12:41:57Z</time>
      </trkpt>
      <trkpt lat="43.88011" lon="7.41102">
        <ele>898.96343994141</ele>
        <time>2014-01-11T12:42:04Z</time>
      </trkpt>
      <trkpt lat="43.88008" lon="7.41109">
        <ele>900.96423339844</ele>
        <time>2014-01-11T12:42:07Z</time>
      </trkpt>
      <trkpt lat="43.87995" lon="7.41112">
        <ele>905.12811279297</ele>
        <time>2014-01-11T12:42:14Z</time>
      </trkpt>
      <trkpt lat="43.87988" lon="7.41102">
        <ele>906.60296630859</ele>
        <time>2014-01-11T12:42:20Z</time>
      </trkpt>
      <trkpt lat="43.87986" lon="7.41095">
        <ele>906.96002197266</ele>
        <time>2014-01-11T12:42:23Z</time>
      </trkpt>
      <trkpt lat="43.87981" lon="7.41077">
        <ele>907.02264404297</ele>
        <time>2014-01-11T12:42:32Z</time>
      </trkpt>
      <trkpt lat="43.87977" lon="7.41066">
        <ele>907.61157226562</ele>
        <time>2014-01-11T12:42:38Z</time>
      </trkpt>
      <trkpt lat="43.87971" lon="7.41056">
        <ele>909.83862304688</ele>
        <time>2014-01-11T12:42:44Z</time>
      </trkpt>
      <trkpt lat="43.8797" lon="7.41054">
        <ele>910.22863769531</ele>
        <time>2014-01-11T12:42:45Z</time>
      </trkpt>
      <trkpt lat="43.87965" lon="7.41046">
        <ele>913.55169677734</ele>
        <time>2014-01-11T12:42:50Z</time>
      </trkpt>
      <trkpt lat="43.87964" lon="7.41041">
        <ele>913.57275390625</ele>
        <time>2014-01-11T12:42:53Z</time>
      </trkpt>
      <trkpt lat="43.87962" lon="7.41023">
        <ele>913.59368896484</ele>
        <time>2014-01-11T12:43:02Z</time>
      </trkpt>
      <trkpt lat="43.87958" lon="7.41008">
        <ele>914.84100341797</ele>
        <time>2014-01-11T12:43:10Z</time>
      </trkpt>
      <trkpt lat="43.87954" lon="7.4099">
        <ele>916.72290039062</ele>
        <time>2014-01-11T12:43:19Z</time>
      </trkpt>
      <trkpt lat="43.87952" lon="7.40978">
        <ele>917.72534179688</ele>
        <time>2014-01-11T12:43:25Z</time>
      </trkpt>
      <trkpt lat="43.87949" lon="7.40967">
        <ele>919.17010498047</ele>
        <time>2014-01-11T12:43:31Z</time>
      </trkpt>
      <trkpt lat="43.87945" lon="7.40949">
        <ele>920.22222900391</ele>
        <time>2014-01-11T12:43:40Z</time>
      </trkpt>
      <trkpt lat="43.87943" lon="7.40937">
        <ele>920.85522460938</ele>
        <time>2014-01-11T12:43:46Z</time>
      </trkpt>
      <trkpt lat="43.87943" lon="7.40936">
        <ele>921.05023193359</ele>
        <time>2014-01-11T12:43:47Z</time>
      </trkpt>
      <trkpt lat="43.87939" lon="7.4092">
        <ele>922.77758789062</ele>
        <time>2014-01-11T12:43:56Z</time>
      </trkpt>
      <trkpt lat="43.87937" lon="7.40912">
        <ele>922.83612060547</ele>
        <time>2014-01-11T12:44:01Z</time>
      </trkpt>
      <trkpt lat="43.87937" lon="7.4091">
        <ele>922.74688720703</ele>
        <time>2014-01-11T12:44:03Z</time>
      </trkpt>
      <trkpt lat="43.87936" lon="7.40899">
        <ele>921.74255371094</ele>
        <time>2014-01-11T12:44:09Z</time>
      </trkpt>
      <trkpt lat="43.87933" lon="7.40886">
        <ele>921.99133300781</ele>
        <time>2014-01-11T12:44:15Z</time>
      </trkpt>
      <trkpt lat="43.87933" lon="7.40874">
        <ele>920.482421875</ele>
        <time>2014-01-11T12:44:21Z</time>
      </trkpt>
      <trkpt lat="43.87932" lon="7.40866">
        <ele>919.87445068359</ele>
        <time>2014-01-11T12:44:26Z</time>
      </trkpt>
      <trkpt lat="43.87931" lon="7.40864">
        <ele>920.32208251953</ele>
        <time>2014-01-11T12:44:28Z</time>
      </trkpt>
      <trkpt lat="43.8793" lon="7.40856">
        <ele>919.81237792969</ele>
        <time>2014-01-11T12:44:33Z</time>
      </trkpt>
      <trkpt lat="43.87928" lon="7.40843">
        <ele>919.87377929688</ele>
        <time>2014-01-11T12:44:40Z</time>
      </trkpt>
      <trkpt lat="43.87923" lon="7.40825">
        <ele>921.13830566406</ele>
        <time>2014-01-11T12:44:49Z</time>
      </trkpt>
      <trkpt lat="43.87917" lon="7.40806">
        <ele>922.86328125</ele>
        <time>2014-01-11T12:44:59Z</time>
      </trkpt>
      <trkpt lat="43.87912" lon="7.4079">
        <ele>924.47424316406</ele>
        <time>2014-01-11T12:45:08Z</time>
      </trkpt>
      <trkpt lat="43.8791" lon="7.40788">
        <ele>925.06011962891</ele>
        <time>2014-01-11T12:45:09Z</time>
      </trkpt>
      <trkpt lat="43.87906" lon="7.40778">
        <ele>927.28363037109</ele>
        <time>2014-01-11T12:45:15Z</time>
      </trkpt>
      <trkpt lat="43.87903" lon="7.40773">
        <ele>929.14434814453</ele>
        <time>2014-01-11T12:45:18Z</time>
      </trkpt>
      <trkpt lat="43.879" lon="7.40757">
        <ele>931.85021972656</ele>
        <time>2014-01-11T12:45:26Z</time>
      </trkpt>
      <trkpt lat="43.87901" lon="7.40752">
        <ele>931.5400390625</ele>
        <time>2014-01-11T12:45:28Z</time>
      </trkpt>
      <trkpt lat="43.87902" lon="7.40734">
        <ele>932.20349121094</ele>
        <time>2014-01-11T12:45:36Z</time>
      </trkpt>
      <trkpt lat="43.87906" lon="7.40721">
        <ele>931.57000732422</ele>
        <time>2014-01-11T12:45:42Z</time>
      </trkpt>
      <trkpt lat="43.87907" lon="7.40703">
        <ele>933.02569580078</ele>
        <time>2014-01-11T12:45:50Z</time>
      </trkpt>
      <trkpt lat="43.87908" lon="7.40688">
        <ele>934.96417236328</ele>
        <time>2014-01-11T12:45:57Z</time>
      </trkpt>
      <trkpt lat="43.87912" lon="7.40674">
        <ele>934.68994140625</ele>
        <time>2014-01-11T12:46:04Z</time>
      </trkpt>
      <trkpt lat="43.87915" lon="7.40658">
        <ele>934.83959960938</ele>
        <time>2014-01-11T12:46:11Z</time>
      </trkpt>
      <trkpt lat="43.87917" lon="7.40645">
        <ele>935.25842285156</ele>
        <time>2014-01-11T12:46:17Z</time>
      </trkpt>
      <trkpt lat="43.87918" lon="7.40633">
        <ele>935.97869873047</ele>
        <time>2014-01-11T12:46:22Z</time>
      </trkpt>
      <trkpt lat="43.87922" lon="7.4062">
        <ele>934.17114257812</ele>
        <time>2014-01-11T12:46:29Z</time>
      </trkpt>
      <trkpt lat="43.87924" lon="7.40612">
        <ele>933.68853759766</ele>
        <time>2014-01-11T12:46:33Z</time>
      </trkpt>
      <trkpt lat="43.87931" lon="7.40596">
        <ele>929.74200439453</ele>
        <time>2014-01-11T12:46:41Z</time>
      </trkpt>
      <trkpt lat="43.87934" lon="7.4058">
        <ele>928.66027832031</ele>
        <time>2014-01-11T12:46:48Z</time>
      </trkpt>
      <trkpt lat="43.87938" lon="7.40565">
        <ele>925.79345703125</ele>
        <time>2014-01-11T12:46:55Z</time>
      </trkpt>
      <trkpt lat="43.87941" lon="7.40549">
        <ele>923.18603515625</ele>
        <time>2014-01-11T12:47:02Z</time>
      </trkpt>
      <trkpt lat="43.87939" lon="7.40534">
        <ele>924.04174804688</ele>
        <time>2014-01-11T12:47:09Z</time>
      </trkpt>
      <trkpt lat="43.87934" lon="7.40515">
        <ele>923.99987792969</ele>
        <time>2014-01-11T12:47:18Z</time>
      </trkpt>
      <trkpt lat="43.87933" lon="7.40514">
        <ele>923.89331054688</ele>
        <time>2014-01-11T12:47:19Z</time>
      </trkpt>
      <trkpt lat="43.8793" lon="7.40497">
        <ele>921.06597900391</ele>
        <time>2014-01-11T12:47:28Z</time>
      </trkpt>
      <trkpt lat="43.87923" lon="7.40484">
        <ele>920.06109619141</ele>
        <time>2014-01-11T12:47:36Z</time>
      </trkpt>
      <trkpt lat="43.87913" lon="7.40475">
        <ele>921.96282958984</ele>
        <time>2014-01-11T12:47:44Z</time>
      </trkpt>
      <trkpt lat="43.87903" lon="7.40469">
        <ele>921.85180664062</ele>
        <time>2014-01-11T12:47:51Z</time>
      </trkpt>
      <trkpt lat="43.87894" lon="7.40465">
        <ele>921.62866210938</ele>
        <time>2014-01-11T12:47:57Z</time>
      </trkpt>
      <trkpt lat="43.87882" lon="7.40459">
        <ele>922.23004150391</ele>
        <time>2014-01-11T12:48:06Z</time>
      </trkpt>
      <trkpt lat="43.87873" lon="7.40455">
        <ele>923.09155273438</ele>
        <time>2014-01-11T12:48:12Z</time>
      </trkpt>
      <trkpt lat="43.87871" lon="7.40454">
        <ele>923.31488037109</ele>
        <time>2014-01-11T12:48:13Z</time>
      </trkpt>
      <trkpt lat="43.87865" lon="7.40447">
        <ele>922.05462646484</ele>
        <time>2014-01-11T12:48:18Z</time>
      </trkpt>
      <trkpt lat="43.87863" lon="7.40447">
        <ele>922.44024658203</ele>
        <time>2014-01-11T12:48:19Z</time>
      </trkpt>
      <trkpt lat="43.87843" lon="7.40437">
        <ele>922.94232177734</ele>
        <time>2014-01-11T12:48:30Z</time>
      </trkpt>
      <trkpt lat="43.87833" lon="7.40433">
        <ele>924.35614013672</ele>
        <time>2014-01-11T12:48:37Z</time>
      </trkpt>
      <trkpt lat="43.87828" lon="7.4043">
        <ele>923.95776367188</ele>
        <time>2014-01-11T12:48:44Z</time>
      </trkpt>
      <trkpt lat="43.87828" lon="7.40428">
        <ele>923.4326171875</ele>
        <time>2014-01-11T12:48:51Z</time>
      </trkpt>
      <trkpt lat="43.87826" lon="7.40423">
        <ele>921.43011474609</ele>
        <time>2014-01-11T12:48:59Z</time>
      </trkpt>
      <trkpt lat="43.87825" lon="7.4042">
        <ele>920.18756103516</ele>
        <time>2014-01-11T12:49:07Z</time>
      </trkpt>
      <trkpt lat="43.87825" lon="7.40416">
        <ele>918.44702148438</ele>
        <time>2014-01-11T12:49:15Z</time>
      </trkpt>
      <trkpt lat="43.87825" lon="7.40416">
        <ele>918.54730224609</ele>
        <time>2014-01-11T12:49:19Z</time>
      </trkpt>
      <trkpt lat="43.87825" lon="7.40417">
        <ele>918.7666015625</ele>
        <time>2014-01-11T12:49:25Z</time>
      </trkpt>
      <trkpt lat="43.87825" lon="7.40418">
        <ele>919.13464355469</ele>
        <time>2014-01-11T12:49:31Z</time>
      </trkpt>
      <trkpt lat="43.87825" lon="7.40418">
        <ele>919.29571533203</ele>
        <time>2014-01-11T12:49:34Z</time>
      </trkpt>
      <trkpt lat="43.87824" lon="7.40418">
        <ele>919.63208007812</ele>
        <time>2014-01-11T12:49:38Z</time>
      </trkpt>
      <trkpt lat="43.87821" lon="7.40424">
        <ele>923.47113037109</ele>
        <time>2014-01-11T12:49:47Z</time>
      </trkpt>
      <trkpt lat="43.87823" lon="7.40427">
        <ele>923.91479492188</ele>
        <time>2014-01-11T12:49:57Z</time>
      </trkpt>
      <trkpt lat="43.87824" lon="7.40426">
        <ele>923.32080078125</ele>
        <time>2014-01-11T12:50:08Z</time>
      </trkpt>
      <trkpt lat="43.87824" lon="7.40427">
        <ele>923.80096435547</ele>
        <time>2014-01-11T12:50:16Z</time>
      </trkpt>
      <trkpt lat="43.87827" lon="7.40421">
        <ele>920.05499267578</ele>
        <time>2014-01-11T12:50:46Z</time>
      </trkpt>
      <trkpt lat="43.87827" lon="7.40418">
        <ele>918.77679443359</ele>
        <time>2014-01-11T12:50:51Z</time>
      </trkpt>
      <trkpt lat="43.87826" lon="7.40412">
        <ele>916.21130371094</ele>
        <time>2014-01-11T12:51:04Z</time>
      </trkpt>
      <trkpt lat="43.87822" lon="7.40412">
        <ele>917.09295654297</ele>
        <time>2014-01-11T12:51:08Z</time>
      </trkpt>
      <trkpt lat="43.87819" lon="7.40412">
        <ele>918.51403808594</ele>
        <time>2014-01-11T12:51:12Z</time>
      </trkpt>
      <trkpt lat="43.87818" lon="7.40412">
        <ele>918.91876220703</ele>
        <time>2014-01-11T12:51:13Z</time>
      </trkpt>
      <trkpt lat="43.87815" lon="7.40412">
        <ele>920.01538085938</ele>
        <time>2014-01-11T12:51:15Z</time>
      </trkpt>
      <trkpt lat="43.87808" lon="7.4041">
        <ele>921.9384765625</ele>
        <time>2014-01-11T12:51:21Z</time>
      </trkpt>
      <trkpt lat="43.87806" lon="7.40411">
        <ele>922.96893310547</ele>
        <time>2014-01-11T12:51:23Z</time>
      </trkpt>
      <trkpt lat="43.87795" lon="7.40408">
        <ele>927.82397460938</ele>
        <time>2014-01-11T12:51:31Z</time>
      </trkpt>
      <trkpt lat="43.87793" lon="7.40408">
        <ele>928.54071044922</ele>
        <time>2014-01-11T12:51:32Z</time>
      </trkpt>
      <trkpt lat="43.87784" lon="7.40405">
        <ele>933.07159423828</ele>
        <time>2014-01-11T12:51:39Z</time>
      </trkpt>
      <trkpt lat="43.8778" lon="7.40403">
        <ele>934.55041503906</ele>
        <time>2014-01-11T12:51:42Z</time>
      </trkpt>
      <trkpt lat="43.87776" lon="7.40402">
        <ele>937.08068847656</ele>
        <time>2014-01-11T12:51:46Z</time>
      </trkpt>
      <trkpt lat="43.87768" lon="7.40398">
        <ele>941.39965820312</ele>
        <time>2014-01-11T12:51:54Z</time>
      </trkpt>
      <trkpt lat="43.87766" lon="7.40397">
        <ele>942.38159179688</ele>
        <time>2014-01-11T12:51:56Z</time>
      </trkpt>
      <trkpt lat="43.87764" lon="7.40396">
        <ele>943.72052001953</ele>
        <time>2014-01-11T12:51:58Z</time>
      </trkpt>
      <trkpt lat="43.87758" lon="7.40391">
        <ele>946.51513671875</ele>
        <time>2014-01-11T12:52:04Z</time>
      </trkpt>
      <trkpt lat="43.87751" lon="7.40385">
        <ele>949.89111328125</ele>
        <time>2014-01-11T12:52:12Z</time>
      </trkpt>
      <trkpt lat="43.87748" lon="7.40379">
        <ele>950.32318115234</ele>
        <time>2014-01-11T12:52:17Z</time>
      </trkpt>
      <trkpt lat="43.87749" lon="7.40373">
        <ele>948.96154785156</ele>
        <time>2014-01-11T12:52:21Z</time>
      </trkpt>
      <trkpt lat="43.87756" lon="7.40365">
        <ele>944.31243896484</ele>
        <time>2014-01-11T12:52:28Z</time>
      </trkpt>
      <trkpt lat="43.87756" lon="7.40364">
        <ele>943.73315429688</ele>
        <time>2014-01-11T12:52:29Z</time>
      </trkpt>
      <trkpt lat="43.87759" lon="7.40358">
        <ele>941.35546875</ele>
        <time>2014-01-11T12:52:34Z</time>
      </trkpt>
      <trkpt lat="43.87759" lon="7.40342">
        <ele>939.05798339844</ele>
        <time>2014-01-11T12:52:44Z</time>
      </trkpt>
      <trkpt lat="43.87753" lon="7.40331">
        <ele>940.98217773438</ele>
        <time>2014-01-11T12:52:52Z</time>
      </trkpt>
      <trkpt lat="43.87743" lon="7.40323">
        <ele>947.40509033203</ele>
        <time>2014-01-11T12:53:01Z</time>
      </trkpt>
      <trkpt lat="43.87735" lon="7.40317">
        <ele>952.43762207031</ele>
        <time>2014-01-11T12:53:08Z</time>
      </trkpt>
      <trkpt lat="43.8773" lon="7.40307">
        <ele>956.33068847656</ele>
        <time>2014-01-11T12:53:15Z</time>
      </trkpt>
      <trkpt lat="43.8773" lon="7.40305">
        <ele>956.68786621094</ele>
        <time>2014-01-11T12:53:17Z</time>
      </trkpt>
      <trkpt lat="43.87729" lon="7.40301">
        <ele>957.60430908203</ele>
        <time>2014-01-11T12:53:20Z</time>
      </trkpt>
      <trkpt lat="43.87727" lon="7.40294">
        <ele>959.70068359375</ele>
        <time>2014-01-11T12:53:26Z</time>
      </trkpt>
      <trkpt lat="43.87727" lon="7.40295">
        <ele>959.43640136719</ele>
        <time>2014-01-11T12:53:41Z</time>
      </trkpt>
      <trkpt lat="43.87722" lon="7.40296">
        <ele>961.56817626953</ele>
        <time>2014-01-11T12:53:51Z</time>
      </trkpt>
      <trkpt lat="43.87719" lon="7.40289">
        <ele>964.81915283203</ele>
        <time>2014-01-11T12:53:55Z</time>
      </trkpt>
      <trkpt lat="43.87716" lon="7.4027">
        <ele>971.83190917969</ele>
        <time>2014-01-11T12:54:03Z</time>
      </trkpt>
      <trkpt lat="43.87718" lon="7.40257">
        <ele>974.216796875</ele>
        <time>2014-01-11T12:54:09Z</time>
      </trkpt>
      <trkpt lat="43.87723" lon="7.40248">
        <ele>973.34936523438</ele>
        <time>2014-01-11T12:54:14Z</time>
      </trkpt>
      <trkpt lat="43.87725" lon="7.40243">
        <ele>974.04974365234</ele>
        <time>2014-01-11T12:54:18Z</time>
      </trkpt>
      <trkpt lat="43.8773" lon="7.40225">
        <ele>978.15930175781</ele>
        <time>2014-01-11T12:54:28Z</time>
      </trkpt>
      <trkpt lat="43.87738" lon="7.40207">
        <ele>979.15008544922</ele>
        <time>2014-01-11T12:54:37Z</time>
      </trkpt>
      <trkpt lat="43.87752" lon="7.40194">
        <ele>976.32385253906</ele>
        <time>2014-01-11T12:54:45Z</time>
      </trkpt>
      <trkpt lat="43.87758" lon="7.40189">
        <ele>974.634765625</ele>
        <time>2014-01-11T12:54:50Z</time>
      </trkpt>
      <trkpt lat="43.87767" lon="7.40181">
        <ele>972.58508300781</ele>
        <time>2014-01-11T12:54:57Z</time>
      </trkpt>
      <trkpt lat="43.87773" lon="7.40175">
        <ele>971.12255859375</ele>
        <time>2014-01-11T12:55:02Z</time>
      </trkpt>
      <trkpt lat="43.87776" lon="7.40174">
        <ele>970.37066650391</ele>
        <time>2014-01-11T12:55:04Z</time>
      </trkpt>
      <trkpt lat="43.87785" lon="7.40165">
        <ele>968.64996337891</ele>
        <time>2014-01-11T12:55:12Z</time>
      </trkpt>
      <trkpt lat="43.87796" lon="7.40155">
        <ele>965.72235107422</ele>
        <time>2014-01-11T12:55:21Z</time>
      </trkpt>
      <trkpt lat="43.87803" lon="7.40142">
        <ele>963.48620605469</ele>
        <time>2014-01-11T12:55:29Z</time>
      </trkpt>
      <trkpt lat="43.87805" lon="7.40129">
        <ele>962.94659423828</ele>
        <time>2014-01-11T12:55:36Z</time>
      </trkpt>
      <trkpt lat="43.87805" lon="7.40112">
        <ele>964.34790039062</ele>
        <time>2014-01-11T12:55:44Z</time>
      </trkpt>
      <trkpt lat="43.87799" lon="7.40096">
        <ele>968.16778564453</ele>
        <time>2014-01-11T12:55:52Z</time>
      </trkpt>
      <trkpt lat="43.87795" lon="7.40089">
        <ele>971.00451660156</ele>
        <time>2014-01-11T12:55:56Z</time>
      </trkpt>
      <trkpt lat="43.87792" lon="7.40077">
        <ele>973.62469482422</ele>
        <time>2014-01-11T12:56:03Z</time>
      </trkpt>
      <trkpt lat="43.87792" lon="7.40075">
        <ele>973.99890136719</ele>
        <time>2014-01-11T12:56:04Z</time>
      </trkpt>
      <trkpt lat="43.8779" lon="7.40057">
        <ele>976.46057128906</ele>
        <time>2014-01-11T12:56:12Z</time>
      </trkpt>
      <trkpt lat="43.87789" lon="7.40041">
        <ele>977.78594970703</ele>
        <time>2014-01-11T12:56:20Z</time>
      </trkpt>
      <trkpt lat="43.8779" lon="7.40028">
        <ele>977.57543945312</ele>
        <time>2014-01-11T12:56:27Z</time>
      </trkpt>
      <trkpt lat="43.87791" lon="7.40014">
        <ele>977.61657714844</ele>
        <time>2014-01-11T12:56:34Z</time>
      </trkpt>
      <trkpt lat="43.8779" lon="7.4">
        <ele>979.58099365234</ele>
        <time>2014-01-11T12:56:41Z</time>
      </trkpt>
      <trkpt lat="43.8779" lon="7.39982">
        <ele>980.34741210938</ele>
        <time>2014-01-11T12:56:50Z</time>
      </trkpt>
      <trkpt lat="43.87791" lon="7.39978">
        <ele>979.81951904297</ele>
        <time>2014-01-11T12:56:52Z</time>
      </trkpt>
      <trkpt lat="43.87794" lon="7.39971">
        <ele>978.71630859375</ele>
        <time>2014-01-11T12:56:56Z</time>
      </trkpt>
      <trkpt lat="43.87798" lon="7.39955">
        <ele>976.99328613281</ele>
        <time>2014-01-11T12:57:05Z</time>
      </trkpt>
      <trkpt lat="43.878" lon="7.39938">
        <ele>976.05120849609</ele>
        <time>2014-01-11T12:57:14Z</time>
      </trkpt>
      <trkpt lat="43.87802" lon="7.39922">
        <ele>976.09405517578</ele>
        <time>2014-01-11T12:57:22Z</time>
      </trkpt>
      <trkpt lat="43.87803" lon="7.39906">
        <ele>975.91345214844</ele>
        <time>2014-01-11T12:57:30Z</time>
      </trkpt>
      <trkpt lat="43.87806" lon="7.39895">
        <ele>974.51922607422</ele>
        <time>2014-01-11T12:57:36Z</time>
      </trkpt>
      <trkpt lat="43.87807" lon="7.3988">
        <ele>974.21771240234</ele>
        <time>2014-01-11T12:57:43Z</time>
      </trkpt>
      <trkpt lat="43.87807" lon="7.39869">
        <ele>974.99346923828</ele>
        <time>2014-01-11T12:57:48Z</time>
      </trkpt>
      <trkpt lat="43.87806" lon="7.39862">
        <ele>976.66632080078</ele>
        <time>2014-01-11T12:57:52Z</time>
      </trkpt>
      <trkpt lat="43.87806" lon="7.39848">
        <ele>977.17163085938</ele>
        <time>2014-01-11T12:57:59Z</time>
      </trkpt>
      <trkpt lat="43.87804" lon="7.39835">
        <ele>979.30889892578</ele>
        <time>2014-01-11T12:58:06Z</time>
      </trkpt>
      <trkpt lat="43.87802" lon="7.39823">
        <ele>981.09991455078</ele>
        <time>2014-01-11T12:58:12Z</time>
      </trkpt>
      <trkpt lat="43.87798" lon="7.39812">
        <ele>983.99755859375</ele>
        <time>2014-01-11T12:58:18Z</time>
      </trkpt>
      <trkpt lat="43.87798" lon="7.3981">
        <ele>984.34088134766</ele>
        <time>2014-01-11T12:58:19Z</time>
      </trkpt>
      <trkpt lat="43.87797" lon="7.39798">
        <ele>985.5888671875</ele>
        <time>2014-01-11T12:58:26Z</time>
      </trkpt>
      <trkpt lat="43.87792" lon="7.39785">
        <ele>989.62805175781</ele>
        <time>2014-01-11T12:58:33Z</time>
      </trkpt>
      <trkpt lat="43.87788" lon="7.39771">
        <ele>993.6748046875</ele>
        <time>2014-01-11T12:58:40Z</time>
      </trkpt>
      <trkpt lat="43.87787" lon="7.39756">
        <ele>997.61822509766</ele>
        <time>2014-01-11T12:58:47Z</time>
      </trkpt>
      <trkpt lat="43.87787" lon="7.39738">
        <ele>1001.2462158203</ele>
        <time>2014-01-11T12:58:55Z</time>
      </trkpt>
      <trkpt lat="43.87787" lon="7.39721">
        <ele>1004.3771362305</ele>
        <time>2014-01-11T12:59:03Z</time>
      </trkpt>
      <trkpt lat="43.8779" lon="7.39705">
        <ele>1005.1229858398</ele>
        <time>2014-01-11T12:59:11Z</time>
      </trkpt>
      <trkpt lat="43.87793" lon="7.39692">
        <ele>1004.9616699219</ele>
        <time>2014-01-11T12:59:18Z</time>
      </trkpt>
      <trkpt lat="43.87796" lon="7.3968">
        <ele>1004.4362182617</ele>
        <time>2014-01-11T12:59:24Z</time>
      </trkpt>
      <trkpt lat="43.878" lon="7.39662">
        <ele>1004.9528198242</ele>
        <time>2014-01-11T12:59:33Z</time>
      </trkpt>
      <trkpt lat="43.87802" lon="7.39653">
        <ele>1006.8106079102</ele>
        <time>2014-01-11T12:59:39Z</time>
      </trkpt>
      <trkpt lat="43.87802" lon="7.39651">
        <ele>1007.1890258789</ele>
        <time>2014-01-11T12:59:40Z</time>
      </trkpt>
      <trkpt lat="43.87806" lon="7.39637">
        <ele>1009.6123657227</ele>
        <time>2014-01-11T12:59:48Z</time>
      </trkpt>
      <trkpt lat="43.87807" lon="7.39633">
        <ele>1010.0188598633</ele>
        <time>2014-01-11T12:59:50Z</time>
      </trkpt>
      <trkpt lat="43.87807" lon="7.39618">
        <ele>1015.9110107422</ele>
        <time>2014-01-11T12:59:58Z</time>
      </trkpt>
      <trkpt lat="43.87809" lon="7.39605">
        <ele>1018.8143310547</ele>
        <time>2014-01-11T13:00:05Z</time>
      </trkpt>
      <trkpt lat="43.8781" lon="7.39602">
        <ele>1018.8482666016</ele>
        <time>2014-01-11T13:00:07Z</time>
      </trkpt>
      <trkpt lat="43.87813" lon="7.39591">
        <ele>1019.6383666992</ele>
        <time>2014-01-11T13:00:13Z</time>
      </trkpt>
      <trkpt lat="43.87814" lon="7.39581">
        <ele>1021.5442504883</ele>
        <time>2014-01-11T13:00:18Z</time>
      </trkpt>
      <trkpt lat="43.87817" lon="7.39566">
        <ele>1024.96484375</ele>
        <time>2014-01-11T13:00:27Z</time>
      </trkpt>
      <trkpt lat="43.8782" lon="7.39553">
        <ele>1027.8884277344</ele>
        <time>2014-01-11T13:00:34Z</time>
      </trkpt>
      <trkpt lat="43.87828" lon="7.39544">
        <ele>1027.8132324219</ele>
        <time>2014-01-11T13:00:42Z</time>
      </trkpt>
      <trkpt lat="43.87832" lon="7.3954">
        <ele>1027.8608398438</ele>
        <time>2014-01-11T13:00:47Z</time>
      </trkpt>
      <trkpt lat="43.87836" lon="7.39536">
        <ele>1027.8387451172</ele>
        <time>2014-01-11T13:00:52Z</time>
      </trkpt>
      <trkpt lat="43.87842" lon="7.39532">
        <ele>1026.7126464844</ele>
        <time>2014-01-11T13:00:58Z</time>
      </trkpt>
      <trkpt lat="43.87846" lon="7.39527">
        <ele>1026.8988037109</ele>
        <time>2014-01-11T13:01:03Z</time>
      </trkpt>
      <trkpt lat="43.87852" lon="7.39521">
        <ele>1026.6789550781</ele>
        <time>2014-01-11T13:01:09Z</time>
      </trkpt>
      <trkpt lat="43.87857" lon="7.39517">
        <ele>1026.4287109375</ele>
        <time>2014-01-11T13:01:13Z</time>
      </trkpt>
      <trkpt lat="43.87864" lon="7.39504">
        <ele>1030.3551025391</ele>
        <time>2014-01-11T13:01:22Z</time>
      </trkpt>
      <trkpt lat="43.87873" lon="7.39496">
        <ele>1031.2692871094</ele>
        <time>2014-01-11T13:01:29Z</time>
      </trkpt>
      <trkpt lat="43.87874" lon="7.39495">
        <ele>1031.4188232422</ele>
        <time>2014-01-11T13:01:30Z</time>
      </trkpt>
      <trkpt lat="43.87884" lon="7.39487">
        <ele>1032.4409179688</ele>
        <time>2014-01-11T13:01:37Z</time>
      </trkpt>
      <trkpt lat="43.87889" lon="7.39484">
        <ele>1032.2139892578</ele>
        <time>2014-01-11T13:01:42Z</time>
      </trkpt>
      <trkpt lat="43.879" lon="7.39479">
        <ele>1032.6809082031</ele>
        <time>2014-01-11T13:01:49Z</time>
      </trkpt>
      <trkpt lat="43.87907" lon="7.39479">
        <ele>1031.8243408203</ele>
        <time>2014-01-11T13:01:55Z</time>
      </trkpt>
      <trkpt lat="43.87916" lon="7.39478">
        <ele>1030.4887695312</ele>
        <time>2014-01-11T13:02:01Z</time>
      </trkpt>
      <trkpt lat="43.87922" lon="7.39476">
        <ele>1030.1121826172</ele>
        <time>2014-01-11T13:02:05Z</time>
      </trkpt>
      <trkpt lat="43.87934" lon="7.39473">
        <ele>1028.095703125</ele>
        <time>2014-01-11T13:02:11Z</time>
      </trkpt>
      <trkpt lat="43.87948" lon="7.3947">
        <ele>1026.4926757812</ele>
        <time>2014-01-11T13:02:18Z</time>
      </trkpt>
      <trkpt lat="43.87949" lon="7.3947">
        <ele>1026.5135498047</ele>
        <time>2014-01-11T13:02:19Z</time>
      </trkpt>
      <trkpt lat="43.87957" lon="7.39468">
        <ele>1026.533203125</ele>
        <time>2014-01-11T13:02:24Z</time>
      </trkpt>
      <trkpt lat="43.8797" lon="7.39463">
        <ele>1027.146484375</ele>
        <time>2014-01-11T13:02:31Z</time>
      </trkpt>
      <trkpt lat="43.8798" lon="7.39459">
        <ele>1027.7727050781</ele>
        <time>2014-01-11T13:02:36Z</time>
      </trkpt>
      <trkpt lat="43.87989" lon="7.39453">
        <ele>1028.4958496094</ele>
        <time>2014-01-11T13:02:41Z</time>
      </trkpt>
      <trkpt lat="43.88006" lon="7.39443">
        <ele>1029.6716308594</ele>
        <time>2014-01-11T13:02:48Z</time>
      </trkpt>
      <trkpt lat="43.88017" lon="7.39435">
        <ele>1030.8664550781</ele>
        <time>2014-01-11T13:02:54Z</time>
      </trkpt>
      <trkpt lat="43.88028" lon="7.3943">
        <ele>1031.0178222656</ele>
        <time>2014-01-11T13:02:59Z</time>
      </trkpt>
      <trkpt lat="43.88045" lon="7.39424">
        <ele>1031.1276855469</ele>
        <time>2014-01-11T13:03:06Z</time>
      </trkpt>
      <trkpt lat="43.88057" lon="7.39411">
        <ele>1033.1827392578</ele>
        <time>2014-01-11T13:03:12Z</time>
      </trkpt>
      <trkpt lat="43.88057" lon="7.39408">
        <ele>1033.6771240234</ele>
        <time>2014-01-11T13:03:13Z</time>
      </trkpt>
      <trkpt lat="43.88053" lon="7.39399">
        <ele>1036.2766113281</ele>
        <time>2014-01-11T13:03:19Z</time>
      </trkpt>
      <trkpt lat="43.8805" lon="7.39398">
        <ele>1036.6990966797</ele>
        <time>2014-01-11T13:03:21Z</time>
      </trkpt>
      <trkpt lat="43.8804" lon="7.39398">
        <ele>1038.0491943359</ele>
        <time>2014-01-11T13:03:27Z</time>
      </trkpt>
      <trkpt lat="43.88034" lon="7.39398">
        <ele>1039.0052490234</ele>
        <time>2014-01-11T13:03:33Z</time>
      </trkpt>
      <trkpt lat="43.88023" lon="7.39392">
        <ele>1041.876953125</ele>
        <time>2014-01-11T13:03:41Z</time>
      </trkpt>
      <trkpt lat="43.8801" lon="7.39388">
        <ele>1044.7095947266</ele>
        <time>2014-01-11T13:03:49Z</time>
      </trkpt>
      <trkpt lat="43.88" lon="7.3939">
        <ele>1045.5435791016</ele>
        <time>2014-01-11T13:03:56Z</time>
      </trkpt>
      <trkpt lat="43.87992" lon="7.39393">
        <ele>1046.1324462891</ele>
        <time>2014-01-11T13:04:02Z</time>
      </trkpt>
      <trkpt lat="43.8799" lon="7.39393">
        <ele>1046.4328613281</ele>
        <time>2014-01-11T13:04:04Z</time>
      </trkpt>
      <trkpt lat="43.87978" lon="7.39393">
        <ele>1048.1168212891</ele>
        <time>2014-01-11T13:04:12Z</time>
      </trkpt>
      <trkpt lat="43.87968" lon="7.39394">
        <ele>1049.3596191406</ele>
        <time>2014-01-11T13:04:19Z</time>
      </trkpt>
      <trkpt lat="43.8796" lon="7.39399">
        <ele>1049.1245117188</ele>
        <time>2014-01-11T13:04:26Z</time>
      </trkpt>
      <trkpt lat="43.87953" lon="7.3941">
        <ele>1047.4644775391</ele>
        <time>2014-01-11T13:04:33Z</time>
      </trkpt>
      <trkpt lat="43.87945" lon="7.39422">
        <ele>1044.7739257812</ele>
        <time>2014-01-11T13:04:40Z</time>
      </trkpt>
      <trkpt lat="43.87937" lon="7.39427">
        <ele>1044.734375</ele>
        <time>2014-01-11T13:04:46Z</time>
      </trkpt>
      <trkpt lat="43.87926" lon="7.39428">
        <ele>1046.8482666016</ele>
        <time>2014-01-11T13:04:53Z</time>
      </trkpt>
      <trkpt lat="43.87917" lon="7.39426">
        <ele>1049.7872314453</ele>
        <time>2014-01-11T13:04:59Z</time>
      </trkpt>
      <trkpt lat="43.8791" lon="7.39424">
        <ele>1051.8858642578</ele>
        <time>2014-01-11T13:05:05Z</time>
      </trkpt>
      <trkpt lat="43.879" lon="7.39423">
        <ele>1054.4211425781</ele>
        <time>2014-01-11T13:05:12Z</time>
      </trkpt>
      <trkpt lat="43.87892" lon="7.39423">
        <ele>1055.8083496094</ele>
        <time>2014-01-11T13:05:18Z</time>
      </trkpt>
      <trkpt lat="43.87882" lon="7.39426">
        <ele>1056.0782470703</ele>
        <time>2014-01-11T13:05:26Z</time>
      </trkpt>
      <trkpt lat="43.87875" lon="7.39437">
        <ele>1053.1281738281</ele>
        <time>2014-01-11T13:05:33Z</time>
      </trkpt>
      <trkpt lat="43.87867" lon="7.39449">
        <ele>1050.2601318359</ele>
        <time>2014-01-11T13:05:40Z</time>
      </trkpt>
      <trkpt lat="43.8786" lon="7.39459">
        <ele>1048.5198974609</ele>
        <time>2014-01-11T13:05:45Z</time>
      </trkpt>
      <trkpt lat="43.87848" lon="7.39466">
        <ele>1047.5734863281</ele>
        <time>2014-01-11T13:05:52Z</time>
      </trkpt>
      <trkpt lat="43.87842" lon="7.39469">
        <ele>1047.6237792969</ele>
        <time>2014-01-11T13:05:56Z</time>
      </trkpt>
      <trkpt lat="43.87833" lon="7.39476">
        <ele>1046.9229736328</ele>
        <time>2014-01-11T13:06:03Z</time>
      </trkpt>
      <trkpt lat="43.87822" lon="7.39484">
        <ele>1046.1812744141</ele>
        <time>2014-01-11T13:06:11Z</time>
      </trkpt>
      <trkpt lat="43.87813" lon="7.39491">
        <ele>1046.0238037109</ele>
        <time>2014-01-11T13:06:17Z</time>
      </trkpt>
      <trkpt lat="43.87804" lon="7.39499">
        <ele>1046.1499023438</ele>
        <time>2014-01-11T13:06:23Z</time>
      </trkpt>
      <trkpt lat="43.87791" lon="7.39512">
        <ele>1044.7438964844</ele>
        <time>2014-01-11T13:06:31Z</time>
      </trkpt>
      <trkpt lat="43.87782" lon="7.39526">
        <ele>1043.7669677734</ele>
        <time>2014-01-11T13:06:39Z</time>
      </trkpt>
      <trkpt lat="43.87767" lon="7.39533">
        <ele>1043.3461914062</ele>
        <time>2014-01-11T13:06:47Z</time>
      </trkpt>
      <trkpt lat="43.87756" lon="7.39528">
        <ele>1043.9367675781</ele>
        <time>2014-01-11T13:06:54Z</time>
      </trkpt>
      <trkpt lat="43.87749" lon="7.39516">
        <ele>1045.1518554688</ele>
        <time>2014-01-11T13:07:01Z</time>
      </trkpt>
      <trkpt lat="43.87737" lon="7.39498">
        <ele>1046.1594238281</ele>
        <time>2014-01-11T13:07:08Z</time>
      </trkpt>
      <trkpt lat="43.8772" lon="7.39479">
        <ele>1046.16796875</ele>
        <time>2014-01-11T13:07:16Z</time>
      </trkpt>
      <trkpt lat="43.87703" lon="7.39458">
        <ele>1045.1182861328</ele>
        <time>2014-01-11T13:07:25Z</time>
      </trkpt>
      <trkpt lat="43.87696" lon="7.39449">
        <ele>1044.7835693359</ele>
        <time>2014-01-11T13:07:30Z</time>
      </trkpt>
      <trkpt lat="43.87683" lon="7.39435">
        <ele>1044.30859375</ele>
        <time>2014-01-11T13:07:36Z</time>
      </trkpt>
      <trkpt lat="43.87674" lon="7.39418">
        <ele>1044.5229492188</ele>
        <time>2014-01-11T13:07:42Z</time>
      </trkpt>
      <trkpt lat="43.87664" lon="7.39401">
        <ele>1044.9525146484</ele>
        <time>2014-01-11T13:07:49Z</time>
      </trkpt>
      <trkpt lat="43.8765" lon="7.39386">
        <ele>1045.0286865234</ele>
        <time>2014-01-11T13:07:55Z</time>
      </trkpt>
      <trkpt lat="43.87637" lon="7.39371">
        <ele>1044.8061523438</ele>
        <time>2014-01-11T13:08:02Z</time>
      </trkpt>
      <trkpt lat="43.87638" lon="7.39371">
        <ele>1044.8663330078</ele>
        <time>2014-01-11T13:08:08Z</time>
      </trkpt>
      <trkpt lat="43.87637" lon="7.3937">
        <ele>1044.8800048828</ele>
        <time>2014-01-11T13:08:22Z</time>
      </trkpt>
      <trkpt lat="43.87637" lon="7.39371">
        <ele>1044.7426757812</ele>
        <time>2014-01-11T13:08:28Z</time>
      </trkpt>
      <trkpt lat="43.87637" lon="7.39372">
        <ele>1044.6809082031</ele>
        <time>2014-01-11T13:08:34Z</time>
      </trkpt>
      <trkpt lat="43.87637" lon="7.39371">
        <ele>1044.7598876953</ele>
        <time>2014-01-11T13:08:40Z</time>
      </trkpt>
      <trkpt lat="43.87636" lon="7.39371">
        <ele>1044.7049560547</ele>
        <time>2014-01-11T13:08:47Z</time>
      </trkpt>
      <trkpt lat="43.87637" lon="7.39371">
        <ele>1044.7650146484</ele>
        <time>2014-01-11T13:08:51Z</time>
      </trkpt>
      <trkpt lat="43.87637" lon="7.39371">
        <ele>1044.7718505859</ele>
        <time>2014-01-11T13:08:59Z</time>
      </trkpt>
      <trkpt lat="43.87632" lon="7.39368">
        <ele>1044.8010253906</ele>
        <time>2014-01-11T13:09:10Z</time>
      </trkpt>
      <trkpt lat="43.87621" lon="7.39364">
        <ele>1044.3977050781</ele>
        <time>2014-01-11T13:09:16Z</time>
      </trkpt>
      <trkpt lat="43.87621" lon="7.39364">
        <ele>1044.4130859375</ele>
        <time>2014-01-11T13:09:21Z</time>
      </trkpt>
      <trkpt lat="43.87621" lon="7.39364">
        <ele>1044.4216308594</ele>
        <time>2014-01-11T13:09:38Z</time>
      </trkpt>
      <trkpt lat="43.87622" lon="7.39364">
        <ele>1044.4490966797</ele>
        <time>2014-01-11T13:09:57Z</time>
      </trkpt>
      <trkpt lat="43.87621" lon="7.39364">
        <ele>1044.4731445312</ele>
        <time>2014-01-11T13:10:13Z</time>
      </trkpt>
      <trkpt lat="43.87618" lon="7.39363">
        <ele>1044.2998046875</ele>
        <time>2014-01-11T13:10:23Z</time>
      </trkpt>
      <trkpt lat="43.87606" lon="7.3936">
        <ele>1043.7795410156</ele>
        <time>2014-01-11T13:10:28Z</time>
      </trkpt>
      <trkpt lat="43.8759" lon="7.39354">
        <ele>1043.2131347656</ele>
        <time>2014-01-11T13:10:33Z</time>
      </trkpt>
      <trkpt lat="43.87556" lon="7.3934">
        <ele>1042.0004882812</ele>
        <time>2014-01-11T13:10:41Z</time>
      </trkpt>
      <trkpt lat="43.87542" lon="7.39333">
        <ele>1041.025390625</ele>
        <time>2014-01-11T13:10:44Z</time>
      </trkpt>
      <trkpt lat="43.87538" lon="7.39331">
        <ele>1040.7790527344</ele>
        <time>2014-01-11T13:10:45Z</time>
      </trkpt>
      <trkpt lat="43.87532" lon="7.39327">
        <ele>1040.7043457031</ele>
        <time>2014-01-11T13:10:48Z</time>
      </trkpt>
      <trkpt lat="43.87532" lon="7.39327">
        <ele>1040.5837402344</ele>
        <time>2014-01-11T13:10:55Z</time>
      </trkpt>
      <trkpt lat="43.87532" lon="7.39328">
        <ele>1040.5587158203</ele>
        <time>2014-01-11T13:11:03Z</time>
      </trkpt>
      <trkpt lat="43.87531" lon="7.39328">
        <ele>1040.3856201172</ele>
        <time>2014-01-11T13:11:07Z</time>
      </trkpt>
      <trkpt lat="43.87511" lon="7.39317">
        <ele>1038.7025146484</ele>
        <time>2014-01-11T13:11:13Z</time>
      </trkpt>
      <trkpt lat="43.87481" lon="7.393">
        <ele>1034.1099853516</ele>
        <time>2014-01-11T13:11:19Z</time>
      </trkpt>
      <trkpt lat="43.8744" lon="7.3928">
        <ele>1029.0015869141</ele>
        <time>2014-01-11T13:11:25Z</time>
      </trkpt>
      <trkpt lat="43.87424" lon="7.39259">
        <ele>1028.4061279297</ele>
        <time>2014-01-11T13:11:28Z</time>
      </trkpt>
      <trkpt lat="43.87423" lon="7.39249">
        <ele>1029.2764892578</ele>
        <time>2014-01-11T13:11:29Z</time>
      </trkpt>
      <trkpt lat="43.87414" lon="7.39218">
        <ele>1030.9278564453</ele>
        <time>2014-01-11T13:11:33Z</time>
      </trkpt>
      <trkpt lat="43.87374" lon="7.39192">
        <ele>1026.6755371094</ele>
        <time>2014-01-11T13:11:39Z</time>
      </trkpt>
      <trkpt lat="43.8736" lon="7.39183">
        <ele>1025.4184570312</ele>
        <time>2014-01-11T13:11:41Z</time>
      </trkpt>
      <trkpt lat="43.87329" lon="7.39176">
        <ele>1019.6036376953</ele>
        <time>2014-01-11T13:11:45Z</time>
      </trkpt>
      <trkpt lat="43.87307" lon="7.39164">
        <ele>1016.0020141602</ele>
        <time>2014-01-11T13:11:48Z</time>
      </trkpt>
      <trkpt lat="43.87271" lon="7.39123">
        <ele>1013.0946044922</ele>
        <time>2014-01-11T13:11:54Z</time>
      </trkpt>
      <trkpt lat="43.87268" lon="7.39119">
        <ele>1013.080871582</ele>
        <time>2014-01-11T13:11:55Z</time>
      </trkpt>
      <trkpt lat="43.87262" lon="7.39113">
        <ele>1012.9366455078</ele>
        <time>2014-01-11T13:11:57Z</time>
      </trkpt>
      <trkpt lat="43.8726" lon="7.39102">
        <ele>1014.0696411133</ele>
        <time>2014-01-11T13:12:01Z</time>
      </trkpt>
      <trkpt lat="43.87257" lon="7.39093">
        <ele>1014.8249511719</ele>
        <time>2014-01-11T13:12:07Z</time>
      </trkpt>
      <trkpt lat="43.87244" lon="7.39083">
        <ele>1013.9666748047</ele>
        <time>2014-01-11T13:12:14Z</time>
      </trkpt>
      <trkpt lat="43.87231" lon="7.39071">
        <ele>1013.3211669922</ele>
        <time>2014-01-11T13:12:19Z</time>
      </trkpt>
      <trkpt lat="43.8722" lon="7.39049">
        <ele>1014.6165161133</ele>
        <time>2014-01-11T13:12:24Z</time>
      </trkpt>
      <trkpt lat="43.87206" lon="7.3902">
        <ele>1016.5720214844</ele>
        <time>2014-01-11T13:12:31Z</time>
      </trkpt>
      <trkpt lat="43.87193" lon="7.39">
        <ele>1016.6049194336</ele>
        <time>2014-01-11T13:12:37Z</time>
      </trkpt>
      <trkpt lat="43.87175" lon="7.38994">
        <ele>1013.5073242188</ele>
        <time>2014-01-11T13:12:41Z</time>
      </trkpt>
      <trkpt lat="43.8717" lon="7.38992">
        <ele>1012.8067626953</ele>
        <time>2014-01-11T13:12:42Z</time>
      </trkpt>
      <trkpt lat="43.87146" lon="7.38967">
        <ele>1011.9984741211</ele>
        <time>2014-01-11T13:12:48Z</time>
      </trkpt>
      <trkpt lat="43.87144" lon="7.38964">
        <ele>1012.0259399414</ele>
        <time>2014-01-11T13:12:49Z</time>
      </trkpt>
      <trkpt lat="43.87134" lon="7.38949">
        <ele>1012.6558837891</ele>
        <time>2014-01-11T13:12:55Z</time>
      </trkpt>
      <trkpt lat="43.87124" lon="7.38927">
        <ele>1013.8193969727</ele>
        <time>2014-01-11T13:13:03Z</time>
      </trkpt>
      <trkpt lat="43.87117" lon="7.3891">
        <ele>1014.4665527344</ele>
        <time>2014-01-11T13:13:10Z</time>
      </trkpt>
      <trkpt lat="43.87118" lon="7.38899">
        <ele>1015.8261108398</ele>
        <time>2014-01-11T13:13:15Z</time>
      </trkpt>
      <trkpt lat="43.87116" lon="7.3889">
        <ele>1016.5247802734</ele>
        <time>2014-01-11T13:13:19Z</time>
      </trkpt>
      <trkpt lat="43.87113" lon="7.38881">
        <ele>1017.4268798828</ele>
        <time>2014-01-11T13:13:24Z</time>
      </trkpt>
      <trkpt lat="43.87107" lon="7.38874">
        <ele>1017.6373901367</ele>
        <time>2014-01-11T13:13:29Z</time>
      </trkpt>
      <trkpt lat="43.87104" lon="7.38869">
        <ele>1017.8659667969</ele>
        <time>2014-01-11T13:13:32Z</time>
      </trkpt>
      <trkpt lat="43.87104" lon="7.38867">
        <ele>1018.2458496094</ele>
        <time>2014-01-11T13:13:38Z</time>
      </trkpt>
      <trkpt lat="43.87104" lon="7.38866">
        <ele>1018.3545532227</ele>
        <time>2014-01-11T13:13:45Z</time>
      </trkpt>
      <trkpt lat="43.87102" lon="7.3886">
        <ele>1018.9400024414</ele>
        <time>2014-01-11T13:13:51Z</time>
      </trkpt>
      <trkpt lat="43.87101" lon="7.38851">
        <ele>1020.3908691406</ele>
        <time>2014-01-11T13:13:58Z</time>
      </trkpt>
      <trkpt lat="43.87098" lon="7.38846">
        <ele>1021.0039672852</ele>
        <time>2014-01-11T13:14:03Z</time>
      </trkpt>
      <trkpt lat="43.87096" lon="7.38838">
        <ele>1021.9924926758</ele>
        <time>2014-01-11T13:14:09Z</time>
      </trkpt>
      <trkpt lat="43.87096" lon="7.38836">
        <ele>1022.2639160156</ele>
        <time>2014-01-11T13:14:10Z</time>
      </trkpt>
      <trkpt lat="43.87095" lon="7.38825">
        <ele>1024.5174560547</ele>
        <time>2014-01-11T13:14:19Z</time>
      </trkpt>
      <trkpt lat="43.87093" lon="7.38817">
        <ele>1025.982421875</ele>
        <time>2014-01-11T13:14:27Z</time>
      </trkpt>
      <trkpt lat="43.87091" lon="7.38812">
        <ele>1026.7241210938</ele>
        <time>2014-01-11T13:14:33Z</time>
      </trkpt>
      <trkpt lat="43.87091" lon="7.38806">
        <ele>1028.2818603516</ele>
        <time>2014-01-11T13:14:42Z</time>
      </trkpt>
      <trkpt lat="43.87093" lon="7.38804">
        <ele>1029.1793212891</ele>
        <time>2014-01-11T13:14:48Z</time>
      </trkpt>
      <trkpt lat="43.87096" lon="7.38802">
        <ele>1030.013671875</ele>
        <time>2014-01-11T13:14:54Z</time>
      </trkpt>
      <trkpt lat="43.87098" lon="7.388">
        <ele>1030.7243652344</ele>
        <time>2014-01-11T13:15:00Z</time>
      </trkpt>
      <trkpt lat="43.87102" lon="7.38801">
        <ele>1031.3765869141</ele>
        <time>2014-01-11T13:15:08Z</time>
      </trkpt>
      <trkpt lat="43.87106" lon="7.38801">
        <ele>1032.1937255859</ele>
        <time>2014-01-11T13:15:15Z</time>
      </trkpt>
      <trkpt lat="43.87107" lon="7.38798">
        <ele>1032.8186035156</ele>
        <time>2014-01-11T13:15:21Z</time>
      </trkpt>
      <trkpt lat="43.87104" lon="7.38795">
        <ele>1032.9146728516</ele>
        <time>2014-01-11T13:15:26Z</time>
      </trkpt>
      <trkpt lat="43.87102" lon="7.38793">
        <ele>1033.1893310547</ele>
        <time>2014-01-11T13:15:31Z</time>
      </trkpt>
      <trkpt lat="43.87101" lon="7.38788">
        <ele>1033.9962158203</ele>
        <time>2014-01-11T13:15:37Z</time>
      </trkpt>
      <trkpt lat="43.87099" lon="7.3878">
        <ele>1035.1772460938</ele>
        <time>2014-01-11T13:15:45Z</time>
      </trkpt>
      <trkpt lat="43.87099" lon="7.38772">
        <ele>1037.1101074219</ele>
        <time>2014-01-11T13:15:51Z</time>
      </trkpt>
      <trkpt lat="43.87103" lon="7.38766">
        <ele>1039.0944824219</ele>
        <time>2014-01-11T13:15:59Z</time>
      </trkpt>
      <trkpt lat="43.87106" lon="7.38761">
        <ele>1040.5227050781</ele>
        <time>2014-01-11T13:16:04Z</time>
      </trkpt>
      <trkpt lat="43.8711" lon="7.38758">
        <ele>1042.0573730469</ele>
        <time>2014-01-11T13:16:10Z</time>
      </trkpt>
      <trkpt lat="43.87114" lon="7.38754">
        <ele>1043.6848144531</ele>
        <time>2014-01-11T13:16:16Z</time>
      </trkpt>
      <trkpt lat="43.87114" lon="7.38746">
        <ele>1045.4333496094</ele>
        <time>2014-01-11T13:16:22Z</time>
      </trkpt>
      <trkpt lat="43.8711" lon="7.38739">
        <ele>1046.5317382812</ele>
        <time>2014-01-11T13:16:29Z</time>
      </trkpt>
      <trkpt lat="43.87107" lon="7.38735">
        <ele>1047.0223388672</ele>
        <time>2014-01-11T13:16:34Z</time>
      </trkpt>
      <trkpt lat="43.871" lon="7.38732">
        <ele>1046.3107910156</ele>
        <time>2014-01-11T13:16:41Z</time>
      </trkpt>
      <trkpt lat="43.87092" lon="7.38731">
        <ele>1044.884765625</ele>
        <time>2014-01-11T13:16:48Z</time>
      </trkpt>
      <trkpt lat="43.8709" lon="7.38729">
        <ele>1044.8111572266</ele>
        <time>2014-01-11T13:16:50Z</time>
      </trkpt>
      <trkpt lat="43.87082" lon="7.38725">
        <ele>1044.2017822266</ele>
        <time>2014-01-11T13:16:58Z</time>
      </trkpt>
      <trkpt lat="43.87075" lon="7.38719">
        <ele>1044.3638916016</ele>
        <time>2014-01-11T13:17:05Z</time>
      </trkpt>
      <trkpt lat="43.87071" lon="7.38714">
        <ele>1044.1840820312</ele>
        <time>2014-01-11T13:17:11Z</time>
      </trkpt>
      <trkpt lat="43.87066" lon="7.3871">
        <ele>1043.5377197266</ele>
        <time>2014-01-11T13:17:18Z</time>
      </trkpt>
      <trkpt lat="43.87061" lon="7.38706">
        <ele>1042.8923339844</ele>
        <time>2014-01-11T13:17:25Z</time>
      </trkpt>
      <trkpt lat="43.87056" lon="7.38699">
        <ele>1042.0286865234</ele>
        <time>2014-01-11T13:17:32Z</time>
      </trkpt>
      <trkpt lat="43.87059" lon="7.38696">
        <ele>1042.7897949219</ele>
        <time>2014-01-11T13:17:37Z</time>
      </trkpt>
      <trkpt lat="43.87063" lon="7.38697">
        <ele>1044.0054931641</ele>
        <time>2014-01-11T13:17:44Z</time>
      </trkpt>
      <trkpt lat="43.87062" lon="7.38693">
        <ele>1044.021484375</ele>
        <time>2014-01-11T13:17:50Z</time>
      </trkpt>
      <trkpt lat="43.87058" lon="7.38688">
        <ele>1042.8713378906</ele>
        <time>2014-01-11T13:17:57Z</time>
      </trkpt>
      <trkpt lat="43.87056" lon="7.38681">
        <ele>1042.1488037109</ele>
        <time>2014-01-11T13:18:04Z</time>
      </trkpt>
      <trkpt lat="43.87053" lon="7.38676">
        <ele>1041.0173339844</ele>
        <time>2014-01-11T13:18:10Z</time>
      </trkpt>
      <trkpt lat="43.87052" lon="7.3867">
        <ele>1040.5373535156</ele>
        <time>2014-01-11T13:18:15Z</time>
      </trkpt>
      <trkpt lat="43.8705" lon="7.38662">
        <ele>1038.5357666016</ele>
        <time>2014-01-11T13:18:21Z</time>
      </trkpt>
      <trkpt lat="43.87049" lon="7.38658">
        <ele>1036.8392333984</ele>
        <time>2014-01-11T13:18:24Z</time>
      </trkpt>
      <trkpt lat="43.87045" lon="7.38646">
        <ele>1031.8125</ele>
        <time>2014-01-11T13:18:34Z</time>
      </trkpt>
      <trkpt lat="43.87044" lon="7.38638">
        <ele>1028.7365722656</ele>
        <time>2014-01-11T13:18:40Z</time>
      </trkpt>
      <trkpt lat="43.87043" lon="7.38635">
        <ele>1026.6110839844</ele>
        <time>2014-01-11T13:18:42Z</time>
      </trkpt>
      <trkpt lat="43.87044" lon="7.38627">
        <ele>1023.4048461914</ele>
        <time>2014-01-11T13:18:47Z</time>
      </trkpt>
      <trkpt lat="43.87046" lon="7.38625">
        <ele>1023.3792114258</ele>
        <time>2014-01-11T13:18:50Z</time>
      </trkpt>
      <trkpt lat="43.87047" lon="7.38621">
        <ele>1022.0864257812</ele>
        <time>2014-01-11T13:18:55Z</time>
      </trkpt>
      <trkpt lat="43.87047" lon="7.38621">
        <ele>1021.8350219727</ele>
        <time>2014-01-11T13:19:01Z</time>
      </trkpt>
      <trkpt lat="43.87048" lon="7.38621">
        <ele>1022.393371582</ele>
        <time>2014-01-11T13:19:07Z</time>
      </trkpt>
      <trkpt lat="43.87048" lon="7.38621">
        <ele>1022.8678588867</ele>
        <time>2014-01-11T13:19:12Z</time>
      </trkpt>
      <trkpt lat="43.87048" lon="7.38621">
        <ele>1022.7995605469</ele>
        <time>2014-01-11T13:19:20Z</time>
      </trkpt>
      <trkpt lat="43.87049" lon="7.38621">
        <ele>1023.2017822266</ele>
        <time>2014-01-11T13:19:29Z</time>
      </trkpt>
      <trkpt lat="43.87049" lon="7.38621">
        <ele>1023.247253418</ele>
        <time>2014-01-11T13:19:32Z</time>
      </trkpt>
      <trkpt lat="43.87049" lon="7.38621">
        <ele>1023.4710083008</ele>
        <time>2014-01-11T13:19:34Z</time>
      </trkpt>
      <trkpt lat="43.87049" lon="7.38621">
        <ele>1023.2926635742</ele>
        <time>2014-01-11T13:19:43Z</time>
      </trkpt>
      <trkpt lat="43.87049" lon="7.38621">
        <ele>1023.3608398438</ele>
        <time>2014-01-11T13:19:50Z</time>
      </trkpt>
      <trkpt lat="43.8705" lon="7.38622">
        <ele>1023.9667358398</ele>
        <time>2014-01-11T13:19:59Z</time>
      </trkpt>
      <trkpt lat="43.8705" lon="7.38622">
        <ele>1024.2354736328</ele>
        <time>2014-01-11T13:20:09Z</time>
      </trkpt>
      <trkpt lat="43.87049" lon="7.38621">
        <ele>1023.4029541016</ele>
        <time>2014-01-11T13:20:23Z</time>
      </trkpt>
      <trkpt lat="43.87049" lon="7.38621">
        <ele>1023.3121948242</ele>
        <time>2014-01-11T13:20:25Z</time>
      </trkpt>
      <trkpt lat="43.87049" lon="7.38621">
        <ele>1023.3121948242</ele>
        <time>2014-01-11T13:20:25Z</time>
      </trkpt>
      <trkpt lat="43.8705" lon="7.38621">
        <ele>1023.6494140625</ele>
        <time>2014-01-11T13:20:31Z</time>
      </trkpt>
      <trkpt lat="43.8705" lon="7.38622">
        <ele>1024.2580566406</ele>
        <time>2014-01-11T13:20:39Z</time>
      </trkpt>
      <trkpt lat="43.8705" lon="7.38622">
        <ele>1024.4166259766</ele>
        <time>2014-01-11T13:20:47Z</time>
      </trkpt>
      <trkpt lat="43.87051" lon="7.38622">
        <ele>1024.9729003906</ele>
        <time>2014-01-11T13:20:53Z</time>
      </trkpt>
      <trkpt lat="43.87051" lon="7.38622">
        <ele>1024.5463867188</ele>
        <time>2014-01-11T13:20:57Z</time>
      </trkpt>
      <trkpt lat="43.87051" lon="7.38622">
        <ele>1024.5012207031</ele>
        <time>2014-01-11T13:21:02Z</time>
      </trkpt>
      <trkpt lat="43.87051" lon="7.38622">
        <ele>1024.5238037109</ele>
        <time>2014-01-11T13:21:06Z</time>
      </trkpt>
      <trkpt lat="43.87051" lon="7.38622">
        <ele>1024.5238037109</ele>
        <time>2014-01-11T13:21:07Z</time>
      </trkpt>
      <trkpt lat="43.87051" lon="7.38621">
        <ele>1024.4560546875</ele>
        <time>2014-01-11T13:21:15Z</time>
      </trkpt>
      <trkpt lat="43.87051" lon="7.38621">
        <ele>1024.0515136719</ele>
        <time>2014-01-11T13:21:25Z</time>
      </trkpt>
      <trkpt lat="43.8705" lon="7.3862">
        <ele>1023.2640380859</ele>
        <time>2014-01-11T13:21:37Z</time>
      </trkpt>
      <trkpt lat="43.87049" lon="7.38617">
        <ele>1021.6330566406</ele>
        <time>2014-01-11T13:22:06Z</time>
      </trkpt>
      <trkpt lat="43.8705" lon="7.38618">
        <ele>1021.9946899414</ele>
        <time>2014-01-11T13:22:22Z</time>
      </trkpt>
      <trkpt lat="43.8705" lon="7.38618">
        <ele>1022.2880249023</ele>
        <time>2014-01-11T13:22:28Z</time>
      </trkpt>
      <trkpt lat="43.8705" lon="7.38618">
        <ele>1022.3559570312</ele>
        <time>2014-01-11T13:22:32Z</time>
      </trkpt>
      <trkpt lat="43.87051" lon="7.38614">
        <ele>1021.2031860352</ele>
        <time>2014-01-11T13:22:39Z</time>
      </trkpt>
      <trkpt lat="43.87053" lon="7.38611">
        <ele>1020.3531494141</ele>
        <time>2014-01-11T13:22:42Z</time>
      </trkpt>
      <trkpt lat="43.87053" lon="7.38611">
        <ele>1020.1165771484</ele>
        <time>2014-01-11T13:22:43Z</time>
      </trkpt>
      <trkpt lat="43.87053" lon="7.3861">
        <ele>1019.8004760742</ele>
        <time>2014-01-11T13:22:44Z</time>
      </trkpt>
      <trkpt lat="43.87059" lon="7.386">
        <ele>1017.9254150391</ele>
        <time>2014-01-11T13:22:50Z</time>
      </trkpt>
      <trkpt lat="43.87061" lon="7.38597">
        <ele>1017.7578125</ele>
        <time>2014-01-11T13:22:53Z</time>
      </trkpt>
      <trkpt lat="43.87062" lon="7.38595">
        <ele>1017.6865844727</ele>
        <time>2014-01-11T13:22:54Z</time>
      </trkpt>
      <trkpt lat="43.87063" lon="7.38589">
        <ele>1015.5942993164</ele>
        <time>2014-01-11T13:23:00Z</time>
      </trkpt>
      <trkpt lat="43.87064" lon="7.3859">
        <ele>1016.3286743164</ele>
        <time>2014-01-11T13:23:01Z</time>
      </trkpt>
      <trkpt lat="43.87066" lon="7.38594">
        <ele>1019.2577514648</ele>
        <time>2014-01-11T13:23:06Z</time>
      </trkpt>
      <trkpt lat="43.87065" lon="7.38594">
        <ele>1018.5651245117</ele>
        <time>2014-01-11T13:23:14Z</time>
      </trkpt>
      <trkpt lat="43.8706" lon="7.38594">
        <ele>1015.6389770508</ele>
        <time>2014-01-11T13:23:18Z</time>
      </trkpt>
      <trkpt lat="43.87062" lon="7.38587">
        <ele>1014.0729980469</ele>
        <time>2014-01-11T13:23:24Z</time>
      </trkpt>
      <trkpt lat="43.87061" lon="7.38587">
        <ele>1012.850402832</ele>
        <time>2014-01-11T13:23:30Z</time>
      </trkpt>
      <trkpt lat="43.87061" lon="7.38584">
        <ele>1011.4493408203</ele>
        <time>2014-01-11T13:23:35Z</time>
      </trkpt>
      <trkpt lat="43.87063" lon="7.38582">
        <ele>1012.3150634766</ele>
        <time>2014-01-11T13:23:40Z</time>
      </trkpt>
      <trkpt lat="43.87074" lon="7.3857">
        <ele>1013.1596679688</ele>
        <time>2014-01-11T13:23:46Z</time>
      </trkpt>
      <trkpt lat="43.87089" lon="7.38552">
        <ele>1014.0601806641</ele>
        <time>2014-01-11T13:23:52Z</time>
      </trkpt>
      <trkpt lat="43.871" lon="7.38532">
        <ele>1011.5250854492</ele>
        <time>2014-01-11T13:23:57Z</time>
      </trkpt>
      <trkpt lat="43.87111" lon="7.38511">
        <ele>1007.1294555664</ele>
        <time>2014-01-11T13:24:02Z</time>
      </trkpt>
      <trkpt lat="43.87119" lon="7.38495">
        <ele>1003.8903198242</ele>
        <time>2014-01-11T13:24:06Z</time>
      </trkpt>
      <trkpt lat="43.8712" lon="7.3849">
        <ele>1003.1693725586</ele>
        <time>2014-01-11T13:24:07Z</time>
      </trkpt>
      <trkpt lat="43.87132" lon="7.38459">
        <ele>1000.9038696289</ele>
        <time>2014-01-11T13:24:13Z</time>
      </trkpt>
      <trkpt lat="43.87141" lon="7.38446">
        <ele>1003.3663330078</ele>
        <time>2014-01-11T13:24:17Z</time>
      </trkpt>
      <trkpt lat="43.87153" lon="7.38429">
        <ele>1010.7875366211</ele>
        <time>2014-01-11T13:24:23Z</time>
      </trkpt>
      <trkpt lat="43.87164" lon="7.38419">
        <ele>1017.8749389648</ele>
        <time>2014-01-11T13:24:29Z</time>
      </trkpt>
      <trkpt lat="43.87168" lon="7.38412">
        <ele>1020.9776000977</ele>
        <time>2014-01-11T13:24:32Z</time>
      </trkpt>
      <trkpt lat="43.87169" lon="7.38398">
        <ele>1022.7655639648</ele>
        <time>2014-01-11T13:24:38Z</time>
      </trkpt>
      <trkpt lat="43.87169" lon="7.38396">
        <ele>1022.5502319336</ele>
        <time>2014-01-11T13:24:39Z</time>
      </trkpt>
      <trkpt lat="43.87163" lon="7.38378">
        <ele>1019.5405883789</ele>
        <time>2014-01-11T13:24:47Z</time>
      </trkpt>
      <trkpt lat="43.8716" lon="7.38362">
        <ele>1018.692565918</ele>
        <time>2014-01-11T13:24:54Z</time>
      </trkpt>
      <trkpt lat="43.87159" lon="7.38347">
        <ele>1018.4006347656</ele>
        <time>2014-01-11T13:25:01Z</time>
      </trkpt>
      <trkpt lat="43.87158" lon="7.38332">
        <ele>1018.6350097656</ele>
        <time>2014-01-11T13:25:07Z</time>
      </trkpt>
      <trkpt lat="43.87154" lon="7.38316">
        <ele>1017.1725463867</ele>
        <time>2014-01-11T13:25:14Z</time>
      </trkpt>
      <trkpt lat="43.87156" lon="7.38296">
        <ele>1018.6549072266</ele>
        <time>2014-01-11T13:25:20Z</time>
      </trkpt>
      <trkpt lat="43.87159" lon="7.38269">
        <ele>1019.8760375977</ele>
        <time>2014-01-11T13:25:26Z</time>
      </trkpt>
      <trkpt lat="43.87162" lon="7.38244">
        <ele>1018.6339111328</ele>
        <time>2014-01-11T13:25:31Z</time>
      </trkpt>
      <trkpt lat="43.87155" lon="7.38222">
        <ele>1014.9317016602</ele>
        <time>2014-01-11T13:25:35Z</time>
      </trkpt>
      <trkpt lat="43.87151" lon="7.38207">
        <ele>1010.5744628906</ele>
        <time>2014-01-11T13:25:37Z</time>
      </trkpt>
      <trkpt lat="43.87146" lon="7.38193">
        <ele>1006.7386474609</ele>
        <time>2014-01-11T13:25:39Z</time>
      </trkpt>
      <trkpt lat="43.87142" lon="7.38179">
        <ele>1003.4430541992</ele>
        <time>2014-01-11T13:25:41Z</time>
      </trkpt>
      <trkpt lat="43.87137" lon="7.38167">
        <ele>1001.0624389648</ele>
        <time>2014-01-11T13:25:43Z</time>
      </trkpt>
      <trkpt lat="43.8713" lon="7.38142">
        <ele>992.02233886719</ele>
        <time>2014-01-11T13:25:48Z</time>
      </trkpt>
      <trkpt lat="43.87136" lon="7.38135">
        <ele>989.55603027344</ele>
        <time>2014-01-11T13:25:51Z</time>
      </trkpt>
      <trkpt lat="43.87151" lon="7.38132">
        <ele>987.15765380859</ele>
        <time>2014-01-11T13:25:56Z</time>
      </trkpt>
      <trkpt lat="43.8717" lon="7.38128">
        <ele>983.76135253906</ele>
        <time>2014-01-11T13:26:02Z</time>
      </trkpt>
      <trkpt lat="43.87184" lon="7.38125">
        <ele>982.34515380859</ele>
        <time>2014-01-11T13:26:06Z</time>
      </trkpt>
      <trkpt lat="43.87196" lon="7.3812">
        <ele>980.35284423828</ele>
        <time>2014-01-11T13:26:10Z</time>
      </trkpt>
      <trkpt lat="43.87212" lon="7.38116">
        <ele>978.35791015625</ele>
        <time>2014-01-11T13:26:14Z</time>
      </trkpt>
      <trkpt lat="43.87236" lon="7.3811">
        <ele>975.20544433594</ele>
        <time>2014-01-11T13:26:20Z</time>
      </trkpt>
      <trkpt lat="43.87241" lon="7.3811">
        <ele>975.45263671875</ele>
        <time>2014-01-11T13:26:21Z</time>
      </trkpt>
      <trkpt lat="43.8726" lon="7.3812">
        <ele>979.39703369141</ele>
        <time>2014-01-11T13:26:26Z</time>
      </trkpt>
      <trkpt lat="43.8727" lon="7.38113">
        <ele>975.99401855469</ele>
        <time>2014-01-11T13:26:29Z</time>
      </trkpt>
      <trkpt lat="43.87279" lon="7.38109">
        <ele>974.19793701172</ele>
        <time>2014-01-11T13:26:32Z</time>
      </trkpt>
      <trkpt lat="43.87301" lon="7.38104">
        <ele>975.07391357422</ele>
        <time>2014-01-11T13:26:39Z</time>
      </trkpt>
      <trkpt lat="43.87313" lon="7.38098">
        <ele>979.20056152344</ele>
        <time>2014-01-11T13:26:44Z</time>
      </trkpt>
      <trkpt lat="43.87324" lon="7.38101">
        <ele>984.73797607422</ele>
        <time>2014-01-11T13:26:49Z</time>
      </trkpt>
      <trkpt lat="43.87334" lon="7.38096">
        <ele>991.89129638672</ele>
        <time>2014-01-11T13:26:54Z</time>
      </trkpt>
      <trkpt lat="43.87336" lon="7.38094">
        <ele>994.11663818359</ele>
        <time>2014-01-11T13:26:58Z</time>
      </trkpt>
      <trkpt lat="43.87336" lon="7.38094">
        <ele>994.07769775391</ele>
        <time>2014-01-11T13:27:02Z</time>
      </trkpt>
      <trkpt lat="43.87338" lon="7.38085">
        <ele>998.93377685547</ele>
        <time>2014-01-11T13:27:08Z</time>
      </trkpt>
      <trkpt lat="43.87338" lon="7.38084">
        <ele>999.36541748047</ele>
        <time>2014-01-11T13:27:14Z</time>
      </trkpt>
      <trkpt lat="43.87337" lon="7.38082">
        <ele>998.94677734375</ele>
        <time>2014-01-11T13:27:17Z</time>
      </trkpt>
      <trkpt lat="43.87336" lon="7.3808">
        <ele>998.55853271484</ele>
        <time>2014-01-11T13:27:19Z</time>
      </trkpt>
      <trkpt lat="43.87332" lon="7.38061">
        <ele>998.18591308594</ele>
        <time>2014-01-11T13:27:27Z</time>
      </trkpt>
      <trkpt lat="43.87335" lon="7.38044">
        <ele>1004.451171875</ele>
        <time>2014-01-11T13:27:32Z</time>
      </trkpt>
      <trkpt lat="43.87339" lon="7.38027">
        <ele>1011.1441040039</ele>
        <time>2014-01-11T13:27:37Z</time>
      </trkpt>
      <trkpt lat="43.87338" lon="7.38023">
        <ele>1011.4084472656</ele>
        <time>2014-01-11T13:27:38Z</time>
      </trkpt>
      <trkpt lat="43.87324" lon="7.38014">
        <ele>1005.1584472656</ele>
        <time>2014-01-11T13:27:42Z</time>
      </trkpt>
      <trkpt lat="43.87312" lon="7.38">
        <ele>1002.7699584961</ele>
        <time>2014-01-11T13:27:47Z</time>
      </trkpt>
      <trkpt lat="43.87299" lon="7.37976">
        <ele>998.48773193359</ele>
        <time>2014-01-11T13:27:53Z</time>
      </trkpt>
      <trkpt lat="43.87284" lon="7.37955">
        <ele>991.98834228516</ele>
        <time>2014-01-11T13:27:59Z</time>
      </trkpt>
      <trkpt lat="43.87278" lon="7.37938">
        <ele>993.27862548828</ele>
        <time>2014-01-11T13:28:03Z</time>
      </trkpt>
      <trkpt lat="43.87269" lon="7.37914">
        <ele>995.18695068359</ele>
        <time>2014-01-11T13:28:11Z</time>
      </trkpt>
      <trkpt lat="43.87261" lon="7.37897">
        <ele>993.05914306641</ele>
        <time>2014-01-11T13:28:18Z</time>
      </trkpt>
      <trkpt lat="43.87258" lon="7.37888">
        <ele>992.55798339844</ele>
        <time>2014-01-11T13:28:23Z</time>
      </trkpt>
      <trkpt lat="43.87255" lon="7.37875">
        <ele>993.876953125</ele>
        <time>2014-01-11T13:28:30Z</time>
      </trkpt>
      <trkpt lat="43.87254" lon="7.37859">
        <ele>996.31475830078</ele>
        <time>2014-01-11T13:28:37Z</time>
      </trkpt>
      <trkpt lat="43.87252" lon="7.37844">
        <ele>998.03997802734</ele>
        <time>2014-01-11T13:28:45Z</time>
      </trkpt>
      <trkpt lat="43.8725" lon="7.3783">
        <ele>999.58538818359</ele>
        <time>2014-01-11T13:28:52Z</time>
      </trkpt>
      <trkpt lat="43.87247" lon="7.37813">
        <ele>1001.3015136719</ele>
        <time>2014-01-11T13:29:01Z</time>
      </trkpt>
      <trkpt lat="43.87246" lon="7.378">
        <ele>1002.9006958008</ele>
        <time>2014-01-11T13:29:07Z</time>
      </trkpt>
      <trkpt lat="43.87246" lon="7.37786">
        <ele>1004.9011230469</ele>
        <time>2014-01-11T13:29:13Z</time>
      </trkpt>
      <trkpt lat="43.87245" lon="7.37785">
        <ele>1004.533996582</ele>
        <time>2014-01-11T13:29:22Z</time>
      </trkpt>
      <trkpt lat="43.87245" lon="7.37785">
        <ele>1004.4122314453</ele>
        <time>2014-01-11T13:29:33Z</time>
      </trkpt>
      <trkpt lat="43.87245" lon="7.37786">
        <ele>1004.3477172852</ele>
        <time>2014-01-11T13:29:39Z</time>
      </trkpt>
      <trkpt lat="43.87245" lon="7.37787">
        <ele>1004.0148925781</ele>
        <time>2014-01-11T13:29:45Z</time>
      </trkpt>
      <trkpt lat="43.87245" lon="7.37787">
        <ele>1004.0579833984</ele>
        <time>2014-01-11T13:29:46Z</time>
      </trkpt>
      <trkpt lat="43.87245" lon="7.37785">
        <ele>1004.352722168</ele>
        <time>2014-01-11T13:29:51Z</time>
      </trkpt>
      <trkpt lat="43.87244" lon="7.37779">
        <ele>1004.5715942383</ele>
        <time>2014-01-11T13:29:54Z</time>
      </trkpt>
      <trkpt lat="43.87241" lon="7.3776">
        <ele>1005.6146850586</ele>
        <time>2014-01-11T13:30:02Z</time>
      </trkpt>
      <trkpt lat="43.8724" lon="7.37742">
        <ele>1006.9989013672</ele>
        <time>2014-01-11T13:30:09Z</time>
      </trkpt>
      <trkpt lat="43.87239" lon="7.37731">
        <ele>1007.1019287109</ele>
        <time>2014-01-11T13:30:14Z</time>
      </trkpt>
      <trkpt lat="43.87237" lon="7.37718">
        <ele>1006.5229492188</ele>
        <time>2014-01-11T13:30:20Z</time>
      </trkpt>
      <trkpt lat="43.87237" lon="7.37706">
        <ele>1005.7259521484</ele>
        <time>2014-01-11T13:30:26Z</time>
      </trkpt>
      <trkpt lat="43.87239" lon="7.37689">
        <ele>1004.978515625</ele>
        <time>2014-01-11T13:30:33Z</time>
      </trkpt>
      <trkpt lat="43.8724" lon="7.37674">
        <ele>1003.3598022461</ele>
        <time>2014-01-11T13:30:41Z</time>
      </trkpt>
      <trkpt lat="43.87242" lon="7.3766">
        <ele>1001.4102783203</ele>
        <time>2014-01-11T13:30:48Z</time>
      </trkpt>
      <trkpt lat="43.87245" lon="7.37648">
        <ele>1000.001159668</ele>
        <time>2014-01-11T13:30:55Z</time>
      </trkpt>
      <trkpt lat="43.87253" lon="7.3764">
        <ele>1000.3686523438</ele>
        <time>2014-01-11T13:31:02Z</time>
      </trkpt>
      <trkpt lat="43.87265" lon="7.37634">
        <ele>998.95190429688</ele>
        <time>2014-01-11T13:31:10Z</time>
      </trkpt>
      <trkpt lat="43.87275" lon="7.3763">
        <ele>998.3828125</ele>
        <time>2014-01-11T13:31:17Z</time>
      </trkpt>
      <trkpt lat="43.87293" lon="7.37629">
        <ele>998.19213867188</ele>
        <time>2014-01-11T13:31:27Z</time>
      </trkpt>
      <trkpt lat="43.87312" lon="7.37631">
        <ele>999.04077148438</ele>
        <time>2014-01-11T13:31:36Z</time>
      </trkpt>
      <trkpt lat="43.87328" lon="7.37636">
        <ele>1001.6802368164</ele>
        <time>2014-01-11T13:31:44Z</time>
      </trkpt>
      <trkpt lat="43.87342" lon="7.37642">
        <ele>1003.7453613281</ele>
        <time>2014-01-11T13:31:51Z</time>
      </trkpt>
      <trkpt lat="43.87357" lon="7.37647">
        <ele>1004.8671264648</ele>
        <time>2014-01-11T13:31:59Z</time>
      </trkpt>
      <trkpt lat="43.87361" lon="7.37647">
        <ele>1005.0520629883</ele>
        <time>2014-01-11T13:32:03Z</time>
      </trkpt>
      <trkpt lat="43.87364" lon="7.37648">
        <ele>1005.4225463867</ele>
        <time>2014-01-11T13:32:09Z</time>
      </trkpt>
      <trkpt lat="43.87367" lon="7.37649">
        <ele>1005.7861328125</ele>
        <time>2014-01-11T13:32:15Z</time>
      </trkpt>
      <trkpt lat="43.87377" lon="7.3765">
        <ele>1006.1474609375</ele>
        <time>2014-01-11T13:32:21Z</time>
      </trkpt>
      <trkpt lat="43.87394" lon="7.37648">
        <ele>1005.8092041016</ele>
        <time>2014-01-11T13:32:29Z</time>
      </trkpt>
      <trkpt lat="43.87404" lon="7.37648">
        <ele>1006.2761230469</ele>
        <time>2014-01-11T13:32:34Z</time>
      </trkpt>
      <trkpt lat="43.87421" lon="7.37647">
        <ele>1006.0102539062</ele>
        <time>2014-01-11T13:32:43Z</time>
      </trkpt>
      <trkpt lat="43.87432" lon="7.37644">
        <ele>1004.4996337891</ele>
        <time>2014-01-11T13:32:50Z</time>
      </trkpt>
      <trkpt lat="43.87447" lon="7.37643">
        <ele>1002.9354858398</ele>
        <time>2014-01-11T13:32:58Z</time>
      </trkpt>
      <trkpt lat="43.87458" lon="7.37647">
        <ele>1002.9181518555</ele>
        <time>2014-01-11T13:33:05Z</time>
      </trkpt>
      <trkpt lat="43.8747" lon="7.37657">
        <ele>1004.0466918945</ele>
        <time>2014-01-11T13:33:10Z</time>
      </trkpt>
      <trkpt lat="43.87481" lon="7.37676">
        <ele>1006.3784790039</ele>
        <time>2014-01-11T13:33:16Z</time>
      </trkpt>
      <trkpt lat="43.87488" lon="7.37693">
        <ele>1010.6549682617</ele>
        <time>2014-01-11T13:33:21Z</time>
      </trkpt>
      <trkpt lat="43.87496" lon="7.37689">
        <ele>1007.568359375</ele>
        <time>2014-01-11T13:33:26Z</time>
      </trkpt>
      <trkpt lat="43.87498" lon="7.37688">
        <ele>1006.7315673828</ele>
        <time>2014-01-11T13:33:29Z</time>
      </trkpt>
      <trkpt lat="43.87499" lon="7.37687">
        <ele>1006.1423339844</ele>
        <time>2014-01-11T13:33:31Z</time>
      </trkpt>
      <trkpt lat="43.87502" lon="7.37681">
        <ele>1003.8427734375</ele>
        <time>2014-01-11T13:33:38Z</time>
      </trkpt>
      <trkpt lat="43.87504" lon="7.37677">
        <ele>1002.9614257812</ele>
        <time>2014-01-11T13:33:47Z</time>
      </trkpt>
      <trkpt lat="43.87508" lon="7.37669">
        <ele>1000.9906005859</ele>
        <time>2014-01-11T13:33:56Z</time>
      </trkpt>
      <trkpt lat="43.87513" lon="7.37664">
        <ele>1000.5634765625</ele>
        <time>2014-01-11T13:34:04Z</time>
      </trkpt>
      <trkpt lat="43.87519" lon="7.37659">
        <ele>1000.7719116211</ele>
        <time>2014-01-11T13:34:13Z</time>
      </trkpt>
      <trkpt lat="43.87524" lon="7.37658">
        <ele>1001.6437988281</ele>
        <time>2014-01-11T13:34:19Z</time>
      </trkpt>
      <trkpt lat="43.87531" lon="7.37656">
        <ele>1003.4157714844</ele>
        <time>2014-01-11T13:34:27Z</time>
      </trkpt>
      <trkpt lat="43.87535" lon="7.37657">
        <ele>1004.610168457</ele>
        <time>2014-01-11T13:34:32Z</time>
      </trkpt>
      <trkpt lat="43.87548" lon="7.37658">
        <ele>1008.4663085938</ele>
        <time>2014-01-11T13:34:39Z</time>
      </trkpt>
      <trkpt lat="43.87563" lon="7.3766">
        <ele>1012.3071289062</ele>
        <time>2014-01-11T13:34:46Z</time>
      </trkpt>
      <trkpt lat="43.87579" lon="7.37655">
        <ele>1016.3889160156</ele>
        <time>2014-01-11T13:34:53Z</time>
      </trkpt>
      <trkpt lat="43.87594" lon="7.37654">
        <ele>1023.2809448242</ele>
        <time>2014-01-11T13:34:58Z</time>
      </trkpt>
      <trkpt lat="43.87606" lon="7.37653">
        <ele>1029.8228759766</ele>
        <time>2014-01-11T13:35:03Z</time>
      </trkpt>
      <trkpt lat="43.87608" lon="7.37653">
        <ele>1031.0715332031</ele>
        <time>2014-01-11T13:35:07Z</time>
      </trkpt>
      <trkpt lat="43.8761" lon="7.37653">
        <ele>1032.3572998047</ele>
        <time>2014-01-11T13:35:12Z</time>
      </trkpt>
      <trkpt lat="43.87614" lon="7.37653">
        <ele>1034.7254638672</ele>
        <time>2014-01-11T13:35:18Z</time>
      </trkpt>
      <trkpt lat="43.87616" lon="7.3765">
        <ele>1036.7579345703</ele>
        <time>2014-01-11T13:35:23Z</time>
      </trkpt>
      <trkpt lat="43.87616" lon="7.37646">
        <ele>1037.7055664062</ele>
        <time>2014-01-11T13:35:28Z</time>
      </trkpt>
      <trkpt lat="43.87615" lon="7.37644">
        <ele>1037.6506347656</ele>
        <time>2014-01-11T13:35:33Z</time>
      </trkpt>
      <trkpt lat="43.87607" lon="7.37636">
        <ele>1034.4743652344</ele>
        <time>2014-01-11T13:35:39Z</time>
      </trkpt>
      <trkpt lat="43.87605" lon="7.37635">
        <ele>1033.1947021484</ele>
        <time>2014-01-11T13:35:40Z</time>
      </trkpt>
      <trkpt lat="43.87596" lon="7.37624">
        <ele>1028.0115966797</ele>
        <time>2014-01-11T13:35:47Z</time>
      </trkpt>
      <trkpt lat="43.87594" lon="7.37621">
        <ele>1027.1846923828</ele>
        <time>2014-01-11T13:35:54Z</time>
      </trkpt>
      <trkpt lat="43.87588" lon="7.37614">
        <ele>1022.5305786133</ele>
        <time>2014-01-11T13:36:01Z</time>
      </trkpt>
      <trkpt lat="43.87583" lon="7.37605">
        <ele>1020.2767944336</ele>
        <time>2014-01-11T13:36:09Z</time>
      </trkpt>
      <trkpt lat="43.87583" lon="7.37593">
        <ele>1022.6134643555</ele>
        <time>2014-01-11T13:36:19Z</time>
      </trkpt>
      <trkpt lat="43.87582" lon="7.37586">
        <ele>1023.6243286133</ele>
        <time>2014-01-11T13:36:25Z</time>
      </trkpt>
      <trkpt lat="43.87582" lon="7.37576">
        <ele>1026.8229980469</ele>
        <time>2014-01-11T13:36:34Z</time>
      </trkpt>
      <trkpt lat="43.87582" lon="7.37569">
        <ele>1028.8275146484</ele>
        <time>2014-01-11T13:36:41Z</time>
      </trkpt>
      <trkpt lat="43.87582" lon="7.37558">
        <ele>1032.7196044922</ele>
        <time>2014-01-11T13:36:52Z</time>
      </trkpt>
      <trkpt lat="43.87581" lon="7.37546">
        <ele>1034.5612792969</ele>
        <time>2014-01-11T13:37:01Z</time>
      </trkpt>
      <trkpt lat="43.87582" lon="7.37542">
        <ele>1035.7239990234</ele>
        <time>2014-01-11T13:37:06Z</time>
      </trkpt>
      <trkpt lat="43.87579" lon="7.37525">
        <ele>1037.3645019531</ele>
        <time>2014-01-11T13:37:12Z</time>
      </trkpt>
      <trkpt lat="43.87576" lon="7.37498">
        <ele>1040.7268066406</ele>
        <time>2014-01-11T13:37:18Z</time>
      </trkpt>
      <trkpt lat="43.87572" lon="7.37471">
        <ele>1043.4348144531</ele>
        <time>2014-01-11T13:37:23Z</time>
      </trkpt>
      <trkpt lat="43.87568" lon="7.37454">
        <ele>1045.4534912109</ele>
        <time>2014-01-11T13:37:27Z</time>
      </trkpt>
      <trkpt lat="43.87558" lon="7.37431">
        <ele>1043.4709472656</ele>
        <time>2014-01-11T13:37:33Z</time>
      </trkpt>
      <trkpt lat="43.87554" lon="7.37407">
        <ele>1044.8311767578</ele>
        <time>2014-01-11T13:37:38Z</time>
      </trkpt>
      <trkpt lat="43.87553" lon="7.37384">
        <ele>1049.0881347656</ele>
        <time>2014-01-11T13:37:44Z</time>
      </trkpt>
      <trkpt lat="43.87544" lon="7.37369">
        <ele>1043.7425537109</ele>
        <time>2014-01-11T13:37:49Z</time>
      </trkpt>
      <trkpt lat="43.87536" lon="7.37355">
        <ele>1039.5301513672</ele>
        <time>2014-01-11T13:37:53Z</time>
      </trkpt>
      <trkpt lat="43.87525" lon="7.37335">
        <ele>1035.5119628906</ele>
        <time>2014-01-11T13:37:58Z</time>
      </trkpt>
      <trkpt lat="43.87512" lon="7.37315">
        <ele>1027.7355957031</ele>
        <time>2014-01-11T13:38:03Z</time>
      </trkpt>
      <trkpt lat="43.87511" lon="7.37312">
        <ele>1026.8909912109</ele>
        <time>2014-01-11T13:38:04Z</time>
      </trkpt>
      <trkpt lat="43.87508" lon="7.37308">
        <ele>1025.0233154297</ele>
        <time>2014-01-11T13:38:09Z</time>
      </trkpt>
      <trkpt lat="43.87502" lon="7.37297">
        <ele>1021.3162841797</ele>
        <time>2014-01-11T13:38:15Z</time>
      </trkpt>
      <trkpt lat="43.87498" lon="7.37288">
        <ele>1020.1566162109</ele>
        <time>2014-01-11T13:38:20Z</time>
      </trkpt>
      <trkpt lat="43.87498" lon="7.37282">
        <ele>1020.4614257812</ele>
        <time>2014-01-11T13:38:25Z</time>
      </trkpt>
      <trkpt lat="43.87492" lon="7.37268">
        <ele>1020.2027587891</ele>
        <time>2014-01-11T13:38:31Z</time>
      </trkpt>
      <trkpt lat="43.87488" lon="7.37246">
        <ele>1022.4167480469</ele>
        <time>2014-01-11T13:38:39Z</time>
      </trkpt>
      <trkpt lat="43.87485" lon="7.37227">
        <ele>1024.6324462891</ele>
        <time>2014-01-11T13:38:45Z</time>
      </trkpt>
      <trkpt lat="43.87485" lon="7.37225">
        <ele>1025.0706787109</ele>
        <time>2014-01-11T13:38:48Z</time>
      </trkpt>
      <trkpt lat="43.87484" lon="7.37222">
        <ele>1025.2683105469</ele>
        <time>2014-01-11T13:38:51Z</time>
      </trkpt>
      <trkpt lat="43.87484" lon="7.3722">
        <ele>1025.2678222656</ele>
        <time>2014-01-11T13:38:53Z</time>
      </trkpt>
      <trkpt lat="43.87483" lon="7.37214">
        <ele>1025.4670410156</ele>
        <time>2014-01-11T13:38:57Z</time>
      </trkpt>
      <trkpt lat="43.87482" lon="7.37209">
        <ele>1025.5677490234</ele>
        <time>2014-01-11T13:39:03Z</time>
      </trkpt>
      <trkpt lat="43.87482" lon="7.37209">
        <ele>1025.1247558594</ele>
        <time>2014-01-11T13:39:07Z</time>
      </trkpt>
      <trkpt lat="43.87481" lon="7.37208">
        <ele>1024.8913574219</ele>
        <time>2014-01-11T13:39:22Z</time>
      </trkpt>
      <trkpt lat="43.87481" lon="7.37208">
        <ele>1024.9141845703</ele>
        <time>2014-01-11T13:39:26Z</time>
      </trkpt>
      <trkpt lat="43.87481" lon="7.37208">
        <ele>1024.9655761719</ele>
        <time>2014-01-11T13:39:33Z</time>
      </trkpt>
      <trkpt lat="43.87481" lon="7.37207">
        <ele>1024.9885253906</ele>
        <time>2014-01-11T13:39:37Z</time>
      </trkpt>
      <trkpt lat="43.87481" lon="7.37208">
        <ele>1024.9484863281</ele>
        <time>2014-01-11T13:39:44Z</time>
      </trkpt>
      <trkpt lat="43.87482" lon="7.37207">
        <ele>1025.3657226562</ele>
        <time>2014-01-11T13:39:49Z</time>
      </trkpt>
      <trkpt lat="43.87481" lon="7.37206">
        <ele>1024.8510742188</ele>
        <time>2014-01-11T13:39:53Z</time>
      </trkpt>
      <trkpt lat="43.87481" lon="7.37207">
        <ele>1025.0913085938</ele>
        <time>2014-01-11T13:39:54Z</time>
      </trkpt>
      <trkpt lat="43.87481" lon="7.37207">
        <ele>1024.7884521484</ele>
        <time>2014-01-11T13:39:55Z</time>
      </trkpt>
      <trkpt lat="43.87481" lon="7.37207">
        <ele>1025.0512695312</ele>
        <time>2014-01-11T13:40:02Z</time>
      </trkpt>
      <trkpt lat="43.87478" lon="7.37194">
        <ele>1024.4680175781</ele>
        <time>2014-01-11T13:40:07Z</time>
      </trkpt>
      <trkpt lat="43.87469" lon="7.37174">
        <ele>1022.4194946289</ele>
        <time>2014-01-11T13:40:12Z</time>
      </trkpt>
      <trkpt lat="43.87456" lon="7.37136">
        <ele>1021.0484619141</ele>
        <time>2014-01-11T13:40:17Z</time>
      </trkpt>
      <trkpt lat="43.87434" lon="7.37076">
        <ele>1014.7406616211</ele>
        <time>2014-01-11T13:40:23Z</time>
      </trkpt>
      <trkpt lat="43.87409" lon="7.37004">
        <ele>1004.5384521484</ele>
        <time>2014-01-11T13:40:29Z</time>
      </trkpt>
      <trkpt lat="43.87394" lon="7.36947">
        <ele>995.28100585938</ele>
        <time>2014-01-11T13:40:34Z</time>
      </trkpt>
      <trkpt lat="43.87387" lon="7.36868">
        <ele>995.44891357422</ele>
        <time>2014-01-11T13:40:40Z</time>
      </trkpt>
      <trkpt lat="43.87381" lon="7.36797">
        <ele>987.70538330078</ele>
        <time>2014-01-11T13:40:45Z</time>
      </trkpt>
      <trkpt lat="43.87378" lon="7.36768">
        <ele>984.71716308594</ele>
        <time>2014-01-11T13:40:47Z</time>
      </trkpt>
      <trkpt lat="43.87374" lon="7.36717">
        <ele>981.01739501953</ele>
        <time>2014-01-11T13:40:51Z</time>
      </trkpt>
      <trkpt lat="43.87366" lon="7.36684">
        <ele>979.51409912109</ele>
        <time>2014-01-11T13:40:54Z</time>
      </trkpt>
      <trkpt lat="43.87361" lon="7.36645">
        <ele>979.97735595703</ele>
        <time>2014-01-11T13:40:58Z</time>
      </trkpt>
      <trkpt lat="43.8736" lon="7.36637">
        <ele>979.95501708984</ele>
        <time>2014-01-11T13:40:59Z</time>
      </trkpt>
      <trkpt lat="43.87355" lon="7.3662">
        <ele>980.08618164062</ele>
        <time>2014-01-11T13:41:03Z</time>
      </trkpt>
      <trkpt lat="43.87357" lon="7.36619">
        <ele>980.06890869141</ele>
        <time>2014-01-11T13:41:06Z</time>
      </trkpt>
      <trkpt lat="43.87357" lon="7.36619">
        <ele>980.06372070312</ele>
        <time>2014-01-11T13:41:10Z</time>
      </trkpt>
      <trkpt lat="43.87357" lon="7.3662">
        <ele>980.05706787109</ele>
        <time>2014-01-11T13:41:17Z</time>
      </trkpt>
      <trkpt lat="43.87357" lon="7.3662">
        <ele>980.05230712891</ele>
        <time>2014-01-11T13:41:24Z</time>
      </trkpt>
      <trkpt lat="43.87358" lon="7.3662">
        <ele>980.0419921875</ele>
        <time>2014-01-11T13:41:32Z</time>
      </trkpt>
      <trkpt lat="43.87361" lon="7.36619">
        <ele>979.99456787109</ele>
        <time>2014-01-11T13:41:37Z</time>
      </trkpt>
      <trkpt lat="43.87367" lon="7.36616">
        <ele>979.03961181641</ele>
        <time>2014-01-11T13:41:41Z</time>
      </trkpt>
      <trkpt lat="43.87375" lon="7.36616">
        <ele>977.69610595703</ele>
        <time>2014-01-11T13:41:44Z</time>
      </trkpt>
      <trkpt lat="43.87394" lon="7.36619">
        <ele>972.58966064453</ele>
        <time>2014-01-11T13:41:49Z</time>
      </trkpt>
      <trkpt lat="43.87411" lon="7.36624">
        <ele>962.12182617188</ele>
        <time>2014-01-11T13:41:53Z</time>
      </trkpt>
      <trkpt lat="43.8742" lon="7.3662">
        <ele>957.05334472656</ele>
        <time>2014-01-11T13:41:55Z</time>
      </trkpt>
      <trkpt lat="43.87435" lon="7.36611">
        <ele>950.57049560547</ele>
        <time>2014-01-11T13:41:59Z</time>
      </trkpt>
      <trkpt lat="43.87449" lon="7.36606">
        <ele>944.16967773438</ele>
        <time>2014-01-11T13:42:04Z</time>
      </trkpt>
      <trkpt lat="43.87454" lon="7.36605">
        <ele>942.87878417969</ele>
        <time>2014-01-11T13:42:06Z</time>
      </trkpt>
      <trkpt lat="43.87464" lon="7.36612">
        <ele>942.33264160156</ele>
        <time>2014-01-11T13:42:10Z</time>
      </trkpt>
      <trkpt lat="43.87472" lon="7.36603">
        <ele>937.82507324219</ele>
        <time>2014-01-11T13:42:13Z</time>
      </trkpt>
      <trkpt lat="43.87474" lon="7.36599">
        <ele>936.63836669922</ele>
        <time>2014-01-11T13:42:14Z</time>
      </trkpt>
      <trkpt lat="43.87481" lon="7.36578">
        <ele>931.06292724609</ele>
        <time>2014-01-11T13:42:18Z</time>
      </trkpt>
      <trkpt lat="43.87482" lon="7.36574">
        <ele>930.05242919922</ele>
        <time>2014-01-11T13:42:19Z</time>
      </trkpt>
      <trkpt lat="43.87477" lon="7.36565">
        <ele>927.54534912109</ele>
        <time>2014-01-11T13:42:23Z</time>
      </trkpt>
      <trkpt lat="43.87481" lon="7.36558">
        <ele>925.55554199219</ele>
        <time>2014-01-11T13:42:26Z</time>
      </trkpt>
      <trkpt lat="43.87484" lon="7.36556">
        <ele>925.005859375</ele>
        <time>2014-01-11T13:42:27Z</time>
      </trkpt>
      <trkpt lat="43.87488" lon="7.36551">
        <ele>923.75366210938</ele>
        <time>2014-01-11T13:42:29Z</time>
      </trkpt>
      <trkpt lat="43.87488" lon="7.36541">
        <ele>921.12762451172</ele>
        <time>2014-01-11T13:42:33Z</time>
      </trkpt>
      <trkpt lat="43.87495" lon="7.36536">
        <ele>919.60028076172</ele>
        <time>2014-01-11T13:42:36Z</time>
      </trkpt>
      <trkpt lat="43.87502" lon="7.36524">
        <ele>916.72485351562</ele>
        <time>2014-01-11T13:42:39Z</time>
      </trkpt>
      <trkpt lat="43.8751" lon="7.36521">
        <ele>918.28979492188</ele>
        <time>2014-01-11T13:42:42Z</time>
      </trkpt>
      <trkpt lat="43.87514" lon="7.36508">
        <ele>917.13348388672</ele>
        <time>2014-01-11T13:42:45Z</time>
      </trkpt>
      <trkpt lat="43.87524" lon="7.36498">
        <ele>918.38018798828</ele>
        <time>2014-01-11T13:42:48Z</time>
      </trkpt>
      <trkpt lat="43.87533" lon="7.36491">
        <ele>918.01928710938</ele>
        <time>2014-01-11T13:42:50Z</time>
      </trkpt>
      <trkpt lat="43.87548" lon="7.36466">
        <ele>915.30187988281</ele>
        <time>2014-01-11T13:42:54Z</time>
      </trkpt>
      <trkpt lat="43.87559" lon="7.36457">
        <ele>915.87414550781</ele>
        <time>2014-01-11T13:42:56Z</time>
      </trkpt>
      <trkpt lat="43.87588" lon="7.36442">
        <ele>913.99981689453</ele>
        <time>2014-01-11T13:43:01Z</time>
      </trkpt>
      <trkpt lat="43.876" lon="7.36438">
        <ele>911.45922851562</ele>
        <time>2014-01-11T13:43:05Z</time>
      </trkpt>
      <trkpt lat="43.87601" lon="7.36438">
        <ele>911.32873535156</ele>
        <time>2014-01-11T13:43:12Z</time>
      </trkpt>
      <trkpt lat="43.87601" lon="7.36438">
        <ele>911.25323486328</ele>
        <time>2014-01-11T13:43:15Z</time>
      </trkpt>
      <trkpt lat="43.87611" lon="7.36441">
        <ele>909.67895507812</ele>
        <time>2014-01-11T13:43:19Z</time>
      </trkpt>
      <trkpt lat="43.87631" lon="7.36458">
        <ele>905.88116455078</ele>
        <time>2014-01-11T13:43:24Z</time>
      </trkpt>
      <trkpt lat="43.87639" lon="7.36471">
        <ele>904.00848388672</ele>
        <time>2014-01-11T13:43:26Z</time>
      </trkpt>
      <trkpt lat="43.87672" lon="7.36506">
        <ele>897.72241210938</ele>
        <time>2014-01-11T13:43:32Z</time>
      </trkpt>
      <trkpt lat="43.8769" lon="7.36518">
        <ele>895.68975830078</ele>
        <time>2014-01-11T13:43:35Z</time>
      </trkpt>
      <trkpt lat="43.87725" lon="7.36529">
        <ele>889.86584472656</ele>
        <time>2014-01-11T13:43:40Z</time>
      </trkpt>
      <trkpt lat="43.87732" lon="7.36532">
        <ele>889.05560302734</ele>
        <time>2014-01-11T13:43:41Z</time>
      </trkpt>
      <trkpt lat="43.87769" lon="7.36548">
        <ele>886.05151367188</ele>
        <time>2014-01-11T13:43:46Z</time>
      </trkpt>
      <trkpt lat="43.87783" lon="7.36555">
        <ele>885.43151855469</ele>
        <time>2014-01-11T13:43:48Z</time>
      </trkpt>
      <trkpt lat="43.87802" lon="7.36568">
        <ele>884.09838867188</ele>
        <time>2014-01-11T13:43:51Z</time>
      </trkpt>
      <trkpt lat="43.8784" lon="7.36587">
        <ele>874.70233154297</ele>
        <time>2014-01-11T13:43:56Z</time>
      </trkpt>
      <trkpt lat="43.87864" lon="7.36594">
        <ele>868.24523925781</ele>
        <time>2014-01-11T13:43:59Z</time>
      </trkpt>
      <trkpt lat="43.87886" lon="7.36607">
        <ele>859.25787353516</ele>
        <time>2014-01-11T13:44:03Z</time>
      </trkpt>
      <trkpt lat="43.879" lon="7.36615">
        <ele>855.29156494141</ele>
        <time>2014-01-11T13:44:06Z</time>
      </trkpt>
      <trkpt lat="43.87917" lon="7.36618">
        <ele>849.98876953125</ele>
        <time>2014-01-11T13:44:09Z</time>
      </trkpt>
      <trkpt lat="43.87925" lon="7.36616">
        <ele>847.00128173828</ele>
        <time>2014-01-11T13:44:11Z</time>
      </trkpt>
      <trkpt lat="43.87929" lon="7.3662">
        <ele>845.67706298828</ele>
        <time>2014-01-11T13:44:14Z</time>
      </trkpt>
      <trkpt lat="43.8793" lon="7.36634">
        <ele>845.51184082031</ele>
        <time>2014-01-11T13:44:20Z</time>
      </trkpt>
      <trkpt lat="43.87931" lon="7.36645">
        <ele>845.16925048828</ele>
        <time>2014-01-11T13:44:24Z</time>
      </trkpt>
      <trkpt lat="43.87936" lon="7.36656">
        <ele>842.6083984375</ele>
        <time>2014-01-11T13:44:29Z</time>
      </trkpt>
      <trkpt lat="43.87937" lon="7.36659">
        <ele>841.8603515625</ele>
        <time>2014-01-11T13:44:32Z</time>
      </trkpt>
      <trkpt lat="43.87935" lon="7.36662">
        <ele>842.72607421875</ele>
        <time>2014-01-11T13:44:38Z</time>
      </trkpt>
      <trkpt lat="43.87938" lon="7.36668">
        <ele>840.69079589844</ele>
        <time>2014-01-11T13:44:41Z</time>
      </trkpt>
      <trkpt lat="43.87946" lon="7.36678">
        <ele>837.48980712891</ele>
        <time>2014-01-11T13:44:46Z</time>
      </trkpt>
      <trkpt lat="43.87949" lon="7.36682">
        <ele>837.09344482422</ele>
        <time>2014-01-11T13:44:51Z</time>
      </trkpt>
      <trkpt lat="43.8796" lon="7.36689">
        <ele>835.33697509766</ele>
        <time>2014-01-11T13:44:57Z</time>
      </trkpt>
      <trkpt lat="43.87965" lon="7.36691">
        <ele>834.55517578125</ele>
        <time>2014-01-11T13:44:59Z</time>
      </trkpt>
      <trkpt lat="43.8797" lon="7.3669">
        <ele>833.61254882812</ele>
        <time>2014-01-11T13:45:01Z</time>
      </trkpt>
      <trkpt lat="43.87977" lon="7.36689">
        <ele>831.58178710938</ele>
        <time>2014-01-11T13:45:05Z</time>
      </trkpt>
      <trkpt lat="43.87996" lon="7.36691">
        <ele>827.76348876953</ele>
        <time>2014-01-11T13:45:11Z</time>
      </trkpt>
      <trkpt lat="43.88013" lon="7.36693">
        <ele>825.84320068359</ele>
        <time>2014-01-11T13:45:15Z</time>
      </trkpt>
      <trkpt lat="43.8802" lon="7.36697">
        <ele>825.95104980469</ele>
        <time>2014-01-11T13:45:17Z</time>
      </trkpt>
      <trkpt lat="43.88034" lon="7.36689">
        <ele>821.41168212891</ele>
        <time>2014-01-11T13:45:22Z</time>
      </trkpt>
      <trkpt lat="43.88043" lon="7.36674">
        <ele>815.48223876953</ele>
        <time>2014-01-11T13:45:27Z</time>
      </trkpt>
      <trkpt lat="43.88054" lon="7.36665">
        <ele>811.5244140625</ele>
        <time>2014-01-11T13:45:31Z</time>
      </trkpt>
      <trkpt lat="43.8807" lon="7.36665">
        <ele>809.87127685547</ele>
        <time>2014-01-11T13:45:35Z</time>
      </trkpt>
      <trkpt lat="43.88092" lon="7.36668">
        <ele>808.03082275391</ele>
        <time>2014-01-11T13:45:39Z</time>
      </trkpt>
      <trkpt lat="43.88112" lon="7.36666">
        <ele>804.57830810547</ele>
        <time>2014-01-11T13:45:43Z</time>
      </trkpt>
      <trkpt lat="43.8813" lon="7.36653">
        <ele>797.95294189453</ele>
        <time>2014-01-11T13:45:48Z</time>
      </trkpt>
      <trkpt lat="43.88137" lon="7.3664">
        <ele>793.56506347656</ele>
        <time>2014-01-11T13:45:53Z</time>
      </trkpt>
      <trkpt lat="43.88137" lon="7.36632">
        <ele>791.85595703125</ele>
        <time>2014-01-11T13:45:56Z</time>
      </trkpt>
      <trkpt lat="43.88145" lon="7.36631">
        <ele>790.06341552734</ele>
        <time>2014-01-11T13:46:02Z</time>
      </trkpt>
      <trkpt lat="43.8815" lon="7.36625">
        <ele>788.06768798828</ele>
        <time>2014-01-11T13:46:05Z</time>
      </trkpt>
      <trkpt lat="43.88145" lon="7.36621">
        <ele>788.12390136719</ele>
        <time>2014-01-11T13:46:08Z</time>
      </trkpt>
      <trkpt lat="43.88151" lon="7.36617">
        <ele>786.44635009766</ele>
        <time>2014-01-11T13:46:11Z</time>
      </trkpt>
      <trkpt lat="43.88165" lon="7.36615">
        <ele>783.70837402344</ele>
        <time>2014-01-11T13:46:16Z</time>
      </trkpt>
      <trkpt lat="43.88173" lon="7.36614">
        <ele>782.16650390625</ele>
        <time>2014-01-11T13:46:21Z</time>
      </trkpt>
      <trkpt lat="43.88171" lon="7.36609">
        <ele>781.76715087891</ele>
        <time>2014-01-11T13:46:23Z</time>
      </trkpt>
      <trkpt lat="43.88167" lon="7.36605">
        <ele>781.88732910156</ele>
        <time>2014-01-11T13:46:27Z</time>
      </trkpt>
      <trkpt lat="43.8817" lon="7.36604">
        <ele>781.12341308594</ele>
        <time>2014-01-11T13:46:46Z</time>
      </trkpt>
      <trkpt lat="43.88165" lon="7.36605">
        <ele>782.22717285156</ele>
        <time>2014-01-11T13:46:51Z</time>
      </trkpt>
      <trkpt lat="43.88163" lon="7.36603">
        <ele>781.94055175781</ele>
        <time>2014-01-11T13:46:57Z</time>
      </trkpt>
      <trkpt lat="43.88167" lon="7.36597">
        <ele>780.37670898438</ele>
        <time>2014-01-11T13:47:01Z</time>
      </trkpt>
      <trkpt lat="43.88176" lon="7.36594">
        <ele>778.15368652344</ele>
        <time>2014-01-11T13:47:05Z</time>
      </trkpt>
      <trkpt lat="43.88188" lon="7.36592">
        <ele>775.69036865234</ele>
        <time>2014-01-11T13:47:10Z</time>
      </trkpt>
      <trkpt lat="43.882" lon="7.36579">
        <ele>771.48101806641</ele>
        <time>2014-01-11T13:47:15Z</time>
      </trkpt>
      <trkpt lat="43.88199" lon="7.36569">
        <ele>769.94409179688</ele>
        <time>2014-01-11T13:47:19Z</time>
      </trkpt>
      <trkpt lat="43.88198" lon="7.36566">
        <ele>769.60900878906</ele>
        <time>2014-01-11T13:47:20Z</time>
      </trkpt>
      <trkpt lat="43.88206" lon="7.36558">
        <ele>767.56524658203</ele>
        <time>2014-01-11T13:47:26Z</time>
      </trkpt>
      <trkpt lat="43.88214" lon="7.3655">
        <ele>765.59594726562</ele>
        <time>2014-01-11T13:47:31Z</time>
      </trkpt>
      <trkpt lat="43.88227" lon="7.36537">
        <ele>762.93041992188</ele>
        <time>2014-01-11T13:47:36Z</time>
      </trkpt>
      <trkpt lat="43.88242" lon="7.36521">
        <ele>758.03253173828</ele>
        <time>2014-01-11T13:47:42Z</time>
      </trkpt>
      <trkpt lat="43.88253" lon="7.36505">
        <ele>749.19183349609</ele>
        <time>2014-01-11T13:47:48Z</time>
      </trkpt>
      <trkpt lat="43.88261" lon="7.36488">
        <ele>741.98645019531</ele>
        <time>2014-01-11T13:47:52Z</time>
      </trkpt>
      <trkpt lat="43.88261" lon="7.36486">
        <ele>741.26397705078</ele>
        <time>2014-01-11T13:47:55Z</time>
      </trkpt>
      <trkpt lat="43.88261" lon="7.36484">
        <ele>740.95458984375</ele>
        <time>2014-01-11T13:48:04Z</time>
      </trkpt>
      <trkpt lat="43.88261" lon="7.36484">
        <ele>740.92553710938</ele>
        <time>2014-01-11T13:48:11Z</time>
      </trkpt>
      <trkpt lat="43.88269" lon="7.36475">
        <ele>737.25750732422</ele>
        <time>2014-01-11T13:48:16Z</time>
      </trkpt>
      <trkpt lat="43.88272" lon="7.36472">
        <ele>736.43737792969</ele>
        <time>2014-01-11T13:48:17Z</time>
      </trkpt>
      <trkpt lat="43.88284" lon="7.36454">
        <ele>730.24822998047</ele>
        <time>2014-01-11T13:48:23Z</time>
      </trkpt>
      <trkpt lat="43.88293" lon="7.36439">
        <ele>724.55181884766</ele>
        <time>2014-01-11T13:48:27Z</time>
      </trkpt>
      <trkpt lat="43.883" lon="7.36427">
        <ele>720.03369140625</ele>
        <time>2014-01-11T13:48:31Z</time>
      </trkpt>
      <trkpt lat="43.88298" lon="7.36424">
        <ele>719.41571044922</ele>
        <time>2014-01-11T13:48:32Z</time>
      </trkpt>
      <trkpt lat="43.88292" lon="7.36414">
        <ele>717.705078125</ele>
        <time>2014-01-11T13:48:34Z</time>
      </trkpt>
      <trkpt lat="43.8829" lon="7.36393">
        <ele>712.66339111328</ele>
        <time>2014-01-11T13:48:38Z</time>
      </trkpt>
      <trkpt lat="43.88291" lon="7.3637">
        <ele>706.45819091797</ele>
        <time>2014-01-11T13:48:42Z</time>
      </trkpt>
      <trkpt lat="43.88297" lon="7.36346">
        <ele>698.66204833984</ele>
        <time>2014-01-11T13:48:47Z</time>
      </trkpt>
      <trkpt lat="43.88299" lon="7.36327">
        <ele>691.49182128906</ele>
        <time>2014-01-11T13:48:51Z</time>
      </trkpt>
      <trkpt lat="43.88301" lon="7.36322">
        <ele>689.45861816406</ele>
        <time>2014-01-11T13:48:52Z</time>
      </trkpt>
      <trkpt lat="43.88304" lon="7.36315">
        <ele>686.39483642578</ele>
        <time>2014-01-11T13:48:54Z</time>
      </trkpt>
      <trkpt lat="43.88305" lon="7.36307">
        <ele>682.51751708984</ele>
        <time>2014-01-11T13:48:59Z</time>
      </trkpt>
      <trkpt lat="43.88311" lon="7.36303">
        <ele>680.15319824219</ele>
        <time>2014-01-11T13:49:02Z</time>
      </trkpt>
      <trkpt lat="43.88311" lon="7.36299">
        <ele>678.05743408203</ele>
        <time>2014-01-11T13:49:04Z</time>
      </trkpt>
      <trkpt lat="43.88308" lon="7.36287">
        <ele>672.46533203125</ele>
        <time>2014-01-11T13:49:08Z</time>
      </trkpt>
      <trkpt lat="43.88312" lon="7.36283">
        <ele>669.91375732422</ele>
        <time>2014-01-11T13:49:10Z</time>
      </trkpt>
      <trkpt lat="43.88328" lon="7.36284">
        <ele>668.82177734375</ele>
        <time>2014-01-11T13:49:15Z</time>
      </trkpt>
      <trkpt lat="43.88343" lon="7.36291">
        <ele>669.01184082031</ele>
        <time>2014-01-11T13:49:19Z</time>
      </trkpt>
      <trkpt lat="43.88356" lon="7.36309">
        <ele>668.43127441406</ele>
        <time>2014-01-11T13:49:24Z</time>
      </trkpt>
      <trkpt lat="43.88363" lon="7.36321">
        <ele>667.79479980469</ele>
        <time>2014-01-11T13:49:28Z</time>
      </trkpt>
      <trkpt lat="43.88364" lon="7.36304">
        <ele>664.11254882812</ele>
        <time>2014-01-11T13:49:33Z</time>
      </trkpt>
      <trkpt lat="43.88364" lon="7.36297">
        <ele>662.96496582031</ele>
        <time>2014-01-11T13:49:34Z</time>
      </trkpt>
      <trkpt lat="43.88367" lon="7.36266">
        <ele>657.49749755859</ele>
        <time>2014-01-11T13:49:39Z</time>
      </trkpt>
      <trkpt lat="43.88369" lon="7.36255">
        <ele>655.69305419922</ele>
        <time>2014-01-11T13:49:41Z</time>
      </trkpt>
      <trkpt lat="43.88378" lon="7.36233">
        <ele>653.86138916016</ele>
        <time>2014-01-11T13:49:45Z</time>
      </trkpt>
      <trkpt lat="43.88376" lon="7.36217">
        <ele>650.62780761719</ele>
        <time>2014-01-11T13:49:50Z</time>
      </trkpt>
      <trkpt lat="43.88366" lon="7.36206">
        <ele>645.04595947266</ele>
        <time>2014-01-11T13:49:57Z</time>
      </trkpt>
      <trkpt lat="43.88364" lon="7.36204">
        <ele>644.16729736328</ele>
        <time>2014-01-11T13:49:58Z</time>
      </trkpt>
      <trkpt lat="43.88353" lon="7.36193">
        <ele>640.65612792969</ele>
        <time>2014-01-11T13:50:05Z</time>
      </trkpt>
      <trkpt lat="43.88344" lon="7.36192">
        <ele>640.29736328125</ele>
        <time>2014-01-11T13:50:11Z</time>
      </trkpt>
      <trkpt lat="43.88344" lon="7.36195">
        <ele>640.47705078125</ele>
        <time>2014-01-11T13:50:18Z</time>
      </trkpt>
      <trkpt lat="43.88348" lon="7.36202">
        <ele>642.28576660156</ele>
        <time>2014-01-11T13:50:28Z</time>
      </trkpt>
      <trkpt lat="43.88347" lon="7.36211">
        <ele>644.46875</ele>
        <time>2014-01-11T13:50:34Z</time>
      </trkpt>
      <trkpt lat="43.88346" lon="7.36218">
        <ele>645.96691894531</ele>
        <time>2014-01-11T13:50:37Z</time>
      </trkpt>
      <trkpt lat="43.88348" lon="7.36223">
        <ele>647.37841796875</ele>
        <time>2014-01-11T13:50:41Z</time>
      </trkpt>
      <trkpt lat="43.88351" lon="7.36227">
        <ele>648.5126953125</ele>
        <time>2014-01-11T13:50:45Z</time>
      </trkpt>
      <trkpt lat="43.88355" lon="7.3623">
        <ele>649.86138916016</ele>
        <time>2014-01-11T13:50:54Z</time>
      </trkpt>
      <trkpt lat="43.8836" lon="7.3622">
        <ele>648.24829101562</ele>
        <time>2014-01-11T13:51:00Z</time>
      </trkpt>
      <trkpt lat="43.8838" lon="7.36198">
        <ele>644.86022949219</ele>
        <time>2014-01-11T13:51:16Z</time>
      </trkpt>
      <trkpt lat="43.88383" lon="7.36194">
        <ele>644.21795654297</ele>
        <time>2014-01-11T13:51:26Z</time>
      </trkpt>
      <trkpt lat="43.88387" lon="7.36196">
        <ele>645.31652832031</ele>
        <time>2014-01-11T13:51:37Z</time>
      </trkpt>
      <trkpt lat="43.88394" lon="7.36187">
        <ele>645.61895751953</ele>
        <time>2014-01-11T13:51:52Z</time>
      </trkpt>
      <trkpt lat="43.88399" lon="7.36183">
        <ele>645.97119140625</ele>
        <time>2014-01-11T13:51:58Z</time>
      </trkpt>
      <trkpt lat="43.88401" lon="7.3618">
        <ele>645.67462158203</ele>
        <time>2014-01-11T13:52:06Z</time>
      </trkpt>
      <trkpt lat="43.88407" lon="7.36179">
        <ele>646.83380126953</ele>
        <time>2014-01-11T13:52:14Z</time>
      </trkpt>
      <trkpt lat="43.8841" lon="7.36177">
        <ele>646.20404052734</ele>
        <time>2014-01-11T13:52:24Z</time>
      </trkpt>
      <trkpt lat="43.88411" lon="7.36177">
        <ele>646.13812255859</ele>
        <time>2014-01-11T13:52:25Z</time>
      </trkpt>
      <trkpt lat="43.88416" lon="7.36168">
        <ele>640.87524414062</ele>
        <time>2014-01-11T13:52:29Z</time>
      </trkpt>
      <trkpt lat="43.88431" lon="7.36164">
        <ele>649.56774902344</ele>
        <time>2014-01-11T13:52:36Z</time>
      </trkpt>
      <trkpt lat="43.88435" lon="7.36166">
        <ele>653.15496826172</ele>
        <time>2014-01-11T13:52:38Z</time>
      </trkpt>
      <trkpt lat="43.88451" lon="7.36172">
        <ele>666.01501464844</ele>
        <time>2014-01-11T13:52:44Z</time>
      </trkpt>
      <trkpt lat="43.88455" lon="7.36172">
        <ele>668.19506835938</ele>
        <time>2014-01-11T13:52:49Z</time>
      </trkpt>
      <trkpt lat="43.88457" lon="7.36173">
        <ele>670.05389404297</ele>
        <time>2014-01-11T13:52:52Z</time>
      </trkpt>
      <trkpt lat="43.88473" lon="7.36171">
        <ele>676.85833740234</ele>
        <time>2014-01-11T13:52:57Z</time>
      </trkpt>
      <trkpt lat="43.88489" lon="7.36159">
        <ele>675.54113769531</ele>
        <time>2014-01-11T13:53:01Z</time>
      </trkpt>
      <trkpt lat="43.88505" lon="7.36151">
        <ele>676.26818847656</ele>
        <time>2014-01-11T13:53:05Z</time>
      </trkpt>
      <trkpt lat="43.88534" lon="7.36132">
        <ele>674.65264892578</ele>
        <time>2014-01-11T13:53:13Z</time>
      </trkpt>
      <trkpt lat="43.88559" lon="7.36106">
        <ele>671.71752929688</ele>
        <time>2014-01-11T13:53:21Z</time>
      </trkpt>
      <trkpt lat="43.88578" lon="7.36083">
        <ele>671.31927490234</ele>
        <time>2014-01-11T13:53:27Z</time>
      </trkpt>
      <trkpt lat="43.88597" lon="7.36061">
        <ele>669.94390869141</ele>
        <time>2014-01-11T13:53:34Z</time>
      </trkpt>
      <trkpt lat="43.88609" lon="7.36046">
        <ele>668.7470703125</ele>
        <time>2014-01-11T13:53:40Z</time>
      </trkpt>
      <trkpt lat="43.88626" lon="7.36026">
        <ele>668.37030029297</ele>
        <time>2014-01-11T13:53:46Z</time>
      </trkpt>
      <trkpt lat="43.88629" lon="7.36019">
        <ele>667.74206542969</ele>
        <time>2014-01-11T13:53:50Z</time>
      </trkpt>
      <trkpt lat="43.88636" lon="7.35999">
        <ele>663.63562011719</ele>
        <time>2014-01-11T13:53:55Z</time>
      </trkpt>
      <trkpt lat="43.88649" lon="7.35971">
        <ele>669.18469238281</ele>
        <time>2014-01-11T13:54:00Z</time>
      </trkpt>
      <trkpt lat="43.88654" lon="7.35958">
        <ele>673.79193115234</ele>
        <time>2014-01-11T13:54:02Z</time>
      </trkpt>
      <trkpt lat="43.88676" lon="7.35926">
        <ele>679.35229492188</ele>
        <time>2014-01-11T13:54:07Z</time>
      </trkpt>
      <trkpt lat="43.88688" lon="7.35915">
        <ele>679.76599121094</ele>
        <time>2014-01-11T13:54:09Z</time>
      </trkpt>
      <trkpt lat="43.88715" lon="7.35884">
        <ele>680</ele>
        <time>2014-01-11T13:54:14Z</time>
      </trkpt>
      <trkpt lat="43.88739" lon="7.35865">
        <ele>680</ele>
        <time>2014-01-11T13:54:19Z</time>
      </trkpt>
      <trkpt lat="43.88737" lon="7.35855">
        <ele>681.21270751953</ele>
        <time>2014-01-11T13:54:21Z</time>
      </trkpt>
      <trkpt lat="43.88728" lon="7.35856">
        <ele>681.19079589844</ele>
        <time>2014-01-11T13:54:23Z</time>
      </trkpt>
      <trkpt lat="43.88706" lon="7.35869">
        <ele>680</ele>
        <time>2014-01-11T13:54:27Z</time>
      </trkpt>
      <trkpt lat="43.88681" lon="7.35882">
        <ele>680.91766357422</ele>
        <time>2014-01-11T13:54:31Z</time>
      </trkpt>
      <trkpt lat="43.88659" lon="7.35912">
        <ele>679.88610839844</ele>
        <time>2014-01-11T13:54:35Z</time>
      </trkpt>
      <trkpt lat="43.88654" lon="7.3592">
        <ele>678.58111572266</ele>
        <time>2014-01-11T13:54:36Z</time>
      </trkpt>
      <trkpt lat="43.88634" lon="7.35933">
        <ele>677.93011474609</ele>
        <time>2014-01-11T13:54:39Z</time>
      </trkpt>
      <trkpt lat="43.88609" lon="7.35957">
        <ele>680.16278076172</ele>
        <time>2014-01-11T13:54:43Z</time>
      </trkpt>
      <trkpt lat="43.88593" lon="7.3597">
        <ele>682.51000976562</ele>
        <time>2014-01-11T13:54:45Z</time>
      </trkpt>
      <trkpt lat="43.8857" lon="7.35987">
        <ele>683.05792236328</ele>
        <time>2014-01-11T13:54:48Z</time>
      </trkpt>
      <trkpt lat="43.88538" lon="7.36006">
        <ele>676.32159423828</ele>
        <time>2014-01-11T13:54:52Z</time>
      </trkpt>
      <trkpt lat="43.88524" lon="7.36018">
        <ele>669.884765625</ele>
        <time>2014-01-11T13:54:55Z</time>
      </trkpt>
      <trkpt lat="43.88522" lon="7.3602">
        <ele>668.30358886719</ele>
        <time>2014-01-11T13:54:57Z</time>
      </trkpt>
    </trkseg>
  </trk>
</gpx>